# Wetter Temperatur Luftdruck Luftfeuchtigkeit Sichtweite Windgeschwindigkeit Windrichtung Zeit
1 Mist 10 999 93 5000 2.06 180 08:27 16.05.2021
2 Mist 9 999 93 5000 2.06 180 07:55 16.05.2021
3 Mist 9 999 100 5000 2.57 170 07:25 16.05.2021
4 Fog 9 999 93 2000 2.06 150 05:37 16.05.2021
5 Clouds 9 1000 100 100 2.06 100 00:52 16.05.2021
6 Clouds 9 1001 93 100 1.54 100 00:18 16.05.2021
7 Fog 10 1001 100 5000 2.57 80 23:23 15.05.2021
8 Fog 10 1001 100 5000 2.57 80 22:59 15.05.2021
9 Clouds 10 1001 93 6000 2.57 80 22:28 15.05.2021
10 Clouds 9 1001 93 6000 2.57 80 21:43 15.05.2021
11 Clouds 10 1001 93 10000 2.06 110 21:21 15.05.2021
12 Clouds 10 1001 93 10000 2.06 110 20:45 15.05.2021
13 Clouds 10 1001 93 9000 2.06 100 20:21 15.05.2021
14 Clouds 10 1001 93 6000 3.09 60 19:42 15.05.2021
15 Clouds 11 1002 87 4000 2.57 140 18:48 15.05.2021
16 Clouds 11 1002 82 3000 2.57 40 18:21 15.05.2021
17 Clouds 12 1002 82 10000 3.6 40 17:42 15.05.2021
18 Clouds 12 1002 76 10000 3.6 40 16:50 15.05.2021
19 Clouds 12 1002 71 10000 2.06 130 16:27 15.05.2021
20 Clouds 12 1002 71 10000 2.06 130 15:59 15.05.2021
21 Clouds 12 1003 76 10000 3.09 140 15:22 15.05.2021
22 Clouds 11 1003 76 10000 3.09 140 14:45 15.05.2021
23 Clouds 11 1004 76 8000 2.06 140 14:26 15.05.2021
24 Clouds 11 1004 76 8000 2.06 140 13:37 15.05.2021
25 Clouds 12 1004 76 10000 1.03 120 12:49 15.05.2021
26 Clouds 12 1005 71 10000 0.51 140 11:53 15.05.2021
27 Clouds 12 1005 76 10000 2.06 180 10:59 15.05.2021
28 Clouds 9 1005 81 10000 2.06 250 10:31 15.05.2021
29 Clouds 10 1005 81 10000 2.06 250 09:44 15.05.2021
30 Clouds 10 1005 81 10000 3.09 210 08:35 15.05.2021
31 Clouds 9 1005 87 10000 1.03 220 07:53 15.05.2021
32 Clouds 9 1005 87 10000 1.03 260 07:22 15.05.2021
33 Clouds 9 1005 87 10000 1.03 260 06:51 15.05.2021
34 Clouds 8 1005 87 10000 2.06 280 05:37 15.05.2021
35 Clouds 8 1006 87 7000 2.57 260 03:26 15.05.2021
36 Clouds 9 1007 87 7000 2.57 260 00:20 15.05.2021
37 Clouds 9 1007 93 10000 3.09 290 23:29 14.05.2021
38 Clouds 9 1007 93 10000 4.12 290 22:28 14.05.2021
39 Rain 9 1007 93 10000 4.12 290 21:56 14.05.2021
40 Rain 9 1007 93 8000 3.6 290 21:28 14.05.2021
41 Rain 9 1007 93 8000 3.6 290 20:55 14.05.2021
42 Rain 9 1007 87 8000 4.12 290 20:27 14.05.2021
43 Rain 9 1007 93 6000 4.63 290 19:48 14.05.2021
44 Rain 9 1007 93 5000 4.12 300 19:26 14.05.2021
45 Rain 10 1007 93 5000 4.12 300 18:46 14.05.2021
46 Rain 10 1007 87 5000 4.63 290 18:24 14.05.2021
47 Rain 10 1007 87 5000 4.63 290 17:41 14.05.2021
48 Rain 10 1007 87 10000 4.63 290 17:21 14.05.2021
49 Rain 9 1007 87 10000 4.63 290 16:43 14.05.2021
50 Rain 9 1007 93 9000 5.66 290 16:25 14.05.2021
51 Rain 10 1007 87 10000 6.17 280 15:25 14.05.2021
52 Rain 10 1006 87 10000 6.17 280 14:41 14.05.2021
53 Rain 10 1006 87 10000 6.17 280 13:54 14.05.2021
54 Rain 10 1006 87 10000 6.17 280 13:30 14.05.2021
55 Clouds 9 1006 87 10000 6.17 280 12:48 14.05.2021
56 Clouds 9 1006 87 10000 5.66 290 12:28 14.05.2021
57 Clouds 9 1006 87 10000 5.66 290 11:33 14.05.2021
58 Clouds 9 1006 87 10000 5.66 290 10:58 14.05.2021
59 Rain 9 1006 87 10000 5.66 290 10:37 14.05.2021
60 Rain 9 1006 87 10000 4.63 280 09:46 14.05.2021
61 Rain 9 1005 87 10000 3.6 290 09:28 14.05.2021
62 Rain 8 1005 87 10000 3.6 290 08:44 14.05.2021
63 Rain 9 1005 87 10000 3.09 290 07:53 14.05.2021
64 Rain 8 1005 93 10000 4.12 290 06:46 14.05.2021
65 Clouds 8 1005 93 6000 4.12 290 03:36 14.05.2021
66 Clouds 8 1006 93 7000 3.6 290 02:29 14.05.2021
67 Clouds 7 1006 93 7000 4.12 290 00:36 14.05.2021
68 Clouds 8 1006 93 6000 3.6 310 23:48 13.05.2021
69 Clouds 8 1006 100 10000 3.6 330 23:20 13.05.2021
70 Clouds 8 1006 100 10000 3.6 330 22:46 13.05.2021
71 Clouds 8 1006 93 8000 3.09 330 22:28 13.05.2021
72 Clouds 8 1007 89 10000 4.28 332 21:47 13.05.2021
73 Clouds 8 1006 93 8000 3.6 340 21:27 13.05.2021
74 Clouds 8 1006 89 10000 4.98 343 20:52 13.05.2021
75 Clouds 8 1006 89 10000 4.98 343 20:52 13.05.2021
76 Clouds 8 1006 89 10000 4.98 343 20:33 13.05.2021
77 Clouds 8 1007 89 10000 5.05 340 19:45 13.05.2021
78 Clouds 8 1007 89 10000 4.9 351 19:22 13.05.2021
79 Clouds 9 1007 89 10000 4.9 351 18:56 13.05.2021
80 Rain 9 1007 89 10000 4.9 351 18:31 13.05.2021
81 Rain 9 1007 89 10000 4.9 351 18:31 13.05.2021
82 Rain 9 1007 90 10000 5.16 352 17:57 13.05.2021
83 Rain 9 1007 90 10000 5.16 352 17:38 13.05.2021
84 Rain 9 1007 92 10000 5.47 350 17:19 13.05.2021
85 Clouds 9 1007 92 10000 5.47 350 16:37 13.05.2021
86 Clouds 9 1008 94 10000 5.65 346 16:18 13.05.2021
87 Clouds 8 1008 94 10000 5.65 346 15:45 13.05.2021
88 Clouds 8 1008 95 10000 5.25 345 15:21 13.05.2021
89 Clouds 9 1008 96 10000 5.12 349 14:47 13.05.2021
90 Clouds 9 1008 95 10000 4.73 350 14:28 13.05.2021
91 Clouds 9 1008 95 10000 4.73 350 13:47 13.05.2021
92 Clouds 9 1009 93 10000 4.24 345 13:29 13.05.2021
93 Clouds 9 1009 93 10000 4.24 345 12:58 13.05.2021
94 Clouds 9 1009 93 10000 4.24 345 12:39 13.05.2021
95 Clouds 9 1009 93 10000 4.07 341 11:56 13.05.2021
96 Clouds 9 1009 93 10000 4.07 341 11:35 13.05.2021
97 Clouds 9 1009 92 10000 3.74 341 10:54 13.05.2021
98 Clouds 9 1009 92 10000 3.74 341 10:33 13.05.2021
99 Clouds 8 1009 92 10000 3.49 344 09:41 13.05.2021
100 Clouds 8 1009 92 10000 3.56 346 09:20 13.05.2021
101 Clouds 8 1009 91 10000 3.44 342 08:29 13.05.2021
102 Clouds 8 1009 91 10000 3.44 342 07:52 13.05.2021
103 Clouds 8 1009 90 10000 3.58 351 06:45 13.05.2021
104 Clouds 8 1009 89 10000 3.55 346 05:48 13.05.2021
105 Clouds 8 1010 93 5000 1.54 300 02:38 13.05.2021
106 Clouds 8 1011 87 10000 3.98 326 00:27 13.05.2021
107 Clouds 9 1011 87 10000 3.98 326 23:36 12.05.2021
108 Clouds 10 1011 87 10000 3.97 328 22:53 12.05.2021
109 Clouds 10 1011 87 10000 4.76 328 22:18 12.05.2021
110 Clouds 11 1011 87 10000 4.76 328 21:46 12.05.2021
111 Clouds 12 1011 90 10000 4.65 323 20:57 12.05.2021
112 Clouds 12 1011 90 10000 4.65 323 20:30 12.05.2021
113 Clouds 12 1011 90 10000 4.97 307 19:49 12.05.2021
114 Clouds 12 1011 91 10000 4.8 298 18:50 12.05.2021
115 Clouds 12 1011 92 10000 5.33 293 18:24 12.05.2021
116 Clouds 12 1011 92 10000 5.33 293 17:51 12.05.2021
117 Clouds 12 1011 92 10000 5.33 293 17:33 12.05.2021
118 Clouds 12 1011 92 10000 5.37 293 16:41 12.05.2021
119 Clouds 12 1011 92 10000 5.49 290 16:21 12.05.2021
120 Clouds 13 1010 82 8000 5.66 300 15:40 12.05.2021
121 Clouds 13 1010 77 10000 5.14 300 14:57 12.05.2021
122 Clouds 13 1010 77 10000 6.17 290 14:34 12.05.2021
123 Clouds 13 1010 87 10000 6.69 300 13:48 12.05.2021
124 Clouds 13 1009 87 9000 6.69 300 13:21 12.05.2021
125 Clouds 13 1009 87 9000 6.69 300 12:35 12.05.2021
126 Clouds 12 1009 93 9000 5.66 300 11:47 12.05.2021
127 Clouds 12 1009 87 9000 7.72 280 11:24 12.05.2021
128 Clouds 12 1009 87 9000 7.72 280 10:58 12.05.2021
129 Clouds 12 1009 87 9000 7.72 280 10:58 12.05.2021
130 Clouds 11 1009 93 10000 7.2 280 10:28 12.05.2021
131 Clouds 11 1008 87 10000 5.14 270 09:44 12.05.2021
132 Clouds 11 1008 93 10000 5.14 270 09:26 12.05.2021
133 Clouds 11 1008 93 10000 5.14 270 08:46 12.05.2021
134 Clouds 11 1008 93 9000 4.12 280 08:27 12.05.2021
135 Clouds 10 1007 93 6000 5.14 280 07:28 12.05.2021
136 Clouds 10 1007 87 7000 2.06 330 04:20 12.05.2021
137 Clouds 10 1008 87 8000 2.57 330 00:46 12.05.2021
138 Rain 10 1008 87 10000 1.54 320 00:27 12.05.2021
139 Rain 11 1008 87 10000 1.54 320 23:46 11.05.2021
140 Rain 11 1008 93 10000 3.09 10 23:28 11.05.2021
141 Rain 11 1008 93 10000 3.09 10 22:47 11.05.2021
142 Clouds 11 1008 93 10000 2.57 360 22:20 11.05.2021
143 Rain 11 1008 93 10000 2.57 360 21:52 11.05.2021
144 Rain 11 1008 93 10000 2.57 360 21:33 11.05.2021
145 Rain 11 1008 93 10000 2.57 360 21:33 11.05.2021
146 Rain 11 1008 87 10000 4.12 30 20:55 11.05.2021
147 Rain 11 1008 87 10000 4.12 30 20:37 11.05.2021
148 Clouds 11 1008 87 10000 3.09 10 20:19 11.05.2021
149 Clouds 11 1008 87 10000 3.09 10 19:38 11.05.2021
150 Clouds 11 1008 87 10000 3.09 10 19:20 11.05.2021
151 Clouds 11 1008 87 10000 3.09 10 18:43 11.05.2021
152 Clouds 11 1009 82 10000 2.57 30 18:24 11.05.2021
153 Rain 11 1009 82 10000 2.57 30 17:38 11.05.2021
154 Rain 11 1009 82 10000 2.57 30 17:38 11.05.2021
155 Clouds 12 1009 76 10000 3.09 20 17:19 11.05.2021
156 Rain 12 1009 76 10000 3.09 20 16:41 11.05.2021
157 Rain 12 1009 76 10000 6.69 50 16:20 11.05.2021
158 Clouds 12 1009 76 10000 6.69 50 15:42 11.05.2021
159 Clouds 12 1009 76 10000 3.09 50 15:19 11.05.2021
160 Clouds 13 1009 76 10000 3.09 50 14:43 11.05.2021
161 Clouds 13 1009 87 10000 3.09 20 14:22 11.05.2021
162 Clouds 13 1009 87 10000 3.09 20 13:42 11.05.2021
163 Clouds 13 1009 87 10000 2.06 50 13:21 11.05.2021
164 Clouds 12 1009 87 10000 4.63 50 12:51 11.05.2021
165 Clouds 12 1009 87 10000 4.63 50 12:27 11.05.2021
166 Clouds 12 1009 87 10000 4.63 50 11:49 11.05.2021
167 Clouds 12 1010 87 10000 4.63 80 11:27 11.05.2021
168 Rain 13 1010 87 10000 4.63 80 10:54 11.05.2021
169 Clouds 12 1010 93 10000 4.12 90 10:29 11.05.2021
170 Rain 12 1010 93 10000 4.12 90 09:58 11.05.2021
171 Rain 12 1010 93 10000 4.12 90 09:38 11.05.2021
172 Rain 12 1010 93 9000 3.6 100 09:19 11.05.2021
173 Rain 11 1010 93 9000 3.6 100 08:46 11.05.2021
174 Rain 12 1010 93 8000 4.12 100 08:26 11.05.2021
175 Rain 12 1010 93 6000 4.63 90 07:52 11.05.2021
176 Rain 12 1010 93 5000 4.12 110 07:24 11.05.2021
177 Clouds 13 1010 82 7000 2.57 100 02:22 11.05.2021
178 Clouds 13 1009 88 7000 2.57 80 00:54 11.05.2021
179 Clouds 13 1009 88 7000 2.57 80 00:35 11.05.2021
180 Clouds 13 1010 88 10000 3.09 80 23:43 10.05.2021
181 Clouds 13 1009 88 10000 2.57 80 23:21 10.05.2021
182 Clouds 13 1009 88 10000 2.57 80 22:43 10.05.2021
183 Clouds 14 1009 82 10000 2.57 80 22:19 10.05.2021
184 Clouds 14 1009 82 10000 2.57 80 21:47 10.05.2021
185 Clouds 15 1009 72 10000 1.54 350 21:26 10.05.2021
186 Clouds 15 1009 72 10000 1.54 350 20:43 10.05.2021
187 Clouds 16 1008 72 10000 1.03 0 20:20 10.05.2021
188 Clouds 16 1008 72 10000 1.03 0 19:45 10.05.2021
189 Clouds 17 1008 67 10000 3.09 270 19:24 10.05.2021
190 Clouds 17 1008 67 10000 3.09 270 18:55 10.05.2021
191 Clouds 16 1007 67 10000 4.63 270 18:26 10.05.2021
192 Clouds 16 1007 67 10000 4.63 270 17:46 10.05.2021
193 Clouds 16 1007 63 10000 5.66 270 17:28 10.05.2021
194 Clouds 16 1007 63 10000 5.66 270 16:52 10.05.2021
195 Clouds 16 1006 72 10000 6.17 270 16:26 10.05.2021
196 Clouds 16 1006 72 10000 6.17 270 15:41 10.05.2021
197 Clouds 20 1004 56 10000 6.69 240 15:22 10.05.2021
198 Clouds 20 1004 56 10000 6.69 240 14:53 10.05.2021
199 Clouds 21 1003 52 10000 6.69 250 14:25 10.05.2021
200 Clouds 21 1003 52 10000 6.69 250 13:49 10.05.2021
201 Clouds 24 1002 43 10000 8.23 210 12:52 10.05.2021
202 Clouds 23 1001 43 10000 7.72 200 12:31 10.05.2021
203 Clouds 23 1001 43 10000 7.72 200 11:49 10.05.2021
204 Clouds 23 1001 40 10000 6.69 190 11:29 10.05.2021
205 Clouds 23 1001 40 10000 6.69 190 10:51 10.05.2021
206 Clouds 22 1001 43 10000 5.14 190 10:32 10.05.2021
207 Clouds 22 1001 43 10000 5.14 190 09:54 10.05.2021
208 Clouds 20 1000 49 10000 4.12 180 09:30 10.05.2021
209 Clouds 20 1000 49 10000 4.12 180 08:41 10.05.2021
210 Clouds 17 1000 59 10000 3.6 130 08:19 10.05.2021
211 Clouds 17 1000 59 10000 3.6 130 07:43 10.05.2021
212 Clouds 14 1000 63 10000 1.54 160 07:25 10.05.2021
213 Clouds 14 1000 63 10000 1.54 160 06:47 10.05.2021
214 Clouds 16 1000 59 8000 2.06 240 02:19 10.05.2021
215 Clouds 22 1000 49 10000 4.12 160 00:19 10.05.2021
216 Clouds 23 1000 46 10000 3.09 170 22:47 09.05.2021
217 Clouds 23 1000 46 10000 4.12 190 22:22 09.05.2021
218 Clouds 23 1000 46 10000 4.12 190 21:55 09.05.2021
219 Clouds 23 1000 46 10000 4.12 190 21:36 09.05.2021
220 Clouds 22 999 56 10000 3.09 140 20:49 09.05.2021
221 Clouds 22 999 56 10000 3.6 120 20:31 09.05.2021
222 Clouds 22 999 56 10000 3.6 120 19:45 09.05.2021
223 Clouds 21 1000 56 10000 4.12 100 19:26 09.05.2021
224 Clouds 20 1000 56 10000 4.12 100 18:49 09.05.2021
225 Clouds 20 1002 52 10000 4.12 120 18:26 09.05.2021
226 Clouds 20 1002 52 10000 4.12 120 17:37 09.05.2021
227 Rain 19 1002 68 10000 3.09 120 16:44 09.05.2021
228 Rain 22 1002 46 10000 4.12 130 16:23 09.05.2021
229 Clouds 21 1004 49 10000 3.09 210 15:24 09.05.2021
230 Clouds 21 1004 49 10000 3.09 210 14:58 09.05.2021
231 Rain 22 1003 40 10000 4.63 180 14:26 09.05.2021
232 Rain 20 1004 46 10000 4.12 200 13:43 09.05.2021
233 Clouds 22 1004 49 10000 5.66 190 12:55 09.05.2021
234 Clouds 20 1004 60 10000 5.66 180 12:27 09.05.2021
235 Clouds 20 1004 60 10000 5.66 180 11:39 09.05.2021
236 Clouds 18 1004 63 10000 5.14 180 11:19 09.05.2021
237 Clouds 18 1004 63 10000 5.14 180 10:40 09.05.2021
238 Clouds 16 1005 67 10000 4.12 180 09:48 09.05.2021
239 Clouds 14 1005 72 10000 4.63 180 09:24 09.05.2021
240 Clouds 14 1005 72 10000 4.63 180 08:54 09.05.2021
241 Clouds 12 1005 76 10000 4.12 180 08:30 09.05.2021
242 Clouds 11 1005 76 10000 4.12 180 07:50 09.05.2021
243 Clouds 11 1005 82 10000 3.6 170 06:53 09.05.2021
244 Clouds 12 1002 84 10000 1.34 202 04:45 09.05.2021
245 Clouds 9 1006 93 7000 6.69 150 00:51 09.05.2021
246 Rain 9 1007 93 3600 6.17 150 23:37 08.05.2021
247 Rain 9 1007 93 5000 6.69 140 22:58 08.05.2021
248 Rain 9 1007 93 5000 6.69 140 22:39 08.05.2021
249 Rain 9 1008 93 3500 6.69 140 22:19 08.05.2021
250 Rain 8 1009 93 4000 5.66 140 21:44 08.05.2021
251 Rain 8 1010 87 6000 4.12 140 21:18 08.05.2021
252 Rain 8 1010 87 6000 4.12 140 20:43 08.05.2021
253 Rain 8 1011 81 7000 4.63 150 20:19 08.05.2021
254 Rain 9 1011 62 8000 4.63 180 19:23 08.05.2021
255 Rain 10 1011 62 8000 4.63 180 18:53 08.05.2021
256 Rain 10 1011 62 8000 4.63 180 18:35 08.05.2021
257 Rain 11 1011 47 10000 4.63 180 17:51 08.05.2021
258 Rain 12 1012 41 10000 5.66 170 17:21 08.05.2021
259 Rain 13 1012 38 10000 5.14 160 16:31 08.05.2021
260 Rain 13 1012 38 10000 5.14 160 15:51 08.05.2021
261 Rain 13 1013 38 10000 4.63 170 15:31 08.05.2021
262 Clouds 13 1013 38 10000 4.63 170 14:49 08.05.2021
263 Clouds 13 1014 47 10000 3.09 180 14:20 08.05.2021
264 Clouds 12 1014 47 10000 3.09 180 13:51 08.05.2021
265 Clouds 12 1015 50 10000 4.12 230 13:20 08.05.2021
266 Clouds 11 1015 50 10000 4.12 230 12:33 08.05.2021
267 Clouds 11 1016 57 10000 3.6 200 11:42 08.05.2021
268 Clouds 11 1016 66 10000 4.12 220 10:59 08.05.2021
269 Clouds 9 1016 66 10000 4.12 220 10:41 08.05.2021
270 Clouds 9 1016 66 10000 4.12 220 10:41 08.05.2021
271 Clouds 8 1016 76 10000 2.57 230 10:21 08.05.2021
272 Clouds 8 1016 76 10000 2.57 230 09:48 08.05.2021
273 Clouds 7 1016 81 10000 2.57 220 09:27 08.05.2021
274 Clouds 5 1016 87 10000 3.09 210 08:25 08.05.2021
275 Clouds 5 1016 87 10000 3.09 210 07:41 08.05.2021
276 Clouds 5 1016 93 10000 3.09 210 06:53 08.05.2021
277 Clouds 5 1016 93 10000 3.09 210 06:53 08.05.2021
278 Clouds 5 1016 87 10000 2.57 220 05:25 08.05.2021
279 Clouds 8 1016 70 10000 4.63 270 01:54 08.05.2021
280 Clouds 7 1016 81 10000 5.14 280 00:51 08.05.2021
281 Clouds 8 1015 70 10000 6.69 280 00:29 08.05.2021
282 Clouds 8 1015 70 10000 7.72 290 23:30 07.05.2021
283 Clouds 8 1015 70 10000 7.72 290 22:50 07.05.2021
284 Clouds 8 1015 76 10000 8.75 290 22:20 07.05.2021
285 Clouds 8 1015 76 10000 8.75 290 21:39 07.05.2021
286 Clouds 8 1014 76 10000 8.75 280 21:21 07.05.2021
287 Clouds 8 1014 76 10000 8.75 280 20:42 07.05.2021
288 Clouds 9 1014 71 10000 9.26 280 20:21 07.05.2021
289 Clouds 9 1014 71 10000 9.26 280 19:44 07.05.2021
290 Clouds 9 1013 76 10000 9.77 300 19:26 07.05.2021
291 Clouds 9 1013 76 10000 9.77 300 18:43 07.05.2021
292 Clouds 10 1013 61 10000 10.8 290 18:25 07.05.2021
293 Clouds 10 1012 57 10000 10.29 280 17:25 07.05.2021
294 Clouds 10 1012 57 10000 10.29 280 17:00 07.05.2021
295 Clouds 10 1012 57 10000 10.29 280 16:39 07.05.2021
296 Clouds 10 1012 53 10000 10.8 290 15:59 07.05.2021
297 Clouds 10 1012 53 10000 10.8 290 15:40 07.05.2021
298 Clouds 10 1011 57 10000 9.77 290 15:21 07.05.2021
299 Clouds 10 1011 57 10000 9.77 290 14:33 07.05.2021
300 Clouds 10 1011 66 10000 9.77 290 13:55 07.05.2021
301 Clouds 10 1010 71 10000 8.23 280 13:24 07.05.2021
302 Clouds 10 1010 71 10000 8.23 280 12:49 07.05.2021
303 Clouds 9 1009 65 10000 7.2 300 12:28 07.05.2021
304 Clouds 9 1009 65 10000 7.2 300 12:28 07.05.2021
305 Clouds 8 1009 65 10000 7.2 300 11:52 07.05.2021
306 Clouds 8 1009 81 10000 6.69 280 11:27 07.05.2021
307 Clouds 8 1009 81 10000 6.69 280 10:44 07.05.2021
308 Clouds 8 1008 76 10000 5.66 270 10:23 07.05.2021
309 Clouds 7 1008 75 10000 5.66 270 09:55 07.05.2021
310 Clouds 6 1007 81 10000 5.14 260 08:57 07.05.2021
311 Clouds 6 1007 81 10000 5.14 260 08:36 07.05.2021
312 Clouds 4 1007 87 10000 2.57 240 07:34 07.05.2021
313 Clouds 4 1007 87 10000 2.57 240 07:34 07.05.2021
314 Clouds 4 1006 87 10000 2.57 240 06:45 07.05.2021
315 Clouds 4 1005 81 10000 6.69 290 04:57 07.05.2021
316 Clouds 5 1005 81 10000 0.51 250 01:30 07.05.2021
317 Clouds 5 1005 75 10000 0.51 360 23:18 06.05.2021
318 Clouds 7 1005 65 10000 2.06 360 22:32 06.05.2021
319 Clouds 7 1005 65 10000 2.06 360 21:43 06.05.2021
320 Clouds 7 1004 65 10000 2.06 300 20:48 06.05.2021
321 Clouds 8 1004 53 10000 3.09 310 20:25 06.05.2021
322 Clouds 9 1004 53 10000 3.09 310 19:54 06.05.2021
323 Clouds 9 1004 57 10000 4.12 310 19:26 06.05.2021
324 Clouds 9 1004 57 10000 4.12 310 18:58 06.05.2021
325 Clouds 9 1004 57 10000 4.12 310 18:35 06.05.2021
326 Clouds 9 1004 46 10000 6.17 320 17:51 06.05.2021
327 Clouds 9 1004 53 10000 7.2 300 17:29 06.05.2021
328 Clouds 10 1004 53 10000 7.2 300 16:57 06.05.2021
329 Clouds 10 1004 53 10000 7.2 300 16:35 06.05.2021
330 Clouds 10 1005 43 10000 7.72 290 15:59 06.05.2021
331 Clouds 10 1005 43 10000 7.72 290 15:40 06.05.2021
332 Clouds 10 1005 43 10000 7.72 290 15:40 06.05.2021
333 Clouds 10 1004 57 10000 7.72 300 15:18 06.05.2021
334 Clouds 10 1005 57 10000 9.26 290 14:25 06.05.2021
335 Clouds 10 1005 57 10000 9.26 290 13:53 06.05.2021
336 Clouds 10 1004 61 10000 8.23 280 13:24 06.05.2021
337 Clouds 10 1004 61 10000 8.23 280 12:47 06.05.2021
338 Clouds 10 1004 61 10000 10.29 280 12:24 06.05.2021
339 Clouds 9 1004 61 10000 10.29 280 11:48 06.05.2021
340 Clouds 9 1004 70 10000 7.72 260 11:24 06.05.2021
341 Clouds 8 1004 70 10000 7.72 260 10:51 06.05.2021
342 Clouds 8 1004 70 10000 7.72 270 10:27 06.05.2021
343 Clouds 8 1004 70 10000 7.72 270 09:46 06.05.2021
344 Clouds 7 1003 75 10000 7.72 260 09:28 06.05.2021
345 Clouds 7 1003 75 10000 7.72 260 08:49 06.05.2021
346 Clouds 6 1003 87 10000 6.69 270 08:23 06.05.2021
347 Clouds 6 1003 87 10000 6.69 270 07:48 06.05.2021
348 Clouds 6 1003 87 10000 8.23 260 07:26 06.05.2021
349 Clouds 6 1003 87 10000 5.66 240 06:26 06.05.2021
350 Clouds 6 1003 87 10000 5.66 240 05:49 06.05.2021
351 Clouds 6 1003 87 10000 6.17 250 04:33 06.05.2021
352 Clouds 6 1003 75 10000 8.23 250 02:35 06.05.2021
353 Clouds 7 1003 70 10000 9.77 270 23:50 05.05.2021
354 Clouds 7 1002 70 10000 12.35 270 22:45 05.05.2021
355 Clouds 7 1002 75 10000 12.86 290 22:22 05.05.2021
356 Clouds 7 1002 75 10000 12.86 290 21:40 05.05.2021
357 Clouds 7 1001 75 10000 13.38 280 21:18 05.05.2021
358 Clouds 7 1001 75 10000 13.38 280 20:35 05.05.2021
359 Clouds 8 1000 81 10000 14.92 290 19:44 05.05.2021
360 Clouds 8 1000 76 10000 15.95 290 19:26 05.05.2021
361 Clouds 8 1000 76 10000 15.95 290 18:55 05.05.2021
362 Clouds 8 999 81 8000 16.98 290 18:21 05.05.2021
363 Clouds 8 999 81 8000 15.95 290 17:50 05.05.2021
364 Mist 8 997 87 5000 15.43 280 17:27 05.05.2021
365 Rain 8 997 87 5000 15.43 280 16:52 05.05.2021
366 Rain 8 996 87 6000 15.43 280 16:32 05.05.2021
367 Rain 8 996 87 6000 15.43 280 15:52 05.05.2021
368 Rain 8 996 87 6000 15.43 280 15:52 05.05.2021
369 Rain 8 996 87 7000 15.43 280 15:22 05.05.2021
370 Rain 8 996 87 7000 15.43 280 15:22 05.05.2021
371 Rain 7 995 87 4000 15.43 280 14:44 05.05.2021
372 Mist 8 994 87 4000 13.38 270 14:25 05.05.2021
373 Clouds 8 994 87 7000 13.89 270 13:43 05.05.2021
374 Clouds 8 993 81 6000 12.35 270 13:23 05.05.2021
375 Clouds 8 993 87 6000 12.35 270 12:30 05.05.2021
376 Clouds 8 992 87 10000 11.32 260 11:54 05.05.2021
377 Clouds 8 992 87 10000 11.32 260 11:36 05.05.2021
378 Clouds 8 992 93 7000 10.29 260 11:18 05.05.2021
379 Mist 7 992 93 4000 10.29 270 10:40 05.05.2021
380 Rain 7 991 87 3500 12.35 260 09:53 05.05.2021
381 Rain 7 991 87 3500 12.86 260 09:26 05.05.2021
382 Rain 7 991 87 3500 12.86 260 08:43 05.05.2021
383 Mist 7 990 87 4500 11.83 250 08:24 05.05.2021
384 Mist 7 990 87 4500 11.83 250 07:48 05.05.2021
385 Rain 7 990 87 6000 11.83 250 07:22 05.05.2021
386 Rain 7 990 87 6000 11.83 250 06:37 05.05.2021
387 Rain 7 990 81 8000 11.83 250 01:50 05.05.2021
388 Rain 8 990 81 10000 10.8 240 00:22 05.05.2021
389 Rain 8 990 81 10000 10.8 240 23:38 04.05.2021
390 Clouds 8 990 87 10000 11.32 250 22:53 04.05.2021
391 Clouds 8 990 87 9000 10.29 240 22:23 04.05.2021
392 Clouds 8 990 87 9000 10.29 240 21:59 04.05.2021
393 Clouds 8 990 87 9000 10.29 240 21:41 04.05.2021
394 Clouds 8 990 87 10000 9.26 240 21:18 04.05.2021
395 Clouds 8 990 87 10000 9.26 240 20:43 04.05.2021
396 Clouds 8 990 81 10000 10.8 240 20:23 04.05.2021
397 Clouds 8 990 81 10000 10.8 240 20:22 04.05.2021
398 Clouds 8 990 81 10000 10.8 240 20:22 04.05.2021
399 Clouds 9 990 81 10000 8.75 240 19:43 04.05.2021
400 Clouds 9 990 81 10000 8.75 240 19:25 04.05.2021
401 Clouds 9 990 81 10000 8.75 240 18:52 04.05.2021
402 Clouds 9 990 81 10000 7.72 260 18:23 04.05.2021
403 Rain 10 990 81 10000 7.72 260 17:50 04.05.2021
404 Clouds 10 990 81 10000 8.23 250 17:25 04.05.2021
405 Clouds 9 990 81 10000 8.23 250 16:47 04.05.2021
406 Rain 9 990 81 5000 9.77 240 16:22 04.05.2021
407 Rain 9 990 81 5000 7.72 240 15:46 04.05.2021
408 Clouds 9 989 93 8000 9.26 240 15:19 04.05.2021
409 Rain 9 990 76 10000 8.23 230 14:29 04.05.2021
410 Clouds 10 990 76 10000 8.23 230 13:41 04.05.2021
411 Clouds 10 990 81 9000 5.14 230 13:21 04.05.2021
412 Clouds 10 990 76 4500 8.23 220 12:52 04.05.2021
413 Clouds 11 990 71 10000 9.77 210 12:25 04.05.2021
414 Clouds 10 990 71 10000 9.77 210 11:44 04.05.2021
415 Rain 9 990 81 10000 9.26 200 11:24 04.05.2021
416 Rain 9 990 81 10000 9.26 200 10:43 04.05.2021
417 Rain 9 991 81 10000 9.26 200 10:22 04.05.2021
418 Rain 9 991 81 10000 9.26 200 09:41 04.05.2021
419 Clouds 8 992 81 7000 8.75 200 09:19 04.05.2021
420 Rain 8 992 81 7000 8.75 200 08:43 04.05.2021
421 Clouds 8 993 87 10000 7.72 190 08:19 04.05.2021
422 Clouds 8 993 87 10000 7.72 190 07:44 04.05.2021
423 Clouds 8 997 87 7000 5.14 180 06:41 04.05.2021
424 Clouds 8 997 87 7000 5.14 180 06:19 04.05.2021
425 Rain 8 1000 87 10000 4.12 140 03:57 04.05.2021
426 Rain 7 1007 93 9000 4.63 140 01:33 04.05.2021
427 Rain 7 1008 93 10000 4.12 130 23:52 03.05.2021
428 Rain 7 1010 93 10000 3.09 130 23:30 03.05.2021
429 Clouds 7 1010 93 10000 3.09 130 22:40 03.05.2021
430 Rain 7 1011 93 10000 3.09 110 22:21 03.05.2021
431 Clouds 8 1011 93 10000 3.09 110 21:42 03.05.2021
432 Clouds 8 1012 93 9000 2.06 110 21:23 03.05.2021
433 Clouds 9 1012 87 5000 0.51 150 20:51 03.05.2021
434 Clouds 9 1013 87 4000 1.03 130 20:31 03.05.2021
435 Clouds 9 1013 93 10000 1.54 120 19:51 03.05.2021
436 Clouds 9 1014 93 10000 1.54 180 19:30 03.05.2021
437 Clouds 8 1014 93 10000 1.54 180 18:40 03.05.2021
438 Clouds 9 1014 87 4500 3.6 200 17:54 03.05.2021
439 Clouds 9 1014 87 10000 2.57 240 17:34 03.05.2021
440 Clouds 10 1015 61 10000 4.63 230 16:52 03.05.2021
441 Clouds 10 1015 62 10000 6.17 240 16:27 03.05.2021
442 Clouds 11 1015 76 10000 5.14 220 15:50 03.05.2021
443 Clouds 11 1016 71 10000 4.63 220 15:27 03.05.2021
444 Clouds 10 1016 71 10000 4.63 220 14:37 03.05.2021
445 Clouds 8 1016 76 10000 5.14 220 14:18 03.05.2021
446 Clouds 8 1016 76 10000 5.14 220 14:18 03.05.2021
447 Clouds 10 1016 76 10000 5.14 220 13:34 03.05.2021
448 Clouds 10 1016 76 10000 5.14 210 12:59 03.05.2021
449 Clouds 8 1017 81 10000 4.63 230 12:31 03.05.2021
450 Clouds 8 1017 81 10000 4.63 230 11:58 03.05.2021
451 Clouds 8 1017 81 10000 4.63 230 11:36 03.05.2021
452 Clouds 7 1017 81 10000 5.66 220 10:53 03.05.2021
453 Clouds 7 1017 81 10000 4.63 250 10:32 03.05.2021
454 Clouds 6 1017 81 10000 4.63 250 09:56 03.05.2021
455 Clouds 6 1017 81 10000 4.63 250 09:38 03.05.2021
456 Clouds 6 1017 70 10000 7.2 260 08:46 03.05.2021
457 Clouds 6 1017 81 10000 4.63 250 08:24 03.05.2021
458 Clouds 7 1017 81 10000 4.63 250 07:54 03.05.2021
459 Clouds 6 1017 81 10000 6.69 290 06:34 03.05.2021
460 Clouds 6 1017 81 10000 6.69 290 05:57 03.05.2021
461 Clouds 6 1017 75 10000 6.69 290 03:58 03.05.2021
462 Clouds 6 1016 81 10000 6.17 290 00:33 03.05.2021
463 Clouds 6 1016 70 10000 7.72 300 23:39 02.05.2021
464 Clouds 6 1016 75 10000 6.17 290 23:21 02.05.2021
465 Clouds 7 1016 75 10000 6.17 290 22:40 02.05.2021
466 Clouds 7 1016 75 10000 7.72 300 22:18 02.05.2021
467 Clouds 7 1016 75 10000 7.72 300 21:43 02.05.2021
468 Clouds 7 1015 70 10000 7.72 300 21:22 02.05.2021
469 Clouds 8 1015 81 10000 8.23 300 20:26 02.05.2021
470 Clouds 8 1015 87 7000 8.75 320 19:46 02.05.2021
471 Clouds 8 1015 81 7000 7.72 310 19:23 02.05.2021
472 Clouds 8 1015 76 10000 9.77 300 18:54 02.05.2021
473 Clouds 8 1015 76 10000 9.77 300 18:36 02.05.2021
474 Clouds 8 1014 76 10000 11.83 300 18:18 02.05.2021
475 Clouds 8 1014 76 10000 11.83 300 17:41 02.05.2021
476 Clouds 8 1014 76 10000 10.29 310 17:22 02.05.2021
477 Clouds 8 1014 76 10000 10.29 310 16:45 02.05.2021
478 Clouds 8 1014 81 10000 9.77 300 16:26 02.05.2021
479 Clouds 9 1014 81 10000 9.77 300 15:44 02.05.2021
480 Clouds 9 1013 81 10000 8.23 290 15:23 02.05.2021
481 Clouds 9 1013 81 10000 8.23 290 14:43 02.05.2021
482 Clouds 8 1013 71 10000 6.17 270 14:25 02.05.2021
483 Clouds 8 1013 71 10000 6.17 270 13:46 02.05.2021
484 Clouds 8 1013 76 10000 6.17 290 13:23 02.05.2021
485 Clouds 8 1013 76 10000 6.17 290 13:23 02.05.2021
486 Clouds 8 1013 76 10000 6.17 290 12:48 02.05.2021
487 Clouds 8 1013 81 10000 5.66 300 12:26 02.05.2021
488 Clouds 8 1013 81 10000 5.66 300 11:56 02.05.2021
489 Clouds 8 1013 81 10000 5.66 300 11:38 02.05.2021
490 Clouds 8 1013 81 10000 4.12 300 11:18 02.05.2021
491 Clouds 8 1012 87 10000 4.12 300 10:22 02.05.2021
492 Clouds 8 1012 87 10000 4.12 300 09:49 02.05.2021
493 Clouds 8 1012 93 10000 2.06 220 09:29 02.05.2021
494 Clouds 7 1012 93 10000 2.06 220 08:57 02.05.2021
495 Clouds 7 1012 93 10000 2.06 220 08:34 02.05.2021
496 Clouds 7 1012 93 7000 2.06 210 07:54 02.05.2021
497 Fog 6 1012 100 4000 1.54 200 07:23 02.05.2021
498 Clear 6 1012 100 5000 1.54 250 05:32 02.05.2021
499 Clear 6 1012 93 50 1.54 0 03:32 02.05.2021
500 Clouds 6 1012 93 550 0.51 260 00:25 02.05.2021
501 Clouds 6 1012 93 550 0.51 260 23:36 01.05.2021
502 Clouds 6 1012 93 550 0.51 260 23:36 01.05.2021
503 Clouds 6 1012 93 7000 0.51 250 23:18 01.05.2021
504 Clouds 8 1012 93 7000 0.51 250 22:38 01.05.2021
505 Mist 8 1012 93 5000 1.54 260 22:18 01.05.2021
506 Mist 8 1012 93 5000 1.54 260 21:40 01.05.2021
507 Clouds 9 1012 87 10000 0.51 30 21:21 01.05.2021
508 Clouds 9 1012 87 10000 0.51 30 20:50 01.05.2021
509 Clouds 9 1012 87 9000 2.06 340 20:28 01.05.2021
510 Clouds 8 1012 87 9000 2.06 340 19:53 01.05.2021
511 Clouds 8 1012 81 8000 1.54 70 19:31 01.05.2021
512 Clouds 9 1012 81 8000 1.54 70 18:53 01.05.2021
513 Clouds 9 1012 81 8000 1.54 70 18:33 01.05.2021
514 Rain 9 1012 76 2500 3.09 180 17:51 01.05.2021
515 Clouds 9 1012 81 10000 3.09 70 17:28 01.05.2021
516 Clouds 10 1012 81 10000 3.09 70 16:45 01.05.2021
517 Clouds 10 1012 81 10000 2.06 130 16:26 01.05.2021
518 Rain 9 1012 81 10000 2.06 130 15:49 01.05.2021
519 Clouds 7 1012 87 9000 4.12 140 14:38 01.05.2021
520 Clouds 10 1012 76 10000 2.57 50 13:38 01.05.2021
521 Clouds 10 1013 87 10000 2.06 170 13:20 01.05.2021
522 Clouds 10 1013 87 10000 2.06 170 12:38 01.05.2021
523 Clouds 10 1013 87 8000 1.54 130 12:18 01.05.2021
524 Clouds 9 1013 87 8000 1.54 130 11:42 01.05.2021
525 Rain 9 1013 81 10000 2.57 130 11:22 01.05.2021
526 Rain 9 1013 81 10000 2.57 130 10:53 01.05.2021
527 Rain 9 1013 87 6000 1.54 120 09:56 01.05.2021
528 Rain 9 1013 87 6000 1.54 120 09:56 01.05.2021
529 Rain 9 1013 87 6000 1.54 120 09:38 01.05.2021
530 Rain 8 1013 93 8000 2.57 150 09:19 01.05.2021
531 Mist 7 1012 93 4000 2.57 120 08:18 01.05.2021
532 Mist 7 1012 93 4000 2.06 110 07:27 01.05.2021
533 Mist 7 1013 93 5000 2.06 110 05:33 01.05.2021
534 Rain 8 1014 87 10000 2.57 100 01:38 01.05.2021
535 Rain 8 1013 87 10000 1.54 90 00:28 01.05.2021
536 Rain 8 1013 87 10000 1.54 90 23:43 30.04.2021
537 Clouds 8 1013 87 10000 1.54 80 22:47 30.04.2021
538 Clouds 8 1013 81 10000 2.06 70 22:20 30.04.2021
539 Clouds 9 1013 81 10000 2.06 70 21:46 30.04.2021
540 Clouds 9 1013 76 10000 2.57 50 21:25 30.04.2021
541 Clouds 10 1013 76 10000 2.57 50 20:51 30.04.2021
542 Clouds 10 1013 76 10000 3.09 20 20:31 30.04.2021
543 Clouds 10 1013 76 10000 3.09 20 19:47 30.04.2021
544 Clouds 10 1012 66 10000 3.09 10 18:49 30.04.2021
545 Clouds 10 1012 66 10000 4.12 320 18:29 30.04.2021
546 Clouds 11 1012 66 10000 4.12 320 17:56 30.04.2021
547 Clouds 11 1012 62 10000 4.12 300 17:32 30.04.2021
548 Clouds 11 1012 62 10000 4.12 300 16:54 30.04.2021
549 Clouds 11 1012 62 10000 4.12 300 16:33 30.04.2021
550 Rain 11 1013 58 10000 1.54 160 15:44 30.04.2021
551 Rain 11 1013 58 10000 3.09 70 15:26 30.04.2021
552 Rain 10 1013 58 10000 3.09 70 14:59 30.04.2021
553 Rain 11 1013 58 10000 3.09 70 14:40 30.04.2021
554 Clouds 10 1013 62 10000 3.6 70 14:18 30.04.2021
555 Clouds 10 1013 62 10000 3.6 70 13:39 30.04.2021
556 Clouds 10 1013 62 10000 2.57 80 13:19 30.04.2021
557 Clouds 9 1013 62 10000 2.57 80 12:38 30.04.2021
558 Clouds 10 1013 66 10000 1.54 30 11:56 30.04.2021
559 Clouds 10 1012 71 10000 1.03 0 11:23 30.04.2021
560 Clouds 10 1012 71 10000 1.03 0 10:51 30.04.2021
561 Clouds 10 1012 71 10000 1.03 0 10:33 30.04.2021
562 Clouds 9 1012 71 10000 1.54 0 09:48 30.04.2021
563 Clouds 9 1011 81 10000 1.54 60 09:21 30.04.2021
564 Clouds 8 1011 81 10000 1.54 60 08:39 30.04.2021
565 Fog 7 1011 93 10000 1.03 80 07:43 30.04.2021
566 Fog 7 1010 100 10000 0.51 90 07:21 30.04.2021
567 Fog 7 1010 100 10000 0.51 90 06:45 30.04.2021
568 Fog 7 1010 100 10000 1.54 30 06:23 30.04.2021
569 Clouds 7 1008 93 900 2.06 330 03:50 30.04.2021
570 Clouds 7 1007 93 6000 2.57 310 01:55 30.04.2021
571 Clouds 7 1007 93 6000 2.57 310 01:36 30.04.2021
572 Clouds 8 1006 93 8000 2.06 340 23:32 29.04.2021
573 Clouds 8 1006 93 6000 2.06 10 22:59 29.04.2021
574 Clouds 8 1006 93 6000 2.06 10 22:41 29.04.2021
575 Clouds 8 1005 87 6000 3.6 40 22:21 29.04.2021
576 Clouds 8 1005 87 6000 3.6 40 21:43 29.04.2021
577 Clouds 8 1004 93 7000 4.63 40 21:22 29.04.2021
578 Clouds 8 1004 93 7000 4.63 40 20:45 29.04.2021
579 Mist 8 1003 93 4000 4.63 40 20:27 29.04.2021
580 Mist 8 1003 93 4000 4.63 40 19:57 29.04.2021
581 Rain 8 1003 93 4000 4.63 40 19:37 29.04.2021
582 Rain 8 1003 100 4000 5.14 50 19:19 29.04.2021
583 Rain 8 1003 100 4000 5.14 50 18:40 29.04.2021
584 Mist 8 1002 93 2800 4.63 50 17:48 29.04.2021
585 Mist 8 1002 93 3000 4.63 70 17:27 29.04.2021
586 Mist 9 1002 93 3000 4.63 70 16:53 29.04.2021
587 Mist 9 1002 93 3000 4.63 60 16:27 29.04.2021
588 Mist 9 1002 93 3000 4.63 60 15:57 29.04.2021
589 Mist 9 1002 87 4000 4.63 70 15:28 29.04.2021
590 Mist 10 1002 87 4000 4.12 70 14:53 29.04.2021
591 Clouds 10 1002 87 7000 5.66 70 14:28 29.04.2021
592 Clouds 10 1002 76 10000 4.63 80 13:55 29.04.2021
593 Clouds 10 1002 76 10000 4.63 80 13:35 29.04.2021
594 Clouds 10 1002 76 10000 3.09 90 12:52 29.04.2021
595 Clouds 10 1002 76 10000 4.12 100 12:31 29.04.2021
596 Clouds 10 1002 76 10000 3.6 90 11:52 29.04.2021
597 Clouds 10 1002 76 10000 3.6 90 11:52 29.04.2021
598 Clouds 10 1002 71 10000 4.63 100 11:30 29.04.2021
599 Clouds 10 1002 71 10000 4.63 100 10:59 29.04.2021
600 Clouds 10 1002 71 10000 4.63 100 10:37 29.04.2021
601 Clouds 10 1002 71 10000 4.12 90 09:59 29.04.2021
602 Clouds 10 1002 71 10000 4.12 90 09:59 29.04.2021
603 Clouds 9 1002 71 10000 4.12 90 09:36 29.04.2021
604 Clouds 8 1002 76 10000 4.63 80 08:59 29.04.2021
605 Clouds 8 1002 76 10000 4.63 80 08:34 29.04.2021
606 Clouds 8 1002 87 10000 3.6 60 07:54 29.04.2021
607 Clouds 7 1002 81 10000 4.12 70 07:29 29.04.2021
608 Clouds 7 1002 81 10000 4.12 70 06:36 29.04.2021
609 Clouds 7 1002 87 9000 3.09 60 04:46 29.04.2021
610 Clouds 9 1004 66 10000 4.63 60 00:27 29.04.2021
611 Clouds 9 1005 57 10000 5.14 50 23:22 28.04.2021
612 Clouds 9 1005 57 10000 5.14 50 22:52 28.04.2021
613 Clouds 10 1005 53 10000 5.14 40 22:23 28.04.2021
614 Clouds 10 1005 53 10000 5.14 40 21:50 28.04.2021
615 Clouds 10 1005 47 10000 6.17 60 21:23 28.04.2021
616 Clouds 10 1005 47 10000 6.17 60 20:57 28.04.2021
617 Clouds 10 1005 47 10000 6.17 60 20:38 28.04.2021
618 Clouds 10 1004 44 10000 5.14 30 20:20 28.04.2021
619 Clouds 11 1004 29 10000 5.14 30 19:32 28.04.2021
620 Clouds 11 1004 29 10000 5.14 30 18:56 28.04.2021
621 Clouds 11 1004 29 10000 5.14 30 18:38 28.04.2021
622 Clouds 11 1005 29 10000 6.69 40 18:19 28.04.2021
623 Clouds 12 1005 29 10000 6.69 40 17:43 28.04.2021
624 Clouds 12 1006 29 10000 6.69 40 17:24 28.04.2021
625 Clouds 12 1006 29 10000 5.66 60 16:21 28.04.2021
626 Clouds 12 1006 29 10000 5.66 60 16:21 28.04.2021
627 Clouds 12 1006 29 10000 5.66 60 15:48 28.04.2021
628 Clouds 12 1007 28 10000 6.69 70 15:26 28.04.2021
629 Clouds 14 1007 28 10000 6.69 70 14:42 28.04.2021
630 Clouds 11 1007 28 10000 7.2 60 14:21 28.04.2021
631 Clouds 11 1007 28 10000 7.2 60 13:56 28.04.2021
632 Clouds 11 1008 30 10000 7.2 80 13:24 28.04.2021
633 Clouds 10 1008 30 10000 7.2 80 12:54 28.04.2021
634 Clouds 10 1008 32 10000 7.2 90 12:28 28.04.2021
635 Clouds 12 1008 32 10000 7.2 90 11:46 28.04.2021
636 Clouds 11 1008 40 10000 4.12 110 11:26 28.04.2021
637 Clouds 10 1008 40 10000 4.12 110 10:42 28.04.2021
638 Clouds 10 1008 40 10000 4.12 110 10:42 28.04.2021
639 Clouds 9 1009 53 10000 3.09 80 10:21 28.04.2021
640 Clouds 8 1009 53 10000 3.09 80 09:52 28.04.2021
641 Clouds 7 1009 70 10000 4.12 80 09:31 28.04.2021
642 Clouds 6 1009 70 10000 4.12 80 08:53 28.04.2021
643 Clouds 4 1009 80 10000 3.6 70 07:52 28.04.2021
644 Clouds 4 1009 80 10000 3.09 70 07:25 28.04.2021
645 Clouds 3 1009 80 10000 3.09 70 05:35 28.04.2021
646 Clouds 5 1010 80 10000 3.09 70 03:45 28.04.2021
647 Clouds 5 1011 80 10000 3.09 70 02:34 28.04.2021
648 Clouds 6 1011 65 10000 3.6 80 00:43 28.04.2021
649 Clouds 8 1012 60 10000 4.12 80 23:49 27.04.2021
650 Clouds 8 1012 56 10000 3.09 90 23:27 27.04.2021
651 Clouds 7 1012 56 10000 3.09 90 22:48 27.04.2021
652 Clouds 8 1011 49 10000 3.09 80 22:29 27.04.2021
653 Clouds 8 1011 49 10000 3.09 80 21:46 27.04.2021
654 Clouds 9 1011 32 10000 2.57 80 21:27 27.04.2021
655 Clouds 10 1011 32 10000 2.57 80 20:56 27.04.2021
656 Clouds 10 1011 32 10000 2.57 80 20:38 27.04.2021
657 Clouds 11 1011 26 10000 4.12 100 19:51 27.04.2021
658 Clouds 11 1012 28 10000 5.66 80 19:26 27.04.2021
659 Clouds 11 1012 28 10000 5.66 80 18:57 27.04.2021
660 Clouds 11 1012 28 10000 5.66 80 18:34 27.04.2021
661 Clouds 11 1012 28 10000 5.14 100 17:55 27.04.2021
662 Clouds 11 1012 30 10000 5.66 90 17:30 27.04.2021
663 Clouds 10 1012 30 10000 5.66 90 16:49 27.04.2021
664 Clouds 10 1013 32 10000 4.63 90 16:31 27.04.2021
665 Clouds 11 1013 32 10000 4.63 90 15:57 27.04.2021
666 Clouds 11 1013 32 10000 4.63 90 15:37 27.04.2021
667 Clouds 11 1014 32 10000 4.63 120 15:19 27.04.2021
668 Clouds 11 1014 32 10000 4.63 120 14:41 27.04.2021
669 Clouds 11 1014 28 10000 4.12 110 14:20 27.04.2021
670 Clouds 11 1014 28 10000 4.12 110 13:42 27.04.2021
671 Clouds 11 1015 32 10000 4.12 110 13:20 27.04.2021
672 Clouds 11 1015 32 10000 4.63 110 12:27 27.04.2021
673 Clouds 10 1015 32 10000 4.63 110 11:55 27.04.2021
674 Clouds 10 1016 40 10000 5.14 130 11:26 27.04.2021
675 Clouds 8 1016 40 10000 5.14 130 10:49 27.04.2021
676 Clouds 8 1016 53 10000 3.6 110 10:23 27.04.2021
677 Clouds 6 1016 53 10000 3.6 110 09:45 27.04.2021
678 Clouds 4 1016 60 10000 2.57 100 08:53 27.04.2021
679 Clouds 3 1016 69 10000 2.57 90 08:19 27.04.2021
680 Clouds 3 1016 69 10000 2.57 90 07:42 27.04.2021
681 Clouds 4 1016 75 10000 2.57 100 06:50 27.04.2021
682 Clouds 4 1016 75 10000 2.57 110 06:20 27.04.2021
683 Clouds 5 1016 69 10000 2.06 100 04:54 27.04.2021
684 Clouds 3 1017 69 10000 3.09 90 01:54 27.04.2021
685 Clouds 3 1017 60 10000 3.6 90 00:27 27.04.2021
686 Clouds 4 1017 60 10000 3.6 90 23:40 26.04.2021
687 Clouds 4 1017 75 10000 2.06 50 23:18 26.04.2021
688 Clouds 5 1017 75 10000 2.06 50 22:49 26.04.2021
689 Clouds 5 1018 65 10000 1.54 360 22:18 26.04.2021
690 Clouds 6 1018 65 10000 1.54 360 21:41 26.04.2021
691 Clouds 6 1018 56 10000 3.09 30 21:22 26.04.2021
692 Clouds 7 1018 56 10000 3.09 30 20:41 26.04.2021
693 Clouds 7 1018 49 10000 3.6 30 20:22 26.04.2021
694 Clouds 8 1018 49 10000 3.6 30 19:41 26.04.2021
695 Clouds 8 1018 49 10000 2.57 30 19:23 26.04.2021
696 Clouds 8 1018 49 10000 2.57 30 18:43 26.04.2021
697 Clouds 8 1019 49 10000 3.6 20 18:19 26.04.2021
698 Clouds 8 1019 49 10000 3.6 20 17:46 26.04.2021
699 Clouds 8 1019 49 10000 4.12 20 17:21 26.04.2021
700 Clouds 8 1019 49 10000 4.12 20 16:45 26.04.2021
701 Clouds 8 1020 40 10000 4.63 320 16:25 26.04.2021
702 Clouds 8 1020 40 10000 4.63 320 15:44 26.04.2021
703 Clouds 8 1021 40 10000 4.63 320 15:21 26.04.2021
704 Clouds 8 1021 40 10000 4.63 320 14:54 26.04.2021
705 Clouds 8 1021 40 10000 4.63 320 14:34 26.04.2021
706 Clouds 8 1021 40 10000 2.06 300 13:52 26.04.2021
707 Clouds 8 1022 49 10000 2.06 330 13:28 26.04.2021
708 Clouds 8 1022 49 10000 2.06 330 12:52 26.04.2021
709 Clouds 8 1022 49 10000 2.57 350 11:55 26.04.2021
710 Clouds 8 1022 49 10000 2.57 350 11:36 26.04.2021
711 Clouds 7 1022 53 10000 3.6 350 10:50 26.04.2021
712 Clouds 7 1022 49 10000 3.09 350 10:24 26.04.2021
713 Clouds 8 1022 49 10000 3.09 350 09:48 26.04.2021
714 Clouds 7 1023 70 10000 0.51 0 09:25 26.04.2021
715 Clouds 6 1023 70 10000 0.51 0 08:55 26.04.2021
716 Clouds 5 1023 80 10000 1.03 260 08:22 26.04.2021
717 Clouds 1 1023 80 10000 1.03 260 07:53 26.04.2021
718 Clouds 1 1023 80 10000 0.51 260 07:22 26.04.2021
719 Clouds 1 1023 80 10000 0.51 260 07:22 26.04.2021
720 Clouds 2 1023 86 10000 3.36 329 06:38 26.04.2021
721 Clouds 2 1023 86 10000 2.85 332 05:37 26.04.2021
722 Clear 3 1024 86 10000 0.51 220 04:37 26.04.2021
723 Clear 1 1024 80 10000 3.22 9 02:51 26.04.2021
724 Clear 5 1025 70 10000 1.54 50 01:19 26.04.2021
725 Clear 5 1025 70 10000 1.54 50 00:43 26.04.2021
726 Clouds 6 1025 65 10000 2.57 30 23:46 25.04.2021
727 Clouds 6 1026 65 10000 3.09 20 23:26 25.04.2021
728 Clouds 6 1026 65 10000 3.09 20 22:50 25.04.2021
729 Clouds 6 1026 60 10000 2.57 10 22:22 25.04.2021
730 Clouds 6 1026 60 10000 2.57 10 21:59 25.04.2021
731 Clouds 6 1026 60 10000 2.57 10 21:41 25.04.2021
732 Clouds 7 1026 45 10000 4.12 360 21:22 25.04.2021
733 Clouds 8 1026 45 10000 4.12 360 20:47 25.04.2021
734 Clouds 8 1026 39 10000 5.14 360 20:25 25.04.2021
735 Clouds 8 1026 39 10000 5.14 360 19:46 25.04.2021
736 Clouds 8 1026 40 10000 6.17 350 19:24 25.04.2021
737 Clouds 9 1026 40 10000 6.17 350 18:49 25.04.2021
738 Clouds 9 1026 40 10000 5.66 340 18:28 25.04.2021
739 Clouds 9 1026 40 10000 5.66 340 18:28 25.04.2021
740 Clouds 9 1026 40 10000 5.66 340 17:48 25.04.2021
741 Clouds 9 1026 37 10000 5.14 330 17:26 25.04.2021
742 Clouds 9 1026 37 10000 5.14 330 16:58 25.04.2021
743 Clouds 9 1027 34 10000 3.6 40 16:39 25.04.2021
744 Clouds 9 1027 34 10000 3.6 40 16:21 25.04.2021
745 Clouds 8 1027 34 10000 3.09 350 15:27 25.04.2021
746 Clouds 8 1027 34 10000 3.09 350 14:55 25.04.2021
747 Clouds 8 1027 31 10000 4.12 30 14:21 25.04.2021
748 Clouds 9 1027 31 10000 4.12 30 13:50 25.04.2021
749 Clouds 9 1027 34 10000 3.6 60 13:22 25.04.2021
750 Clouds 8 1027 34 10000 3.6 60 12:49 25.04.2021
751 Clouds 8 1027 34 10000 3.6 50 12:26 25.04.2021
752 Clouds 8 1027 34 10000 3.6 50 11:53 25.04.2021
753 Clouds 8 1027 49 10000 3.6 50 11:31 25.04.2021
754 Clouds 7 1027 49 10000 3.6 50 10:48 25.04.2021
755 Clouds 7 1026 61 10000 5.14 10 10:21 25.04.2021
756 Clouds 7 1026 61 10000 5.14 10 09:47 25.04.2021
757 Clouds 7 1026 70 10000 4.63 20 09:25 25.04.2021
758 Clouds 6 1025 70 10000 2.57 10 08:22 25.04.2021
759 Clouds 5 1025 70 10000 2.57 10 07:46 25.04.2021
760 Clouds 5 1025 65 10000 2.57 360 07:19 25.04.2021
761 Clouds 5 1025 65 10000 2.57 360 07:19 25.04.2021
762 Clouds 5 1025 65 10000 2.57 360 07:19 25.04.2021
763 Clouds 5 1025 65 10000 3.6 330 06:32 25.04.2021
764 Clouds 5 1025 60 10000 5.66 340 04:57 25.04.2021
765 Clouds 5 1025 60 10000 5.66 340 04:39 25.04.2021
766 Clouds 6 1026 60 10000 5.66 350 01:45 25.04.2021
767 Clear 6 1026 65 10000 4.12 350 00:59 25.04.2021
768 Clear 5 1026 65 10000 4.63 360 00:21 25.04.2021
769 Clear 6 1026 65 10000 4.63 360 23:48 24.04.2021
770 Clouds 6 1026 65 10000 3.09 350 23:24 24.04.2021
771 Clouds 6 1026 65 10000 3.09 350 22:37 24.04.2021
772 Clouds 6 1026 65 10000 4.12 350 21:56 24.04.2021
773 Clouds 7 1026 65 10000 6.17 340 21:28 24.04.2021
774 Clouds 7 1026 65 10000 6.17 340 20:50 24.04.2021
775 Clouds 7 1026 61 10000 8.23 350 20:32 24.04.2021
776 Clouds 7 1026 61 10000 8.23 350 19:57 24.04.2021
777 Clouds 7 1026 61 10000 8.23 340 19:30 24.04.2021
778 Clouds 8 1026 61 10000 8.23 340 18:59 24.04.2021
779 Clouds 8 1026 61 10000 8.23 340 18:34 24.04.2021
780 Clouds 9 1026 49 10000 7.72 340 17:57 24.04.2021
781 Clouds 9 1026 46 10000 8.23 330 17:26 24.04.2021
782 Clouds 9 1026 46 10000 8.23 330 16:51 24.04.2021
783 Clouds 9 1027 46 10000 7.2 330 16:31 24.04.2021
784 Clouds 9 1027 46 10000 7.2 330 15:38 24.04.2021
785 Clouds 9 1027 43 10000 6.69 330 15:20 24.04.2021
786 Clouds 9 1027 43 10000 6.69 330 14:33 24.04.2021
787 Clouds 9 1027 37 10000 5.66 340 13:52 24.04.2021
788 Clouds 9 1027 40 10000 6.17 350 13:32 24.04.2021
789 Clouds 9 1027 40 10000 6.17 350 12:39 24.04.2021
790 Clouds 9 1027 43 10000 6.17 360 12:18 24.04.2021
791 Clouds 8 1027 43 10000 6.17 360 11:44 24.04.2021
792 Clouds 8 1027 49 10000 6.69 350 10:56 24.04.2021
793 Clouds 9 1027 49 10000 6.69 350 10:38 24.04.2021
794 Clouds 9 1027 49 10000 6.69 350 10:38 24.04.2021
795 Clouds 8 1026 53 10000 5.66 340 09:57 24.04.2021
796 Clouds 8 1026 76 10000 4.63 330 09:29 24.04.2021
797 Clouds 6 1026 81 10000 4.12 320 07:55 24.04.2021
798 Clouds 6 1026 81 10000 4.63 320 07:22 24.04.2021
799 Clouds 6 1026 81 10000 4.63 330 05:20 24.04.2021
800 Clouds 6 1027 81 10000 3.09 330 00:51 24.04.2021
801 Clouds 7 1027 75 10000 4.63 330 23:43 23.04.2021
802 Clouds 7 1027 75 10000 3.6 320 22:48 23.04.2021
803 Clouds 6 1028 75 10000 4.12 320 22:21 23.04.2021
804 Clouds 7 1028 75 10000 4.12 320 21:48 23.04.2021
805 Clouds 7 1027 75 10000 6.17 320 21:27 23.04.2021
806 Clouds 7 1027 75 10000 6.17 320 20:42 23.04.2021
807 Clouds 8 1027 65 10000 7.72 310 20:21 23.04.2021
808 Clouds 8 1027 65 10000 7.72 310 19:54 23.04.2021
809 Clouds 8 1027 65 10000 7.72 310 19:34 23.04.2021
810 Clouds 9 1028 61 10000 7.2 320 18:58 23.04.2021
811 Clouds 9 1028 61 10000 7.2 320 18:36 23.04.2021
812 Clouds 9 1028 61 10000 7.2 310 17:58 23.04.2021
813 Clouds 9 1028 61 10000 7.2 310 17:38 23.04.2021
814 Clouds 9 1028 66 10000 7.2 310 17:19 23.04.2021
815 Clouds 9 1028 66 10000 7.2 310 16:45 23.04.2021
816 Clouds 9 1028 66 10000 7.2 320 16:24 23.04.2021
817 Clouds 9 1028 66 10000 7.72 320 15:39 23.04.2021
818 Clouds 8 1028 66 10000 7.2 320 14:39 23.04.2021
819 Clouds 9 1028 66 10000 7.2 320 13:41 23.04.2021
820 Clouds 9 1028 57 10000 7.2 320 13:21 23.04.2021
821 Clouds 9 1028 57 10000 7.2 320 12:34 23.04.2021
822 Clouds 8 1027 61 10000 7.72 320 11:50 23.04.2021
823 Clouds 8 1027 66 10000 7.2 330 11:30 23.04.2021
824 Clouds 8 1027 66 10000 7.2 330 10:52 23.04.2021
825 Clouds 8 1027 66 10000 7.2 330 10:32 23.04.2021
826 Clouds 7 1027 65 10000 7.72 320 09:55 23.04.2021
827 Clouds 7 1026 70 10000 6.69 330 08:55 23.04.2021
828 Clouds 7 1026 75 10000 6.69 320 08:37 23.04.2021
829 Clouds 7 1026 75 10000 6.69 320 07:47 23.04.2021
830 Clouds 7 1025 70 10000 6.69 320 06:55 23.04.2021
831 Clear 7 1025 75 10000 7.2 320 05:37 23.04.2021
832 Clear 7 1025 75 10000 6.69 320 03:32 23.04.2021
833 Clear 7 1025 75 10000 6.69 320 02:39 23.04.2021
834 Clouds 7 1024 81 10000 7.2 320 00:20 23.04.2021
835 Clouds 7 1024 75 10000 8.23 320 22:57 22.04.2021
836 Clouds 7 1024 75 10000 8.23 320 22:38 22.04.2021
837 Clouds 7 1024 81 10000 7.2 320 22:18 22.04.2021
838 Clouds 7 1024 81 10000 7.2 320 21:41 22.04.2021
839 Clouds 7 1024 75 10000 8.75 320 21:19 22.04.2021
840 Clouds 7 1024 75 10000 8.75 320 20:47 22.04.2021
841 Clouds 8 1024 76 10000 8.75 310 20:26 22.04.2021
842 Clouds 8 1024 70 10000 9.77 310 19:51 22.04.2021
843 Clouds 8 1024 66 10000 9.77 320 19:32 22.04.2021
844 Clouds 8 1024 66 10000 9.77 320 18:46 22.04.2021
845 Clouds 8 1023 66 10000 11.32 310 18:21 22.04.2021
846 Clouds 9 1023 66 10000 11.32 310 17:44 22.04.2021
847 Clouds 9 1023 61 10000 11.32 310 17:20 22.04.2021
848 Clouds 9 1023 61 10000 11.32 310 16:47 22.04.2021
849 Clouds 9 1023 66 10000 12.86 320 16:28 22.04.2021
850 Clouds 8 1023 66 10000 12.86 320 15:48 22.04.2021
851 Clouds 9 1023 57 10000 10.8 310 15:27 22.04.2021
852 Clouds 9 1023 57 10000 10.8 310 14:50 22.04.2021
853 Clouds 8 1023 66 10000 10.8 320 14:29 22.04.2021
854 Clouds 8 1023 66 10000 10.8 320 13:47 22.04.2021
855 Clouds 8 1023 61 10000 10.8 320 13:25 22.04.2021
856 Clouds 8 1023 61 10000 10.8 320 12:56 22.04.2021
857 Clouds 8 1023 61 10000 10.8 320 12:37 22.04.2021
858 Clouds 8 1023 61 10000 10.8 320 12:37 22.04.2021
859 Clouds 8 1022 65 10000 9.77 330 12:19 22.04.2021
860 Clouds 8 1022 65 10000 9.77 330 11:43 22.04.2021
861 Clouds 8 1022 61 10000 10.8 320 11:22 22.04.2021
862 Clouds 8 1022 61 10000 10.8 320 10:43 22.04.2021
863 Clouds 8 1021 65 10000 9.77 320 10:21 22.04.2021
864 Clouds 7 1021 65 10000 9.77 320 09:41 22.04.2021
865 Clouds 7 1021 65 10000 8.23 330 09:19 22.04.2021
866 Clouds 7 1021 65 10000 8.23 330 08:38 22.04.2021
867 Clouds 7 1020 70 10000 9.77 320 08:18 22.04.2021
868 Clouds 6 1020 70 10000 9.77 320 07:37 22.04.2021
869 Clouds 6 1019 65 10000 9.26 320 07:18 22.04.2021
870 Clouds 6 1019 65 10000 9.26 320 06:23 22.04.2021
871 Clouds 6 1019 61 10000 8.23 320 05:25 22.04.2021
872 Clouds 6 1019 61 10000 8.23 320 03:25 22.04.2021
873 Clear 6 1019 65 10000 8.23 330 00:45 22.04.2021
874 Clear 6 1019 56 10000 9.26 330 23:44 21.04.2021
875 Clouds 6 1019 52 10000 9.26 330 23:23 21.04.2021
876 Clouds 6 1019 52 10000 8.75 330 22:41 21.04.2021
877 Clouds 6 1019 56 10000 9.26 330 22:23 21.04.2021
878 Clouds 7 1019 56 10000 9.26 330 21:42 21.04.2021
879 Clouds 7 1019 56 10000 8.75 330 21:23 21.04.2021
880 Clouds 7 1019 56 10000 8.75 330 20:42 21.04.2021
881 Clouds 7 1018 53 10000 8.75 340 20:19 21.04.2021
882 Clouds 8 1018 53 10000 8.75 340 19:42 21.04.2021
883 Clouds 8 1018 53 10000 8.23 330 19:23 21.04.2021
884 Clouds 8 1018 53 10000 8.23 330 18:45 21.04.2021
885 Clouds 8 1018 61 10000 8.75 330 18:26 21.04.2021
886 Clouds 8 1018 61 10000 8.75 330 17:47 21.04.2021
887 Clouds 8 1018 57 10000 9.77 320 17:24 21.04.2021
888 Clouds 9 1018 57 10000 9.77 320 16:48 21.04.2021
889 Clouds 9 1017 57 10000 9.77 320 15:59 21.04.2021
890 Clouds 9 1017 57 10000 9.77 320 15:40 21.04.2021
891 Clouds 9 1017 57 10000 9.26 330 14:55 21.04.2021
892 Clouds 9 1017 57 10000 9.26 330 14:36 21.04.2021
893 Clouds 9 1017 53 10000 9.26 320 14:18 21.04.2021
894 Clouds 9 1017 53 10000 9.26 320 13:40 21.04.2021
895 Clouds 8 1017 61 10000 7.72 340 13:20 21.04.2021
896 Clouds 9 1017 71 10000 7.2 340 12:30 21.04.2021
897 Clouds 8 1017 71 10000 7.2 340 11:50 21.04.2021
898 Clouds 8 1017 76 10000 7.2 330 11:29 21.04.2021
899 Clouds 8 1016 81 10000 5.66 340 10:51 21.04.2021
900 Clouds 8 1016 81 10000 5.66 340 10:33 21.04.2021
901 Clouds 8 1016 87 6000 6.17 340 09:51 21.04.2021
902 Clouds 8 1016 87 6000 6.17 330 09:19 21.04.2021
903 Clouds 8 1016 87 6000 6.17 330 08:40 21.04.2021
904 Clouds 8 1016 87 7000 3.09 310 08:20 21.04.2021
905 Fog 7 1015 87 10000 1.54 300 07:31 21.04.2021
906 Fog 6 1015 87 10000 1.54 300 06:56 21.04.2021
907 Clouds 6 1015 87 10000 1.03 270 05:22 21.04.2021
908 Clear 7 1016 75 10000 0.51 340 01:32 21.04.2021
909 Clear 8 1016 61 10000 2.57 360 23:51 20.04.2021
910 Clear 8 1017 49 10000 3.09 20 23:25 20.04.2021
911 Clear 8 1017 49 10000 3.09 20 22:41 20.04.2021
912 Clear 8 1017 46 10000 3.09 10 22:21 20.04.2021
913 Clear 9 1017 46 10000 3.09 10 21:47 20.04.2021
914 Clear 9 1016 40 10000 3.09 350 21:25 20.04.2021
915 Clear 11 1016 40 10000 3.09 350 20:44 20.04.2021
916 Clear 11 1016 37 10000 3.6 360 20:24 20.04.2021
917 Clear 12 1016 37 10000 3.6 360 19:57 20.04.2021
918 Clear 12 1016 37 10000 3.6 360 19:39 20.04.2021
919 Clouds 14 1016 38 10000 5.14 360 19:21 20.04.2021
920 Clouds 14 1016 38 10000 5.14 360 18:35 20.04.2021
921 Clouds 15 1016 38 10000 3.09 10 17:46 20.04.2021
922 Clouds 16 1016 33 10000 3.6 50 17:28 20.04.2021
923 Clouds 16 1016 33 10000 3.6 50 16:49 20.04.2021
924 Clouds 16 1017 33 10000 3.09 40 15:53 20.04.2021
925 Clouds 15 1017 33 10000 4.12 70 15:29 20.04.2021
926 Clouds 15 1017 33 10000 4.12 70 14:58 20.04.2021
927 Clouds 15 1017 33 10000 4.12 70 14:33 20.04.2021
928 Clear 15 1018 38 10000 4.12 60 13:48 20.04.2021
929 Clear 14 1018 41 10000 4.12 80 13:22 20.04.2021
930 Clear 14 1018 41 10000 4.12 80 12:44 20.04.2021
931 Clear 13 1018 47 10000 3.09 70 12:20 20.04.2021
932 Clear 13 1018 47 10000 3.09 70 11:44 20.04.2021
933 Clear 11 1018 54 10000 3.09 70 11:21 20.04.2021
934 Clear 11 1018 54 10000 3.09 70 10:44 20.04.2021
935 Clear 9 1018 61 10000 3.6 80 10:23 20.04.2021
936 Clear 10 1018 61 10000 3.6 80 09:36 20.04.2021
937 Clear 8 1018 76 10000 2.57 70 08:56 20.04.2021
938 Fog 7 1018 81 10000 2.57 70 08:22 20.04.2021
939 Fog 5 1018 81 10000 2.57 70 07:47 20.04.2021
940 Fog 6 1018 81 10000 3.09 60 06:47 20.04.2021
941 Fog 7 1019 81 10000 3.09 70 05:40 20.04.2021
942 Clear 7 1019 81 10000 3.09 70 04:42 20.04.2021
943 Clear 8 1020 65 10000 1.54 60 01:57 20.04.2021
944 Clear 8 1020 75 10000 1.03 50 00:38 20.04.2021
945 Clear 9 1020 76 10000 2.06 60 23:37 19.04.2021
946 Clear 9 1020 76 10000 3.09 60 22:58 19.04.2021
947 Clear 9 1020 76 10000 3.09 60 22:36 19.04.2021
948 Clouds 9 1020 81 10000 0.51 0 21:51 19.04.2021
949 Clouds 9 1020 76 10000 2.57 340 21:33 19.04.2021
950 Clouds 9 1020 76 10000 2.57 340 20:56 19.04.2021
951 Clouds 9 1020 76 10000 2.57 340 20:38 19.04.2021
952 Clouds 10 1020 62 10000 3.6 350 20:19 19.04.2021
953 Clouds 9 1020 62 10000 3.6 350 19:41 19.04.2021
954 Clouds 10 1020 55 10000 3.6 350 19:23 19.04.2021
955 Clouds 11 1020 55 10000 3.6 350 18:47 19.04.2021
956 Clouds 11 1020 51 10000 2.57 60 18:22 19.04.2021
957 Clouds 11 1020 51 10000 2.57 60 17:54 19.04.2021
958 Clouds 11 1020 44 10000 3.09 70 17:29 19.04.2021
959 Clouds 10 1020 44 10000 3.09 70 16:51 19.04.2021
960 Clouds 10 1020 44 10000 3.09 70 16:33 19.04.2021
961 Clouds 11 1021 58 10000 3.09 40 15:55 19.04.2021
962 Clouds 11 1021 67 10000 3.09 80 15:30 19.04.2021
963 Clouds 14 1021 67 10000 3.09 80 14:55 19.04.2021
964 Clouds 12 1021 67 10000 3.09 80 14:36 19.04.2021
965 Clouds 12 1022 76 10000 3.6 70 13:54 19.04.2021
966 Clouds 12 1022 82 8000 4.12 70 13:30 19.04.2021
967 Clouds 10 1022 82 8000 4.12 70 12:56 19.04.2021
968 Clouds 10 1022 87 7000 3.6 80 12:38 19.04.2021
969 Clouds 10 1022 87 6000 4.12 70 12:19 19.04.2021
970 Mist 9 1022 93 2500 3.09 80 11:51 19.04.2021
971 Mist 8 1022 93 2200 3.6 80 11:20 19.04.2021
972 Mist 9 1022 93 2200 3.6 80 10:44 19.04.2021
973 Mist 9 1022 100 1200 3.6 90 10:20 19.04.2021
974 Mist 9 1022 100 1200 3.6 90 09:48 19.04.2021
975 Mist 9 1022 93 1000 3.6 90 09:26 19.04.2021
976 Fog 7 1022 93 700 4.12 90 08:45 19.04.2021
977 Mist 7 1022 93 3000 4.12 90 08:22 19.04.2021
978 Fog 6 1022 93 7000 3.6 70 07:45 19.04.2021
979 Fog 6 1022 93 9000 3.09 70 07:18 19.04.2021
980 Clouds 7 1021 93 10000 3.09 60 05:43 19.04.2021
981 Clouds 8 1022 93 10000 2.06 70 02:34 19.04.2021
982 Clouds 8 1022 87 10000 1.03 100 00:45 19.04.2021
983 Clouds 8 1022 76 10000 2.57 70 23:22 18.04.2021
984 Clouds 8 1022 76 10000 2.57 70 22:58 18.04.2021
985 Clouds 8 1022 76 10000 2.57 70 22:40 18.04.2021
986 Clouds 8 1022 76 10000 3.09 40 22:22 18.04.2021
987 Clouds 9 1021 71 10000 3.09 10 21:29 18.04.2021
988 Clouds 9 1021 71 10000 3.09 10 21:29 18.04.2021
989 Clouds 9 1021 71 10000 3.09 10 20:56 18.04.2021
990 Clouds 9 1021 71 10000 3.09 10 20:37 18.04.2021
991 Clouds 10 1021 62 10000 3.09 10 20:19 18.04.2021
992 Clouds 10 1021 62 10000 3.09 10 19:44 18.04.2021
993 Clouds 11 1021 54 10000 3.6 360 19:21 18.04.2021
994 Clouds 11 1021 54 10000 3.6 360 18:46 18.04.2021
995 Clouds 11 1021 51 10000 3.6 360 18:27 18.04.2021
996 Clouds 11 1021 51 10000 3.6 360 17:49 18.04.2021
997 Clouds 11 1021 47 10000 4.63 20 17:29 18.04.2021
998 Clouds 12 1021 47 10000 4.63 20 16:54 18.04.2021
999 Clouds 12 1021 47 10000 4.63 20 16:35 18.04.2021
1000 Clouds 12 1021 47 10000 5.14 40 15:51 18.04.2021
1001 Clouds 12 1021 51 10000 5.66 60 15:30 18.04.2021
1002 Clouds 15 1021 51 10000 5.66 60 14:58 18.04.2021
1003 Clouds 15 1021 51 10000 5.66 60 14:39 18.04.2021
1004 Clouds 11 1022 51 10000 5.14 60 14:18 18.04.2021
1005 Clouds 11 1022 51 10000 5.14 60 13:44 18.04.2021
1006 Clouds 10 1022 50 10000 5.14 50 13:24 18.04.2021
1007 Clouds 11 1022 50 10000 5.14 50 12:35 18.04.2021
1008 Clouds 10 1022 54 10000 5.14 50 11:52 18.04.2021
1009 Clouds 10 1022 57 10000 6.17 60 11:27 18.04.2021
1010 Clouds 10 1022 57 10000 6.17 60 10:54 18.04.2021
1011 Clouds 10 1022 57 10000 6.17 60 10:35 18.04.2021
1012 Clouds 10 1023 61 10000 5.14 60 09:58 18.04.2021
1013 Clouds 9 1023 61 10000 5.14 60 09:39 18.04.2021
1014 Clouds 9 1023 61 10000 5.14 60 09:39 18.04.2021
1015 Clouds 9 1023 71 10000 4.12 50 09:19 18.04.2021
1016 Clouds 7 1023 71 10000 4.12 50 08:41 18.04.2021
1017 Clouds 7 1022 70 10000 3.6 60 08:19 18.04.2021
1018 Clouds 7 1022 70 10000 3.6 60 07:39 18.04.2021
1019 Clouds 6 1022 75 10000 3.09 30 05:48 18.04.2021
1020 Clouds 6 1022 76 10000 3.6 40 05:26 18.04.2021
1021 Clouds 6 1023 75 10000 2.57 60 04:30 18.04.2021
1022 Clouds 6 1023 75 10000 2.57 50 02:23 18.04.2021
1023 Clouds 6 1024 75 10000 3.09 50 00:41 18.04.2021
1024 Clouds 6 1023 70 10000 1.54 70 23:46 17.04.2021
1025 Clouds 6 1023 75 10000 1.03 50 23:22 17.04.2021
1026 Clouds 7 1023 75 10000 1.03 50 22:43 17.04.2021
1027 Clouds 7 1023 76 10000 2.57 20 22:21 17.04.2021
1028 Clouds 7 1023 76 10000 2.57 20 21:41 17.04.2021
1029 Clouds 7 1023 71 10000 3.09 350 21:21 17.04.2021
1030 Clouds 9 1023 62 10000 4.12 350 20:29 17.04.2021
1031 Clouds 9 1023 62 10000 4.12 350 19:46 17.04.2021
1032 Clouds 9 1023 62 10000 4.12 350 19:46 17.04.2021
1033 Clouds 9 1022 54 10000 4.12 350 19:23 17.04.2021
1034 Clouds 9 1022 54 10000 4.12 350 18:59 17.04.2021
1035 Clouds 9 1022 54 10000 4.12 350 18:40 17.04.2021
1036 Clouds 9 1023 47 10000 4.12 330 18:20 17.04.2021
1037 Clouds 10 1023 47 10000 4.12 330 17:41 17.04.2021
1038 Clouds 10 1023 47 10000 3.09 360 16:56 17.04.2021
1039 Clouds 10 1023 47 10000 3.09 360 16:34 17.04.2021
1040 Clouds 11 1023 50 10000 3.6 10 15:56 17.04.2021
1041 Clouds 9 1024 54 10000 4.12 10 14:51 17.04.2021
1042 Clouds 9 1024 54 10000 4.12 10 14:33 17.04.2021
1043 Clouds 9 1024 54 10000 4.12 10 14:33 17.04.2021
1044 Clouds 9 1024 53 10000 5.66 360 13:59 17.04.2021
1045 Clouds 9 1024 53 10000 5.66 360 13:40 17.04.2021
1046 Clouds 8 1024 57 10000 4.63 20 12:42 17.04.2021
1047 Clouds 8 1025 61 10000 4.63 350 12:22 17.04.2021
1048 Clouds 8 1025 61 10000 4.63 350 11:50 17.04.2021
1049 Clouds 8 1025 66 10000 4.63 20 11:31 17.04.2021
1050 Clouds 8 1025 66 10000 4.63 20 10:48 17.04.2021
1051 Clouds 8 1025 76 10000 5.14 350 10:29 17.04.2021
1052 Clouds 7 1025 76 10000 5.14 350 09:44 17.04.2021
1053 Clouds 7 1025 75 10000 3.6 350 08:42 17.04.2021
1054 Clouds 6 1025 75 10000 3.09 340 08:24 17.04.2021
1055 Clouds 5 1026 75 10000 2.57 350 07:20 17.04.2021
1056 Clouds 5 1026 93 10000 1.54 20 03:59 17.04.2021
1057 Clouds 5 1026 93 10000 1.54 20 03:39 17.04.2021
1058 Clouds 6 1027 87 10000 2.57 360 00:51 17.04.2021
1059 Clouds 6 1027 81 10000 2.57 350 00:29 17.04.2021
1060 Clouds 6 1027 81 10000 2.57 350 23:52 16.04.2021
1061 Clouds 6 1027 81 10000 2.57 350 23:32 16.04.2021
1062 Clouds 7 1027 75 10000 3.09 360 22:51 16.04.2021
1063 Clouds 7 1027 65 10000 4.63 360 22:22 16.04.2021
1064 Clouds 7 1027 65 10000 4.63 360 21:54 16.04.2021
1065 Clouds 7 1027 65 10000 4.63 360 21:35 16.04.2021
1066 Clouds 8 1027 61 10000 5.14 360 20:54 16.04.2021
1067 Clouds 8 1027 49 10000 5.66 360 20:29 16.04.2021
1068 Clouds 8 1027 49 10000 5.66 360 19:55 16.04.2021
1069 Clouds 9 1027 49 10000 5.66 360 19:37 16.04.2021
1070 Clouds 9 1027 50 10000 6.69 340 18:47 16.04.2021
1071 Clouds 9 1027 32 10000 5.14 40 18:21 16.04.2021
1072 Clouds 9 1027 32 10000 5.14 40 17:46 16.04.2021
1073 Clouds 9 1027 35 10000 6.17 40 17:19 16.04.2021
1074 Clouds 9 1027 35 10000 6.17 40 16:44 16.04.2021
1075 Clouds 9 1027 35 10000 6.17 40 16:44 16.04.2021
1076 Clouds 9 1028 35 10000 5.14 50 16:25 16.04.2021
1077 Clouds 9 1028 35 10000 5.14 50 15:52 16.04.2021
1078 Clouds 9 1028 35 10000 7.2 40 15:28 16.04.2021
1079 Clouds 9 1028 35 10000 7.2 40 14:43 16.04.2021
1080 Clouds 8 1028 43 10000 5.14 50 14:20 16.04.2021
1081 Clouds 8 1028 43 10000 5.14 50 13:54 16.04.2021
1082 Clouds 8 1028 49 10000 6.17 60 13:21 16.04.2021
1083 Clouds 8 1028 49 10000 6.17 60 12:51 16.04.2021
1084 Clouds 8 1029 66 10000 4.63 60 12:29 16.04.2021
1085 Clouds 8 1029 66 10000 4.63 60 11:58 16.04.2021
1086 Clouds 8 1029 70 10000 4.63 40 11:27 16.04.2021
1087 Clouds 8 1029 70 10000 4.63 40 10:59 16.04.2021
1088 Clouds 8 1029 70 10000 4.63 40 10:39 16.04.2021
1089 Clouds 7 1028 70 10000 4.63 40 10:19 16.04.2021
1090 Clouds 7 1028 70 10000 4.63 40 09:43 16.04.2021
1091 Clouds 7 1028 70 10000 3.6 20 09:20 16.04.2021
1092 Clouds 6 1028 70 10000 3.6 20 08:42 16.04.2021
1093 Clouds 6 1028 75 10000 2.57 10 08:18 16.04.2021
1094 Clouds 5 1028 75 10000 2.57 10 07:37 16.04.2021
1095 Clouds 5 1028 75 10000 2.57 360 06:59 16.04.2021
1096 Clouds 5 1028 75 10000 2.57 10 06:24 16.04.2021
1097 Clouds 5 1029 70 10000 2.57 360 04:23 16.04.2021
1098 Clouds 5 1029 75 10000 2.06 10 01:38 16.04.2021
1099 Clouds 6 1030 70 10000 3.09 360 00:42 16.04.2021
1100 Clouds 5 1030 75 10000 2.06 10 00:20 16.04.2021
1101 Clouds 5 1030 75 10000 2.06 10 23:45 15.04.2021
1102 Clouds 5 1030 75 10000 2.06 10 23:25 15.04.2021
1103 Clouds 6 1030 81 10000 2.06 360 22:47 15.04.2021
1104 Clouds 6 1030 75 10000 2.57 360 22:23 15.04.2021
1105 Clouds 6 1030 75 10000 2.57 360 21:43 15.04.2021
1106 Clouds 6 1030 65 10000 3.09 350 21:24 15.04.2021
1107 Clouds 7 1030 65 10000 3.09 350 20:47 15.04.2021
1108 Clouds 7 1030 61 10000 4.63 360 20:25 15.04.2021
1109 Clouds 7 1030 61 10000 4.63 360 19:47 15.04.2021
1110 Clouds 7 1030 57 10000 5.14 360 19:28 15.04.2021
1111 Clouds 7 1030 57 10000 5.14 360 18:59 15.04.2021
1112 Clouds 8 1030 57 10000 5.14 360 18:37 15.04.2021
1113 Clouds 8 1030 49 10000 4.63 360 18:18 15.04.2021
1114 Clouds 8 1030 49 10000 4.63 360 17:44 15.04.2021
1115 Clouds 8 1030 43 10000 5.14 360 17:24 15.04.2021
1116 Clouds 8 1030 43 10000 5.14 360 16:43 15.04.2021
1117 Clouds 8 1030 46 10000 5.14 350 16:24 15.04.2021
1118 Clouds 8 1030 46 10000 5.14 350 15:47 15.04.2021
1119 Clouds 8 1031 46 10000 5.14 10 15:27 15.04.2021
1120 Clouds 8 1031 46 10000 5.14 10 14:43 15.04.2021
1121 Clouds 8 1031 43 10000 4.12 20 14:25 15.04.2021
1122 Clouds 8 1031 43 10000 4.12 20 13:48 15.04.2021
1123 Clouds 8 1031 42 10000 4.12 30 13:25 15.04.2021
1124 Clouds 8 1031 42 10000 4.12 30 12:49 15.04.2021
1125 Clouds 8 1031 49 10000 4.12 40 12:26 15.04.2021
1126 Clouds 7 1031 49 10000 4.12 40 11:48 15.04.2021
1127 Clouds 6 1031 65 10000 3.6 50 11:27 15.04.2021
1128 Clouds 6 1031 65 10000 3.6 50 11:27 15.04.2021
1129 Clouds 6 1031 65 10000 3.6 50 10:58 15.04.2021
1130 Clouds 6 1031 65 10000 3.6 50 10:39 15.04.2021
1131 Clouds 5 1031 75 10000 3.6 50 10:20 15.04.2021
1132 Clouds 4 1031 81 10000 2.06 60 09:30 15.04.2021
1133 Clouds 5 1031 81 10000 2.06 60 08:53 15.04.2021
1134 Clouds 5 1031 87 10000 2.06 50 08:30 15.04.2021
1135 Clouds 3 1030 93 10000 1.54 60 07:36 15.04.2021
1136 Clouds 3 1030 93 10000 1.54 60 06:56 15.04.2021
1137 Clouds 3 1030 93 10000 1.54 60 06:35 15.04.2021
1138 Clouds 4 1030 87 10000 1.54 60 04:55 15.04.2021
1139 Clouds 4 1029 93 10000 1.54 60 03:59 15.04.2021
1140 Clouds 4 1029 87 10000 1.54 360 23:59 14.04.2021
1141 Clouds 4 1029 87 10000 1.03 340 23:32 14.04.2021
1142 Clouds 5 1029 81 10000 2.06 340 22:57 14.04.2021
1143 Clouds 5 1029 81 10000 2.06 340 22:37 14.04.2021
1144 Clouds 5 1029 81 10000 1.54 330 22:19 14.04.2021
1145 Clouds 5 1029 81 10000 1.54 330 21:40 14.04.2021
1146 Clouds 5 1029 75 10000 2.06 320 21:22 14.04.2021
1147 Clouds 5 1029 75 10000 2.06 320 20:39 14.04.2021
1148 Clouds 5 1029 70 10000 4.12 330 20:20 14.04.2021
1149 Clouds 5 1029 70 10000 4.12 330 19:44 14.04.2021
1150 Clouds 5 1029 65 10000 5.66 340 19:19 14.04.2021
1151 Clouds 7 1029 65 10000 5.66 340 18:50 14.04.2021
1152 Clouds 7 1029 61 10000 6.69 330 18:19 14.04.2021
1153 Clouds 5 1029 61 10000 6.69 330 17:55 14.04.2021
1154 Clouds 5 1029 61 10000 7.2 330 17:24 14.04.2021
1155 Clouds 7 1029 61 10000 7.2 330 16:48 14.04.2021
1156 Clouds 7 1029 61 10000 6.69 320 16:24 14.04.2021
1157 Clouds 7 1029 61 10000 6.69 320 15:41 14.04.2021
1158 Clouds 7 1029 81 10000 3.6 350 15:22 14.04.2021
1159 Clouds 7 1029 81 10000 3.6 350 14:44 14.04.2021
1160 Clouds 7 1029 65 10000 7.72 320 14:23 14.04.2021
1161 Clouds 7 1029 65 10000 7.72 340 13:53 14.04.2021
1162 Clouds 7 1030 81 10000 5.14 340 13:00 14.04.2021
1163 Clouds 5 1030 81 10000 5.14 340 12:36 14.04.2021
1164 Clouds 5 1030 81 10000 5.14 340 12:36 14.04.2021
1165 Rain 7 1030 65 10000 6.17 330 11:43 14.04.2021
1166 Clouds 7 1030 81 10000 8.75 300 11:24 14.04.2021
1167 Clouds 7 1029 70 10000 6.17 320 10:38 14.04.2021
1168 Clouds 7 1029 70 10000 6.17 320 09:59 14.04.2021
1169 Clouds 7 1029 70 10000 6.17 320 09:41 14.04.2021
1170 Clouds 6 1030 81 10000 2.06 270 09:20 14.04.2021
1171 Clouds 4 1030 81 10000 2.06 270 08:34 14.04.2021
1172 Clouds 4 1029 80 10000 4.12 20 07:58 14.04.2021
1173 Clouds 4 1029 87 9000 4.63 320 06:48 14.04.2021
1174 Clouds 5 1029 81 10000 3.6 330 06:23 14.04.2021
1175 Clouds 4 1029 87 10000 4.12 310 04:34 14.04.2021
1176 Clouds 4 1029 87 10000 3.6 310 01:42 14.04.2021
1177 Clouds 4 1029 87 10000 3.6 310 01:42 14.04.2021
1178 Clouds 4 1029 87 10000 3.6 310 01:42 14.04.2021
1179 Clouds 5 1030 81 10000 3.09 320 00:37 14.04.2021
1180 Clouds 5 1030 81 10000 3.6 310 23:46 13.04.2021
1181 Clouds 5 1029 81 10000 5.14 320 23:21 13.04.2021
1182 Clouds 5 1029 81 10000 5.14 320 22:41 13.04.2021
1183 Clouds 5 1030 75 10000 5.14 330 22:19 13.04.2021
1184 Clouds 5 1029 81 10000 4.63 290 21:45 13.04.2021
1185 Clouds 5 1029 75 10000 6.69 300 21:27 13.04.2021
1186 Clouds 6 1029 75 10000 6.69 300 20:42 13.04.2021
1187 Clouds 7 1029 70 10000 6.17 310 20:21 13.04.2021
1188 Clouds 7 1029 70 10000 6.17 310 19:48 13.04.2021
1189 Clouds 7 1029 70 10000 9.26 310 19:24 13.04.2021
1190 Clouds 7 1029 70 10000 9.26 310 18:40 13.04.2021
1191 Clouds 8 1029 65 10000 9.26 310 17:56 13.04.2021
1192 Clouds 8 1029 65 10000 9.26 310 17:36 13.04.2021
1193 Clouds 7 1029 70 10000 10.29 300 17:18 13.04.2021
1194 Clouds 6 1029 70 10000 10.29 300 16:43 13.04.2021
1195 Clouds 8 1028 61 10000 10.29 300 16:20 13.04.2021
1196 Clouds 8 1028 61 10000 10.29 300 15:44 13.04.2021
1197 Clouds 8 1028 61 10000 10.29 300 15:44 13.04.2021
1198 Clouds 8 1029 70 10000 9.77 300 15:22 13.04.2021
1199 Clouds 8 1029 70 10000 9.77 300 14:46 13.04.2021
1200 Clouds 8 1028 65 10000 10.29 300 14:19 13.04.2021
1201 Clouds 8 1028 65 10000 10.29 300 13:45 13.04.2021
1202 Clouds 8 1028 70 10000 10.29 300 13:24 13.04.2021
1203 Clouds 8 1028 70 10000 10.29 300 12:56 13.04.2021
1204 Clouds 8 1028 70 10000 9.77 300 12:28 13.04.2021
1205 Clouds 7 1028 70 10000 9.77 300 11:56 13.04.2021
1206 Clouds 7 1028 75 10000 8.23 300 11:30 13.04.2021
1207 Clouds 7 1028 75 10000 8.23 300 11:30 13.04.2021
1208 Clouds 6 1028 75 10000 8.23 300 10:53 13.04.2021
1209 Clouds 6 1028 81 10000 7.2 300 10:21 13.04.2021
1210 Clouds 6 1028 81 10000 7.2 300 10:21 13.04.2021
1211 Clouds 6 1028 81 10000 7.2 300 09:57 13.04.2021
1212 Clouds 6 1028 81 10000 7.2 300 09:36 13.04.2021
1213 Clouds 5 1027 81 10000 7.2 290 08:57 13.04.2021
1214 Clouds 5 1027 81 10000 7.2 290 08:38 13.04.2021
1215 Clouds 5 1026 81 10000 6.17 280 08:20 13.04.2021
1216 Clouds 5 1026 81 10000 6.17 280 07:36 13.04.2021
1217 Clouds 5 1026 93 10000 3.6 240 06:31 13.04.2021
1218 Clear 4 1026 87 10000 5.14 260 04:49 13.04.2021
1219 Clouds 5 1026 87 10000 4.12 250 02:25 13.04.2021
1220 Clouds 4 1025 81 10000 4.12 230 00:26 13.04.2021
1221 Clouds 5 1025 81 10000 4.12 230 23:48 12.04.2021
1222 Clouds 5 1025 81 10000 3.6 240 23:25 12.04.2021
1223 Clouds 5 1025 81 10000 3.6 240 22:39 12.04.2021
1224 Clouds 5 1025 70 10000 6.69 260 22:18 12.04.2021
1225 Clouds 5 1025 70 10000 6.69 260 21:45 12.04.2021
1226 Clouds 5 1025 70 10000 5.66 260 21:19 12.04.2021
1227 Clouds 5 1025 70 10000 5.66 260 20:41 12.04.2021
1228 Clouds 5 1024 65 10000 8.23 280 20:22 12.04.2021
1229 Clouds 5 1024 65 10000 8.23 280 20:22 12.04.2021
1230 Clouds 6 1024 65 10000 8.23 280 19:55 12.04.2021
1231 Clouds 6 1024 65 10000 8.23 280 19:37 12.04.2021
1232 Clouds 6 1024 65 10000 9.77 280 19:18 12.04.2021
1233 Clouds 6 1024 65 10000 9.77 280 18:44 12.04.2021
1234 Clouds 7 1024 65 10000 8.75 280 18:25 12.04.2021
1235 Clouds 5 1024 65 10000 8.75 280 17:43 12.04.2021
1236 Clouds 5 1023 65 10000 8.23 290 17:23 12.04.2021
1237 Clouds 7 1023 65 10000 8.23 290 16:47 12.04.2021
1238 Clouds 7 1023 61 10000 8.23 290 16:27 12.04.2021
1239 Clouds 7 1023 61 10000 8.23 290 15:49 12.04.2021
1240 Clouds 7 1023 56 10000 6.17 260 15:31 12.04.2021
1241 Clouds 7 1023 56 10000 6.17 260 14:53 12.04.2021
1242 Clouds 7 1023 56 10000 6.17 260 14:35 12.04.2021
1243 Clouds 7 1023 61 10000 6.69 270 13:49 12.04.2021
1244 Clouds 7 1023 56 10000 8.23 260 13:29 12.04.2021
1245 Clouds 6 1023 61 10000 5.66 260 12:51 12.04.2021
1246 Clouds 6 1022 70 10000 5.66 260 12:27 12.04.2021
1247 Clouds 6 1022 70 10000 5.66 260 11:59 12.04.2021
1248 Clouds 6 1022 81 10000 3.6 270 11:24 12.04.2021
1249 Clouds 5 1022 81 5000 9.26 280 10:47 12.04.2021
1250 Clouds 5 1021 81 10000 5.66 250 10:27 12.04.2021
1251 Clouds 4 1021 81 10000 5.66 250 09:50 12.04.2021
1252 Clouds 4 1021 75 10000 5.66 290 09:20 12.04.2021
1253 Rain 4 1021 75 10000 5.66 290 08:39 12.04.2021
1254 Clouds 3 1020 81 10000 5.14 290 07:42 12.04.2021
1255 Clouds 3 1020 75 10000 5.14 290 07:21 12.04.2021
1256 Clouds 3 1019 75 10000 6.69 300 06:25 12.04.2021
1257 Clouds 4 1019 75 10000 6.69 300 05:41 12.04.2021
1258 Clouds 4 1018 81 10000 6.17 300 01:40 12.04.2021
1259 Clouds 4 1018 81 10000 6.17 300 01:40 12.04.2021
1260 Clouds 4 1016 75 10000 5.66 320 00:26 12.04.2021
1261 Clouds 4 1016 75 10000 5.66 320 23:49 11.04.2021
1262 Clouds 4 1016 75 10000 6.17 310 23:30 11.04.2021
1263 Clouds 4 1016 75 10000 6.17 310 22:48 11.04.2021
1264 Clouds 4 1015 81 10000 6.17 310 22:26 11.04.2021
1265 Clouds 4 1015 81 10000 6.17 310 21:50 11.04.2021
1266 Clouds 4 1014 81 10000 6.17 310 21:30 11.04.2021
1267 Clouds 4 1014 81 10000 6.17 310 21:30 11.04.2021
1268 Clouds 4 1014 81 10000 6.17 310 20:58 11.04.2021
1269 Clouds 5 1013 81 10000 7.2 310 20:31 11.04.2021
1270 Clouds 5 1013 81 10000 7.2 310 19:58 11.04.2021
1271 Clouds 5 1013 87 10000 6.69 310 19:39 11.04.2021
1272 Clouds 5 1013 87 10000 6.69 310 19:19 11.04.2021
1273 Clouds 5 1013 87 10000 6.69 310 18:45 11.04.2021
1274 Clouds 5 1012 75 10000 7.72 300 18:26 11.04.2021
1275 Clouds 5 1012 75 10000 7.72 300 17:49 11.04.2021
1276 Clouds 5 1011 81 10000 8.75 310 17:28 11.04.2021
1277 Clouds 5 1011 81 10000 8.75 310 16:53 11.04.2021
1278 Clouds 4 1010 87 10000 7.72 300 16:27 11.04.2021
1279 Clouds 4 1010 87 10000 7.72 300 15:58 11.04.2021
1280 Clouds 4 1010 87 10000 7.72 300 15:38 11.04.2021
1281 Clouds 4 1009 87 10000 7.72 290 15:20 11.04.2021
1282 Clouds 4 1009 87 10000 7.72 290 14:47 11.04.2021
1283 Clouds 4 1008 93 10000 7.72 280 14:18 11.04.2021
1284 Clouds 4 1008 93 10000 7.72 280 13:39 11.04.2021
1285 Drizzle 4 1007 93 8000 7.2 290 13:21 11.04.2021
1286 Mist 4 1007 93 4500 6.69 300 12:25 11.04.2021
1287 Clouds 4 1006 93 10000 6.69 250 11:53 11.04.2021
1288 Clouds 4 1006 93 10000 6.69 250 11:33 11.04.2021
1289 Mist 4 1005 100 5000 3.6 230 10:56 11.04.2021
1290 Mist 4 1005 100 5000 3.6 230 10:38 11.04.2021
1291 Mist 4 1005 100 5000 4.63 240 10:20 11.04.2021
1292 Mist 4 1005 100 2000 1.54 220 09:38 11.04.2021
1293 Fog 4 1005 100 900 2.57 80 09:20 11.04.2021
1294 Fog 4 1005 100 900 2.57 80 08:38 11.04.2021
1295 Mist 4 1005 93 3000 3.6 50 07:37 11.04.2021
1296 Mist 3 1005 100 3500 4.12 70 07:18 11.04.2021
1297 Mist 3 1006 100 3500 6.17 70 05:44 11.04.2021
1298 Drizzle 3 1006 93 3500 6.17 70 05:21 11.04.2021
1299 Clouds 3 1007 93 1700 8.23 60 04:35 11.04.2021
1300 Rain 3 1009 93 4900 8.23 70 03:20 11.04.2021
1301 Rain 4 1012 87 7000 8.23 80 00:49 11.04.2021
1302 Rain 4 1013 87 7000 5.14 80 00:25 11.04.2021
1303 Rain 5 1013 65 10000 4.63 100 23:30 10.04.2021
1304 Rain 5 1013 65 10000 4.63 100 22:54 10.04.2021
1305 Rain 5 1014 61 10000 4.63 40 22:25 10.04.2021
1306 Rain 5 1014 61 10000 4.63 40 21:52 10.04.2021
1307 Rain 5 1014 65 10000 2.57 60 21:24 10.04.2021
1308 Rain 5 1014 65 10000 2.57 60 20:53 10.04.2021
1309 Rain 5 1014 65 10000 4.12 40 20:32 10.04.2021
1310 Rain 5 1014 65 10000 4.12 40 20:32 10.04.2021
1311 Rain 6 1014 65 10000 4.12 40 19:48 10.04.2021
1312 Rain 6 1015 61 10000 4.63 30 19:28 10.04.2021
1313 Clouds 6 1015 61 10000 4.63 30 18:57 10.04.2021
1314 Clouds 6 1015 61 10000 4.63 30 18:39 10.04.2021
1315 Clouds 6 1015 56 10000 5.14 40 18:20 10.04.2021
1316 Clouds 7 1015 56 10000 5.14 40 17:34 10.04.2021
1317 Clouds 7 1016 49 10000 4.12 50 16:32 10.04.2021
1318 Clouds 7 1016 45 10000 4.12 30 15:56 10.04.2021
1319 Clouds 7 1016 45 10000 4.12 30 15:36 10.04.2021
1320 Clouds 7 1017 42 10000 2.06 40 14:51 10.04.2021
1321 Clouds 7 1017 42 10000 2.57 50 14:28 10.04.2021
1322 Clouds 7 1017 42 10000 2.57 50 13:54 10.04.2021
1323 Clouds 7 1017 42 10000 2.57 50 13:34 10.04.2021
1324 Clouds 7 1017 49 10000 3.09 60 12:39 10.04.2021
1325 Clouds 7 1017 52 10000 3.09 50 12:18 10.04.2021
1326 Clouds 7 1017 52 10000 3.09 50 11:44 10.04.2021
1327 Clouds 6 1016 56 10000 2.06 30 11:20 10.04.2021
1328 Clouds 5 1016 56 10000 2.06 30 10:44 10.04.2021
1329 Clouds 5 1016 65 10000 2.06 350 10:26 10.04.2021
1330 Clouds 5 1015 81 10000 1.03 330 09:30 10.04.2021
1331 Clouds 5 1015 81 10000 1.03 330 09:30 10.04.2021
1332 Clouds 5 1015 81 10000 1.03 330 08:59 10.04.2021
1333 Clouds 4 1015 81 10000 1.03 330 08:33 10.04.2021
1334 Clouds 3 1014 87 10000 1.54 350 07:55 10.04.2021
1335 Clouds 3 1014 87 10000 0.51 330 07:25 10.04.2021
1336 Clouds 4 1013 81 10000 1.54 10 06:27 10.04.2021
1337 Clouds 5 1013 81 10000 1.54 340 04:49 10.04.2021
1338 Clouds 5 1013 87 10000 1.54 320 03:19 10.04.2021
1339 Clouds 5 1013 87 10000 1.54 320 02:42 10.04.2021
1340 Clouds 5 1012 93 10000 1.54 320 00:59 10.04.2021
1341 Clouds 5 1012 93 10000 1.54 320 00:30 10.04.2021
1342 Clouds 5 1012 93 10000 1.54 320 23:50 09.04.2021
1343 Clouds 5 1012 87 10000 1.54 260 23:27 09.04.2021
1344 Clouds 5 1012 87 10000 1.54 270 22:47 09.04.2021
1345 Clouds 5 1012 87 10000 2.06 280 22:28 09.04.2021
1346 Clouds 5 1012 87 10000 2.06 280 21:40 09.04.2021
1347 Clouds 5 1012 87 10000 3.09 280 21:20 09.04.2021
1348 Clouds 5 1012 87 10000 3.09 280 21:20 09.04.2021
1349 Clouds 6 1012 87 10000 3.09 250 20:46 09.04.2021
1350 Clouds 6 1011 87 10000 4.12 250 20:23 09.04.2021
1351 Clouds 6 1011 87 10000 4.12 250 19:58 09.04.2021
1352 Clouds 6 1011 87 10000 4.12 250 19:39 09.04.2021
1353 Clouds 7 1011 81 10000 4.63 250 19:21 09.04.2021
1354 Clouds 7 1011 81 10000 4.63 250 18:42 09.04.2021
1355 Clouds 6 1011 87 10000 5.14 260 18:23 09.04.2021
1356 Clouds 6 1011 87 10000 5.14 260 17:47 09.04.2021
1357 Clouds 6 1011 87 10000 5.14 260 17:29 09.04.2021
1358 Clouds 6 1011 87 10000 5.14 260 16:44 09.04.2021
1359 Clouds 6 1011 87 8000 7.2 290 16:23 09.04.2021
1360 Clouds 5 1011 87 8000 7.2 290 15:43 09.04.2021
1361 Mist 5 1010 93 4000 7.72 300 15:23 09.04.2021
1362 Mist 5 1010 93 4000 7.72 300 14:46 09.04.2021
1363 Clouds 6 1010 81 10000 5.66 240 14:22 09.04.2021
1364 Rain 8 1010 81 10000 5.66 240 13:45 09.04.2021
1365 Rain 8 1010 76 10000 5.66 240 13:22 09.04.2021
1366 Clouds 7 1010 76 10000 5.66 240 12:47 09.04.2021
1367 Rain 7 1009 76 10000 7.2 250 12:23 09.04.2021
1368 Rain 7 1009 76 10000 7.2 250 11:42 09.04.2021
1369 Rain 7 1009 70 10000 6.17 230 11:20 09.04.2021
1370 Rain 7 1009 70 10000 6.17 230 10:37 09.04.2021
1371 Rain 7 1009 70 10000 7.2 230 09:58 09.04.2021
1372 Rain 6 1009 70 10000 6.69 220 09:27 09.04.2021
1373 Rain 6 1009 70 10000 6.69 220 08:56 09.04.2021
1374 Clouds 6 1009 65 10000 5.66 220 08:31 09.04.2021
1375 Clouds 5 1010 65 10000 6.17 220 07:22 09.04.2021
1376 Clouds 5 1010 60 10000 6.69 220 06:28 09.04.2021
1377 Clouds 5 1011 60 10000 6.69 210 04:38 09.04.2021
1378 Clouds 6 1012 60 10000 6.17 210 03:42 09.04.2021
1379 Rain 6 1014 56 10000 7.2 210 00:39 09.04.2021
1380 Clouds 6 1014 61 10000 6.69 210 00:21 09.04.2021
1381 Clouds 6 1014 61 10000 6.69 210 23:38 08.04.2021
1382 Clouds 7 1015 61 10000 6.69 220 22:52 08.04.2021
1383 Clouds 7 1016 61 10000 5.14 220 22:27 08.04.2021
1384 Clouds 7 1016 61 10000 5.14 220 21:59 08.04.2021
1385 Clouds 7 1016 61 10000 5.14 220 21:41 08.04.2021
1386 Clouds 7 1016 61 10000 5.14 230 21:22 08.04.2021
1387 Clouds 7 1016 61 10000 5.14 230 20:58 08.04.2021
1388 Clouds 7 1016 61 10000 5.14 230 20:39 08.04.2021
1389 Clouds 7 1017 61 10000 5.66 230 20:19 08.04.2021
1390 Clouds 7 1017 61 10000 5.66 230 19:40 08.04.2021
1391 Clouds 7 1017 53 10000 6.17 240 19:19 08.04.2021
1392 Clouds 8 1017 53 10000 6.17 240 18:42 08.04.2021
1393 Clouds 8 1018 49 10000 8.23 240 18:19 08.04.2021
1394 Clouds 8 1018 49 10000 8.23 240 17:42 08.04.2021
1395 Clouds 8 1018 53 10000 6.69 230 17:20 08.04.2021
1396 Clouds 8 1018 53 10000 6.69 230 16:45 08.04.2021
1397 Clouds 8 1019 56 10000 6.69 240 16:22 08.04.2021
1398 Clouds 7 1019 56 10000 6.69 240 15:46 08.04.2021
1399 Clouds 7 1019 70 10000 5.14 250 15:26 08.04.2021
1400 Clouds 6 1019 70 10000 5.14 250 14:42 08.04.2021
1401 Clouds 6 1020 70 10000 7.2 260 14:21 08.04.2021
1402 Clouds 4 1020 70 10000 7.2 260 13:49 08.04.2021
1403 Clouds 5 1019 61 10000 7.72 260 13:24 08.04.2021
1404 Clouds 4 1019 61 10000 7.72 260 12:57 08.04.2021
1405 Clouds 4 1019 61 10000 7.72 260 12:33 08.04.2021
1406 Clouds 5 1019 56 10000 5.66 270 11:57 08.04.2021
1407 Clouds 5 1019 70 10000 7.2 290 11:27 08.04.2021
1408 Clouds 6 1019 70 10000 7.2 290 10:56 08.04.2021
1409 Clouds 6 1019 70 10000 7.2 290 10:25 08.04.2021
1410 Clouds 5 1019 70 10000 7.2 290 09:46 08.04.2021
1411 Clouds 5 1018 70 10000 4.63 300 09:27 08.04.2021
1412 Clouds 4 1018 70 10000 4.63 300 08:44 08.04.2021
1413 Clouds 4 1018 70 10000 5.14 300 08:22 08.04.2021
1414 Clouds 3 1018 70 10000 5.14 300 07:46 08.04.2021
1415 Clouds 4 1017 70 10000 5.14 310 06:46 08.04.2021
1416 Clouds 4 1014 70 9000 9.26 310 01:28 08.04.2021
1417 Clouds 4 1014 70 9000 9.26 310 00:32 08.04.2021
1418 Clouds 3 1014 81 10000 9.26 310 23:50 07.04.2021
1419 Clouds 3 1013 75 10000 8.75 330 23:27 07.04.2021
1420 Clouds 3 1013 87 4500 7.72 350 22:58 07.04.2021
1421 Clouds 3 1013 87 4500 7.72 350 22:39 07.04.2021
1422 Clouds 4 1013 75 7000 8.75 320 22:21 07.04.2021
1423 Clouds 3 1013 75 10000 10.29 310 21:34 07.04.2021
1424 Clouds 3 1012 65 10000 10.8 310 20:59 07.04.2021
1425 Clouds 4 1012 65 10000 10.8 310 20:40 07.04.2021
1426 Clouds 4 1012 65 10000 10.8 310 20:19 07.04.2021
1427 Clouds 5 1012 65 10000 10.8 310 19:41 07.04.2021
1428 Clouds 5 1011 75 10000 11.32 310 19:22 07.04.2021
1429 Clouds 5 1011 75 10000 11.32 310 18:42 07.04.2021
1430 Clouds 5 1011 81 10000 8.75 310 18:18 07.04.2021
1431 Clouds 5 1010 87 10000 8.75 310 17:48 07.04.2021
1432 Clouds 5 1010 87 10000 9.26 320 17:30 07.04.2021
1433 Clouds 4 1010 87 9000 12.35 320 16:47 07.04.2021
1434 Clouds 5 1009 75 10000 11.32 310 16:21 07.04.2021
1435 Clouds 6 1009 75 10000 11.32 310 15:56 07.04.2021
1436 Clouds 6 1009 75 10000 11.32 310 15:38 07.04.2021
1437 Clouds 7 1009 75 10000 11.83 310 14:50 07.04.2021
1438 Clouds 6 1008 87 10000 8.75 310 14:25 07.04.2021
1439 Clouds 6 1008 87 10000 8.75 310 13:46 07.04.2021
1440 Clouds 6 1008 93 10000 6.69 330 13:21 07.04.2021
1441 Clouds 5 1008 81 4000 7.72 310 12:48 07.04.2021
1442 Clouds 5 1008 93 10000 5.66 280 12:22 07.04.2021
1443 Clouds 5 1007 81 8000 7.2 250 11:48 07.04.2021
1444 Clouds 5 1007 93 10000 6.69 250 11:25 07.04.2021
1445 Clouds 5 1007 93 10000 6.69 250 10:51 07.04.2021
1446 Clouds 3 1007 93 9000 6.17 250 09:56 07.04.2021
1447 Clouds 3 1007 93 10000 6.69 250 09:37 07.04.2021
1448 Clouds 2 1007 93 10000 6.17 240 09:19 07.04.2021
1449 Clouds 2 1007 93 10000 7.2 250 08:33 07.04.2021
1450 Clouds 2 1006 93 10000 5.14 240 07:57 07.04.2021
1451 Clouds 2 1006 93 10000 5.14 250 07:29 07.04.2021
1452 Clouds 2 1006 93 10000 5.14 250 06:59 07.04.2021
1453 Clouds 3 1006 86 10000 3.6 230 06:21 07.04.2021
1454 Clouds 3 1006 80 9000 7.2 260 03:54 07.04.2021
1455 Clouds 3 1005 75 10000 8.23 310 23:52 06.04.2021
1456 Clouds 3 1005 80 10000 7.72 310 23:23 06.04.2021
1457 Clouds 3 1005 80 10000 7.72 310 22:59 06.04.2021
1458 Clouds 3 1005 75 10000 9.26 310 22:22 06.04.2021
1459 Clouds 3 1005 75 10000 8.23 310 21:59 06.04.2021
1460 Clouds 3 1005 75 10000 8.23 310 21:39 06.04.2021
1461 Clouds 3 1005 75 10000 8.23 310 21:21 06.04.2021
1462 Rain 2 1005 75 10000 8.23 310 20:51 06.04.2021
1463 Snow 2 1004 87 10000 5.14 300 20:21 06.04.2021
1464 Clouds 3 1004 87 10000 5.14 300 19:51 06.04.2021
1465 Clouds 3 1004 87 10000 5.14 300 19:33 06.04.2021
1466 Clouds 2 1004 81 5000 8.23 310 18:49 06.04.2021
1467 Clouds 2 1004 87 10000 7.2 300 18:31 06.04.2021
1468 Clouds 3 1004 87 10000 7.2 300 17:54 06.04.2021
1469 Clouds 3 1004 87 10000 7.2 300 17:36 06.04.2021
1470 Clouds 3 1004 80 5000 9.26 320 17:18 06.04.2021
1471 Clouds 4 1004 75 9000 9.26 310 16:40 06.04.2021
1472 Clouds 3 1004 75 10000 8.75 310 15:46 06.04.2021
1473 Clouds 2 1004 86 8000 9.26 310 15:22 06.04.2021
1474 Clouds 2 1004 80 2000 9.26 320 14:40 06.04.2021
1475 Clouds 3 1004 75 10000 9.26 290 14:20 06.04.2021
1476 Clouds 4 1004 60 10000 10.29 310 13:46 06.04.2021
1477 Rain 4 1005 70 10000 8.75 320 13:25 06.04.2021
1478 Clouds 3 1005 70 10000 8.75 320 12:43 06.04.2021
1479 Clouds 3 1005 70 10000 11.83 310 12:24 06.04.2021
1480 Clouds 3 1005 75 9000 10.8 290 11:54 06.04.2021
1481 Clouds 3 1005 75 9000 10.8 290 11:36 06.04.2021
1482 Clouds 3 1005 75 9000 11.32 290 11:18 06.04.2021
1483 Clouds 3 1005 70 8000 9.26 300 10:38 06.04.2021
1484 Clouds 3 1005 69 10000 10.29 290 10:19 06.04.2021
1485 Clouds 2 1005 69 10000 10.29 290 09:42 06.04.2021
1486 Clouds 3 1005 75 9000 9.77 310 08:48 06.04.2021
1487 Clouds 3 1005 75 7000 11.32 320 08:19 06.04.2021
1488 Rain 3 1005 69 10000 8.75 310 06:57 06.04.2021
1489 Clouds 3 1005 70 10000 8.75 320 06:23 06.04.2021
1490 Clouds 1 1005 86 9000 5.14 320 03:54 06.04.2021
1491 Clouds 2 1005 69 10000 6.17 290 00:48 06.04.2021
1492 Clouds 2 1005 69 10000 5.14 290 00:21 06.04.2021
1493 Clouds 2 1005 69 10000 5.14 290 23:50 05.04.2021
1494 Snow 2 1005 64 10000 6.69 300 23:28 05.04.2021
1495 Clouds 1 1005 64 10000 6.69 300 22:53 05.04.2021
1496 Clouds 1 1005 64 10000 6.69 300 22:33 05.04.2021
1497 Clouds 3 1005 60 10000 9.26 310 21:47 05.04.2021
1498 Clouds 3 1004 64 10000 8.23 300 21:23 05.04.2021
1499 Clouds 3 1004 64 10000 8.23 300 20:49 05.04.2021
1500 Clouds 3 1004 70 10000 11.83 300 20:30 05.04.2021
1501 Clouds 3 1004 70 10000 11.83 300 19:45 05.04.2021
1502 Clouds 3 1003 52 10000 10.8 310 19:25 05.04.2021
1503 Clouds 4 1003 52 10000 10.8 310 18:58 05.04.2021
1504 Clouds 4 1003 52 10000 10.8 310 18:38 05.04.2021
1505 Clouds 4 1003 60 10000 11.83 310 18:19 05.04.2021
1506 Clouds 5 1003 60 10000 11.83 310 17:46 05.04.2021
1507 Rain 5 1003 60 10000 11.83 310 17:21 05.04.2021
1508 Clouds 4 1003 60 10000 11.83 310 16:45 05.04.2021
1509 Clouds 4 1002 60 10000 13.89 310 16:22 05.04.2021
1510 Rain 4 1002 60 10000 13.89 310 15:56 05.04.2021
1511 Clouds 3 1002 69 10000 13.38 300 15:30 05.04.2021
1512 Clouds 3 1002 69 10000 13.38 300 14:58 05.04.2021
1513 Clouds 2 1003 80 4000 8.23 310 14:35 05.04.2021
1514 Rain 3 1002 60 3000 12.35 300 13:41 05.04.2021
1515 Clouds 3 1002 48 10000 12.86 310 13:22 05.04.2021
1516 Clouds 4 1002 48 10000 12.86 310 12:45 05.04.2021
1517 Clouds 4 1001 48 10000 12.86 310 12:23 05.04.2021
1518 Snow 2 1001 48 10000 12.35 310 11:46 05.04.2021
1519 Snow 1 1001 80 10000 9.26 330 11:27 05.04.2021
1520 Snow 1 1001 80 10000 9.26 330 10:48 05.04.2021
1521 Clouds 0 1001 93 10000 11.83 340 10:29 05.04.2021
1522 Clouds 3 1000 75 9000 11.32 330 09:48 05.04.2021
1523 Clouds 3 999 80 10000 13.38 310 09:25 05.04.2021
1524 Clouds 3 999 75 10000 10.29 300 08:45 05.04.2021
1525 Clouds 3 999 81 10000 11.32 320 08:26 05.04.2021
1526 Clouds 4 999 70 10000 9.26 310 07:38 05.04.2021
1527 Clouds 4 999 81 10000 9.77 320 07:18 05.04.2021
1528 Rain 7 1001 81 9000 8.23 250 03:42 05.04.2021
1529 Clouds 5 1007 81 10000 7.2 230 00:54 05.04.2021
1530 Clouds 5 1008 81 10000 7.2 230 23:53 04.04.2021
1531 Clouds 6 1010 81 10000 7.72 230 23:30 04.04.2021
1532 Clouds 6 1010 81 10000 7.72 230 22:56 04.04.2021
1533 Clouds 6 1010 81 10000 7.72 230 22:33 04.04.2021
1534 Clouds 7 1011 81 10000 6.69 240 21:48 04.04.2021
1535 Clouds 7 1013 76 10000 6.69 250 21:21 04.04.2021
1536 Clouds 7 1013 76 10000 6.69 250 20:42 04.04.2021
1537 Clouds 7 1014 76 10000 7.2 250 20:20 04.04.2021
1538 Clouds 7 1014 76 10000 7.2 250 19:40 04.04.2021
1539 Clouds 7 1016 76 10000 9.77 260 19:19 04.04.2021
1540 Clouds 7 1016 76 10000 9.77 260 18:50 04.04.2021
1541 Clouds 7 1017 81 10000 7.2 270 18:24 04.04.2021
1542 Clouds 7 1017 81 10000 7.2 270 17:58 04.04.2021
1543 Clouds 7 1018 76 10000 7.72 270 17:25 04.04.2021
1544 Clouds 7 1018 76 10000 7.72 270 16:56 04.04.2021
1545 Clouds 7 1018 76 10000 7.72 270 16:37 04.04.2021
1546 Clouds 7 1019 76 10000 7.72 260 15:51 04.04.2021
1547 Clouds 7 1020 76 10000 6.69 270 15:31 04.04.2021
1548 Clouds 7 1020 76 10000 6.69 270 14:39 04.04.2021
1549 Drizzle 7 1021 81 10000 7.72 280 14:19 04.04.2021
1550 Drizzle 7 1022 81 10000 7.2 290 13:27 04.04.2021
1551 Drizzle 7 1022 81 10000 7.2 290 12:51 04.04.2021
1552 Clouds 7 1022 70 10000 7.72 290 12:28 04.04.2021
1553 Clouds 6 1022 70 10000 7.72 290 11:49 04.04.2021
1554 Clouds 6 1022 81 10000 7.2 300 11:30 04.04.2021
1555 Clouds 6 1022 81 10000 7.2 300 10:49 04.04.2021
1556 Clouds 6 1022 75 10000 6.17 300 10:29 04.04.2021
1557 Clouds 6 1022 75 10000 6.17 300 09:48 04.04.2021
1558 Drizzle 6 1022 75 10000 5.66 310 09:21 04.04.2021
1559 Drizzle 5 1022 75 10000 5.66 310 08:45 04.04.2021
1560 Drizzle 5 1023 81 10000 5.14 310 08:26 04.04.2021
1561 Clouds 5 1023 75 10000 4.12 300 06:40 04.04.2021
1562 Clouds 5 1023 75 10000 2.57 300 05:44 04.04.2021
1563 Clouds 5 1023 75 10000 2.57 300 05:44 04.04.2021
1564 Clouds 5 1024 75 10000 3.6 320 02:59 04.04.2021
1565 Clouds 5 1025 81 10000 3.6 330 00:55 04.04.2021
1566 Clouds 5 1025 81 9000 4.12 330 00:18 04.04.2021
1567 Clouds 5 1025 81 9000 4.12 330 23:41 03.04.2021
1568 Clouds 5 1025 81 10000 5.14 320 22:58 03.04.2021
1569 Clouds 5 1025 81 10000 5.14 320 22:40 03.04.2021
1570 Clouds 5 1025 81 10000 5.14 310 22:19 03.04.2021
1571 Clouds 5 1025 87 10000 3.6 310 21:46 03.04.2021
1572 Clouds 5 1025 81 10000 4.12 310 21:23 03.04.2021
1573 Clouds 5 1025 81 10000 4.12 310 20:48 03.04.2021
1574 Clouds 5 1025 81 10000 5.14 310 20:26 03.04.2021
1575 Clouds 6 1025 81 10000 5.14 310 19:48 03.04.2021
1576 Clouds 6 1025 75 10000 4.63 310 19:24 03.04.2021
1577 Clouds 7 1025 75 10000 4.63 310 18:46 03.04.2021
1578 Clouds 7 1025 75 10000 5.14 300 18:23 03.04.2021
1579 Clouds 7 1026 81 10000 5.66 310 17:51 03.04.2021
1580 Clouds 7 1026 76 10000 5.66 310 17:21 03.04.2021
1581 Clouds 8 1026 76 10000 5.66 310 16:49 03.04.2021
1582 Clouds 8 1026 76 10000 6.69 310 16:21 03.04.2021
1583 Clouds 8 1026 76 10000 6.69 310 15:48 03.04.2021
1584 Clouds 8 1026 76 10000 6.69 320 15:22 03.04.2021
1585 Clouds 8 1026 76 10000 6.69 320 14:44 03.04.2021
1586 Clouds 8 1026 66 10000 6.17 300 14:23 03.04.2021
1587 Clouds 7 1026 66 10000 6.17 300 13:50 03.04.2021
1588 Clouds 7 1026 62 10000 5.14 320 13:24 03.04.2021
1589 Clouds 7 1026 62 10000 5.14 320 12:56 03.04.2021
1590 Clouds 7 1026 61 10000 5.14 320 12:32 03.04.2021
1591 Clouds 7 1026 61 10000 5.14 320 11:39 03.04.2021
1592 Clouds 7 1026 66 10000 2.57 320 11:19 03.04.2021
1593 Clouds 7 1026 66 10000 2.57 320 10:43 03.04.2021
1594 Clouds 7 1025 76 10000 3.09 360 10:22 03.04.2021
1595 Clouds 6 1025 81 10000 2.06 360 09:29 03.04.2021
1596 Clouds 6 1025 81 10000 2.06 360 08:58 03.04.2021
1597 Fog 5 1024 93 10000 1.03 0 08:31 03.04.2021
1598 Fog 5 1024 93 10000 2.06 360 07:29 03.04.2021
1599 Fog 5 1024 93 10000 2.06 360 06:50 03.04.2021
1600 Clear 5 1023 93 4600 2.57 340 03:53 03.04.2021
1601 Clear 5 1022 93 5000 3.09 330 02:53 03.04.2021
1602 Clouds 5 1022 93 6000 4.12 330 02:27 03.04.2021
1603 Clouds 6 1022 70 10000 4.12 330 00:31 03.04.2021
1604 Clouds 6 1022 70 10000 4.12 330 23:53 02.04.2021
1605 Clouds 6 1022 65 10000 6.17 330 23:27 02.04.2021
1606 Clouds 6 1022 65 10000 6.17 330 22:56 02.04.2021
1607 Clouds 6 1022 65 10000 6.17 330 22:37 02.04.2021
1608 Clouds 6 1021 75 10000 6.69 330 21:54 02.04.2021
1609 Clouds 6 1021 75 10000 6.69 330 21:36 02.04.2021
1610 Clouds 6 1021 75 10000 9.26 330 21:18 02.04.2021
1611 Clouds 6 1021 75 10000 9.26 330 21:18 02.04.2021
1612 Clouds 6 1021 75 10000 9.26 330 20:36 02.04.2021
1613 Clouds 7 1021 75 10000 9.26 330 20:18 02.04.2021
1614 Clouds 7 1021 75 10000 8.23 340 19:40 02.04.2021
1615 Clouds 7 1021 76 10000 7.2 330 19:21 02.04.2021
1616 Clouds 7 1021 76 10000 7.2 330 18:42 02.04.2021
1617 Clouds 7 1021 81 10000 8.75 330 18:23 02.04.2021
1618 Clouds 7 1021 81 10000 8.75 330 17:45 02.04.2021
1619 Clouds 7 1021 81 10000 9.77 310 17:18 02.04.2021
1620 Clouds 7 1022 76 10000 9.77 310 16:23 02.04.2021
1621 Clouds 8 1022 76 10000 9.77 310 15:43 02.04.2021
1622 Clouds 8 1022 70 10000 9.26 320 15:19 02.04.2021
1623 Clouds 8 1022 70 10000 9.26 320 14:33 02.04.2021
1624 Clouds 7 1022 75 10000 9.77 310 13:47 02.04.2021
1625 Clouds 7 1023 75 10000 8.75 320 13:27 02.04.2021
1626 Clouds 7 1023 70 10000 9.26 320 12:53 02.04.2021
1627 Clouds 7 1023 75 10000 8.75 320 12:20 02.04.2021
1628 Clouds 7 1023 75 10000 8.75 320 11:58 02.04.2021
1629 Clouds 6 1023 70 10000 7.2 320 11:21 02.04.2021
1630 Clouds 6 1023 70 10000 7.2 320 10:51 02.04.2021
1631 Clouds 6 1023 70 10000 7.2 320 10:33 02.04.2021
1632 Clouds 5 1023 75 10000 6.69 320 09:57 02.04.2021
1633 Clouds 5 1023 75 10000 6.69 320 09:37 02.04.2021
1634 Clouds 5 1024 70 10000 6.17 320 09:18 02.04.2021
1635 Clouds 5 1024 70 10000 6.17 320 08:37 02.04.2021
1636 Clouds 5 1024 81 10000 5.66 310 07:52 02.04.2021
1637 Clouds 5 1024 81 10000 4.63 330 07:19 02.04.2021
1638 Clouds 5 1024 81 10000 4.12 350 06:31 02.04.2021
1639 Clear 5 1024 93 150 2.06 350 02:59 02.04.2021
1640 Clouds 5 1024 93 8000 2.06 10 00:56 02.04.2021
1641 Clouds 5 1024 93 8000 2.06 10 00:36 02.04.2021
1642 Clouds 5 1024 87 9000 1.03 340 23:43 01.04.2021
1643 Clouds 5 1024 81 10000 1.54 20 23:25 01.04.2021
1644 Clouds 6 1024 76 10000 3.6 40 22:22 01.04.2021
1645 Clouds 6 1024 76 10000 3.6 40 21:56 01.04.2021
1646 Clouds 6 1024 76 10000 3.6 40 21:38 01.04.2021
1647 Clouds 6 1023 81 10000 3.09 360 21:18 01.04.2021
1648 Clouds 7 1023 81 10000 3.09 360 20:33 01.04.2021
1649 Clouds 7 1023 81 10000 5.66 350 19:58 01.04.2021
1650 Clouds 7 1023 81 10000 5.66 350 19:39 01.04.2021
1651 Clouds 7 1023 76 10000 5.66 340 18:54 01.04.2021
1652 Clouds 7 1023 76 10000 5.66 340 18:36 01.04.2021
1653 Clouds 8 1022 71 10000 6.17 350 18:18 01.04.2021
1654 Clouds 8 1022 71 10000 6.17 350 17:39 01.04.2021
1655 Clouds 8 1022 71 10000 5.14 350 17:20 01.04.2021
1656 Clouds 8 1022 71 10000 5.14 350 16:44 01.04.2021
1657 Clouds 7 1022 66 10000 7.72 10 15:57 01.04.2021
1658 Clouds 7 1021 76 10000 6.69 350 15:24 01.04.2021
1659 Clouds 7 1021 76 10000 6.69 350 14:57 01.04.2021
1660 Clouds 7 1021 76 10000 6.69 350 14:38 01.04.2021
1661 Clouds 7 1021 76 10000 6.69 340 14:19 01.04.2021
1662 Clouds 7 1021 76 10000 6.69 340 13:47 01.04.2021
1663 Clouds 7 1021 76 10000 8.75 350 13:27 01.04.2021
1664 Clouds 7 1021 76 10000 8.75 350 12:46 01.04.2021
1665 Clouds 6 1020 81 10000 8.23 360 12:28 01.04.2021
1666 Clouds 7 1020 81 10000 8.23 360 11:44 01.04.2021
1667 Clouds 7 1020 87 10000 8.75 350 11:19 01.04.2021
1668 Clouds 6 1020 87 10000 7.2 350 10:47 01.04.2021
1669 Clouds 6 1019 93 9000 5.66 350 10:28 01.04.2021
1670 Clouds 6 1019 93 9000 5.66 350 09:36 01.04.2021
1671 Clouds 6 1019 87 9000 6.17 340 08:58 01.04.2021
1672 Clouds 6 1019 87 10000 5.66 340 08:33 01.04.2021
1673 Mist 7 1017 81 4000 2.06 20 07:23 01.04.2021
1674 Mist 7 1017 81 4000 2.06 20 06:58 01.04.2021
1675 Clouds 7 1018 71 6000 2.06 330 06:27 01.04.2021
1676 Clouds 10 1018 57 9000 1.54 260 03:25 01.04.2021
1677 Clouds 10 1018 40 10000 1.03 60 00:28 01.04.2021
1678 Clouds 11 1018 40 10000 1.03 60 23:44 31.03.2021
1679 Clouds 11 1019 41 10000 1.03 40 22:58 31.03.2021
1680 Clouds 11 1019 41 10000 1.03 40 22:39 31.03.2021
1681 Clouds 11 1019 50 10000 1.03 40 22:20 31.03.2021
1682 Clouds 11 1019 50 10000 1.03 40 21:44 31.03.2021
1683 Clouds 11 1019 51 10000 1.03 60 21:20 31.03.2021
1684 Clouds 11 1019 51 10000 1.03 60 21:20 31.03.2021
1685 Clouds 13 1019 51 10000 1.03 60 20:42 31.03.2021
1686 Clouds 14 1019 39 10000 2.06 50 20:23 31.03.2021
1687 Clouds 17 1019 39 10000 2.06 50 19:46 31.03.2021
1688 Clouds 19 1019 37 10000 0.51 10 19:25 31.03.2021
1689 Clouds 19 1019 37 10000 0.51 10 18:59 31.03.2021
1690 Clouds 19 1019 37 10000 0.51 10 18:41 31.03.2021
1691 Clouds 21 1019 26 10000 1.03 40 17:53 31.03.2021
1692 Clouds 21 1019 26 10000 1.03 40 17:34 31.03.2021
1693 Clear 21 1020 24 10000 2.57 310 16:57 31.03.2021
1694 Clear 21 1020 24 10000 2.57 310 16:37 31.03.2021
1695 Clear 21 1020 30 10000 3.09 280 16:19 31.03.2021
1696 Clear 21 1020 30 10000 3.09 280 15:48 31.03.2021
1697 Clear 21 1021 26 10000 2.06 260 15:19 31.03.2021
1698 Clear 21 1021 26 10000 2.06 260 14:42 31.03.2021
1699 Clear 21 1021 28 10000 1.03 240 14:20 31.03.2021
1700 Clear 21 1021 28 10000 1.03 240 13:40 31.03.2021
1701 Clear 20 1022 30 10000 1.03 0 12:42 31.03.2021
1702 Clear 18 1022 36 10000 1.03 0 12:20 31.03.2021
1703 Clear 18 1022 36 10000 1.03 0 11:51 31.03.2021
1704 Clear 13 1023 67 10000 1.54 70 11:20 31.03.2021
1705 Clear 12 1023 67 10000 1.54 70 10:46 31.03.2021
1706 Clear 11 1023 81 9000 0.51 0 10:25 31.03.2021
1707 Clear 9 1023 81 9000 0.51 0 09:38 31.03.2021
1708 Mist 6 1023 93 4000 1.03 120 08:55 31.03.2021
1709 Fog 6 1023 100 50 1.54 100 08:37 31.03.2021
1710 Fog 7 1023 93 50 2.06 120 07:52 31.03.2021
1711 Fog 7 1023 93 50 2.06 120 07:52 31.03.2021
1712 Fog 5 1024 93 6000 1.54 120 06:46 31.03.2021
1713 Clear 7 1025 93 6000 1.03 150 03:51 31.03.2021
1714 Clear 6 1026 93 4300 1.54 140 01:43 31.03.2021
1715 Clear 6 1027 93 5000 1.54 150 00:49 31.03.2021
1716 Clear 7 1027 87 6000 1.54 100 00:20 31.03.2021
1717 Clear 7 1027 87 6000 1.54 100 23:41 30.03.2021
1718 Clouds 7 1027 93 10000 2.06 90 22:59 30.03.2021
1719 Clouds 10 1027 93 10000 2.06 90 22:40 30.03.2021
1720 Clouds 10 1027 93 10000 2.06 90 22:40 30.03.2021
1721 Clouds 10 1027 81 10000 4.22 240 22:21 30.03.2021
1722 Clouds 10 1027 81 10000 4.22 240 21:49 30.03.2021
1723 Clouds 11 1027 62 10000 1.03 290 21:20 30.03.2021
1724 Clouds 13 1027 62 10000 1.03 290 20:53 30.03.2021
1725 Clouds 13 1027 62 10000 1.03 290 20:53 30.03.2021
1726 Clouds 16 1027 55 10000 1.54 280 20:28 30.03.2021
1727 Clouds 16 1027 55 10000 1.54 280 19:51 30.03.2021
1728 Clouds 17 1027 51 10000 1.54 280 19:27 30.03.2021
1729 Clouds 17 1027 51 10000 1.54 280 19:27 30.03.2021
1730 Clouds 17 1027 51 10000 1.54 280 18:40 30.03.2021
1731 Clouds 18 1028 48 10000 2.06 260 18:20 30.03.2021
1732 Clouds 18 1028 48 10000 2.06 260 17:41 30.03.2021
1733 Clouds 17 1029 51 10000 3.09 260 17:23 30.03.2021
1734 Clouds 17 1029 51 10000 3.09 260 16:45 30.03.2021
1735 Clouds 18 1029 52 10000 4.12 280 16:24 30.03.2021
1736 Clouds 16 1029 59 10000 4.12 270 15:21 30.03.2021
1737 Clouds 16 1029 59 10000 4.12 270 14:57 30.03.2021
1738 Clouds 16 1029 63 10000 5.14 280 14:22 30.03.2021
1739 Clouds 16 1029 63 10000 5.14 280 13:59 30.03.2021
1740 Clouds 15 1030 67 10000 5.14 260 13:37 30.03.2021
1741 Clouds 15 1030 67 10000 5.14 260 12:49 30.03.2021
1742 Clouds 13 1030 71 10000 5.66 250 12:29 30.03.2021
1743 Clouds 13 1030 71 10000 5.66 250 11:58 30.03.2021
1744 Clouds 12 1029 71 10000 5.66 260 11:24 30.03.2021
1745 Clouds 12 1029 71 10000 5.66 260 10:47 30.03.2021
1746 Clouds 10 1029 71 10000 3.6 240 10:29 30.03.2021
1747 Clouds 10 1029 71 10000 3.6 240 09:57 30.03.2021
1748 Clouds 10 1029 71 10000 3.6 240 09:37 30.03.2021
1749 Clouds 10 1029 76 10000 3.09 230 09:18 30.03.2021
1750 Clouds 8 1029 76 10000 3.09 230 08:39 30.03.2021
1751 Clouds 8 1028 76 10000 4.12 220 07:52 30.03.2021
1752 Clouds 8 1028 76 10000 3.09 220 07:22 30.03.2021
1753 Clouds 8 1028 76 10000 4.12 220 05:53 30.03.2021
1754 Clear 9 1028 71 10000 2.57 230 05:19 30.03.2021
1755 Clear 10 1028 81 8000 3.6 250 00:58 30.03.2021
1756 Clouds 9 1027 87 10000 4.12 250 23:51 29.03.2021
1757 Clouds 10 1027 93 10000 2.57 220 22:55 29.03.2021
1758 Clouds 10 1027 93 10000 2.57 220 22:32 29.03.2021
1759 Clouds 11 1027 87 10000 3.6 270 21:52 29.03.2021
1760 Clouds 11 1027 87 10000 2.57 280 21:31 29.03.2021
1761 Clouds 10 1027 87 10000 2.57 280 20:50 29.03.2021
1762 Clouds 12 1026 76 10000 3.6 260 20:28 29.03.2021
1763 Clouds 12 1026 76 10000 3.6 260 19:50 29.03.2021
1764 Clouds 13 1026 71 10000 5.66 280 19:27 29.03.2021
1765 Clouds 13 1026 71 10000 5.66 280 18:51 29.03.2021
1766 Clouds 12 1026 82 10000 5.66 290 18:27 29.03.2021
1767 Clouds 12 1026 82 10000 5.66 290 17:52 29.03.2021
1768 Clouds 12 1026 82 10000 5.66 290 17:33 29.03.2021
1769 Clouds 13 1026 76 10000 5.66 260 16:50 29.03.2021
1770 Clouds 13 1025 71 10000 6.17 260 16:24 29.03.2021
1771 Clouds 13 1025 71 10000 6.17 260 15:40 29.03.2021
1772 Clouds 13 1025 71 10000 6.69 250 15:22 29.03.2021
1773 Rain 13 1025 71 10000 6.69 250 14:47 29.03.2021
1774 Clouds 14 1024 67 10000 7.2 250 13:56 29.03.2021
1775 Clouds 14 1024 67 10000 8.75 250 13:37 29.03.2021
1776 Clouds 14 1024 67 10000 8.75 250 13:18 29.03.2021
1777 Clouds 14 1024 67 10000 8.75 250 12:48 29.03.2021
1778 Clouds 12 1023 71 10000 8.23 250 11:46 29.03.2021
1779 Clouds 12 1023 66 10000 8.23 240 11:28 29.03.2021
1780 Clouds 11 1023 76 10000 6.17 240 10:46 29.03.2021
1781 Rain 11 1022 76 10000 4.63 230 10:21 29.03.2021
1782 Rain 10 1022 76 10000 4.12 230 09:32 29.03.2021
1783 Clouds 9 1022 81 10000 4.63 230 08:43 29.03.2021
1784 Rain 9 1022 76 10000 5.14 230 08:25 29.03.2021
1785 Clouds 10 1022 76 10000 5.14 230 07:20 29.03.2021
1786 Clouds 10 1021 76 10000 6.17 220 06:25 29.03.2021
1787 Clouds 9 1022 81 9000 7.2 220 02:58 29.03.2021
1788 Clouds 9 1022 87 8000 5.66 230 00:46 29.03.2021
1789 Clouds 9 1022 87 7000 6.69 230 00:18 29.03.2021
1790 Clouds 9 1022 93 8000 6.17 230 23:30 28.03.2021
1791 Clouds 9 1022 93 8000 6.17 230 22:53 28.03.2021
1792 Clouds 9 1022 93 8000 6.17 230 22:35 28.03.2021
1793 Drizzle 9 1022 93 5000 5.66 230 21:57 28.03.2021
1794 Drizzle 9 1022 93 5000 5.66 230 21:38 28.03.2021
1795 Drizzle 9 1022 93 4500 6.17 230 21:18 28.03.2021
1796 Clouds 9 1021 93 10000 6.69 230 20:42 28.03.2021
1797 Clouds 9 1021 93 10000 6.17 240 20:24 28.03.2021
1798 Clouds 9 1021 93 10000 5.66 230 19:42 28.03.2021
1799 Clouds 9 1021 93 8000 6.69 230 19:22 28.03.2021
1800 Clouds 9 1021 93 8000 6.69 230 18:53 28.03.2021
1801 Clouds 9 1021 93 7000 7.2 230 18:24 28.03.2021
1802 Clouds 9 1021 93 7000 7.2 230 17:46 28.03.2021
1803 Clouds 9 1021 87 6000 6.17 230 17:22 28.03.2021
1804 Clouds 8 1021 87 6000 6.17 230 16:43 28.03.2021
1805 Rain 8 1021 81 10000 7.2 230 16:22 28.03.2021
1806 Clouds 9 1021 76 10000 5.66 240 15:25 28.03.2021
1807 Rain 9 1021 76 10000 5.66 240 14:50 28.03.2021
1808 Drizzle 10 1020 66 10000 7.72 220 14:30 28.03.2021
1809 Drizzle 10 1020 66 10000 7.72 220 13:39 28.03.2021
1810 Clouds 10 1021 66 10000 7.72 230 13:19 28.03.2021
1811 Clouds 10 1021 66 10000 7.72 230 12:43 28.03.2021
1812 Clouds 10 1021 66 10000 7.72 230 12:43 28.03.2021
1813 Clouds 10 1021 71 10000 7.72 220 12:25 28.03.2021
1814 Clouds 9 1021 71 10000 7.72 220 11:40 28.03.2021
1815 Clouds 8 1021 76 10000 7.2 210 11:21 28.03.2021
1816 Clouds 8 1021 76 10000 7.2 210 10:43 28.03.2021
1817 Clouds 8 1022 75 10000 7.2 210 10:23 28.03.2021
1818 Clouds 7 1022 75 10000 7.2 210 09:44 28.03.2021
1819 Clouds 6 1022 75 10000 6.69 210 09:24 28.03.2021
1820 Clouds 5 1022 75 10000 6.69 210 08:45 28.03.2021
1821 Clouds 5 1022 75 10000 5.66 210 07:46 28.03.2021
1822 Clouds 5 1022 81 10000 5.14 220 06:23 28.03.2021
1823 Clouds 5 1023 81 9000 4.63 220 03:51 28.03.2021
1824 Clouds 4 1023 87 9000 4.12 240 00:52 28.03.2021
1825 Clouds 4 1023 87 9000 4.12 240 00:20 28.03.2021
1826 Clouds 6 1023 87 9000 4.12 240 23:40 27.03.2021
1827 Clouds 6 1023 81 10000 5.66 250 22:57 27.03.2021
1828 Clouds 6 1023 81 10000 5.66 250 22:36 27.03.2021
1829 Clouds 6 1022 81 10000 5.14 260 21:55 27.03.2021
1830 Clouds 6 1022 81 10000 5.14 260 21:36 27.03.2021
1831 Clouds 6 1021 81 10000 4.63 270 21:18 27.03.2021
1832 Clouds 6 1021 81 10000 4.63 270 20:38 27.03.2021
1833 Clouds 6 1021 81 10000 6.69 280 20:19 27.03.2021
1834 Clouds 6 1021 81 10000 6.69 280 19:42 27.03.2021
1835 Clouds 7 1020 75 10000 9.77 280 19:23 27.03.2021
1836 Clouds 7 1020 75 10000 9.77 280 18:48 27.03.2021
1837 Clouds 7 1019 70 10000 10.29 280 18:27 27.03.2021
1838 Clouds 7 1019 70 10000 10.29 280 17:50 27.03.2021
1839 Clouds 8 1018 70 10000 10.29 280 17:23 27.03.2021
1840 Clouds 8 1018 70 10000 10.29 280 16:49 27.03.2021
1841 Clouds 8 1017 65 10000 10.8 280 16:28 27.03.2021
1842 Clouds 8 1017 65 10000 10.8 280 15:48 27.03.2021
1843 Clouds 8 1016 70 10000 11.83 280 15:22 27.03.2021
1844 Clouds 7 1016 70 10000 11.83 280 14:45 27.03.2021
1845 Clouds 8 1015 66 10000 10.8 270 13:50 27.03.2021
1846 Clouds 7 1014 70 10000 10.8 280 13:24 27.03.2021
1847 Clouds 7 1014 70 10000 10.8 280 12:53 27.03.2021
1848 Clouds 7 1013 75 10000 10.8 270 12:24 27.03.2021
1849 Clouds 7 1013 75 10000 10.8 270 11:42 27.03.2021
1850 Clouds 7 1013 81 10000 8.23 260 11:20 27.03.2021
1851 Clouds 5 1012 81 10000 10.29 260 10:45 27.03.2021
1852 Rain 5 1012 81 10000 7.72 250 10:22 27.03.2021
1853 Clouds 6 1011 87 10000 5.66 230 09:28 27.03.2021
1854 Clouds 6 1010 87 10000 5.66 240 08:43 27.03.2021
1855 Clouds 6 1010 93 10000 7.72 250 08:21 27.03.2021
1856 Clouds 5 1010 93 10000 7.72 250 07:34 27.03.2021
1857 Rain 5 1009 93 8000 4.12 250 06:47 27.03.2021
1858 Rain 5 1009 93 10000 6.69 250 06:27 27.03.2021
1859 Rain 6 1008 87 4500 8.23 280 04:39 27.03.2021
1860 Clouds 9 1008 57 10000 4.12 190 00:50 27.03.2021
1861 Clouds 8 1010 66 10000 3.09 190 00:29 27.03.2021
1862 Clouds 8 1010 66 10000 3.09 190 23:54 26.03.2021
1863 Clouds 8 1010 66 10000 3.09 190 23:54 26.03.2021
1864 Clouds 9 1010 62 10000 2.57 210 23:19 26.03.2021
1865 Clouds 9 1010 62 10000 2.57 210 22:35 26.03.2021
1866 Clouds 10 1011 58 10000 2.57 190 21:36 26.03.2021
1867 Clouds 10 1011 54 10000 2.06 170 21:18 26.03.2021
1868 Clouds 12 1011 54 10000 2.06 170 20:38 26.03.2021
1869 Clouds 12 1012 54 10000 2.57 190 20:19 26.03.2021
1870 Clouds 12 1012 54 10000 2.57 190 19:47 26.03.2021
1871 Clouds 13 1012 50 10000 3.09 200 19:28 26.03.2021
1872 Clouds 13 1012 50 10000 3.09 200 18:42 26.03.2021
1873 Clouds 14 1012 47 10000 5.14 200 18:20 26.03.2021
1874 Clouds 14 1012 47 10000 5.14 200 17:47 26.03.2021
1875 Clouds 15 1012 44 10000 6.69 200 16:57 26.03.2021
1876 Clouds 15 1012 44 10000 6.69 200 16:33 26.03.2021
1877 Clouds 15 1013 44 10000 6.17 200 15:57 26.03.2021
1878 Clouds 14 1014 47 10000 7.72 200 15:23 26.03.2021
1879 Clouds 14 1014 47 10000 7.72 200 14:33 26.03.2021
1880 Clouds 14 1014 51 10000 6.69 200 13:41 26.03.2021
1881 Clouds 12 1015 62 10000 6.17 190 12:56 26.03.2021
1882 Clouds 12 1015 62 10000 6.17 190 12:33 26.03.2021
1883 Clouds 10 1016 71 10000 6.17 200 11:38 26.03.2021
1884 Clouds 10 1016 71 10000 6.17 210 11:18 26.03.2021
1885 Clouds 10 1016 71 10000 6.17 210 10:41 26.03.2021
1886 Clouds 8 1016 76 10000 4.63 200 09:56 26.03.2021
1887 Clouds 8 1016 76 10000 4.63 200 09:36 26.03.2021
1888 Clouds 7 1016 81 7000 4.12 200 08:45 26.03.2021
1889 Mist 7 1016 93 4000 3.09 190 08:24 26.03.2021
1890 Mist 6 1016 93 4000 3.09 190 07:42 26.03.2021
1891 Mist 6 1016 93 4000 3.09 180 07:20 26.03.2021
1892 Mist 6 1016 93 4000 3.09 180 06:54 26.03.2021
1893 Clouds 5 1017 75 9000 3.6 190 05:31 26.03.2021
1894 Clouds 5 1018 87 8000 2.57 200 02:32 26.03.2021
1895 Clouds 6 1018 87 6000 2.57 210 00:32 26.03.2021
1896 Clouds 6 1018 93 4600 2.06 210 23:46 25.03.2021
1897 Mist 6 1018 93 4500 3.09 220 23:21 25.03.2021
1898 Mist 6 1018 100 2800 2.57 210 22:39 25.03.2021
1899 Mist 7 1018 100 2500 1.03 190 21:53 25.03.2021
1900 Mist 7 1018 100 2500 1.03 190 21:35 25.03.2021
1901 Mist 8 1018 87 4500 2.06 280 20:59 25.03.2021
1902 Clouds 8 1018 87 5000 3.09 270 20:37 25.03.2021
1903 Clouds 8 1018 87 5000 3.09 270 20:18 25.03.2021
1904 Clouds 9 1018 87 6000 3.6 310 19:39 25.03.2021
1905 Mist 9 1018 87 5000 1.54 330 19:21 25.03.2021
1906 Clouds 10 1018 81 8000 2.06 300 18:40 25.03.2021
1907 Clouds 10 1017 62 10000 2.57 220 18:22 25.03.2021
1908 Clouds 12 1017 62 10000 2.57 220 17:38 25.03.2021
1909 Clouds 13 1017 54 10000 3.09 230 16:58 25.03.2021
1910 Clouds 13 1017 54 10000 3.09 230 16:36 25.03.2021
1911 Clouds 13 1018 54 10000 4.12 220 15:52 25.03.2021
1912 Clouds 13 1018 54 10000 3.6 250 15:27 25.03.2021
1913 Clouds 13 1018 54 10000 3.6 250 14:59 25.03.2021
1914 Clouds 13 1018 54 10000 3.6 250 14:40 25.03.2021
1915 Clouds 12 1018 58 10000 4.12 250 13:38 25.03.2021
1916 Clouds 12 1018 58 10000 4.12 230 13:19 25.03.2021
1917 Clouds 12 1018 58 10000 4.12 230 12:37 25.03.2021
1918 Clouds 12 1019 62 10000 4.63 220 12:18 25.03.2021
1919 Clouds 12 1019 62 10000 4.63 220 11:44 25.03.2021
1920 Clouds 10 1019 71 10000 3.6 210 11:26 25.03.2021
1921 Clouds 10 1019 71 10000 3.6 210 11:26 25.03.2021
1922 Clouds 10 1019 71 10000 3.6 210 10:49 25.03.2021
1923 Clouds 10 1019 71 8000 4.12 220 10:22 25.03.2021
1924 Mist 9 1019 81 5000 2.57 210 09:54 25.03.2021
1925 Mist 9 1019 81 5000 2.57 210 09:36 25.03.2021
1926 Mist 7 1019 87 4000 2.06 220 08:42 25.03.2021
1927 Mist 5 1019 93 3800 2.06 220 07:57 25.03.2021
1928 Mist 5 1019 100 3000 2.06 220 06:59 25.03.2021
1929 Mist 5 1018 93 1200 3.09 280 06:24 25.03.2021
1930 Mist 5 1018 93 1200 3.09 280 05:47 25.03.2021
1931 Clouds 7 1018 87 7000 2.06 240 02:43 25.03.2021
1932 Clouds 7 1019 93 4300 2.06 210 00:21 25.03.2021
1933 Clouds 7 1019 93 4300 2.06 210 23:50 24.03.2021
1934 Clouds 7 1019 93 6000 2.06 220 23:25 24.03.2021
1935 Clouds 7 1019 93 6000 2.06 220 22:43 24.03.2021
1936 Clouds 7 1019 81 8000 2.06 260 22:20 24.03.2021
1937 Clouds 7 1019 81 8000 2.06 260 21:42 24.03.2021
1938 Clouds 7 1019 87 8000 3.09 290 21:21 24.03.2021
1939 Clouds 7 1019 87 8000 3.09 290 20:41 24.03.2021
1940 Mist 7 1019 87 5000 2.57 320 20:19 24.03.2021
1941 Mist 7 1019 87 5000 2.57 320 19:35 24.03.2021
1942 Clouds 8 1019 76 7000 3.09 310 18:58 24.03.2021
1943 Clouds 9 1019 76 7000 3.09 310 18:39 24.03.2021
1944 Clouds 9 1019 71 7000 2.57 330 18:20 24.03.2021
1945 Clouds 11 1019 66 9000 3.09 280 17:41 24.03.2021
1946 Clouds 12 1019 58 10000 4.63 280 17:23 24.03.2021
1947 Clouds 12 1019 58 10000 4.63 280 16:42 24.03.2021
1948 Clouds 13 1019 54 10000 5.14 240 16:23 24.03.2021
1949 Clouds 13 1019 54 10000 5.14 240 15:44 24.03.2021
1950 Clouds 12 1020 58 10000 5.14 240 15:25 24.03.2021
1951 Clouds 12 1020 58 10000 5.14 240 14:46 24.03.2021
1952 Clouds 12 1020 58 10000 5.66 250 14:24 24.03.2021
1953 Clouds 12 1020 58 10000 5.66 250 13:52 24.03.2021
1954 Clouds 11 1020 62 10000 5.66 220 13:27 24.03.2021
1955 Clouds 11 1020 62 10000 5.66 220 12:42 24.03.2021
1956 Clouds 11 1021 62 10000 4.63 220 12:21 24.03.2021
1957 Clouds 11 1021 62 10000 4.63 220 11:42 24.03.2021
1958 Clouds 9 1021 71 7000 5.14 230 10:58 24.03.2021
1959 Clouds 9 1021 71 7000 5.66 220 10:38 24.03.2021
1960 Clouds 8 1021 76 6000 5.14 210 10:20 24.03.2021
1961 Clouds 8 1021 76 6000 5.14 210 09:51 24.03.2021
1962 Clouds 8 1021 81 6000 4.12 210 09:20 24.03.2021
1963 Clouds 7 1021 81 6000 4.12 210 08:49 24.03.2021
1964 Clouds 7 1021 81 7000 3.6 220 08:25 24.03.2021
1965 Clouds 7 1021 76 10000 3.6 190 07:37 24.03.2021
1966 Clouds 7 1021 75 10000 2.57 210 06:52 24.03.2021
1967 Clouds 7 1021 70 10000 4.63 260 03:57 24.03.2021
1968 Clouds 7 1022 93 4700 2.06 220 00:48 24.03.2021
1969 Clouds 7 1022 93 4300 2.06 260 23:57 23.03.2021
1970 Clouds 7 1022 81 10000 2.06 270 23:21 23.03.2021
1971 Clouds 7 1022 81 10000 2.06 270 22:54 23.03.2021
1972 Clouds 7 1022 81 10000 2.06 270 22:36 23.03.2021
1973 Clouds 7 1022 76 10000 2.57 240 21:54 23.03.2021
1974 Clouds 7 1022 76 10000 2.57 240 21:34 23.03.2021
1975 Clouds 7 1022 71 10000 3.6 230 20:56 23.03.2021
1976 Clouds 7 1022 71 10000 3.6 230 20:38 23.03.2021
1977 Clouds 7 1023 81 10000 2.57 210 20:19 23.03.2021
1978 Clouds 7 1023 81 10000 2.57 210 19:41 23.03.2021
1979 Clouds 7 1022 81 10000 3.6 220 19:22 23.03.2021
1980 Clouds 8 1022 81 10000 3.6 220 18:38 23.03.2021
1981 Clouds 8 1022 76 10000 4.12 210 18:19 23.03.2021
1982 Clouds 8 1022 76 10000 4.12 210 17:43 23.03.2021
1983 Clouds 8 1023 76 10000 3.6 220 17:21 23.03.2021
1984 Clouds 8 1023 71 10000 3.6 250 16:26 23.03.2021
1985 Clouds 8 1023 71 10000 3.6 250 15:51 23.03.2021
1986 Clouds 8 1023 71 10000 3.6 260 15:24 23.03.2021
1987 Clouds 8 1023 76 10000 3.09 260 14:49 23.03.2021
1988 Clouds 7 1023 81 10000 3.6 250 14:20 23.03.2021
1989 Clouds 8 1023 81 10000 3.6 250 13:48 23.03.2021
1990 Clouds 8 1023 76 10000 3.09 280 13:25 23.03.2021
1991 Clouds 8 1023 76 10000 3.09 280 12:46 23.03.2021
1992 Clouds 8 1023 81 10000 4.63 290 12:26 23.03.2021
1993 Clouds 8 1023 87 10000 5.14 270 11:49 23.03.2021
1994 Clouds 8 1021 70 10000 3.13 270 11:26 23.03.2021
1995 Drizzle 7 1023 93 5000 4.63 280 10:43 23.03.2021
1996 Drizzle 7 1023 93 5000 4.63 280 10:21 23.03.2021
1997 Drizzle 5 1023 93 5000 4.63 280 09:54 23.03.2021
1998 Drizzle 5 1022 93 5000 4.12 260 09:24 23.03.2021
1999 Drizzle 5 1022 93 5000 4.12 260 08:55 23.03.2021
2000 Drizzle 5 1022 93 5000 4.12 260 08:37 23.03.2021
2001 Drizzle 5 1022 93 5000 4.63 280 08:19 23.03.2021
2002 Drizzle 5 1023 93 5000 3.09 260 07:28 23.03.2021
2003 Drizzle 5 1023 93 5000 3.09 260 06:54 23.03.2021
2004 Clouds 5 1022 87 10000 5.14 260 04:58 23.03.2021
2005 Clouds 5 1023 87 10000 4.12 250 03:20 23.03.2021
2006 Clouds 5 1023 87 7000 5.14 290 23:57 22.03.2021
2007 Clouds 5 1023 87 10000 4.63 290 23:23 22.03.2021
2008 Clouds 5 1023 87 10000 4.63 290 22:44 22.03.2021
2009 Clouds 5 1023 93 10000 4.12 290 22:22 22.03.2021
2010 Clouds 5 1023 93 10000 4.12 290 21:51 22.03.2021
2011 Clouds 5 1023 93 9000 6.17 300 21:27 22.03.2021
2012 Clouds 5 1023 93 9000 6.17 300 20:54 22.03.2021
2013 Clouds 5 1023 93 8000 5.66 300 20:30 22.03.2021
2014 Clouds 5 1023 93 8000 5.66 300 19:58 22.03.2021
2015 Clouds 5 1023 87 10000 4.63 310 19:40 22.03.2021
2016 Clouds 5 1023 87 10000 4.63 310 19:40 22.03.2021
2017 Clouds 5 1023 93 10000 6.17 310 19:21 22.03.2021
2018 Clouds 6 1023 93 10000 6.17 310 18:42 22.03.2021
2019 Drizzle 6 1022 93 10000 6.69 300 18:23 22.03.2021
2020 Drizzle 6 1022 93 10000 6.69 300 17:50 22.03.2021
2021 Drizzle 7 1022 87 10000 5.66 300 17:22 22.03.2021
2022 Drizzle 7 1022 87 10000 5.66 300 17:22 22.03.2021
2023 Drizzle 7 1022 87 10000 5.66 300 16:58 22.03.2021
2024 Clouds 7 1022 87 10000 7.72 310 16:39 22.03.2021
2025 Clouds 7 1022 81 10000 7.72 300 15:45 22.03.2021
2026 Clouds 8 1022 76 10000 6.17 300 15:27 22.03.2021
2027 Clouds 8 1022 76 10000 6.17 300 14:59 22.03.2021
2028 Clouds 8 1022 76 10000 6.17 300 14:34 22.03.2021
2029 Clouds 7 1022 70 10000 6.17 330 13:53 22.03.2021
2030 Clouds 7 1022 70 10000 6.17 330 13:34 22.03.2021
2031 Clouds 7 1022 75 10000 6.69 340 12:59 22.03.2021
2032 Clouds 7 1022 75 10000 6.69 340 12:41 22.03.2021
2033 Clouds 7 1022 75 10000 6.69 340 12:18 22.03.2021
2034 Clouds 7 1022 81 10000 5.66 350 11:41 22.03.2021
2035 Clouds 7 1022 81 10000 5.66 350 11:21 22.03.2021
2036 Clouds 5 1022 81 10000 5.66 350 10:43 22.03.2021
2037 Clouds 6 1021 75 10000 6.17 350 10:24 22.03.2021
2038 Clouds 5 1021 75 10000 6.17 350 09:39 22.03.2021
2039 Drizzle 5 1021 87 8000 5.66 350 09:20 22.03.2021
2040 Drizzle 5 1021 87 8000 5.66 350 08:42 22.03.2021
2041 Drizzle 5 1021 81 6000 5.66 360 08:24 22.03.2021
2042 Drizzle 5 1021 87 10000 5.66 340 07:44 22.03.2021
2043 Clouds 5 1020 87 10000 3.6 340 06:52 22.03.2021
2044 Clouds 5 1020 87 10000 5.14 340 05:43 22.03.2021
2045 Clouds 5 1020 87 8000 5.14 330 01:58 22.03.2021
2046 Clouds 5 1020 81 8000 6.69 340 00:29 22.03.2021
2047 Clouds 5 1020 81 8000 6.69 340 23:53 21.03.2021
2048 Clouds 5 1020 81 8000 6.69 340 23:53 21.03.2021
2049 Clouds 5 1020 81 10000 6.17 340 23:19 21.03.2021
2050 Clouds 5 1020 81 10000 6.17 340 22:55 21.03.2021
2051 Clouds 5 1020 75 10000 6.69 340 21:59 21.03.2021
2052 Clouds 5 1020 75 10000 6.69 340 21:40 21.03.2021
2053 Clouds 5 1019 75 10000 8.23 340 21:22 21.03.2021
2054 Clouds 5 1019 75 10000 8.23 340 20:42 21.03.2021
2055 Clouds 5 1019 75 10000 7.2 330 20:24 21.03.2021
2056 Clouds 5 1019 75 10000 7.2 330 19:52 21.03.2021
2057 Clouds 5 1019 75 10000 8.75 330 19:21 21.03.2021
2058 Clouds 5 1019 75 10000 8.75 330 18:48 21.03.2021
2059 Clouds 5 1018 75 10000 9.77 330 18:27 21.03.2021
2060 Clouds 5 1018 75 10000 9.77 330 17:48 21.03.2021
2061 Clouds 5 1018 75 10000 10.29 330 17:20 21.03.2021
2062 Clouds 5 1018 75 10000 10.29 330 16:58 21.03.2021
2063 Clouds 6 1018 75 10000 10.29 330 16:32 21.03.2021
2064 Clouds 6 1018 70 10000 10.29 340 15:58 21.03.2021
2065 Clouds 7 1018 70 10000 10.29 340 15:39 21.03.2021
2066 Clouds 7 1018 70 10000 10.8 340 15:19 21.03.2021
2067 Clouds 7 1018 70 10000 9.77 340 14:44 21.03.2021
2068 Clouds 7 1018 70 10000 10.29 340 14:26 21.03.2021
2069 Clouds 7 1018 70 10000 10.29 340 13:54 21.03.2021
2070 Clouds 7 1018 61 10000 11.32 350 13:25 21.03.2021
2071 Clouds 6 1018 61 10000 11.32 350 12:42 21.03.2021
2072 Clouds 6 1017 70 10000 11.32 350 12:23 21.03.2021
2073 Clouds 6 1017 70 10000 11.32 350 12:23 21.03.2021
2074 Clouds 6 1017 70 10000 10.8 350 11:37 21.03.2021
2075 Clouds 6 1017 70 9000 10.29 350 11:19 21.03.2021
2076 Clouds 6 1017 70 9000 10.29 350 10:42 21.03.2021
2077 Clouds 6 1017 70 9000 10.29 350 10:23 21.03.2021
2078 Clouds 5 1017 75 9000 10.29 340 09:46 21.03.2021
2079 Clouds 5 1017 75 8000 9.26 340 09:27 21.03.2021
2080 Clouds 5 1017 75 8000 9.77 340 08:40 21.03.2021
2081 Clouds 5 1016 75 9000 10.29 320 08:21 21.03.2021
2082 Clouds 5 1016 75 9000 10.29 320 08:21 21.03.2021
2083 Clouds 5 1016 75 9000 10.29 320 07:38 21.03.2021
2084 Clouds 5 1016 81 8000 8.23 320 06:56 21.03.2021
2085 Clouds 5 1015 75 10000 11.32 330 05:54 21.03.2021
2086 Clouds 5 1018 100 7000 8.75 280 02:25 21.03.2021
2087 Clouds 5 1018 100 8000 8.23 280 00:42 21.03.2021
2088 Clouds 5 1019 100 8000 7.72 290 00:22 21.03.2021
2089 Clouds 5 1019 100 8000 7.72 290 23:49 20.03.2021
2090 Drizzle 5 1020 100 3000 8.23 290 23:22 20.03.2021
2091 Mist 5 1020 100 3000 8.23 290 22:56 20.03.2021
2092 Drizzle 5 1020 100 2800 6.17 280 22:23 20.03.2021
2093 Drizzle 5 1021 100 5000 7.2 290 21:47 20.03.2021
2094 Clouds 5 1021 100 8000 9.77 290 21:25 20.03.2021
2095 Drizzle 5 1021 93 4000 8.23 290 20:48 20.03.2021
2096 Drizzle 5 1021 93 3000 7.72 290 20:23 20.03.2021
2097 Clouds 5 1021 93 9000 8.23 290 19:51 20.03.2021
2098 Clouds 5 1021 100 8000 7.72 290 19:28 20.03.2021
2099 Drizzle 5 1021 100 1800 7.2 280 18:50 20.03.2021
2100 Drizzle 5 1022 100 1300 7.72 280 18:27 20.03.2021
2101 Mist 5 1022 100 2000 7.72 270 17:58 20.03.2021
2102 Drizzle 6 1022 100 2800 8.23 270 17:39 20.03.2021
2103 Mist 6 1022 100 2500 6.69 270 17:19 20.03.2021
2104 Mist 5 1023 100 1500 6.69 260 16:38 20.03.2021
2105 Drizzle 5 1024 100 2500 6.69 260 16:18 20.03.2021
2106 Drizzle 5 1024 100 2500 6.69 260 15:40 20.03.2021
2107 Drizzle 5 1024 100 2500 6.69 260 15:40 20.03.2021
2108 Drizzle 5 1024 100 2500 6.69 260 15:40 20.03.2021
2109 Drizzle 5 1024 100 1700 6.69 260 15:21 20.03.2021
2110 Drizzle 5 1025 87 2500 6.69 260 14:31 20.03.2021
2111 Mist 4 1025 87 2500 6.69 260 13:56 20.03.2021
2112 Clouds 5 1026 81 6000 7.2 260 13:29 20.03.2021
2113 Clouds 5 1026 70 8000 7.72 260 12:37 20.03.2021
2114 Clouds 5 1027 70 10000 5.14 240 12:18 20.03.2021
2115 Clouds 5 1027 70 10000 4.63 240 11:40 20.03.2021
2116 Clouds 5 1027 65 10000 4.12 230 11:21 20.03.2021
2117 Clouds 4 1027 65 10000 4.12 230 10:39 20.03.2021
2118 Clouds 4 1027 65 10000 4.12 230 10:39 20.03.2021
2119 Clouds 3 1028 60 10000 4.63 240 10:21 20.03.2021
2120 Clouds 2 1028 60 10000 4.63 240 09:44 20.03.2021
2121 Clouds 2 1028 64 10000 3.6 230 09:22 20.03.2021
2122 Clouds 1 1028 64 10000 3.6 230 08:51 20.03.2021
2123 Clouds 0 1028 69 10000 3.6 230 08:19 20.03.2021
2124 Clouds 0 1028 69 10000 3.6 230 07:47 20.03.2021
2125 Clouds 0 1028 74 10000 3.09 220 07:29 20.03.2021
2126 Clouds 0 1028 74 10000 3.09 220 06:39 20.03.2021
2127 Clouds 0 1029 64 10000 2.57 220 05:28 20.03.2021
2128 Clouds 0 1029 64 10000 2.06 210 03:44 20.03.2021
2129 Clouds 0 1030 64 10000 1.54 210 01:42 20.03.2021
2130 Clouds 1 1030 74 10000 1.54 140 23:48 19.03.2021
2131 Clouds 1 1030 74 10000 1.54 120 23:20 19.03.2021
2132 Clouds 2 1030 74 10000 1.54 120 22:43 19.03.2021
2133 Clouds 2 1029 80 10000 1.03 70 22:24 19.03.2021
2134 Clouds 2 1029 80 10000 1.03 70 21:51 19.03.2021
2135 Clouds 3 1029 74 10000 1.54 100 21:21 19.03.2021
2136 Clouds 3 1029 74 10000 1.54 100 21:21 19.03.2021
2137 Clouds 3 1029 74 10000 1.54 100 20:46 19.03.2021
2138 Clouds 3 1028 69 10000 3.6 80 20:27 19.03.2021
2139 Clouds 3 1028 69 10000 3.6 80 19:52 19.03.2021
2140 Clouds 3 1028 69 10000 2.57 60 19:24 19.03.2021
2141 Clouds 5 1028 69 10000 2.57 60 18:56 19.03.2021
2142 Clouds 5 1028 69 10000 2.57 60 18:36 19.03.2021
2143 Clouds 5 1027 65 10000 6.17 70 18:18 19.03.2021
2144 Clouds 6 1027 65 10000 6.17 70 17:42 19.03.2021
2145 Clouds 6 1027 65 10000 6.17 50 17:22 19.03.2021
2146 Clouds 6 1027 65 10000 6.17 50 16:44 19.03.2021
2147 Clouds 6 1027 65 10000 6.17 40 16:26 19.03.2021
2148 Clouds 6 1027 65 10000 6.17 40 15:34 19.03.2021
2149 Clouds 7 1026 56 10000 6.69 40 14:54 19.03.2021
2150 Clouds 7 1026 56 10000 6.69 40 14:35 19.03.2021
2151 Clouds 6 1026 65 10000 4.12 40 13:54 19.03.2021
2152 Clouds 6 1026 65 10000 3.6 50 13:21 19.03.2021
2153 Clouds 6 1026 65 10000 3.6 50 12:48 19.03.2021
2154 Clouds 6 1026 75 10000 3.6 80 12:24 19.03.2021
2155 Clouds 5 1026 75 10000 3.6 80 11:34 19.03.2021
2156 Clouds 5 1025 81 10000 3.6 50 10:53 19.03.2021
2157 Clouds 5 1025 81 10000 3.6 20 10:26 19.03.2021
2158 Clouds 5 1025 81 10000 3.6 20 09:47 19.03.2021
2159 Clouds 4 1024 80 10000 2.57 20 09:27 19.03.2021
2160 Clouds 4 1024 80 10000 2.57 20 08:53 19.03.2021
2161 Clouds 3 1024 93 10000 2.06 10 08:30 19.03.2021
2162 Clouds 2 1024 93 10000 2.06 10 07:51 19.03.2021
2163 Clouds 2 1024 93 10000 2.06 10 07:32 19.03.2021
2164 Clouds 2 1023 86 10000 2.57 20 06:36 19.03.2021
2165 Clear 2 1022 80 10000 2.57 10 02:45 19.03.2021
2166 Clouds 3 1021 86 10000 1.03 30 23:58 18.03.2021
2167 Clouds 3 1021 74 10000 1.03 20 23:30 18.03.2021
2168 Clouds 3 1021 74 10000 1.03 20 22:58 18.03.2021
2169 Clouds 3 1020 69 10000 1.54 30 22:27 18.03.2021
2170 Clouds 3 1020 69 10000 1.54 30 21:59 18.03.2021
2171 Clouds 3 1020 69 10000 1.54 30 21:38 18.03.2021
2172 Clouds 4 1020 65 10000 3.09 50 20:43 18.03.2021
2173 Clouds 4 1020 81 10000 3.09 360 20:23 18.03.2021
2174 Clouds 4 1020 81 10000 3.09 360 19:45 18.03.2021
2175 Clouds 4 1020 75 10000 3.6 350 19:25 18.03.2021
2176 Clouds 4 1020 75 10000 3.6 350 18:54 18.03.2021
2177 Clouds 4 1020 70 10000 3.6 350 18:27 18.03.2021
2178 Clouds 4 1020 70 10000 3.6 350 17:49 18.03.2021
2179 Clouds 5 1020 65 10000 4.63 330 17:25 18.03.2021
2180 Clouds 5 1020 65 10000 4.63 330 16:47 18.03.2021
2181 Clouds 6 1020 65 10000 4.63 320 16:29 18.03.2021
2182 Clouds 6 1020 65 10000 4.63 320 15:46 18.03.2021
2183 Clouds 6 1021 65 10000 5.14 320 15:24 18.03.2021
2184 Clouds 6 1021 65 10000 5.14 320 14:53 18.03.2021
2185 Clouds 6 1022 65 10000 3.6 310 14:32 18.03.2021
2186 Clouds 6 1022 65 10000 3.6 310 13:53 18.03.2021
2187 Clouds 5 1022 70 10000 2.57 330 13:26 18.03.2021
2188 Clouds 5 1022 70 10000 2.57 330 12:44 18.03.2021
2189 Clouds 5 1023 70 10000 2.57 330 12:25 18.03.2021
2190 Clouds 5 1023 70 10000 2.57 330 11:53 18.03.2021
2191 Clouds 5 1023 75 10000 1.54 290 11:32 18.03.2021
2192 Clouds 5 1023 75 10000 1.54 290 10:46 18.03.2021
2193 Clouds 5 1023 81 10000 3.09 320 10:27 18.03.2021
2194 Clouds 4 1023 81 10000 3.09 320 09:54 18.03.2021
2195 Clouds 4 1023 93 10000 3.09 340 09:29 18.03.2021
2196 Clouds 4 1023 93 10000 3.09 340 08:50 18.03.2021
2197 Clouds 4 1024 100 10000 4.29 14 08:31 18.03.2021
2198 Clouds 3 1024 100 10000 4.35 4 07:53 18.03.2021
2199 Clouds 3 1023 100 10000 2.06 290 07:25 18.03.2021
2200 Clouds 3 1024 100 10000 1.54 270 06:29 18.03.2021
2201 Clouds 3 1024 100 10000 1.54 270 05:55 18.03.2021
2202 Clouds 4 1025 100 100 3.09 270 02:35 18.03.2021
2203 Clouds 4 1025 100 100 3.09 270 02:35 18.03.2021
2204 Clouds 3 1026 100 100 2.57 300 23:59 17.03.2021
2205 Fog 3 1026 100 800 1.54 330 22:58 17.03.2021
2206 Fog 3 1026 100 800 1.54 330 22:36 17.03.2021
2207 Fog 3 1027 100 500 3.09 350 22:18 17.03.2021
2208 Mist 4 1027 100 3000 2.06 350 21:45 17.03.2021
2209 Mist 3 1026 87 3500 2.57 320 21:27 17.03.2021
2210 Mist 3 1026 87 4500 2.06 310 20:45 17.03.2021
2211 Clouds 4 1026 87 10000 2.06 270 20:25 17.03.2021
2212 Clouds 4 1026 87 10000 2.06 270 20:25 17.03.2021
2213 Clouds 4 1026 87 10000 1.54 280 19:51 17.03.2021
2214 Clouds 5 1025 75 10000 0.51 150 19:25 17.03.2021
2215 Clouds 5 1025 75 10000 0.51 150 18:57 17.03.2021
2216 Clouds 5 1025 75 10000 0.51 150 18:39 17.03.2021
2217 Clouds 6 1026 61 10000 4.63 30 17:57 17.03.2021
2218 Clouds 6 1025 65 10000 3.6 360 17:27 17.03.2021
2219 Clouds 6 1025 65 10000 3.6 360 16:55 17.03.2021
2220 Clouds 6 1025 65 10000 3.6 360 16:37 17.03.2021
2221 Clouds 6 1024 70 10000 4.63 310 16:18 17.03.2021
2222 Clouds 6 1024 70 10000 4.63 310 15:37 17.03.2021
2223 Clouds 6 1024 65 10000 3.09 330 14:46 17.03.2021
2224 Clouds 6 1024 75 10000 3.6 310 14:27 17.03.2021
2225 Clouds 6 1024 75 10000 3.6 310 13:56 17.03.2021
2226 Clouds 6 1024 75 10000 3.6 310 13:37 17.03.2021
2227 Clouds 6 1024 70 10000 3.09 10 12:59 17.03.2021
2228 Clouds 6 1024 70 10000 3.09 10 12:34 17.03.2021
2229 Clouds 6 1024 70 10000 3.09 360 11:54 17.03.2021
2230 Clouds 5 1023 70 10000 4.12 350 11:27 17.03.2021
2231 Clouds 5 1023 70 10000 4.12 350 10:59 17.03.2021
2232 Clouds 5 1023 70 10000 4.12 350 10:40 17.03.2021
2233 Clouds 5 1023 70 10000 4.12 350 09:59 17.03.2021
2234 Clouds 5 1023 70 10000 4.12 350 09:41 17.03.2021
2235 Clouds 5 1022 75 10000 3.6 10 09:20 17.03.2021
2236 Clouds 4 1022 75 10000 3.6 10 08:44 17.03.2021
2237 Clouds 4 1022 87 10000 1.54 320 08:24 17.03.2021
2238 Clouds 4 1022 87 10000 1.54 320 07:37 17.03.2021
2239 Clouds 4 1022 80 10000 2.06 340 06:48 17.03.2021
2240 Clouds 4 1022 60 10000 3.09 350 04:28 17.03.2021
2241 Clouds 3 1022 65 10000 4.63 340 03:31 17.03.2021
2242 Clouds 3 1022 75 10000 4.63 320 01:19 17.03.2021
2243 Clouds 3 1022 75 10000 4.63 320 00:33 17.03.2021
2244 Clouds 4 1021 87 10000 2.57 320 23:25 16.03.2021
2245 Clouds 4 1021 87 10000 2.57 320 22:44 16.03.2021
2246 Clouds 3 1021 93 10000 2.06 300 22:26 16.03.2021
2247 Clouds 4 1021 93 10000 2.06 300 21:44 16.03.2021
2248 Clouds 4 1021 87 10000 2.57 300 21:25 16.03.2021
2249 Clouds 4 1021 87 10000 2.57 300 20:56 16.03.2021
2250 Clouds 4 1021 87 10000 3.09 320 20:19 16.03.2021
2251 Clouds 5 1021 87 10000 3.09 320 19:48 16.03.2021
2252 Clouds 5 1021 87 10000 2.57 300 19:28 16.03.2021
2253 Clouds 5 1021 87 10000 2.57 300 18:57 16.03.2021
2254 Clouds 5 1021 87 10000 2.57 300 18:38 16.03.2021
2255 Clouds 5 1020 75 10000 6.69 310 17:59 16.03.2021
2256 Clouds 6 1020 75 10000 6.69 310 17:40 16.03.2021
2257 Clouds 6 1020 81 10000 6.17 310 17:20 16.03.2021
2258 Clouds 6 1020 81 10000 6.17 310 16:46 16.03.2021
2259 Clouds 6 1021 81 10000 7.2 320 16:25 16.03.2021
2260 Clouds 7 1020 61 10000 7.2 320 15:45 16.03.2021
2261 Clouds 7 1020 65 10000 8.23 310 15:20 16.03.2021
2262 Clouds 7 1020 65 10000 8.23 310 14:57 16.03.2021
2263 Clouds 7 1020 65 10000 8.23 310 14:38 16.03.2021
2264 Clouds 8 1020 61 10000 8.23 330 14:18 16.03.2021
2265 Clouds 7 1020 61 10000 8.23 330 13:44 16.03.2021
2266 Clouds 7 1020 65 10000 8.75 330 13:21 16.03.2021
2267 Clouds 7 1020 65 10000 8.75 330 12:43 16.03.2021
2268 Clouds 7 1020 70 10000 8.75 330 12:23 16.03.2021
2269 Clouds 6 1020 70 10000 8.75 330 11:38 16.03.2021
2270 Clouds 6 1019 70 10000 8.75 330 10:53 16.03.2021
2271 Clouds 6 1019 81 10000 7.72 330 10:24 16.03.2021
2272 Clouds 5 1019 81 10000 7.72 330 09:47 16.03.2021
2273 Clouds 5 1019 81 10000 6.17 320 09:29 16.03.2021
2274 Clouds 5 1019 81 10000 6.17 320 08:58 16.03.2021
2275 Clouds 5 1019 81 10000 6.17 320 08:40 16.03.2021
2276 Clouds 5 1018 81 10000 6.17 320 08:18 16.03.2021
2277 Clouds 5 1018 81 10000 6.17 320 07:35 16.03.2021
2278 Clouds 5 1018 81 10000 5.14 320 06:39 16.03.2021
2279 Clouds 5 1017 93 10000 5.14 310 05:40 16.03.2021
2280 Clear 5 1017 93 9000 6.69 330 05:21 16.03.2021
2281 Clear 5 1016 93 8000 5.14 320 02:45 16.03.2021
2282 Clear 5 1016 93 9000 5.14 330 02:23 16.03.2021
2283 Clear 5 1015 75 10000 5.14 340 23:57 15.03.2021
2284 Clear 5 1014 81 10000 5.66 340 23:28 15.03.2021
2285 Clear 5 1014 81 10000 5.66 340 23:28 15.03.2021
2286 Clear 5 1014 81 10000 5.66 340 22:51 15.03.2021
2287 Clear 5 1014 81 10000 5.66 340 22:33 15.03.2021
2288 Clear 5 1014 81 10000 5.66 340 22:33 15.03.2021
2289 Clear 5 1013 87 10000 6.17 330 21:55 15.03.2021
2290 Clear 4 1013 87 10000 6.17 330 21:35 15.03.2021
2291 Clouds 5 1013 87 10000 6.17 320 20:59 15.03.2021
2292 Clouds 5 1012 81 10000 6.17 320 20:40 15.03.2021
2293 Clouds 5 1012 81 10000 6.17 320 20:21 15.03.2021
2294 Clouds 5 1012 81 10000 5.66 320 19:51 15.03.2021
2295 Clouds 5 1012 81 10000 5.66 320 19:32 15.03.2021
2296 Clouds 6 1011 81 10000 6.17 320 18:57 15.03.2021
2297 Clouds 6 1010 75 10000 8.75 330 18:32 15.03.2021
2298 Clouds 6 1010 75 10000 8.75 330 17:56 15.03.2021
2299 Clouds 6 1009 81 10000 8.23 330 17:32 15.03.2021
2300 Clouds 6 1009 81 10000 8.23 330 16:55 15.03.2021
2301 Clouds 6 1009 81 10000 8.23 330 16:35 15.03.2021
2302 Clouds 6 1008 81 10000 9.26 320 15:47 15.03.2021
2303 Clouds 6 1007 75 10000 9.77 320 15:26 15.03.2021
2304 Clouds 6 1007 75 10000 9.77 320 14:45 15.03.2021
2305 Clouds 6 1006 87 9000 9.77 320 14:24 15.03.2021
2306 Clouds 6 1006 87 9000 9.77 320 13:53 15.03.2021
2307 Clouds 7 1006 87 7000 9.26 310 13:34 15.03.2021
2308 Clouds 6 1005 87 4500 10.8 300 12:51 15.03.2021
2309 Clouds 6 1005 87 4500 11.83 300 12:20 15.03.2021
2310 Clouds 6 1005 93 7000 10.29 300 11:56 15.03.2021
2311 Clouds 6 1005 93 7000 10.8 290 11:38 15.03.2021
2312 Clouds 6 1004 87 10000 10.29 290 10:59 15.03.2021
2313 Clouds 6 1004 87 10000 10.29 290 10:33 15.03.2021
2314 Clouds 6 1004 87 10000 9.77 290 09:59 15.03.2021
2315 Clouds 6 1004 87 10000 9.77 290 09:40 15.03.2021
2316 Clouds 6 1004 93 10000 9.77 280 08:59 15.03.2021
2317 Clouds 5 1004 93 10000 9.77 280 08:41 15.03.2021
2318 Clouds 5 1003 93 10000 8.23 270 08:19 15.03.2021
2319 Mist 5 1003 93 3700 8.23 260 07:32 15.03.2021
2320 Mist 5 1004 100 4500 7.72 260 06:44 15.03.2021
2321 Clouds 5 1004 93 10000 6.69 260 05:35 15.03.2021
2322 Clear 4 1005 93 9000 5.14 250 03:18 15.03.2021
2323 Clouds 5 1005 93 8000 6.69 250 00:21 15.03.2021
2324 Clouds 5 1005 93 8000 6.69 250 00:21 15.03.2021
2325 Clouds 5 1006 93 10000 6.69 260 23:22 14.03.2021
2326 Clouds 5 1006 93 10000 6.69 260 22:49 14.03.2021
2327 Clouds 5 1006 87 10000 6.69 260 22:27 14.03.2021
2328 Clouds 5 1006 87 10000 6.69 260 21:52 14.03.2021
2329 Clouds 5 1006 93 10000 5.66 260 21:23 14.03.2021
2330 Clouds 5 1006 93 10000 5.66 260 20:52 14.03.2021
2331 Clouds 5 1006 93 10000 7.72 270 20:29 14.03.2021
2332 Clouds 5 1006 93 10000 7.72 270 19:58 14.03.2021
2333 Clouds 5 1006 93 10000 7.72 270 19:40 14.03.2021
2334 Clouds 6 1006 81 10000 8.23 270 19:18 14.03.2021
2335 Clouds 7 1006 81 10000 8.23 270 18:36 14.03.2021
2336 Clouds 7 1006 87 10000 8.23 280 17:54 14.03.2021
2337 Clouds 7 1006 87 10000 8.23 280 17:36 14.03.2021
2338 Clouds 8 1005 81 10000 9.77 280 17:18 14.03.2021
2339 Clouds 8 1005 81 10000 9.26 280 16:40 14.03.2021
2340 Clouds 8 1005 87 10000 9.77 280 16:19 14.03.2021
2341 Clouds 8 1005 87 10000 9.77 280 15:42 14.03.2021
2342 Clouds 8 1005 81 10000 8.75 280 14:51 14.03.2021
2343 Clouds 8 1005 81 10000 8.23 270 14:30 14.03.2021
2344 Clouds 8 1005 81 10000 8.23 270 13:53 14.03.2021
2345 Clouds 8 1005 81 10000 8.23 270 13:34 14.03.2021
2346 Clouds 8 1004 81 10000 9.26 280 12:58 14.03.2021
2347 Clouds 8 1004 81 10000 9.26 280 12:40 14.03.2021
2348 Clouds 7 1004 93 10000 7.72 270 12:22 14.03.2021
2349 Clouds 6 1004 93 10000 7.72 270 11:38 14.03.2021
2350 Clouds 6 1003 87 10000 8.23 280 11:19 14.03.2021
2351 Clouds 6 1003 87 10000 8.23 280 10:38 14.03.2021
2352 Clouds 5 1002 93 10000 5.66 270 10:19 14.03.2021
2353 Clouds 5 1002 93 10000 5.66 270 09:56 14.03.2021
2354 Clouds 5 1002 93 10000 5.66 270 09:37 14.03.2021
2355 Clouds 5 1001 93 10000 7.2 290 09:19 14.03.2021
2356 Clouds 5 1001 93 10000 7.2 290 08:36 14.03.2021
2357 Clouds 5 999 93 10000 8.75 290 07:56 14.03.2021
2358 Clouds 4 998 93 10000 7.72 290 07:27 14.03.2021
2359 Clouds 5 997 93 10000 8.23 290 05:34 14.03.2021
2360 Clouds 3 989 93 2000 13.89 300 01:25 14.03.2021
2361 Clouds 4 988 87 3000 13.38 280 00:20 14.03.2021
2362 Clouds 4 988 87 3000 13.38 280 23:59 13.03.2021
2363 Clouds 4 988 87 3000 13.38 280 23:38 13.03.2021
2364 Clouds 4 987 93 10000 15.43 280 23:18 13.03.2021
2365 Clouds 4 987 93 10000 15.43 280 22:44 13.03.2021
2366 Clouds 4 985 93 10000 12.86 270 22:18 13.03.2021
2367 Rain 4 985 93 10000 12.86 270 21:35 13.03.2021
2368 Clouds 4 985 93 10000 14.4 260 20:59 13.03.2021
2369 Clouds 4 985 93 10000 14.4 260 20:41 13.03.2021
2370 Rain 4 983 93 8000 15.95 260 20:22 13.03.2021
2371 Rain 4 983 93 8000 15.95 260 19:38 13.03.2021
2372 Rain 5 983 87 7000 8.75 240 19:20 13.03.2021
2373 Clouds 5 983 87 7000 8.75 240 18:42 13.03.2021
2374 Clouds 5 983 87 10000 9.26 240 18:20 13.03.2021
2375 Clouds 5 983 87 10000 9.26 240 17:49 13.03.2021
2376 Clouds 5 983 87 10000 9.26 240 17:49 13.03.2021
2377 Mist 5 983 93 4000 9.77 230 17:31 13.03.2021
2378 Rain 5 983 87 4000 10.29 220 16:52 13.03.2021
2379 Rain 5 984 87 10000 7.72 220 16:34 13.03.2021
2380 Rain 7 984 70 10000 9.26 220 15:56 13.03.2021
2381 Rain 7 985 76 10000 6.17 250 15:18 13.03.2021
2382 Clouds 6 985 76 10000 6.17 250 14:41 13.03.2021
2383 Clouds 7 985 61 10000 8.75 250 14:21 13.03.2021
2384 Clouds 7 985 71 10000 9.26 230 13:28 13.03.2021
2385 Clouds 7 985 71 10000 9.26 230 12:53 13.03.2021
2386 Clouds 7 985 71 10000 9.26 230 12:35 13.03.2021
2387 Clouds 7 985 71 10000 8.23 220 11:57 13.03.2021
2388 Clouds 7 985 71 10000 8.23 220 11:38 13.03.2021
2389 Clouds 7 986 81 10000 7.72 240 11:19 13.03.2021
2390 Clouds 6 985 87 10000 14.4 210 10:31 13.03.2021
2391 Rain 6 985 93 8000 7.72 180 09:59 13.03.2021
2392 Rain 5 985 93 8000 7.72 180 09:33 13.03.2021
2393 Rain 5 987 100 5000 6.69 170 08:54 13.03.2021
2394 Rain 5 987 100 5000 6.69 170 08:54 13.03.2021
2395 Rain 5 989 93 7000 5.66 170 08:21 13.03.2021
2396 Rain 5 989 93 7000 5.66 170 07:57 13.03.2021
2397 Rain 5 989 93 7000 5.66 170 07:33 13.03.2021
2398 Clouds 5 994 87 9000 5.14 210 05:30 13.03.2021
2399 Clear 4 996 93 10000 5.66 210 02:42 13.03.2021
2400 Clouds 5 996 87 10000 6.17 220 00:36 13.03.2021
2401 Clouds 5 996 87 10000 5.14 230 23:46 12.03.2021
2402 Clouds 5 996 87 10000 5.66 240 23:26 12.03.2021
2403 Clouds 5 996 87 10000 6.17 240 22:32 12.03.2021
2404 Clouds 5 996 87 10000 6.17 240 21:59 12.03.2021
2405 Clouds 5 996 87 10000 6.17 240 21:38 12.03.2021
2406 Clouds 5 996 87 10000 5.66 240 21:19 12.03.2021
2407 Rain 5 996 87 10000 5.66 240 20:48 12.03.2021
2408 Clouds 5 996 87 10000 7.2 230 20:24 12.03.2021
2409 Clouds 6 996 87 10000 7.2 230 19:45 12.03.2021
2410 Clouds 6 996 87 10000 5.66 220 19:27 12.03.2021
2411 Clouds 6 996 87 10000 5.66 220 18:53 12.03.2021
2412 Rain 6 996 93 8000 5.66 220 18:29 12.03.2021
2413 Rain 5 996 87 4500 3.6 250 17:45 12.03.2021
2414 Rain 6 997 93 4500 5.14 200 17:27 12.03.2021
2415 Rain 7 997 87 10000 6.17 210 16:49 12.03.2021
2416 Rain 7 998 93 10000 7.72 220 16:28 12.03.2021
2417 Clouds 5 998 93 10000 7.72 220 15:45 12.03.2021
2418 Clouds 5 999 93 10000 7.2 230 15:21 12.03.2021
2419 Rain 7 999 76 10000 6.69 230 14:42 12.03.2021
2420 Clouds 7 1000 87 10000 6.69 230 14:19 12.03.2021
2421 Clouds 7 1000 76 10000 7.2 230 13:40 12.03.2021
2422 Clouds 8 1000 66 10000 7.72 240 13:20 12.03.2021
2423 Clouds 8 1000 66 10000 7.72 240 12:50 12.03.2021
2424 Clouds 8 1000 70 10000 7.72 240 12:30 12.03.2021
2425 Clouds 8 1000 70 10000 7.72 240 12:30 12.03.2021
2426 Clouds 8 1000 70 10000 7.72 240 11:57 12.03.2021
2427 Clouds 8 1000 70 10000 7.72 240 11:38 12.03.2021
2428 Clouds 7 1000 75 10000 7.72 240 10:59 12.03.2021
2429 Clouds 7 1000 75 10000 7.72 240 10:41 12.03.2021
2430 Clouds 7 1000 75 10000 8.75 240 10:20 12.03.2021
2431 Clouds 6 1000 81 10000 7.72 250 09:29 12.03.2021
2432 Clouds 5 1000 81 10000 7.72 250 08:57 12.03.2021
2433 Clouds 5 1000 81 10000 7.72 250 08:39 12.03.2021
2434 Clouds 5 999 81 10000 8.23 250 07:41 12.03.2021
2435 Clouds 5 999 81 10000 9.77 260 07:19 12.03.2021
2436 Clouds 5 999 81 10000 9.77 260 06:41 12.03.2021
2437 Clouds 5 998 81 10000 9.77 260 05:45 12.03.2021
2438 Clouds 6 995 75 10000 6.69 250 00:52 12.03.2021
2439 Clouds 7 994 81 10000 8.23 250 23:56 11.03.2021
2440 Clouds 7 994 81 10000 8.75 250 22:59 11.03.2021
2441 Clouds 7 994 81 10000 8.75 250 22:59 11.03.2021
2442 Clouds 6 994 81 10000 8.75 250 22:39 11.03.2021
2443 Clouds 6 993 76 10000 8.75 250 22:19 11.03.2021
2444 Clouds 6 993 76 10000 8.75 250 21:46 11.03.2021
2445 Clouds 6 993 70 10000 9.26 260 21:24 11.03.2021
2446 Clouds 7 993 70 10000 9.26 260 20:49 11.03.2021
2447 Clouds 7 992 65 10000 9.77 260 20:22 11.03.2021
2448 Clouds 7 992 65 10000 9.77 260 19:53 11.03.2021
2449 Clouds 7 992 65 10000 9.77 260 19:34 11.03.2021
2450 Clouds 8 991 66 10000 10.29 260 18:53 11.03.2021
2451 Clouds 8 991 66 10000 10.29 260 18:53 11.03.2021
2452 Clouds 8 991 66 10000 10.29 260 18:34 11.03.2021
2453 Clouds 8 990 66 10000 13.89 270 17:53 11.03.2021
2454 Clouds 8 990 66 10000 13.89 270 17:32 11.03.2021
2455 Clouds 8 989 71 10000 15.43 260 16:37 11.03.2021
2456 Clouds 8 987 81 7000 16.46 260 16:19 11.03.2021
2457 Rain 7 987 81 7000 16.46 260 15:39 11.03.2021
2458 Rain 7 986 87 7000 15.43 250 15:20 11.03.2021
2459 Rain 8 986 87 3500 10.8 230 14:44 11.03.2021
2460 Rain 8 986 87 7000 9.77 230 14:18 11.03.2021
2461 Clouds 8 986 87 7000 9.77 230 13:45 11.03.2021
2462 Rain 9 986 76 7000 8.75 240 13:22 11.03.2021
2463 Rain 10 986 76 7000 8.75 240 12:54 11.03.2021
2464 Rain 10 987 76 7000 7.72 230 12:29 11.03.2021
2465 Rain 10 987 81 7000 9.26 240 11:47 11.03.2021
2466 Rain 10 988 87 3800 10.8 230 11:29 11.03.2021
2467 Mist 10 988 87 3800 10.8 230 10:55 11.03.2021
2468 Clouds 10 989 93 10000 9.26 210 10:25 11.03.2021
2469 Clouds 8 989 93 10000 9.26 210 09:50 11.03.2021
2470 Clouds 8 989 93 10000 9.26 210 09:32 11.03.2021
2471 Mist 8 990 87 3000 7.72 200 08:50 11.03.2021
2472 Clouds 8 991 93 10000 9.26 210 08:32 11.03.2021
2473 Clouds 7 991 93 10000 9.26 210 07:48 11.03.2021
2474 Clouds 7 992 100 10000 7.72 200 07:21 11.03.2021
2475 Clouds 7 992 100 10000 7.72 200 06:42 11.03.2021
2476 Clouds 7 993 93 9000 7.72 190 06:22 11.03.2021
2477 Rain 5 1000 93 7000 8.75 180 02:26 11.03.2021
2478 -273 0 0 0 0 0 00:29 11.03.2021
2479 Rain 6 1003 87 4800 6.69 180 00:28 11.03.2021
2480 Rain 6 1005 81 7000 7.72 170 23:23 10.03.2021
2481 Rain 7 1005 81 7000 7.72 170 22:42 10.03.2021
2482 Rain 7 1005 81 7000 7.72 170 22:41 10.03.2021
2483 Rain 7 1005 81 7000 7.72 170 22:41 10.03.2021
2484 Rain 7 1005 81 7000 7.72 170 22:41 10.03.2021
2485 Rain 7 1005 81 7000 7.72 170 22:41 10.03.2021
2486 Rain 7 1006 87 10000 7.2 160 22:19 10.03.2021
2487 Rain 6 1006 87 10000 7.2 160 21:41 10.03.2021
2488 Clouds 6 1008 93 6000 6.69 160 21:21 10.03.2021
2489 Clouds 6 1008 93 6000 6.69 160 21:21 10.03.2021
2490 Rain 6 1008 93 6000 6.69 160 20:44 10.03.2021
2491 Rain 6 1009 93 6000 6.17 170 20:26 10.03.2021
2492 Rain 6 1009 93 6000 6.17 170 19:42 10.03.2021
2493 Rain 7 1011 87 5000 4.63 160 19:23 10.03.2021
2494 Rain 6 1011 87 5000 4.63 160 18:44 10.03.2021
2495 Rain 6 1011 81 6000 5.66 160 18:24 10.03.2021
2496 Rain 6 1011 81 6000 5.66 160 18:24 10.03.2021
2497 Rain 7 1011 81 6000 5.66 160 17:55 10.03.2021
2498 Rain 7 1011 81 6000 5.66 160 17:36 10.03.2021
2499 Rain 7 1013 75 10000 4.63 180 17:18 10.03.2021
2500 Rain 7 1013 75 10000 4.63 180 16:41 10.03.2021
2501 Rain 7 1013 75 10000 5.14 190 16:21 10.03.2021
2502 Rain 7 1013 75 10000 5.14 190 15:41 10.03.2021
2503 Rain 7 1014 70 10000 6.17 170 15:22 10.03.2021
2504 Clouds 7 1014 70 10000 6.17 170 14:43 10.03.2021
2505 Clouds 7 1014 70 10000 5.14 180 14:19 10.03.2021
2506 Rain 6 1015 70 10000 6.17 180 13:46 10.03.2021
2507 Rain 6 1015 70 10000 5.66 180 13:25 10.03.2021
2508 Clouds 5 1016 75 10000 5.14 190 12:45 10.03.2021
2509 Clouds 5 1016 75 9000 4.63 180 12:19 10.03.2021
2510 Clouds 4 1016 75 7000 5.14 170 11:32 10.03.2021
2511 Mist 4 1016 87 4000 3.09 140 10:59 10.03.2021
2512 Mist 3 1017 87 4000 3.09 150 10:38 10.03.2021
2513 Mist 3 1017 87 4000 3.09 150 10:20 10.03.2021
2514 Mist 2 1017 93 3700 3.6 160 09:42 10.03.2021
2515 Mist 2 1017 93 3700 3.09 170 09:22 10.03.2021
2516 Mist 2 1017 100 3000 2.57 150 08:57 10.03.2021
2517 Mist 2 1017 100 3000 2.57 150 08:57 10.03.2021
2518 Mist 2 1017 100 3000 2.57 150 08:38 10.03.2021
2519 Mist 2 1017 100 3000 2.06 150 08:20 10.03.2021
2520 Mist 2 1017 100 2500 2.06 180 07:30 10.03.2021
2521 Mist 2 1017 100 2500 2.06 180 06:56 10.03.2021
2522 Mist 2 1017 100 2800 2.57 180 06:32 10.03.2021
2523 Clouds 2 1018 78 4700 1.54 140 02:41 10.03.2021
2524 Clouds 2 1018 78 8000 2.06 100 23:52 09.03.2021
2525 Clouds 2 1018 93 10000 2.06 100 23:24 09.03.2021
2526 Clouds 3 1018 93 10000 1.54 100 22:42 09.03.2021
2527 Clouds 3 1019 93 10000 1.03 80 22:23 09.03.2021
2528 Clouds 3 1019 93 10000 1.03 80 21:46 09.03.2021
2529 Clouds 3 1018 93 10000 2.06 90 21:25 09.03.2021
2530 Clouds 3 1018 93 10000 2.06 90 20:58 09.03.2021
2531 Clouds 3 1018 93 10000 2.06 90 20:40 09.03.2021
2532 Clouds 3 1018 93 9000 2.57 100 20:21 09.03.2021
2533 Clouds 3 1018 93 9000 2.57 100 19:51 09.03.2021
2534 Clouds 3 1018 93 9000 2.57 100 19:27 09.03.2021
2535 Clouds 3 1018 93 6000 3.09 100 18:50 09.03.2021
2536 Clouds 3 1017 87 6000 3.09 100 18:27 09.03.2021
2537 Clouds 3 1017 93 9000 2.57 110 17:53 09.03.2021
2538 Clouds 3 1017 93 10000 2.57 120 17:31 09.03.2021
2539 Clouds 3 1017 93 10000 2.57 120 16:55 09.03.2021
2540 Clouds 3 1017 93 10000 2.57 120 16:37 09.03.2021
2541 Clouds 3 1017 93 9000 3.09 130 16:18 09.03.2021
2542 Clouds 3 1017 93 9000 3.09 130 15:43 09.03.2021
2543 Clouds 3 1017 87 8000 3.6 110 15:20 09.03.2021
2544 Clouds 3 1017 93 10000 3.6 100 14:31 09.03.2021
2545 Clouds 3 1017 93 10000 3.6 100 13:59 09.03.2021
2546 Clouds 3 1017 87 10000 3.09 110 13:38 09.03.2021
2547 Clouds 3 1017 87 10000 3.09 110 13:19 09.03.2021
2548 Clouds 2 1017 87 10000 3.09 110 12:39 09.03.2021
2549 Clouds 2 1017 86 8000 3.09 110 12:21 09.03.2021
2550 Clouds 2 1017 86 8000 3.09 100 11:42 09.03.2021
2551 Clouds 2 1017 86 8000 3.09 110 11:21 09.03.2021
2552 Clouds 2 1017 86 8000 3.09 110 10:55 09.03.2021
2553 Clouds 2 1017 86 8000 3.09 110 10:36 09.03.2021
2554 Clouds 2 1017 86 8000 3.09 120 10:18 09.03.2021
2555 Clouds 1 1017 93 7000 3.6 120 09:43 09.03.2021
2556 Clouds 1 1017 93 6000 4.12 130 09:24 09.03.2021
2557 Clouds 1 1017 93 6000 4.12 130 08:46 09.03.2021
2558 Mist 1 1017 93 5000 3.6 130 08:23 09.03.2021
2559 Snow 1 1017 93 3700 3.6 120 07:40 09.03.2021
2560 Snow 1 1017 93 3700 3.09 110 07:21 09.03.2021
2561 Snow 0 1017 100 1400 3.09 110 05:55 09.03.2021
2562 Snow 0 1017 100 1400 3.09 110 05:37 09.03.2021
2563 Rain 2 1020 94 10000 1.54 180 00:34 09.03.2021
2564 Rain 2 1020 90 10000 3.09 130 23:45 08.03.2021
2565 Rain 2 1020 52 10000 2.57 130 23:27 08.03.2021
2566 Rain 3 1020 52 10000 2.57 130 22:51 08.03.2021
2567 Rain 3 1020 52 10000 2.57 130 22:32 08.03.2021
2568 Rain 4 1021 52 10000 2.57 130 21:57 08.03.2021
2569 Rain 4 1021 52 10000 2.57 130 21:35 08.03.2021
2570 Clouds 4 1021 52 10000 2.57 140 20:48 08.03.2021
2571 Clouds 4 1021 52 10000 2.06 130 20:28 08.03.2021
2572 Clouds 4 1021 52 10000 2.06 130 20:28 08.03.2021
2573 Rain 4 1021 48 10000 1.54 130 19:59 08.03.2021
2574 Rain 5 1021 48 10000 1.54 120 19:37 08.03.2021
2575 Clouds 5 1021 48 10000 1.54 120 18:44 08.03.2021
2576 Clouds 5 1021 38 10000 1.54 150 18:23 08.03.2021
2577 Clouds 5 1021 38 10000 1.54 150 17:56 08.03.2021
2578 Clouds 5 1021 38 10000 1.54 150 17:38 08.03.2021
2579 Clouds 6 1022 38 10000 2.06 160 16:56 08.03.2021
2580 Clouds 6 1022 38 10000 2.06 160 16:33 08.03.2021
2581 Clouds 7 1022 39 10000 2.06 150 15:57 08.03.2021
2582 Clouds 7 1023 39 10000 2.57 150 15:30 08.03.2021
2583 Clouds 7 1023 39 10000 2.57 150 14:59 08.03.2021
2584 Clouds 6 1023 42 10000 2.06 140 14:21 08.03.2021
2585 Clouds 5 1023 42 10000 2.06 140 13:44 08.03.2021
2586 Clouds 5 1024 52 10000 2.06 130 13:22 08.03.2021
2587 Clouds 5 1024 52 10000 2.06 130 12:49 08.03.2021
2588 Clouds 5 1024 70 10000 2.57 100 12:29 08.03.2021
2589 Clouds 4 1024 70 10000 2.57 100 11:44 08.03.2021
2590 Clouds 3 1024 64 10000 3.09 70 11:20 08.03.2021
2591 Clouds 3 1024 64 10000 3.09 70 10:45 08.03.2021
2592 Clouds 3 1024 64 10000 1.54 80 10:27 08.03.2021
2593 Clouds 2 1024 64 10000 1.54 80 09:45 08.03.2021
2594 Clouds 2 1023 86 10000 1.54 80 09:23 08.03.2021
2595 Clouds 0 1023 100 10000 1.54 70 08:30 08.03.2021
2596 Clouds -2 1023 100 10000 1.54 70 07:49 08.03.2021
2597 Clouds -2 1023 100 10000 1.03 70 07:21 08.03.2021
2598 Clear -1 1022 77 9000 2.06 80 05:19 08.03.2021
2599 Clouds 2 1021 75 10000 0.51 350 01:28 08.03.2021
2600 Clouds 2 1021 78 10000 0.51 350 01:28 08.03.2021
2601 Clouds 2 1021 75 10000 0.51 350 00:38 08.03.2021
2602 Clouds 2 1021 78 10000 0.51 0 23:51 07.03.2021
2603 Clouds 3 1021 86 10000 2.57 350 23:20 07.03.2021
2604 Clouds 3 1021 86 10000 2.57 350 22:45 07.03.2021
2605 Clouds 3 1020 93 10000 3.6 350 22:26 07.03.2021
2606 Clouds 3 1020 93 10000 3.6 350 21:49 07.03.2021
2607 Clouds 3 1020 87 10000 3.6 310 21:31 07.03.2021
2608 Clouds 4 1020 100 10000 3.09 310 20:55 07.03.2021
2609 Clouds 4 1020 100 10000 3.09 310 20:37 07.03.2021
2610 Clouds 4 1020 93 10000 4.12 350 20:18 07.03.2021
2611 Mist 4 1020 100 5000 4.12 350 19:39 07.03.2021
2612 Mist 4 1019 100 4000 6.69 300 19:21 07.03.2021
2613 Mist 4 1019 100 4000 6.69 300 18:50 07.03.2021
2614 Mist 5 1019 87 4500 7.2 290 18:20 07.03.2021
2615 Clouds 5 1019 87 8000 7.2 290 17:56 07.03.2021
2616 Clouds 5 1019 87 8000 7.2 290 17:37 07.03.2021
2617 Clouds 5 1020 87 10000 7.2 290 17:18 07.03.2021
2618 Clouds 5 1020 87 10000 7.2 290 17:18 07.03.2021
2619 Clouds 5 1020 87 10000 7.72 290 16:39 07.03.2021
2620 Clouds 5 1020 87 10000 9.26 280 16:20 07.03.2021
2621 Clouds 5 1020 87 10000 9.26 280 15:47 07.03.2021
2622 Clouds 5 1021 81 10000 8.75 280 15:29 07.03.2021
2623 Clouds 5 1021 81 10000 8.75 280 14:47 07.03.2021
2624 Clouds 5 1021 60 10000 9.26 280 14:28 07.03.2021
2625 Clouds 5 1021 60 10000 9.26 280 13:45 07.03.2021
2626 Clouds 5 1021 73 10000 4.02 315 13:26 07.03.2021
2627 Clouds 5 1021 73 10000 4.02 315 12:48 07.03.2021
2628 Clouds 5 1022 81 10000 7.2 260 12:29 07.03.2021
2629 Clouds 4 1022 81 10000 7.2 260 11:52 07.03.2021
2630 Clouds 4 1022 81 10000 7.2 270 11:23 07.03.2021
2631 Clouds 4 1022 81 10000 7.2 270 10:51 07.03.2021
2632 Clouds 4 1022 81 10000 7.2 270 10:33 07.03.2021
2633 Clouds 4 1023 75 10000 7.2 260 09:52 07.03.2021
2634 Clouds 4 1023 75 10000 8.23 290 09:27 07.03.2021
2635 Clouds 4 1023 75 10000 8.23 290 08:55 07.03.2021
2636 Clouds 4 1023 75 10000 8.23 290 08:37 07.03.2021
2637 Clouds 4 1023 82 10000 6.69 290 08:19 07.03.2021
2638 Clouds 3 1025 79 10000 7.2 290 04:57 07.03.2021
2639 Clouds 4 1027 77 10000 6.17 270 02:26 07.03.2021
2640 Clouds 4 1028 75 10000 6.17 290 00:24 07.03.2021
2641 Clouds 4 1028 75 10000 6.17 290 23:40 06.03.2021
2642 Clouds 4 1027 63 10000 2.68 270 23:20 06.03.2021
2643 Clouds 4 1027 67 10000 3.58 315 22:45 06.03.2021
2644 Clouds 4 1029 75 10000 6.17 290 22:21 06.03.2021
2645 Clouds 4 1029 75 10000 6.17 290 21:41 06.03.2021
2646 Clouds 4 1029 75 10000 6.17 290 21:41 06.03.2021
2647 Clouds 4 1029 76 10000 5.66 300 21:20 06.03.2021
2648 Clouds 3 1029 76 10000 5.66 300 20:41 06.03.2021
2649 Clouds 3 1030 75 10000 4.63 280 19:55 06.03.2021
2650 Clouds 3 1030 75 10000 4.63 280 19:37 06.03.2021
2651 Clouds 3 1030 75 10000 5.66 300 19:18 06.03.2021
2652 Clouds 5 1030 78 10000 5.66 300 18:41 06.03.2021
2653 Clouds 5 1030 76 10000 6.17 290 18:20 06.03.2021
2654 Clouds 5 1030 76 10000 6.17 290 17:48 06.03.2021
2655 Clouds 5 1030 81 10000 6.69 280 17:27 06.03.2021
2656 Clouds 6 1030 81 10000 6.69 280 16:57 06.03.2021
2657 Clouds 6 1030 81 10000 6.69 280 16:32 06.03.2021
2658 Clouds 6 1031 75 10000 7.2 300 15:56 06.03.2021
2659 Clouds 6 1031 75 10000 7.2 300 15:38 06.03.2021
2660 Clouds 6 1031 75 10000 6.69 310 15:18 06.03.2021
2661 Clouds 6 1032 75 10000 7.2 310 14:31 06.03.2021
2662 Clouds 6 1032 75 10000 7.2 310 13:52 06.03.2021
2663 Clouds 6 1032 75 10000 7.2 310 13:33 06.03.2021
2664 Clouds 6 1032 81 10000 6.69 310 12:58 06.03.2021
2665 Clouds 5 1032 87 10000 6.69 310 12:38 06.03.2021
2666 Clouds 5 1032 93 10000 6.17 330 12:18 06.03.2021
2667 Clouds 5 1032 93 10000 6.17 330 12:18 06.03.2021
2668 Clouds 5 1032 93 10000 6.17 330 11:38 06.03.2021
2669 Clouds 5 1032 93 10000 5.14 330 11:18 06.03.2021
2670 Clouds 5 1032 93 10000 5.14 330 10:42 06.03.2021
2671 Clouds 5 1032 100 7000 4.63 320 09:57 06.03.2021
2672 Clouds 5 1032 93 8000 4.12 310 09:26 06.03.2021
2673 Clouds 4 1032 93 8000 4.12 310 08:54 06.03.2021
2674 Clouds 4 1031 100 10000 3.09 310 08:30 06.03.2021
2675 Clouds 4 1031 100 10000 3.09 310 08:30 06.03.2021
2676 Clouds 4 1031 100 10000 3.09 310 07:43 06.03.2021
2677 Clouds 4 1031 93 9000 5.14 310 07:21 06.03.2021
2678 Clouds 3 1031 93 10000 6.17 300 05:50 06.03.2021
2679 Clouds 3 1031 89 10000 4.63 280 03:47 06.03.2021
2680 Clear 2 1032 85 10000 1.54 290 01:32 06.03.2021
2681 Clear 3 1032 83 10000 1.54 290 00:46 06.03.2021
2682 Clear 3 1032 78 10000 2.57 310 23:44 05.03.2021
2683 Clouds 3 1031 80 10000 2.57 320 23:19 05.03.2021
2684 Clouds 3 1031 80 10000 2.57 320 22:43 05.03.2021
2685 Clouds 3 1031 75 10000 3.09 320 22:20 05.03.2021
2686 Clouds 3 1031 75 10000 3.09 320 21:43 05.03.2021
2687 Clouds 3 1031 80 10000 2.57 300 21:25 05.03.2021
2688 Clouds 3 1031 80 10000 2.57 300 20:47 05.03.2021
2689 Clouds 3 1030 77 10000 2.57 310 20:25 05.03.2021
2690 Clouds 3 1030 77 10000 2.57 310 19:48 05.03.2021
2691 Clouds 3 1030 77 10000 3.09 310 19:22 05.03.2021
2692 Clouds 4 1030 77 10000 3.09 310 18:45 05.03.2021
2693 Clouds 4 1029 75 10000 5.14 300 18:26 05.03.2021
2694 Clouds 4 1029 75 10000 5.14 300 18:26 05.03.2021
2695 Clouds 5 1029 75 10000 5.14 300 17:51 05.03.2021
2696 Clouds 6 1029 75 10000 5.66 290 17:33 05.03.2021
2697 Clouds 6 1029 75 10000 5.66 290 16:44 05.03.2021
2698 Clouds 6 1029 65 10000 4.63 290 16:24 05.03.2021
2699 Clouds 6 1029 65 10000 4.63 290 16:24 05.03.2021
2700 Clouds 6 1029 60 10000 5.14 300 15:55 05.03.2021
2701 Clouds 6 1029 60 10000 4.12 310 15:27 05.03.2021
2702 Clouds 5 1029 60 10000 4.12 310 14:52 05.03.2021
2703 Clouds 5 1029 60 10000 4.12 310 14:34 05.03.2021
2704 Clouds 5 1029 56 10000 5.14 290 13:46 05.03.2021
2705 Clouds 5 1029 56 10000 4.63 310 13:21 05.03.2021
2706 Clouds 5 1029 56 10000 4.63 310 12:46 05.03.2021
2707 Clouds 5 1028 52 10000 5.14 330 11:40 05.03.2021
2708 Clouds 5 1028 52 10000 5.14 330 11:40 05.03.2021
2709 Clouds 5 1028 60 10000 3.6 350 11:21 05.03.2021
2710 Clouds 5 1028 60 10000 3.6 350 10:57 05.03.2021
2711 Clouds 5 1028 60 10000 3.6 350 10:37 05.03.2021
2712 Clouds 5 1027 65 10000 1.03 320 10:19 05.03.2021
2713 Clouds 3 1027 65 10000 1.03 320 09:42 05.03.2021
2714 Clouds 3 1027 74 10000 0.51 320 09:23 05.03.2021
2715 Clouds 2 1027 74 10000 0.51 320 08:39 05.03.2021
2716 Clouds 1 1026 93 10000 1.54 350 08:20 05.03.2021
2717 Clouds 0 1026 93 10000 1.54 350 07:35 05.03.2021
2718 Clouds 0 1026 93 10000 1.03 350 06:43 05.03.2021
2719 Clear 0 1025 86 10000 2.06 10 06:25 05.03.2021
2720 Clear 1 1024 58 10000 2.57 10 01:40 05.03.2021
2721 Clear 2 1023 78 10000 3.09 30 23:55 04.03.2021
2722 Clouds 2 1022 86 10000 3.6 40 23:25 04.03.2021
2723 Clouds 2 1021 86 10000 3.09 50 22:31 04.03.2021
2724 Clouds 2 1021 86 10000 3.09 50 21:55 04.03.2021
2725 Clouds 2 1021 86 10000 3.09 50 21:33 04.03.2021
2726 Clouds 2 1021 86 10000 4.63 40 20:58 04.03.2021
2727 Clouds 2 1021 86 10000 4.63 40 20:39 04.03.2021
2728 Clouds 3 1021 80 10000 5.14 50 20:21 04.03.2021
2729 Clouds 3 1020 75 10000 4.63 40 19:50 04.03.2021
2730 Clouds 3 1020 81 10000 6.17 40 19:23 04.03.2021
2731 Clouds 3 1020 81 10000 6.17 40 18:52 04.03.2021
2732 Clouds 3 1020 81 10000 6.17 40 18:52 04.03.2021
2733 Clouds 3 1019 81 10000 6.69 40 18:30 04.03.2021
2734 Clouds 3 1019 81 10000 6.69 40 18:30 04.03.2021
2735 Clouds 4 1019 87 10000 6.69 40 17:48 04.03.2021
2736 Clouds 4 1018 87 10000 6.17 30 17:30 04.03.2021
2737 Clouds 4 1018 87 10000 6.17 30 16:51 04.03.2021
2738 Clouds 4 1018 87 10000 6.17 30 16:32 04.03.2021
2739 Clouds 5 1018 76 10000 4.12 350 15:57 04.03.2021
2740 Clouds 6 1018 76 10000 4.12 350 15:38 04.03.2021
2741 Clouds 5 1018 75 10000 5.14 320 15:20 04.03.2021
2742 Clouds 6 1018 75 10000 5.14 320 14:39 04.03.2021
2743 Clouds 6 1018 75 10000 6.69 330 13:57 04.03.2021
2744 Clouds 6 1018 75 10000 6.69 330 13:36 04.03.2021
2745 Clouds 5 1018 81 10000 6.17 320 13:18 04.03.2021
2746 Clouds 5 1018 81 10000 6.17 320 12:40 04.03.2021
2747 Clouds 5 1018 87 10000 6.17 310 11:49 04.03.2021
2748 Clouds 5 1018 6 10000 4.63 310 11:28 04.03.2021
2749 Clouds 5 1018 6 10000 4.63 310 10:57 04.03.2021
2750 Clouds 5 1018 6 10000 4.63 310 10:35 04.03.2021
2751 Clouds 5 1019 79 10000 5.14 300 09:51 04.03.2021
2752 Clouds 4 1019 87 10000 5.14 290 09:26 04.03.2021
2753 Clouds 4 1019 87 10000 5.14 290 08:49 04.03.2021
2754 Clouds 4 1019 87 10000 5.14 300 08:23 04.03.2021
2755 Clouds 4 1019 87 10000 5.14 300 07:35 04.03.2021
2756 Clouds 3 1020 90 10000 5.66 300 06:28 04.03.2021
2757 Clouds 3 1020 90 10000 5.66 300 05:52 04.03.2021
2758 Clouds 2 1022 8 1000 4.63 310 02:29 04.03.2021
2759 Clouds 3 1023 86 400 5.14 300 23:42 03.03.2021
2760 Mist 3 1023 93 1500 6.17 300 22:29 03.03.2021
2761 Mist 3 1023 93 2000 6.69 280 21:59 03.03.2021
2762 Mist 3 1023 93 2000 6.69 280 21:41 03.03.2021
2763 Mist 3 1023 93 1600 6.17 280 21:22 03.03.2021
2764 Mist 3 1024 93 1000 6.69 290 20:43 03.03.2021
2765 Fog 3 1024 93 300 7.72 290 20:24 03.03.2021
2766 Fog 3 1024 100 200 6.69 290 19:48 03.03.2021
2767 Fog 3 1024 100 200 7.2 290 19:29 03.03.2021
2768 Fog 3 1024 100 200 7.2 290 18:55 03.03.2021
2769 Fog 3 1024 100 200 7.2 290 18:35 03.03.2021
2770 Fog 4 1024 93 200 6.17 280 17:58 03.03.2021
2771 Fog 3 1024 93 200 6.69 280 17:22 03.03.2021
2772 Fog 3 1024 93 200 6.69 280 16:54 03.03.2021
2773 Fog 4 1024 87 450 6.69 280 16:27 03.03.2021
2774 Mist 5 1024 87 1200 6.69 280 15:54 03.03.2021
2775 Clouds 8 1024 71 10000 6.69 290 15:32 03.03.2021
2776 Clouds 8 1024 71 10000 6.69 290 14:50 03.03.2021
2777 Clouds 10 1024 66 10000 6.69 280 14:27 03.03.2021
2778 Clouds 11 1025 58 10000 3.09 250 13:46 03.03.2021
2779 Clouds 10 1025 66 10000 2.57 230 13:26 03.03.2021
2780 Clouds 10 1025 66 10000 2.57 230 12:43 03.03.2021
2781 Clouds 9 1025 71 10000 4.12 250 12:23 03.03.2021
2782 Clouds 9 1025 71 10000 4.12 250 11:45 03.03.2021
2783 Clouds 8 1026 76 8000 2.57 220 11:27 03.03.2021
2784 Clouds 8 1026 76 8000 2.57 220 10:45 03.03.2021
2785 Mist 5 1026 100 4000 1.03 0 10:22 03.03.2021
2786 Mist 0 1026 100 2500 4.35 232 09:43 03.03.2021
2787 Fog -2 1027 93 50 0.51 100 08:54 03.03.2021
2788 Fog -3 1027 100 50 0.51 100 08:25 03.03.2021
2789 Fog -3 1027 100 50 0.51 100 07:58 03.03.2021
2790 Fog -3 1027 100 50 0.51 100 07:34 03.03.2021
2791 Fog -3 1027 100 500 1.03 90 06:45 03.03.2021
2792 Fog -2 1027 100 50 1.03 130 05:44 03.03.2021
2793 Fog 2 1028 93 50 1.54 130 04:49 03.03.2021
2794 Fog 1 1028 100 50 2.06 110 04:24 03.03.2021
2795 Fog 2 1030 93 50 1.54 110 00:37 03.03.2021
2796 Fog 2 1030 93 10000 1.54 110 23:44 02.03.2021
2797 Fog 3 1030 87 50 2.06 110 22:54 02.03.2021
2798 Fog 5 1030 87 10000 3.09 110 22:24 02.03.2021
2799 Fog 5 1030 87 10000 3.09 110 21:59 02.03.2021
2800 Fog 5 1030 87 10000 3.09 110 21:37 02.03.2021
2801 Fog 5 1031 93 10000 2.57 90 21:18 02.03.2021
2802 Fog 5 1031 93 10000 2.57 90 20:41 02.03.2021
2803 Clear 6 1031 93 8000 3.6 80 20:21 02.03.2021
2804 Clear 6 1031 93 8000 3.6 80 19:49 02.03.2021
2805 Mist 7 1031 87 5000 4.12 80 19:30 02.03.2021
2806 Mist 7 1031 87 5000 4.12 80 18:55 02.03.2021
2807 Clear 8 1031 81 10000 3.6 80 18:36 02.03.2021
2808 Clear 8 1031 81 10000 3.6 80 18:18 02.03.2021
2809 Clear 8 1031 81 10000 3.6 80 17:40 02.03.2021
2810 Clouds 8 1032 87 10000 3.6 60 17:20 02.03.2021
2811 Clouds 8 1032 87 10000 3.6 60 16:47 02.03.2021
2812 Mist 7 1032 87 4000 4.63 50 15:55 02.03.2021
2813 Mist 8 1032 87 5000 4.63 70 15:27 02.03.2021
2814 Mist 7 1033 93 4000 4.63 80 14:53 02.03.2021
2815 Mist 6 1033 100 3000 4.12 70 14:20 02.03.2021
2816 Mist 6 1033 100 3000 4.12 70 13:47 02.03.2021
2817 Mist 5 1034 100 2000 4.12 70 13:26 02.03.2021
2818 Mist 4 1034 100 1000 2.57 80 12:50 02.03.2021
2819 Fog 3 1034 100 100 3.09 80 12:26 02.03.2021
2820 Fog 3 1034 100 100 3.09 80 11:52 02.03.2021
2821 Fog 1 1034 100 100 3.6 80 11:25 02.03.2021
2822 Fog 1 1034 100 100 3.6 80 10:55 02.03.2021
2823 Fog 0 1034 100 100 2.57 70 10:31 02.03.2021
2824 Fog 0 1034 100 100 2.57 70 10:31 02.03.2021
2825 Fog 0 1034 100 100 2.57 70 09:44 02.03.2021
2826 Fog -1 1034 100 100 2.06 90 09:24 02.03.2021
2827 Fog -1 1034 100 100 2.06 90 08:56 02.03.2021
2828 Fog -1 1034 100 100 2.06 90 08:33 02.03.2021
2829 Fog -1 1034 100 100 1.54 90 07:51 02.03.2021
2830 Fog 0 1034 100 100 2.06 80 06:39 02.03.2021
2831 Fog 0 1034 100 50 2.06 90 05:52 02.03.2021
2832 Fog 0 1034 100 50 2.06 90 05:33 02.03.2021
2833 Clear 1 1034 100 50 1.54 90 04:38 02.03.2021
2834 Clear 1 1034 100 50 1.54 60 01:43 02.03.2021
2835 Clear 1 1034 100 50 1.54 60 01:43 02.03.2021
2836 Clear 1 1034 100 50 1.54 60 01:43 02.03.2021
2837 Clear 1 1034 100 50 1.54 60 01:43 02.03.2021
2838 Clear 2 1035 100 50 2.06 70 01:22 02.03.2021
2839 Clear 2 1035 100 100 3.09 60 23:40 01.03.2021
2840 Fog 3 1035 100 100 3.09 50 23:19 01.03.2021
2841 Fog 3 1035 100 100 3.09 50 22:38 01.03.2021
2842 Fog 3 1035 100 200 2.57 50 22:19 01.03.2021
2843 Fog 3 1035 100 200 2.57 50 21:42 01.03.2021
2844 Fog 4 1035 100 300 3.09 50 21:23 01.03.2021
2845 Fog 4 1035 100 300 3.09 50 20:45 01.03.2021
2846 Fog 4 1035 100 400 3.09 50 20:26 01.03.2021
2847 Fog 4 1035 100 400 3.09 50 19:45 01.03.2021
2848 Fog 4 1035 100 500 2.57 60 19:26 01.03.2021
2849 Fog 4 1035 100 500 2.57 60 18:43 01.03.2021
2850 Fog 4 1035 100 700 2.57 60 18:23 01.03.2021
2851 Mist 4 1035 100 2500 2.57 90 17:48 01.03.2021
2852 Mist 4 1035 100 1200 2.57 60 17:23 01.03.2021
2853 Mist 4 1035 100 1200 2.57 60 16:47 01.03.2021
2854 Mist 4 1035 100 3000 2.06 80 16:29 01.03.2021
2855 Mist 4 1035 100 3000 2.06 80 15:56 01.03.2021
2856 Mist 4 1035 100 3000 2.06 80 15:36 01.03.2021
2857 Mist 4 1035 100 2500 2.57 70 15:18 01.03.2021
2858 Mist 4 1036 100 1300 2.06 80 14:39 01.03.2021
2859 Mist 4 1036 100 1000 1.54 50 13:57 01.03.2021
2860 Mist 4 1036 100 1000 1.54 50 13:37 01.03.2021
2861 Mist 4 1036 100 1200 1.03 40 13:19 01.03.2021
2862 Mist 4 1036 100 1200 1.03 40 12:42 01.03.2021
2863 Fog 4 1036 100 800 1.03 0 12:24 01.03.2021
2864 Fog 3 1036 100 400 1.03 0 11:49 01.03.2021
2865 Fog 3 1036 100 300 0.51 20 11:26 01.03.2021
2866 Fog 3 1036 100 300 0.51 20 10:42 01.03.2021
2867 Fog 2 1036 100 250 0.51 0 10:22 01.03.2021
2868 Fog 2 1036 100 250 0.51 0 09:50 01.03.2021
2869 Fog 1 1036 100 200 0.51 320 09:28 01.03.2021
2870 Fog 1 1036 100 200 0.51 320 08:56 01.03.2021
2871 Fog 2 1036 100 150 1.54 350 08:32 01.03.2021
2872 Fog 2 1036 100 150 1.54 290 07:32 01.03.2021
2873 Fog 2 1036 100 100 1.54 320 06:25 01.03.2021
2874 Clouds 1 1036 100 100 2.06 270 02:40 01.03.2021
2875 Clouds 1 1036 100 150 2.57 270 23:47 28.02.2021
2876 Fog 1 1036 100 200 4.12 280 22:57 28.02.2021
2877 Fog 1 1036 100 200 4.12 280 22:38 28.02.2021
2878 Fog 1 1036 100 200 3.6 290 22:20 28.02.2021
2879 Fog 1 1036 100 200 3.6 290 21:45 28.02.2021
2880 Fog 1 1036 100 200 4.12 280 21:23 28.02.2021
2881 Fog 1 1036 100 200 4.12 280 20:45 28.02.2021
2882 Fog 2 1037 100 200 3.09 300 20:26 28.02.2021
2883 Fog 2 1037 100 200 3.09 300 19:46 28.02.2021
2884 Fog 2 1037 100 200 3.6 290 19:27 28.02.2021
2885 Fog 2 1037 100 200 3.6 290 18:47 28.02.2021
2886 Fog 2 1036 100 300 3.09 280 18:26 28.02.2021
2887 Fog 2 1036 100 300 3.09 280 17:56 28.02.2021
2888 Fog 2 1036 100 300 3.09 280 17:37 28.02.2021
2889 Fog 3 1037 100 300 3.6 270 17:18 28.02.2021
2890 Fog 3 1037 100 300 3.6 270 16:44 28.02.2021
2891 Fog 3 1037 100 400 4.12 280 16:26 28.02.2021
2892 Fog 3 1037 100 400 4.12 280 15:51 28.02.2021
2893 Fog 3 1037 100 400 4.12 280 15:51 28.02.2021
2894 Fog 3 1037 100 400 4.12 270 15:26 28.02.2021
2895 Fog 3 1037 100 400 4.12 270 14:57 28.02.2021
2896 Fog 3 1038 100 300 4.12 270 14:30 28.02.2021
2897 Fog 4 1038 100 300 4.12 270 13:56 28.02.2021
2898 Fog 4 1038 100 300 4.12 270 13:36 28.02.2021
2899 Fog 4 1038 100 400 3.09 270 13:18 28.02.2021
2900 Fog 4 1038 100 400 3.09 270 12:48 28.02.2021
2901 Fog 4 1038 100 300 3.6 270 12:30 28.02.2021
2902 Fog 3 1038 100 300 3.6 270 11:55 28.02.2021
2903 Fog 4 1038 100 300 3.6 270 11:36 28.02.2021
2904 Fog 3 1038 100 400 2.57 270 11:18 28.02.2021
2905 Fog 3 1038 100 600 2.57 260 10:30 28.02.2021
2906 Mist 3 1038 100 1200 2.57 280 09:58 28.02.2021
2907 Fog 2 1038 100 400 2.57 270 09:38 28.02.2021
2908 Fog 2 1038 100 500 1.54 270 09:19 28.02.2021
2909 Fog 2 1038 100 500 1.54 270 08:38 28.02.2021
2910 Fog 2 1038 100 200 1.54 310 08:20 28.02.2021
2911 Fog 2 1038 100 200 1.54 310 07:43 28.02.2021
2912 Fog 2 1038 100 200 1.54 310 07:43 28.02.2021
2913 Fog 2 1038 100 300 1.54 310 07:24 28.02.2021
2914 Fog 3 1038 100 300 3.09 320 06:23 28.02.2021
2915 Clear 3 1038 100 150 2.57 310 05:19 28.02.2021
2916 Clear 3 1039 100 2200 3.09 280 02:26 28.02.2021
2917 Clouds 3 1039 100 250 2.57 260 01:23 28.02.2021
2918 Clear 3 1039 100 250 2.57 260 00:39 28.02.2021
2919 Clear 4 1039 100 150 2.57 250 23:50 27.02.2021
2920 Fog 4 1039 100 100 3.09 270 23:22 27.02.2021
2921 Fog 4 1039 100 100 3.09 270 22:50 27.02.2021
2922 Fog 4 1039 100 100 3.09 280 22:24 27.02.2021
2923 Fog 4 1039 100 100 3.09 280 21:59 27.02.2021
2924 Fog 4 1039 100 100 3.09 280 21:38 27.02.2021
2925 Fog 4 1039 100 200 4.12 280 20:56 27.02.2021
2926 Fog 4 1039 100 200 4.12 280 20:38 27.02.2021
2927 Fog 4 1039 100 200 3.6 270 20:18 27.02.2021
2928 Fog 4 1039 100 200 3.6 270 19:41 27.02.2021
2929 Fog 4 1039 100 400 3.6 290 19:23 27.02.2021
2930 Fog 4 1039 100 400 3.6 290 18:40 27.02.2021
2931 Mist 4 1039 100 3800 3.09 290 18:20 27.02.2021
2932 Mist 4 1039 93 2800 4.12 280 17:43 27.02.2021
2933 Clouds 5 1039 87 10000 4.63 310 17:20 27.02.2021
2934 Clouds 5 1039 87 10000 4.63 310 16:53 27.02.2021
2935 Clouds 6 1039 81 10000 5.66 310 16:32 27.02.2021
2936 Clouds 6 1039 81 10000 5.66 310 15:57 27.02.2021
2937 Clouds 6 1039 81 10000 5.66 310 15:38 27.02.2021
2938 Clouds 6 1039 81 10000 5.14 300 14:49 27.02.2021
2939 Clouds 6 1039 87 10000 5.14 290 14:30 27.02.2021
2940 Clouds 7 1039 87 10000 5.14 290 13:53 27.02.2021
2941 Clouds 7 1039 87 10000 5.14 310 13:27 27.02.2021
2942 Clouds 5 1039 87 10000 5.14 310 12:56 27.02.2021
2943 Clouds 4 1039 93 10000 5.66 320 12:30 27.02.2021
2944 Clouds 4 1039 93 10000 5.66 320 11:58 27.02.2021
2945 Clouds 6 1039 93 10000 5.66 320 11:40 27.02.2021
2946 Clouds 6 1039 93 10000 5.14 310 11:21 27.02.2021
2947 Clouds 6 1039 100 10000 5.66 300 10:46 27.02.2021
2948 Clouds 6 1039 100 10000 4.12 300 10:27 27.02.2021
2949 Mist 5 1038 100 5000 3.09 300 09:48 27.02.2021
2950 Drizzle 5 1038 100 1000 4.12 330 09:26 27.02.2021
2951 Drizzle 5 1038 100 1000 4.12 330 08:41 27.02.2021
2952 Fog 5 1038 100 700 3.09 330 08:21 27.02.2021
2953 Drizzle 5 1037 100 1400 2.06 300 07:41 27.02.2021
2954 Clear 4 1036 93 3900 4.63 330 04:46 27.02.2021
2955 Clear 4 1035 100 6000 5.14 300 00:42 27.02.2021
2956 Clear 4 1035 100 7000 5.14 300 23:54 26.02.2021
2957 Clouds 4 1035 100 10000 4.63 300 23:27 26.02.2021
2958 Clouds 3 1035 100 10000 4.63 300 22:50 26.02.2021
2959 Clouds 3 1034 100 10000 5.14 290 22:29 26.02.2021
2960 Clouds 3 1034 100 10000 5.14 290 21:43 26.02.2021
2961 Clouds 3 1034 93 10000 4.63 280 21:24 26.02.2021
2962 Clouds 4 1034 93 10000 4.63 280 20:44 26.02.2021
2963 Clouds 4 1033 100 10000 5.14 290 20:21 26.02.2021
2964 Clouds 4 1033 100 10000 5.14 290 19:50 26.02.2021
2965 Clouds 5 1033 93 10000 5.14 290 19:25 26.02.2021
2966 Clouds 5 1032 93 10000 5.66 290 18:42 26.02.2021
2967 Clouds 5 1032 93 10000 5.66 290 18:23 26.02.2021
2968 Clouds 6 1032 93 10000 5.66 290 17:44 26.02.2021
2969 Clouds 7 1032 87 10000 5.66 300 17:26 26.02.2021
2970 Clouds 7 1032 87 10000 5.66 300 16:53 26.02.2021
2971 Clouds 7 1032 87 9000 6.69 300 16:32 26.02.2021
2972 Clouds 7 1032 87 9000 6.69 300 15:58 26.02.2021
2973 Clouds 6 1032 87 9000 6.69 300 15:39 26.02.2021
2974 Clouds 6 1032 87 10000 7.72 300 15:20 26.02.2021
2975 Clouds 7 1032 87 10000 7.72 300 14:47 26.02.2021
2976 Clouds 7 1032 81 10000 8.23 300 14:26 26.02.2021
2977 Clouds 7 1032 81 10000 7.2 290 13:46 26.02.2021
2978 Clouds 7 1031 81 10000 6.69 300 13:25 26.02.2021
2979 Clouds 7 1031 81 10000 6.69 300 12:43 26.02.2021
2980 Clouds 7 1031 81 10000 7.2 290 12:25 26.02.2021
2981 Clouds 7 1031 81 10000 7.2 290 11:38 26.02.2021
2982 Clouds 6 1031 87 10000 6.69 290 10:54 26.02.2021
2983 Clouds 6 1030 93 10000 5.14 280 10:20 26.02.2021
2984 Clouds 5 1030 93 10000 5.14 280 09:46 26.02.2021
2985 Clouds 5 1030 93 10000 4.12 260 09:26 26.02.2021
2986 Clouds 4 1030 93 10000 4.12 260 08:32 26.02.2021
2987 Clouds 4 1029 93 10000 4.63 260 07:54 26.02.2021
2988 Clouds 5 1029 87 10000 3.6 270 07:20 26.02.2021
2989 Clouds 5 1029 87 10000 2.57 280 05:40 26.02.2021
2990 Clouds 5 1028 93 10000 2.57 270 04:49 26.02.2021
2991 Clouds 5 1029 100 8000 1.54 260 02:36 26.02.2021
2992 Clouds 5 1028 87 10000 2.57 320 00:24 26.02.2021
2993 Clouds 5 1028 87 10000 5.14 320 23:31 25.02.2021
2994 Clouds 5 1028 87 10000 5.14 320 22:51 25.02.2021
2995 Clouds 5 1028 87 10000 5.14 320 22:33 25.02.2021
2996 Clouds 6 1027 87 10000 3.09 290 21:48 25.02.2021
2997 Clouds 6 1027 93 10000 4.12 310 21:30 25.02.2021
2998 Rain 6 1027 93 10000 4.12 310 20:44 25.02.2021
2999 Clouds 6 1027 93 10000 3.6 300 20:25 25.02.2021
3000 Clouds 6 1026 93 10000 2.57 290 19:58 25.02.2021
3001 Clouds 6 1026 93 10000 2.57 280 19:39 25.02.2021
3002 Clouds 6 1026 87 10000 4.63 290 19:19 25.02.2021
3003 Clouds 7 1026 87 10000 4.63 290 18:39 25.02.2021
3004 Clouds 7 1025 87 10000 4.63 290 17:59 25.02.2021
3005 Clouds 8 1024 87 10000 5.66 290 17:31 25.02.2021
3006 Clouds 8 1024 87 10000 5.66 290 16:55 25.02.2021
3007 Clouds 8 1024 87 10000 5.66 290 16:33 25.02.2021
3008 Clouds 11 1024 76 10000 7.72 290 15:39 25.02.2021
3009 Clouds 12 1024 71 10000 7.2 290 15:20 25.02.2021
3010 Clouds 12 1024 71 10000 7.2 290 15:19 25.02.2021
3011 Clouds 15 1024 63 10000 6.17 250 14:32 25.02.2021
3012 Clouds 15 1024 63 10000 6.17 250 13:59 25.02.2021
3013 Clouds 15 1024 63 10000 6.17 250 13:40 25.02.2021
3014 Clouds 14 1024 67 10000 5.14 240 13:19 25.02.2021
3015 Clouds 13 1023 71 10000 4.12 230 12:24 25.02.2021
3016 Clouds 13 1023 71 10000 4.12 230 11:57 25.02.2021
3017 Clouds 12 1023 76 10000 5.14 230 11:39 25.02.2021
3018 Clouds 12 1023 76 10000 5.14 230 10:51 25.02.2021
3019 Clouds 12 1023 76 10000 5.14 230 10:32 25.02.2021
3020 Clouds 10 1023 76 10000 4.63 220 09:45 25.02.2021
3021 Clouds 10 1023 76 10000 4.63 220 09:45 25.02.2021
3022 Clouds 10 1023 81 10000 5.14 220 09:23 25.02.2021
3023 Clouds 9 1022 76 10000 4.63 200 08:32 25.02.2021
3024 Clouds 9 1022 76 10000 4.63 200 07:59 25.02.2021
3025 Clouds 9 1022 76 10000 4.63 200 07:38 25.02.2021
3026 Clouds 9 1023 76 10000 4.12 200 06:57 25.02.2021
3027 Clouds 9 1023 76 10000 4.12 200 06:57 25.02.2021
3028 Clouds 11 1023 76 10000 4.12 210 05:28 25.02.2021
3029 Clouds 10 1024 66 10000 3.6 190 01:49 25.02.2021
3030 Clouds 12 1025 62 10000 3.6 180 00:48 25.02.2021
3031 Clouds 12 1025 62 10000 3.6 190 00:19 25.02.2021
3032 Clouds 13 1025 62 10000 3.6 190 23:36 24.02.2021
3033 Clouds 13 1025 58 10000 3.6 200 22:50 24.02.2021
3034 Clouds 14 1025 58 10000 4.12 200 22:30 24.02.2021
3035 Clouds 14 1025 58 10000 4.12 200 21:49 24.02.2021
3036 Rain 15 1025 58 10000 3.09 200 21:31 24.02.2021
3037 Clouds 15 1025 58 10000 3.09 200 20:50 24.02.2021
3038 Clouds 16 1025 59 10000 4.63 190 20:28 24.02.2021
3039 Clouds 16 1025 59 10000 4.63 190 19:43 24.02.2021
3040 Clouds 16 1025 63 10000 5.14 190 19:21 24.02.2021
3041 Clouds 16 1025 63 10000 5.14 190 18:53 24.02.2021
3042 Clouds 16 1026 67 10000 4.12 210 18:31 24.02.2021
3043 Clouds 16 1026 67 10000 4.12 210 17:42 24.02.2021
3044 Clouds 16 1026 63 10000 4.12 220 17:23 24.02.2021
3045 Clouds 16 1026 63 10000 4.12 220 16:48 24.02.2021
3046 Clouds 17 1026 59 10000 6.17 220 16:21 24.02.2021
3047 Clouds 17 1026 59 10000 6.17 220 15:55 24.02.2021
3048 Clouds 17 1026 55 10000 6.69 230 15:34 24.02.2021
3049 Clouds 17 1026 55 10000 6.69 230 14:50 24.02.2021
3050 Clouds 16 1027 59 10000 6.17 230 14:29 24.02.2021
3051 Clouds 16 1027 59 10000 6.17 230 13:55 24.02.2021
3052 Clouds 16 1027 59 10000 6.17 230 13:37 24.02.2021
3053 Clouds 16 1027 59 10000 7.72 220 13:18 24.02.2021
3054 Clouds 16 1027 59 10000 7.72 220 12:41 24.02.2021
3055 Clouds 15 1027 63 10000 7.72 220 12:23 24.02.2021
3056 Clouds 15 1027 63 10000 7.72 220 11:36 24.02.2021
3057 Clouds 14 1027 67 10000 6.69 210 10:47 24.02.2021
3058 Clouds 12 1027 76 10000 6.17 210 10:26 24.02.2021
3059 Clouds 11 1027 71 10000 6.17 210 09:30 24.02.2021
3060 Clouds 10 1027 71 10000 6.17 210 08:52 24.02.2021
3061 Clouds 10 1027 71 10000 5.66 210 08:33 24.02.2021
3062 Clouds 10 1027 71 10000 5.66 210 07:47 24.02.2021
3063 Clouds 10 1027 76 10000 4.12 200 07:19 24.02.2021
3064 Clouds 11 1027 71 10000 5.14 210 05:49 24.02.2021
3065 Clouds 12 1028 76 10000 4.12 200 02:35 24.02.2021
3066 Clouds 11 1027 71 10000 4.63 210 23:55 23.02.2021
3067 Clouds 11 1027 71 10000 4.12 200 22:51 23.02.2021
3068 Clouds 11 1027 71 10000 3.6 200 22:23 23.02.2021
3069 Clouds 11 1027 71 10000 3.6 200 21:56 23.02.2021
3070 Clouds 11 1027 71 10000 3.6 200 21:37 23.02.2021
3071 Clouds 11 1028 76 10000 3.09 170 21:18 23.02.2021
3072 Clouds 12 1028 76 10000 3.09 170 20:45 23.02.2021
3073 Clouds 12 1028 71 10000 3.09 190 20:27 23.02.2021
3074 Clouds 12 1029 76 10000 2.06 210 19:47 23.02.2021
3075 Clouds 13 1028 71 10000 3.09 220 19:26 23.02.2021
3076 Clouds 13 1028 71 10000 3.09 220 18:47 23.02.2021
3077 Clouds 14 1027 72 10000 2.57 200 18:29 23.02.2021
3078 Clouds 14 1027 72 10000 2.57 200 17:54 23.02.2021
3079 Clouds 15 1027 67 10000 4.63 230 17:28 23.02.2021
3080 Clouds 15 1027 67 10000 4.63 230 16:47 23.02.2021
3081 Clouds 16 1027 63 10000 4.12 230 16:24 23.02.2021
3082 Clouds 16 1027 63 10000 4.12 230 15:51 23.02.2021
3083 Clouds 16 1027 63 10000 4.12 230 15:33 23.02.2021
3084 Clouds 16 1027 63 10000 5.14 220 14:58 23.02.2021
3085 Clouds 16 1027 63 10000 5.14 220 14:40 23.02.2021
3086 Clouds 15 1028 63 10000 5.66 220 14:19 23.02.2021
3087 Clouds 15 1028 63 10000 5.66 220 13:39 23.02.2021
3088 Clouds 14 1027 58 10000 5.66 210 13:19 23.02.2021
3089 Clouds 14 1027 58 10000 5.66 210 12:46 23.02.2021
3090 Clouds 13 1027 62 10000 4.63 200 12:20 23.02.2021
3091 Clouds 12 1027 62 10000 4.63 200 11:45 23.02.2021
3092 Clouds 11 1027 66 10000 3.09 190 11:20 23.02.2021
3093 Clouds 11 1027 66 10000 3.09 190 10:40 23.02.2021
3094 Clouds 10 1027 71 10000 2.57 180 10:19 23.02.2021
3095 Clouds 9 1027 71 10000 2.57 180 09:42 23.02.2021
3096 Clouds 9 1027 76 10000 3.09 210 09:21 23.02.2021
3097 Clouds 8 1027 76 10000 3.09 210 08:48 23.02.2021
3098 Clouds 8 1026 71 10000 3.6 200 08:21 23.02.2021
3099 Clouds 8 1026 71 10000 3.6 200 07:48 23.02.2021
3100 Clouds 8 1025 71 10000 2.06 200 05:29 23.02.2021
3101 Clouds 9 1024 66 10000 2.57 200 04:25 23.02.2021
3102 Clouds 10 1024 66 10000 3.6 210 02:33 23.02.2021
3103 Clouds 11 1023 62 10000 4.12 210 00:20 23.02.2021
3104 Clouds 11 1023 62 10000 4.12 210 23:46 22.02.2021
3105 Clouds 11 1022 58 10000 3.09 210 23:20 22.02.2021
3106 Clouds 11 1022 58 10000 3.09 210 22:39 22.02.2021
3107 Clouds 13 1021 50 10000 3.6 210 22:20 22.02.2021
3108 Clouds 12 1021 54 10000 2.57 200 21:40 22.02.2021
3109 Clouds 12 1021 54 10000 2.57 200 21:21 22.02.2021
3110 Clouds 12 1021 54 10000 2.57 200 20:49 22.02.2021
3111 Clouds 13 1021 50 10000 3.6 210 20:27 22.02.2021
3112 Clouds 13 1021 54 10000 4.12 200 19:51 22.02.2021
3113 Clouds 14 1020 51 10000 3.09 190 19:30 22.02.2021
3114 Clouds 14 1020 51 10000 3.09 190 18:49 22.02.2021
3115 Clouds 15 1019 47 10000 3.09 200 18:30 22.02.2021
3116 Clouds 15 1019 47 10000 3.09 200 17:54 22.02.2021
3117 Clouds 16 1019 44 10000 4.63 210 17:22 22.02.2021
3118 Clouds 16 1019 44 10000 4.63 210 17:22 22.02.2021
3119 Clouds 16 1019 44 10000 4.63 210 17:22 22.02.2021
3120 Clouds 16 1019 44 10000 4.63 210 17:22 22.02.2021
3121 Clouds 16 1019 44 10000 4.63 210 16:53 22.02.2021
3122 Clouds 16 1018 44 10000 5.14 210 16:31 22.02.2021
3123 Clouds 16 1018 44 10000 5.14 210 15:42 22.02.2021
3124 Clouds 16 1018 44 10000 5.66 210 15:21 22.02.2021
3125 Clouds 16 1018 44 10000 5.66 210 14:44 22.02.2021
3126 Clouds 16 1018 41 10000 5.14 220 14:22 22.02.2021
3127 Clouds 16 1018 41 10000 5.14 220 13:45 22.02.2021
3128 Clouds 16 1017 39 10000 6.17 210 12:56 22.02.2021
3129 Clouds 15 1017 44 10000 2.57 200 12:23 22.02.2021
3130 Clouds 15 1017 44 10000 2.57 200 11:57 22.02.2021
3131 Clouds 15 1017 44 10000 2.57 200 11:38 22.02.2021
3132 Clouds 12 1017 50 10000 4.12 180 11:20 22.02.2021
3133 Clouds 9 1016 54 10000 5.14 160 10:41 22.02.2021
3134 Clouds 9 1016 54 10000 5.14 160 10:21 22.02.2021
3135 Clouds 8 1016 54 10000 5.14 160 09:40 22.02.2021
3136 Clouds 7 1016 57 10000 4.63 160 09:22 22.02.2021
3137 Clouds 6 1016 57 10000 4.63 160 08:49 22.02.2021
3138 Clouds 6 1016 57 10000 4.63 160 08:21 22.02.2021
3139 Clouds 7 1016 57 10000 4.63 160 07:50 22.02.2021
3140 Clouds 7 1016 61 10000 4.12 160 07:23 22.02.2021
3141 Clear 7 1016 61 10000 3.6 160 06:28 22.02.2021
3142 Clear 7 1015 66 10000 3.6 160 05:21 22.02.2021
3143 Clear 7 1015 71 10000 4.63 160 03:24 22.02.2021
3144 Clear 7 1015 76 10000 3.09 150 02:31 22.02.2021
3145 Clear 7 1015 76 9000 3.6 140 00:44 22.02.2021
3146 Clear 6 1016 87 6000 1.03 100 00:19 22.02.2021
3147 Clear 7 1015 76 10000 1.54 150 23:27 21.02.2021
3148 Clear 8 1015 76 10000 1.54 150 22:37 21.02.2021
3149 Clear 8 1015 76 10000 3.09 140 21:59 21.02.2021
3150 Clear 9 1015 76 10000 3.09 140 21:35 21.02.2021
3151 Clear 9 1015 76 10000 2.06 140 20:58 21.02.2021
3152 Clear 9 1015 76 10000 2.06 140 20:39 21.02.2021
3153 Clouds 9 1015 71 10000 1.54 150 20:19 21.02.2021
3154 Clouds 11 1015 71 10000 1.54 150 19:49 21.02.2021
3155 Clouds 11 1015 66 10000 2.06 140 19:30 21.02.2021
3156 Clouds 12 1015 66 10000 2.06 140 18:43 21.02.2021
3157 Clouds 15 1014 55 10000 1.54 130 18:24 21.02.2021
3158 Clouds 17 1014 48 10000 2.06 150 17:29 21.02.2021
3159 Clouds 17 1014 48 10000 2.06 150 16:57 21.02.2021
3160 Clouds 17 1014 48 10000 2.06 150 16:34 21.02.2021
3161 Clouds 17 1014 48 10000 2.06 200 15:54 21.02.2021
3162 Clouds 16 1014 51 10000 2.06 210 15:22 21.02.2021
3163 Clouds 16 1014 51 10000 2.06 210 14:50 21.02.2021
3164 Clouds 15 1014 55 10000 3.6 220 14:28 21.02.2021
3165 Clouds 15 1014 55 10000 3.6 220 13:47 21.02.2021
3166 Clouds 15 1014 51 10000 3.6 210 13:23 21.02.2021
3167 Clouds 14 1014 54 10000 4.12 200 12:32 21.02.2021
3168 Clouds 14 1014 54 10000 4.12 200 11:56 21.02.2021
3169 Clouds 14 1014 54 10000 4.12 200 11:36 21.02.2021
3170 Clouds 13 1014 58 10000 4.12 190 10:40 21.02.2021
3171 Clouds 11 1014 62 10000 3.6 200 10:21 21.02.2021
3172 Clouds 9 1014 62 10000 3.6 200 09:42 21.02.2021
3173 Clouds 9 1013 66 10000 4.12 190 09:23 21.02.2021
3174 Clouds 8 1013 71 10000 3.09 180 08:33 21.02.2021
3175 Clouds 8 1013 71 10000 3.09 180 07:44 21.02.2021
3176 Clouds 8 1013 71 10000 3.09 180 07:21 21.02.2021
3177 Clouds 9 1012 71 10000 4.12 190 05:28 21.02.2021
3178 Clouds 10 1012 71 10000 4.12 180 02:40 21.02.2021
3179 Clouds 10 1012 71 10000 4.63 160 00:59 21.02.2021
3180 Clouds 10 1012 66 10000 5.14 170 00:21 21.02.2021
3181 Clouds 9 1012 66 10000 5.14 170 23:38 20.02.2021
3182 Clouds 10 1012 66 10000 5.14 160 22:57 20.02.2021
3183 Clouds 10 1012 66 10000 5.66 160 22:32 20.02.2021
3184 Clouds 10 1012 66 10000 5.66 160 21:48 20.02.2021
3185 Clouds 10 1012 66 10000 5.14 160 21:29 20.02.2021
3186 Clouds 10 1012 66 10000 5.14 160 20:57 20.02.2021
3187 Clouds 10 1012 66 10000 5.14 160 20:38 20.02.2021
3188 Clouds 10 1012 66 10000 4.12 170 20:19 20.02.2021
3189 Clouds 11 1012 66 10000 4.12 170 19:41 20.02.2021
3190 Clouds 12 1012 71 10000 4.12 150 18:55 20.02.2021
3191 Clouds 12 1012 67 10000 4.12 150 18:33 20.02.2021
3192 Clouds 12 1012 67 10000 4.12 150 18:33 20.02.2021
3193 Clouds 12 1012 67 10000 4.12 150 17:59 20.02.2021
3194 Clouds 12 1012 67 10000 3.09 150 17:33 20.02.2021
3195 Clouds 13 1012 67 10000 3.09 150 16:49 20.02.2021
3196 Clouds 13 1013 58 10000 5.14 160 16:26 20.02.2021
3197 Clouds 15 1013 58 10000 5.14 160 15:42 20.02.2021
3198 Clouds 14 1013 62 10000 4.63 140 14:53 20.02.2021
3199 Clouds 13 1013 67 10000 4.12 180 14:27 20.02.2021
3200 Clouds 13 1013 67 10000 4.12 180 13:59 20.02.2021
3201 Clouds 13 1013 67 10000 4.12 180 13:40 20.02.2021
3202 Clouds 11 1014 71 10000 4.63 160 13:21 20.02.2021
3203 Clouds 12 1014 71 10000 4.63 160 12:46 20.02.2021
3204 Clouds 10 1014 71 10000 3.6 160 11:56 20.02.2021
3205 Clouds 9 1014 76 10000 3.6 160 11:38 20.02.2021
3206 Clouds 8 1014 76 10000 3.6 160 10:54 20.02.2021
3207 Clouds 8 1014 76 10000 5.14 170 10:32 20.02.2021
3208 Clouds 7 1014 76 10000 5.14 170 09:48 20.02.2021
3209 Clouds 6 1014 81 10000 4.12 160 09:18 20.02.2021
3210 Clouds 6 1014 81 10000 3.6 160 08:31 20.02.2021
3211 Clouds 6 1014 81 10000 3.6 160 07:50 20.02.2021
3212 Clouds 7 1014 76 10000 4.63 170 02:45 20.02.2021
3213 Clouds 7 1014 76 10000 4.63 170 02:21 20.02.2021
3214 Rain 8 1015 76 10000 4.63 170 01:22 20.02.2021
3215 Clouds 8 1015 76 10000 4.63 170 00:45 20.02.2021
3216 Clouds 8 1015 71 10000 4.63 170 23:43 19.02.2021
3217 Clouds 7 1015 76 10000 3.6 170 22:56 19.02.2021
3218 Clouds 7 1015 76 10000 4.12 170 22:26 19.02.2021
3219 Clouds 7 1015 76 10000 4.12 170 21:48 19.02.2021
3220 Clouds 7 1015 70 10000 4.63 170 21:28 19.02.2021
3221 Clouds 7 1015 70 10000 4.63 170 20:47 19.02.2021
3222 Clouds 7 1015 70 10000 3.6 170 20:27 19.02.2021
3223 Clouds 6 1015 70 10000 3.6 170 19:51 19.02.2021
3224 Clouds 6 1015 70 10000 3.09 160 19:23 19.02.2021
3225 Clouds 8 1015 70 10000 3.09 160 18:56 19.02.2021
3226 Clouds 8 1015 71 10000 2.57 180 18:33 19.02.2021
3227 Clouds 9 1015 71 10000 2.57 180 17:48 19.02.2021
3228 Clouds 9 1015 66 10000 4.12 200 16:51 19.02.2021
3229 Clouds 9 1015 71 10000 4.63 210 16:23 19.02.2021
3230 Clouds 9 1015 71 10000 4.63 210 15:57 19.02.2021
3231 Clouds 9 1015 71 10000 5.14 210 15:30 19.02.2021
3232 Clouds 9 1015 71 10000 5.14 210 14:56 19.02.2021
3233 Clouds 9 1015 71 10000 5.14 210 14:36 19.02.2021
3234 Clouds 7 1015 81 10000 5.66 220 13:58 19.02.2021
3235 Clouds 7 1015 81 10000 5.66 220 13:37 19.02.2021
3236 Clouds 7 1015 81 10000 5.66 220 13:19 19.02.2021
3237 Clouds 7 1015 81 10000 5.66 220 12:41 19.02.2021
3238 Clouds 7 1015 87 10000 6.17 220 12:22 19.02.2021
3239 Clouds 6 1015 87 10000 6.17 220 11:48 19.02.2021
3240 Clouds 6 1015 93 10000 6.17 230 11:22 19.02.2021
3241 Clouds 5 1015 93 10000 6.17 230 10:42 19.02.2021
3242 Clouds 5 1014 93 10000 4.63 230 10:20 19.02.2021
3243 Clouds 4 1014 87 10000 5.14 220 09:39 19.02.2021
3244 Clouds 4 1013 93 8000 4.63 220 09:21 19.02.2021
3245 Clouds 4 1013 93 8000 4.63 220 08:49 19.02.2021
3246 Clouds 4 1012 93 10000 4.12 230 08:22 19.02.2021
3247 Clouds 4 1012 93 10000 4.12 230 07:48 19.02.2021
3248 Clouds 4 1011 87 10000 5.14 240 07:27 19.02.2021
3249 Clouds 5 1011 87 10000 5.14 240 06:49 19.02.2021
3250 Clouds 5 1010 93 2800 5.66 240 05:21 19.02.2021
3251 Clouds 5 1010 93 2800 5.66 240 04:41 19.02.2021
3252 Clouds 5 1007 93 2900 5.66 250 01:47 19.02.2021
3253 Clouds 5 1006 93 2900 6.17 270 00:37 19.02.2021
3254 Clouds 6 1005 93 1600 4.63 210 23:54 18.02.2021
3255 Rain 6 1005 93 1600 4.63 210 23:34 18.02.2021
3256 Rain 7 1005 93 8000 3.6 190 22:47 18.02.2021
3257 Rain 7 1005 87 10000 5.66 160 22:28 18.02.2021
3258 Rain 7 1005 87 10000 5.66 160 21:47 18.02.2021
3259 Rain 7 1005 71 10000 5.66 170 21:25 18.02.2021
3260 Rain 7 1004 87 10000 5.14 160 21:25 18.02.2021
3261 Rain 8 1005 71 10000 5.66 170 20:41 18.02.2021
3262 Rain 8 1005 66 10000 5.66 160 20:23 18.02.2021
3263 Clouds 8 1005 66 10000 5.66 160 19:46 18.02.2021
3264 Rain 8 1005 66 10000 6.17 140 19:26 18.02.2021
3265 Clouds 8 1005 66 10000 6.17 140 18:53 18.02.2021
3266 Clouds 8 1006 71 10000 5.66 150 18:30 18.02.2021
3267 Clouds 8 1006 71 10000 5.66 150 17:53 18.02.2021
3268 Clouds 8 1007 71 10000 5.14 130 17:26 18.02.2021
3269 Clouds 8 1007 71 10000 5.14 130 16:56 18.02.2021
3270 Clouds 8 1007 71 10000 5.14 130 16:38 18.02.2021
3271 Rain 8 1008 66 10000 6.69 150 16:19 18.02.2021
3272 Rain 9 1008 66 10000 6.69 150 15:38 18.02.2021
3273 Rain 9 1009 62 10000 5.66 160 15:20 18.02.2021
3274 Clouds 11 1009 62 10000 5.66 160 14:48 18.02.2021
3275 Clouds 11 1010 66 10000 5.66 160 14:29 18.02.2021
3276 Clouds 11 1010 66 10000 5.66 160 13:45 18.02.2021
3277 Clouds 9 1011 71 10000 5.14 160 13:19 18.02.2021
3278 Clouds 9 1011 71 10000 5.14 160 12:45 18.02.2021
3279 Clouds 9 1012 76 10000 4.63 150 12:22 18.02.2021
3280 Clouds 8 1012 76 10000 4.63 150 11:46 18.02.2021
3281 Clouds 8 1013 81 10000 4.12 150 11:26 18.02.2021
3282 Clouds 7 1013 81 10000 4.12 150 10:47 18.02.2021
3283 Clouds 6 1013 87 10000 3.6 170 10:29 18.02.2021
3284 Clouds 6 1013 87 10000 3.6 170 09:49 18.02.2021
3285 Clouds 6 1014 87 10000 4.63 170 09:24 18.02.2021
3286 Clouds 7 1014 87 10000 4.63 170 08:47 18.02.2021
3287 Clouds 7 1013 87 10000 4.12 170 08:25 18.02.2021
3288 Clouds 7 1013 87 10000 4.12 170 07:35 18.02.2021
3289 Clouds 7 1014 81 10000 3.6 180 06:54 18.02.2021
3290 Clouds 7 1014 87 2800 3.09 200 03:31 18.02.2021
3291 Clouds 8 1015 87 2800 3.6 200 23:56 17.02.2021
3292 Clouds 8 1014 93 10000 3.6 190 23:30 17.02.2021
3293 Clouds 7 1014 93 10000 3.6 190 22:54 17.02.2021
3294 Drizzle 7 1014 87 8000 3.6 200 22:27 17.02.2021
3295 Drizzle 8 1015 87 6000 3.6 200 21:57 17.02.2021
3296 Drizzle 8 1014 100 7000 3.6 190 21:22 17.02.2021
3297 Drizzle 7 1014 100 7000 3.6 190 20:52 17.02.2021
3298 Drizzle 7 1014 100 7000 3.6 190 20:32 17.02.2021
3299 Clouds 7 1014 93 8000 3.6 190 19:51 17.02.2021
3300 Drizzle 7 1014 93 8000 3.6 190 19:32 17.02.2021
3301 Drizzle 7 1014 93 8000 3.6 190 18:49 17.02.2021
3302 Clouds 7 1014 93 7000 3.09 200 18:30 17.02.2021
3303 Clouds 8 1014 93 7000 3.09 200 17:42 17.02.2021
3304 Clouds 8 1014 93 9000 3.6 210 17:21 17.02.2021
3305 Clouds 8 1014 93 9000 3.09 210 16:49 17.02.2021
3306 Clouds 8 1014 93 8000 2.57 220 16:28 17.02.2021
3307 Clouds 8 1014 93 8000 2.57 220 15:45 17.02.2021
3308 Clouds 8 1014 87 9000 3.6 250 15:27 17.02.2021
3309 Clouds 8 1014 87 9000 3.6 250 15:27 17.02.2021
3310 Clouds 7 1014 87 9000 3.6 250 14:51 17.02.2021
3311 Clouds 7 1013 93 9000 5.66 250 14:29 17.02.2021
3312 Clouds 6 1013 93 9000 5.66 250 13:52 17.02.2021
3313 Clouds 6 1013 93 9000 5.66 250 13:33 17.02.2021
3314 Clouds 6 1013 93 9000 5.66 250 12:58 17.02.2021
3315 Clouds 6 1013 93 6000 4.63 240 12:26 17.02.2021
3316 Clouds 6 1013 93 6000 4.63 240 11:48 17.02.2021
3317 Clouds 6 1012 93 6000 5.66 250 11:29 17.02.2021
3318 Clouds 6 1012 93 6000 5.66 250 10:56 17.02.2021
3319 Clouds 6 1012 93 6000 5.66 250 10:38 17.02.2021
3320 Mist 6 1011 93 5000 5.66 250 10:19 17.02.2021
3321 Mist 5 1011 100 3800 5.14 250 09:38 17.02.2021
3322 Mist 5 1011 100 2800 5.66 250 08:58 17.02.2021
3323 Mist 5 1011 100 2800 5.66 250 08:37 17.02.2021
3324 Mist 5 1010 100 2000 5.66 250 08:18 17.02.2021
3325 Fog 5 1009 100 800 5.66 250 06:48 17.02.2021
3326 Clouds 5 1007 100 2200 5.66 240 03:53 17.02.2021
3327 Rain 4 1007 100 1800 7.2 250 02:33 17.02.2021
3328 Rain 5 1006 100 2100 4.63 220 01:37 17.02.2021
3329 Rain 5 1006 93 2600 3.6 210 00:28 17.02.2021
3330 Clouds 5 1006 93 2600 3.6 210 23:49 16.02.2021
3331 Rain 5 1007 87 10000 3.09 180 23:25 16.02.2021
3332 Rain 5 1007 87 10000 3.09 180 22:42 16.02.2021
3333 Rain 5 1007 93 8000 3.6 160 22:22 16.02.2021
3334 Clouds 5 1007 93 8000 3.6 160 21:40 16.02.2021
3335 Mist 5 1008 93 5000 4.12 160 21:22 16.02.2021
3336 Mist 5 1008 93 5000 4.12 160 20:58 16.02.2021
3337 Rain 5 1008 93 5000 4.12 160 20:38 16.02.2021
3338 Mist 5 1009 93 5000 4.12 160 20:20 16.02.2021
3339 Mist 5 1009 93 5000 4.12 160 19:40 16.02.2021
3340 Mist 4 1009 100 5000 4.63 170 19:21 16.02.2021
3341 Mist 4 1009 100 5000 4.63 170 18:38 16.02.2021
3342 Mist 5 1010 93 4000 4.12 160 18:19 16.02.2021
3343 Rain 5 1010 93 4000 4.12 160 17:49 16.02.2021
3344 Rain 5 1010 93 3800 4.12 160 17:23 16.02.2021
3345 Mist 5 1010 93 3500 4.63 160 16:47 16.02.2021
3346 Rain 4 1010 100 2500 4.63 140 16:24 16.02.2021
3347 Mist 4 1011 100 2200 4.63 150 15:47 16.02.2021
3348 Mist 4 1012 100 2000 3.6 180 15:26 16.02.2021
3349 Fog 4 1012 100 900 5.14 160 14:48 16.02.2021
3350 Fog 4 1013 100 700 4.63 170 14:29 16.02.2021
3351 Fog 4 1013 100 700 4.63 170 13:57 16.02.2021
3352 Fog 4 1013 100 800 4.12 170 13:34 16.02.2021
3353 Mist 4 1014 100 1100 3.6 190 12:46 16.02.2021
3354 Mist 3 1015 100 1400 3.6 180 12:24 16.02.2021
3355 Mist 3 1015 100 1400 3.6 180 11:50 16.02.2021
3356 Rain 3 1014 100 700 4.12 130 11:24 16.02.2021
3357 Rain 3 1015 100 800 3.6 160 10:56 16.02.2021
3358 Drizzle 3 1016 100 800 3.6 180 10:38 16.02.2021
3359 Rain 3 1016 100 800 3.6 180 10:20 16.02.2021
3360 Fog 3 1016 100 800 3.6 180 09:47 16.02.2021
3361 Fog 3 1016 100 800 3.6 180 09:47 16.02.2021
3362 Fog 2 1016 100 500 2.57 190 09:26 16.02.2021
3363 Fog 2 1017 100 300 3.09 180 08:42 16.02.2021
3364 Fog 2 1016 100 200 3.09 140 08:21 16.02.2021
3365 Drizzle 2 1017 100 200 3.6 210 07:25 16.02.2021
3366 Fog 2 1018 100 400 3.09 200 05:31 16.02.2021
3367 Clouds 2 1019 100 250 3.6 230 00:51 16.02.2021
3368 Clouds 2 1019 100 250 2.57 240 23:41 15.02.2021
3369 Drizzle 2 1019 100 600 3.6 230 23:20 15.02.2021
3370 Drizzle 2 1019 100 800 3.6 230 22:44 15.02.2021
3371 Fog 2 1019 100 800 4.63 220 22:21 15.02.2021
3372 Fog 2 1019 100 800 4.63 220 21:42 15.02.2021
3373 Mist 2 1019 100 1400 3.09 210 21:21 15.02.2021
3374 Drizzle 2 1019 100 1800 3.09 210 20:47 15.02.2021
3375 Mist 2 1019 93 2200 3.09 200 20:27 15.02.2021
3376 Drizzle 1 1019 93 2000 3.6 200 19:44 15.02.2021
3377 Rain 1 1019 100 3500 3.6 200 19:23 15.02.2021
3378 Clouds 1 1019 100 6000 2.06 200 18:47 15.02.2021
3379 Rain 1 1019 100 5000 2.06 220 18:26 15.02.2021
3380 Clouds 1 1016 89 10000 1.79 180 17:43 15.02.2021
3381 Snow 1 1016 89 10000 1.79 180 17:25 15.02.2021
3382 Snow 1 1017 87 10000 2.68 180 16:57 15.02.2021
3383 Snow 0 1020 86 3000 4.63 170 16:28 15.02.2021
3384 Rain 0 1020 93 7000 5.14 160 15:57 15.02.2021
3385 Rain 0 1020 93 7000 5.14 160 15:38 15.02.2021
3386 Snow 0 1021 86 8000 5.66 170 15:18 15.02.2021
3387 Snow 0 1021 86 8000 5.66 170 14:38 15.02.2021
3388 Snow 0 1022 74 7000 4.63 160 14:19 15.02.2021
3389 Rain 0 1022 69 8000 5.14 160 13:47 15.02.2021
3390 Rain 1 1023 44 10000 6.69 160 13:19 15.02.2021
3391 Rain 1 1023 44 10000 6.69 160 12:45 15.02.2021
3392 Rain 1 1023 44 10000 6.17 160 12:21 15.02.2021
3393 Snow 1 1024 40 10000 6.17 160 11:45 15.02.2021
3394 Snow 0 1024 43 10000 6.69 150 11:22 15.02.2021
3395 Snow 0 1024 43 10000 6.69 150 11:22 15.02.2021
3396 Snow 0 1024 43 10000 6.69 150 10:49 15.02.2021
3397 Snow 0 1025 40 10000 6.69 160 10:25 15.02.2021
3398 Snow 0 1025 40 10000 6.69 160 09:55 15.02.2021
3399 Snow 0 1025 37 10000 6.69 150 09:33 15.02.2021
3400 Snow 0 1025 37 10000 6.69 150 08:50 15.02.2021
3401 Snow 0 1026 37 10000 5.66 160 07:49 15.02.2021
3402 Clouds 0 1027 37 10000 7.72 150 06:59 15.02.2021
3403 Clouds 0 1027 37 10000 7.72 150 06:40 15.02.2021
3404 Clouds 0 1032 40 5000 5.66 150 02:32 15.02.2021
3405 Clouds 0 1031 40 5000 6.69 150 02:32 15.02.2021
3406 Clouds 0 1033 43 5000 4.63 160 00:55 15.02.2021
3407 Clouds -1 1033 47 5000 4.12 140 23:42 14.02.2021
3408 Clouds -1 1034 47 10000 4.63 140 23:22 14.02.2021
3409 Clouds -1 1034 47 10000 4.63 140 22:39 14.02.2021
3410 Clouds -1 1035 47 10000 5.14 150 22:19 14.02.2021
3411 Clouds -1 1035 47 10000 5.14 150 21:48 14.02.2021
3412 Clouds -1 1035 51 10000 3.6 150 21:29 14.02.2021
3413 Clouds -2 1035 51 10000 3.6 150 20:52 14.02.2021
3414 Clouds -1 1036 51 10000 4.12 150 20:27 14.02.2021
3415 Clouds -1 1036 51 10000 4.12 150 19:49 14.02.2021
3416 Clouds -1 1036 51 10000 5.14 150 18:58 14.02.2021
3417 Clouds -1 1036 51 10000 5.14 150 18:37 14.02.2021
3418 Clouds 0 1036 47 10000 5.14 150 17:57 14.02.2021
3419 Clouds 0 1036 47 10000 5.14 150 17:39 14.02.2021
3420 Clouds 1 1037 44 10000 4.12 150 16:55 14.02.2021
3421 Clouds 1 1037 44 10000 4.12 150 16:33 14.02.2021
3422 Clouds 1 1038 44 10000 4.12 150 15:53 14.02.2021
3423 Clouds 1 1038 44 10000 4.12 150 15:35 14.02.2021
3424 Clouds 1 1038 44 10000 3.6 150 14:51 14.02.2021
3425 Clouds 1 1039 47 10000 3.09 140 14:27 14.02.2021
3426 Clouds 1 1039 47 10000 3.09 140 13:54 14.02.2021
3427 Clouds -1 1039 55 10000 2.57 140 13:30 14.02.2021
3428 Clouds -1 1039 55 10000 2.57 140 12:44 14.02.2021
3429 Clouds -3 1040 63 10000 3.09 160 12:20 14.02.2021
3430 Clouds -3 1040 63 10000 3.09 160 11:50 14.02.2021
3431 Clouds -5 1040 74 10000 3.09 150 11:21 14.02.2021
3432 Clouds -5 1040 74 10000 3.09 150 10:45 14.02.2021
3433 Clouds -8 1040 86 10000 2.06 140 09:57 14.02.2021
3434 Clouds -8 1040 86 10000 2.06 140 09:38 14.02.2021
3435 Clouds -10 1040 92 10000 2.06 140 09:20 14.02.2021
3436 Clouds -10 1040 92 10000 2.06 140 08:39 14.02.2021
3437 Clouds -10 1040 92 10000 2.57 140 07:56 14.02.2021
3438 Clouds -10 1040 92 10000 1.54 120 06:51 14.02.2021
3439 Clouds -9 1040 86 10000 2.57 150 05:42 14.02.2021
3440 Clouds -8 1041 93 4600 2.06 170 03:31 14.02.2021
3441 Clear -9 1041 92 4900 1.54 160 02:21 14.02.2021
3442 Clear -8 1042 93 4900 0.51 200 00:47 14.02.2021
3443 Clear -8 1041 86 5000 1.03 130 00:27 14.02.2021
3444 Clear -8 1041 86 5000 1.03 130 23:41 13.02.2021
3445 Clear -6 1042 86 10000 1.54 130 23:21 13.02.2021
3446 Clear -6 1042 86 10000 1.54 130 22:42 13.02.2021
3447 Clear -7 1042 93 10000 0.51 170 22:19 13.02.2021
3448 Clear -7 1042 93 10000 0.51 170 21:42 13.02.2021
3449 Clear -6 1042 86 10000 4.41 144 21:21 13.02.2021
3450 Clear -5 1042 80 10000 1.54 100 20:30 13.02.2021
3451 Clear -5 1042 80 10000 1.54 100 19:56 13.02.2021
3452 Clear -5 1042 80 10000 1.54 100 19:37 13.02.2021
3453 Clear -5 1042 74 10000 3.07 125 19:18 13.02.2021
3454 Clear -5 1042 74 10000 2.6 116 18:40 13.02.2021
3455 Clouds -3 1041 63 10000 2.06 70 18:20 13.02.2021
3456 Clouds -3 1041 63 10000 2.06 70 17:42 13.02.2021
3457 Clear -2 1041 64 10000 2.06 50 17:22 13.02.2021
3458 Clear -2 1041 64 10000 2.06 50 16:42 13.02.2021
3459 Clear -1 1042 69 10000 2.06 310 16:21 13.02.2021
3460 Clear -1 1042 69 10000 2.06 310 15:39 13.02.2021
3461 Clear -1 1042 69 10000 2.06 290 14:57 13.02.2021
3462 Clear 0 1042 59 10000 0.51 240 14:32 13.02.2021
3463 Clear 0 1042 59 10000 0.51 240 13:48 13.02.2021
3464 Clear -1 1042 64 10000 0.51 0 13:24 13.02.2021
3465 Clear -1 1042 64 10000 0.51 0 12:46 13.02.2021
3466 Clear -3 1042 74 10000 0.51 280 12:18 13.02.2021
3467 Clear -3 1042 74 10000 0.51 280 11:45 13.02.2021
3468 Clear -5 1042 93 10000 1.83 99 11:19 13.02.2021
3469 Clear -5 1042 93 10000 1.83 99 10:46 13.02.2021
3470 Clear -6 1042 93 10000 2.04 84 10:25 13.02.2021
3471 Clear -6 1042 93 10000 2.04 84 09:55 13.02.2021
3472 Fog -8 1041 93 10000 2.04 84 09:30 13.02.2021
3473 Fog -8 1041 93 10000 2.17 72 08:55 13.02.2021
3474 Fog -8 1041 93 10000 2.17 72 08:34 13.02.2021
3475 Fog -8 1041 93 10000 2.36 72 07:52 13.02.2021
3476 Fog -8 1041 93 10000 2.3 76 06:39 13.02.2021
3477 Clear -9 1041 92 3800 2.6 86 05:26 13.02.2021
3478 Clear -9 1041 100 3400 3.06 87 03:58 13.02.2021
3479 Clear -7 1041 93 4800 1.54 70 01:43 13.02.2021
3480 Clear -7 1041 86 5000 2.06 60 00:36 13.02.2021
3481 Clear -7 1040 79 5000 1.54 60 23:54 12.02.2021
3482 Clear -7 1040 79 10000 1.54 60 23:24 12.02.2021
3483 Clear -7 1040 79 10000 1.54 60 22:44 12.02.2021
3484 Clear -7 1040 79 10000 2.57 50 22:25 12.02.2021
3485 Clear -7 1040 79 10000 2.57 50 21:46 12.02.2021
3486 Clear -7 1040 73 10000 1.03 50 21:27 12.02.2021
3487 Clear -7 1040 73 10000 1.03 50 20:46 12.02.2021
3488 Clear -7 1039 68 10000 1.03 80 20:28 12.02.2021
3489 Clear -7 1039 68 10000 1.03 80 19:57 12.02.2021
3490 Clear -7 1039 68 10000 1.03 80 19:37 12.02.2021
3491 Clouds -6 1039 63 10000 1.54 70 18:57 12.02.2021
3492 Clouds -4 1039 50 10000 2.57 90 18:30 12.02.2021
3493 Clouds -4 1039 50 10000 2.57 90 17:46 12.02.2021
3494 Clouds -3 1039 50 10000 4.63 80 17:21 12.02.2021
3495 Clouds -2 1038 50 10000 4.63 80 16:28 12.02.2021
3496 Clouds -2 1038 50 10000 4.63 80 15:46 12.02.2021
3497 Clouds -3 1038 54 10000 5.14 80 15:21 12.02.2021
3498 Clouds -3 1038 54 10000 5.14 80 14:42 12.02.2021
3499 Clouds -3 1038 54 10000 5.14 80 14:42 12.02.2021
3500 Clouds -3 1038 59 10000 5.14 90 14:23 12.02.2021
3501 Clouds -3 1038 59 10000 5.14 90 13:41 12.02.2021
3502 Clouds -3 1038 63 10000 5.66 90 13:22 12.02.2021
3503 Clouds -3 1038 63 10000 5.66 90 12:47 12.02.2021
3504 Clouds -4 1038 74 10000 5.66 80 12:28 12.02.2021
3505 Clouds -4 1038 74 10000 5.66 80 11:42 12.02.2021
3506 Clouds -5 1037 80 10000 4.63 60 11:19 12.02.2021
3507 Clouds -5 1037 80 10000 4.63 60 10:41 12.02.2021
3508 Clouds -6 1037 79 10000 4.63 50 09:49 12.02.2021
3509 Clouds -9 1037 79 10000 3.09 60 09:29 12.02.2021
3510 Clouds -9 1037 79 10000 3.09 60 08:49 12.02.2021
3511 Clouds -9 1036 86 10000 3.6 50 08:28 12.02.2021
3512 Clouds -9 1036 86 10000 3.6 50 07:57 12.02.2021
3513 Clouds -9 1036 79 10000 3.09 40 07:35 12.02.2021
3514 Clouds -9 1036 79 10000 3.09 40 06:55 12.02.2021
3515 Clouds -9 1036 86 10000 3.09 40 05:47 12.02.2021
3516 Clouds -8 1035 79 5000 2.57 40 04:32 12.02.2021
3517 Clouds -7 1035 86 5000 2.57 70 01:35 12.02.2021
3518 Clouds -7 1034 86 5000 2.57 50 23:41 11.02.2021
3519 Clouds -7 1034 86 10000 3.6 60 23:22 11.02.2021
3520 Clouds -7 1034 86 10000 3.6 60 22:47 11.02.2021
3521 Clouds -5 1033 80 10000 3.6 50 22:25 11.02.2021
3522 Clouds -5 1033 80 10000 3.6 50 21:59 11.02.2021
3523 Clouds -5 1033 80 10000 3.6 50 21:38 11.02.2021
3524 Clouds -4 1033 86 10000 2.57 80 21:18 11.02.2021
3525 Clouds -4 1033 86 10000 2.57 80 20:42 11.02.2021
3526 Clouds -5 1033 93 8000 3.09 60 20:21 11.02.2021
3527 Clouds -4 1032 86 10000 2.57 60 19:48 11.02.2021
3528 Clouds -4 1032 86 10000 3.09 60 19:28 11.02.2021
3529 Clouds -4 1032 86 10000 2.06 50 18:53 11.02.2021
3530 Snow -4 1031 86 8000 3.6 60 18:28 11.02.2021
3531 Snow -4 1031 86 8000 3.6 60 17:53 11.02.2021
3532 Clouds -3 1031 86 10000 4.63 50 17:22 11.02.2021
3533 Snow -3 1031 80 3500 3.6 50 16:57 11.02.2021
3534 Clouds -2 1031 74 9000 4.12 30 16:39 11.02.2021
3535 Clouds -2 1030 74 10000 3.6 40 16:20 11.02.2021
3536 Clouds -2 1030 74 10000 3.6 40 15:41 11.02.2021
3537 Clouds -2 1030 74 10000 4.12 40 15:23 11.02.2021
3538 Clouds -2 1030 74 10000 4.12 40 14:44 11.02.2021
3539 Clouds -2 1030 74 10000 3.6 30 14:25 11.02.2021
3540 Clouds -2 1030 74 10000 3.6 30 13:38 11.02.2021
3541 Clouds -2 1030 74 10000 3.09 60 13:19 11.02.2021
3542 Clouds -2 1030 74 10000 3.09 60 12:44 11.02.2021
3543 Clouds -2 1029 74 10000 2.57 50 12:21 11.02.2021
3544 Clouds -2 1029 74 10000 2.57 50 11:42 11.02.2021
3545 Clouds -3 1029 80 10000 2.57 20 11:21 11.02.2021
3546 Clouds -3 1029 80 10000 2.57 20 10:44 11.02.2021
3547 Snow -4 1028 86 10000 1.54 10 10:25 11.02.2021
3548 Snow -4 1028 86 10000 1.54 10 09:53 11.02.2021
3549 Clouds -7 1028 93 10000 1.03 330 09:22 11.02.2021
3550 Clouds -7 1028 93 10000 1.03 330 08:51 11.02.2021
3551 Clouds -8 1027 93 10000 1.03 350 08:21 11.02.2021
3552 Clouds -7 1027 93 10000 2.57 20 06:58 11.02.2021
3553 Clouds -7 1027 93 10000 2.57 20 06:35 11.02.2021
3554 Clouds -7 1025 93 5000 2.06 10 04:55 11.02.2021
3555 Clouds -6 1024 79 5000 2.57 360 02:29 11.02.2021
3556 Clouds -6 1023 86 4900 2.57 360 00:50 11.02.2021
3557 Clouds -5 1022 74 5000 2.57 360 00:20 11.02.2021
3558 Clouds -5 1022 74 5000 2.57 360 23:40 10.02.2021
3559 Clouds -5 1022 74 10000 3.6 20 22:52 10.02.2021
3560 Clouds -4 1021 68 10000 4.12 30 22:29 10.02.2021
3561 Clouds -4 1021 68 10000 4.12 30 22:29 10.02.2021
3562 Clouds -4 1021 68 10000 4.12 30 21:58 10.02.2021
3563 Clouds -4 1021 68 10000 4.12 30 21:38 10.02.2021
3564 Clouds -4 1020 74 10000 4.12 30 21:19 10.02.2021
3565 Clouds -4 1020 74 10000 4.12 30 20:40 10.02.2021
3566 Clouds -4 1019 74 10000 3.09 20 20:22 10.02.2021
3567 Clouds -4 1019 74 10000 3.09 20 19:45 10.02.2021
3568 Clouds -4 1018 74 10000 4.12 30 19:24 10.02.2021
3569 Clouds -4 1018 74 10000 4.12 30 18:40 10.02.2021
3570 Clouds -3 1017 68 10000 3.09 30 18:22 10.02.2021
3571 Clouds -3 1017 68 10000 3.09 30 17:51 10.02.2021
3572 Clouds -2 1016 69 10000 6.69 40 17:23 10.02.2021
3573 Clouds -2 1016 69 10000 6.69 40 16:53 10.02.2021
3574 Clouds -2 1016 69 10000 5.66 30 16:30 10.02.2021
3575 Clouds -2 1016 69 10000 5.66 30 15:54 10.02.2021
3576 Clouds -2 1015 74 10000 5.66 40 15:23 10.02.2021
3577 Clouds -2 1015 74 10000 4.12 40 14:47 10.02.2021
3578 Clouds -3 1014 80 10000 5.66 30 14:27 10.02.2021
3579 Clouds -3 1014 80 10000 5.66 30 13:51 10.02.2021
3580 Clouds -3 1014 80 10000 5.66 30 13:28 10.02.2021
3581 Clouds -3 1014 80 10000 5.66 30 12:48 10.02.2021
3582 Clouds -3 1014 80 10000 6.69 30 12:29 10.02.2021
3583 Clouds -3 1014 80 10000 6.69 30 11:48 10.02.2021
3584 Clouds -3 1013 74 10000 6.17 30 11:29 10.02.2021
3585 Clouds -3 1013 74 10000 6.17 30 10:52 10.02.2021
3586 Clouds -4 1013 80 10000 5.66 30 10:21 10.02.2021
3587 Clouds -3 1012 74 10000 6.17 40 09:44 10.02.2021
3588 Clouds -4 1012 80 10000 6.17 40 09:22 10.02.2021
3589 Clouds -4 1012 80 10000 6.17 40 08:50 10.02.2021
3590 Clouds -4 1011 80 10000 6.17 40 08:30 10.02.2021
3591 Clouds -4 1011 86 10000 6.69 40 07:22 10.02.2021
3592 Clouds -4 1010 93 5000 5.14 40 04:54 10.02.2021
3593 Clouds -4 1010 86 5000 4.63 40 01:20 10.02.2021
3594 Clouds -4 1010 86 5000 5.66 40 23:42 09.02.2021
3595 Clouds -4 1010 86 10000 5.14 40 23:23 09.02.2021
3596 Clouds -4 1010 86 10000 5.14 40 22:41 09.02.2021
3597 Clouds -4 1010 86 10000 5.14 40 22:23 09.02.2021
3598 Clouds -4 1010 86 10000 5.14 40 21:42 09.02.2021
3599 Clouds -4 1010 86 10000 6.17 40 21:19 09.02.2021
3600 Clouds -4 1010 86 10000 6.17 40 20:42 09.02.2021
3601 Snow -3 1010 80 10000 5.66 40 20:24 09.02.2021
3602 Snow -3 1010 80 10000 5.66 40 19:42 09.02.2021
3603 Snow -3 1010 80 10000 5.66 50 19:22 09.02.2021
3604 Snow -3 1010 80 10000 6.17 40 18:43 09.02.2021
3605 Clouds -3 1010 80 10000 6.17 40 18:25 09.02.2021
3606 Clouds -3 1010 80 10000 6.17 40 17:47 09.02.2021
3607 Clouds -2 1009 74 10000 6.17 40 17:26 09.02.2021
3608 Clouds -2 1009 74 10000 6.17 40 16:52 09.02.2021
3609 Clouds -2 1009 74 10000 7.72 50 16:19 09.02.2021
3610 Clouds -2 1009 74 10000 7.72 50 15:51 09.02.2021
3611 Clouds -2 1008 74 10000 8.23 40 15:29 09.02.2021
3612 Clouds -2 1008 74 10000 8.23 40 14:59 09.02.2021
3613 Clouds -2 1008 74 10000 9.26 40 14:30 09.02.2021
3614 Clouds -2 1008 74 10000 9.26 40 13:59 09.02.2021
3615 Clouds -2 1008 74 10000 9.26 40 13:39 09.02.2021
3616 Snow -2 1008 74 10000 8.23 40 13:19 09.02.2021
3617 Snow -2 1008 74 10000 8.23 40 12:41 09.02.2021
3618 Snow -2 1008 74 10000 8.23 40 12:22 09.02.2021
3619 Snow -2 1008 74 10000 8.23 40 11:44 09.02.2021
3620 Clouds -3 1008 74 10000 8.23 50 11:21 09.02.2021
3621 Clouds -3 1008 74 10000 8.23 50 10:56 09.02.2021
3622 Clouds -3 1008 74 10000 7.72 50 10:20 09.02.2021
3623 Clouds -3 1008 74 10000 7.72 50 09:51 09.02.2021
3624 Clouds -3 1007 74 10000 8.23 40 09:26 09.02.2021
3625 Clouds -3 1007 74 10000 8.23 40 08:53 09.02.2021
3626 Snow -4 1007 80 10000 8.75 40 08:28 09.02.2021
3627 Snow -4 1007 80 10000 8.75 40 07:39 09.02.2021
3628 Snow -3 1007 80 10000 9.77 40 05:33 09.02.2021
3629 Clouds -3 1006 80 4300 9.26 40 03:47 09.02.2021
3630 Clouds -3 1006 86 4800 8.23 40 01:50 09.02.2021
3631 Clouds -3 1005 86 5000 7.72 40 00:18 09.02.2021
3632 Clouds -2 1005 74 10000 7.2 50 23:23 08.02.2021
3633 Clouds -2 1005 74 10000 7.2 50 22:59 08.02.2021
3634 Clouds -2 1005 74 10000 7.2 50 22:39 08.02.2021
3635 Snow -2 1005 74 10000 7.2 70 22:21 08.02.2021
3636 Snow -2 1005 74 10000 7.2 70 21:44 08.02.2021
3637 Clouds -2 1005 69 10000 9.77 60 21:21 08.02.2021
3638 Clouds -2 1005 69 10000 9.77 60 20:44 08.02.2021
3639 Clouds -2 1005 69 10000 10.29 60 20:24 08.02.2021
3640 Snow -2 1005 69 10000 10.8 60 19:49 08.02.2021
3641 Clouds -2 1005 69 10000 10.29 60 19:30 08.02.2021
3642 Clouds -2 1005 69 10000 10.29 60 18:59 08.02.2021
3643 Clouds -2 1005 69 10000 10.29 60 18:40 08.02.2021
3644 Clouds -2 1004 64 10000 9.77 70 18:18 08.02.2021
3645 Clouds -2 1004 64 10000 9.77 70 17:41 08.02.2021
3646 Clouds -2 1004 64 10000 12.35 70 17:22 08.02.2021
3647 Clouds -2 1004 64 10000 12.35 70 16:40 08.02.2021
3648 Clouds -2 1004 59 10000 10.8 80 16:20 08.02.2021
3649 Clouds -2 1004 59 10000 10.8 80 15:38 08.02.2021
3650 Clouds -1 1004 55 10000 11.83 70 15:19 08.02.2021
3651 Clouds -1 1004 55 10000 11.83 70 14:51 08.02.2021
3652 Clouds -1 1005 55 10000 12.86 70 14:29 08.02.2021
3653 Clouds -1 1005 55 10000 12.86 70 13:54 08.02.2021
3654 Clouds -2 1005 59 10000 13.38 70 13:28 08.02.2021
3655 Clouds -2 1005 59 10000 13.38 70 13:28 08.02.2021
3656 Clouds -2 1005 59 10000 13.38 70 12:42 08.02.2021
3657 Clouds -2 1006 59 10000 13.38 80 12:24 08.02.2021
3658 Clouds -2 1006 59 10000 13.38 80 11:42 08.02.2021
3659 Clouds -2 1006 59 10000 14.4 70 11:18 08.02.2021
3660 Clouds -2 1006 59 10000 14.4 70 10:39 08.02.2021
3661 Clouds -3 1006 63 10000 12.86 70 10:20 08.02.2021
3662 Clouds -3 1006 63 10000 12.86 70 09:48 08.02.2021
3663 Clouds -3 1006 63 10000 12.35 70 09:21 08.02.2021
3664 Clouds -3 1006 63 10000 12.35 70 08:31 08.02.2021
3665 Clouds -3 1006 63 10000 12.35 70 07:49 08.02.2021
3666 Clouds -3 1006 63 10000 12.86 70 06:51 08.02.2021
3667 Clouds -3 1007 68 5000 12.35 80 05:18 08.02.2021
3668 Clouds -3 1008 59 5000 10.8 90 02:27 08.02.2021
3669 Clouds -3 1009 59 5000 12.86 80 00:26 08.02.2021
3670 Clouds -3 1009 59 5000 12.86 80 23:55 07.02.2021
3671 Clouds -3 1009 59 5000 12.86 80 23:37 07.02.2021
3672 Clouds -3 1009 54 10000 12.35 90 23:18 07.02.2021
3673 Clouds -3 1009 54 10000 12.35 90 22:42 07.02.2021
3674 Clouds -3 1010 50 10000 12.35 90 22:24 07.02.2021
3675 Clouds -3 1010 50 10000 12.35 90 21:50 07.02.2021
3676 Clouds -3 1009 46 10000 13.89 80 21:26 07.02.2021
3677 Clouds -3 1009 46 10000 13.89 80 20:51 07.02.2021
3678 Clouds -3 1009 46 10000 13.89 80 20:33 07.02.2021
3679 Snow -3 1009 54 10000 15.43 80 19:54 07.02.2021
3680 Snow -3 1009 59 10000 15.43 90 19:30 07.02.2021
3681 Snow -3 1009 59 10000 15.43 90 19:30 07.02.2021
3682 Clouds -3 1009 50 10000 12.86 90 18:52 07.02.2021
3683 Clouds -3 1009 50 10000 12.86 90 18:52 07.02.2021
3684 Clouds -3 1009 50 10000 12.86 90 18:34 07.02.2021
3685 Clouds -3 1009 46 10000 13.89 80 17:59 07.02.2021
3686 Clouds -3 1009 46 10000 13.89 80 17:40 07.02.2021
3687 Clouds -4 1009 50 10000 12.35 80 17:19 07.02.2021
3688 Clouds -4 1009 50 10000 12.35 80 16:45 07.02.2021
3689 Snow -4 1009 50 10000 12.86 80 16:22 07.02.2021
3690 Snow -4 1009 50 10000 12.86 80 15:49 07.02.2021
3691 Clouds -4 1009 50 10000 12.86 80 15:28 07.02.2021
3692 Clouds -4 1009 50 10000 12.86 80 14:49 07.02.2021
3693 Clouds -4 1010 50 10000 13.89 80 14:30 07.02.2021
3694 Clouds -4 1010 50 10000 13.89 80 13:56 07.02.2021
3695 Clouds -4 1010 50 10000 13.38 80 13:34 07.02.2021
3696 Clouds -4 1010 50 10000 13.38 80 12:46 07.02.2021
3697 Clouds -4 1010 54 10000 11.83 80 12:23 07.02.2021
3698 Clouds -4 1010 54 10000 11.83 80 11:53 07.02.2021
3699 Clouds -4 1011 50 10000 12.35 90 11:27 07.02.2021
3700 Clouds -4 1011 50 10000 12.35 90 10:51 07.02.2021
3701 Clouds -4 1011 58 10000 12.35 80 10:27 07.02.2021
3702 Clouds -4 1011 58 10000 12.35 80 09:49 07.02.2021
3703 Clouds -4 1011 58 10000 11.83 80 09:24 07.02.2021
3704 Clouds -4 1011 58 10000 11.83 80 08:38 07.02.2021
3705 Clouds -4 1011 63 10000 14.4 80 07:47 07.02.2021
3706 Clouds -4 1013 68 10000 12.86 80 05:58 07.02.2021
3707 Clouds -4 1013 68 10000 12.86 80 05:58 07.02.2021
3708 Clouds -3 1014 59 5000 11.83 80 03:59 07.02.2021
3709 Clouds -3 1015 59 5000 9.77 90 01:51 07.02.2021
3710 Clouds -3 1016 59 5000 10.29 90 00:36 07.02.2021
3711 Clouds -3 1016 54 5000 11.32 90 23:48 06.02.2021
3712 Clouds -3 1016 63 10000 9.77 80 22:52 06.02.2021
3713 Clouds -3 1016 63 10000 9.77 80 21:45 06.02.2021
3714 Clouds -2 1017 64 10000 10.8 80 21:24 06.02.2021
3715 Clouds -2 1017 64 10000 10.8 80 20:53 06.02.2021
3716 Clouds -1 1017 64 10000 11.32 80 20:27 06.02.2021
3717 Clouds -1 1017 64 10000 11.32 80 19:59 06.02.2021
3718 Clouds -1 1017 64 10000 11.32 80 19:40 06.02.2021
3719 Clouds -1 1017 64 10000 10.8 80 19:19 06.02.2021
3720 Clouds -1 1017 64 10000 10.8 80 18:43 06.02.2021
3721 Clouds -1 1017 64 10000 9.26 90 18:24 06.02.2021
3722 Clouds -1 1017 64 10000 9.26 90 17:41 06.02.2021
3723 Clouds -1 1017 64 10000 9.77 90 17:21 06.02.2021
3724 Clouds -1 1017 64 10000 9.77 90 16:47 06.02.2021
3725 Clouds -1 1018 69 10000 9.26 90 16:29 06.02.2021
3726 Clouds -1 1018 69 10000 9.26 90 15:52 06.02.2021
3727 Clouds 0 1018 59 10000 8.75 90 15:29 06.02.2021
3728 Clouds 0 1018 59 10000 8.75 90 14:57 06.02.2021
3729 Clouds 0 1018 59 10000 8.75 90 14:37 06.02.2021
3730 Clouds -1 1018 69 10000 9.77 90 14:18 06.02.2021
3731 Clouds -1 1018 69 10000 9.77 90 13:43 06.02.2021
3732 Clouds -1 1018 64 10000 9.26 90 12:36 06.02.2021
3733 Clouds -1 1018 64 10000 9.26 90 12:18 06.02.2021
3734 Clouds -1 1018 64 10000 9.26 90 11:40 06.02.2021
3735 Clouds -1 1019 59 10000 8.23 90 11:20 06.02.2021
3736 Clouds -1 1019 59 10000 8.23 90 10:52 06.02.2021
3737 Clouds -1 1019 59 10000 8.23 90 10:26 06.02.2021
3738 Clouds -1 1019 59 10000 8.23 90 09:38 06.02.2021
3739 Clouds -1 1018 64 10000 8.23 90 09:19 06.02.2021
3740 Clouds -1 1018 64 10000 8.23 90 08:59 06.02.2021
3741 Clouds -1 1018 69 10000 8.23 90 08:29 06.02.2021
3742 Clouds -1 1017 69 10000 8.23 90 06:58 06.02.2021
3743 Snow -1 1017 74 10000 8.75 80 05:41 06.02.2021
3744 Snow -1 1017 74 3700 8.23 90 02:52 06.02.2021
3745 Clouds 0 1017 69 5000 8.75 90 00:59 06.02.2021
3746 Clouds 0 1017 69 5000 8.75 90 00:41 06.02.2021
3747 Clouds 0 1017 74 5000 7.72 90 00:18 06.02.2021
3748 Clouds 0 1017 74 5000 7.72 90 23:35 05.02.2021
3749 Clouds 0 1017 74 5000 7.72 90 23:35 05.02.2021
3750 Snow 0 1017 74 10000 7.72 90 22:56 05.02.2021
3751 Snow 0 1017 74 10000 7.72 90 22:25 05.02.2021
3752 Snow 0 1017 74 10000 7.72 90 21:59 05.02.2021
3753 Snow 0 1017 74 10000 7.72 90 21:59 05.02.2021
3754 Snow 0 1017 74 10000 7.72 90 21:39 05.02.2021
3755 Snow 0 1016 80 10000 6.17 90 20:58 05.02.2021
3756 Snow 0 1016 80 10000 6.17 90 20:37 05.02.2021
3757 Snow 1 1016 80 9000 6.17 90 19:47 05.02.2021
3758 Snow 1 1015 80 10000 5.66 90 19:19 05.02.2021
3759 Snow 1 1015 80 10000 5.66 90 18:43 05.02.2021
3760 Snow 1 1015 80 10000 5.66 90 18:43 05.02.2021
3761 Snow 1 1015 80 10000 6.69 90 18:19 05.02.2021
3762 Snow 1 1015 80 10000 6.69 90 17:42 05.02.2021
3763 Snow 1 1015 86 10000 6.17 90 17:21 05.02.2021
3764 Snow 1 1015 86 10000 6.17 90 16:44 05.02.2021
3765 Snow 1 1015 86 9000 5.66 90 16:23 05.02.2021
3766 Snow 1 1015 86 9000 5.66 90 15:51 05.02.2021
3767 Snow 1 1015 86 9000 6.17 90 15:25 05.02.2021
3768 Snow 1 1015 86 9000 6.17 90 14:40 05.02.2021
3769 Snow 1 1015 86 9000 6.17 100 14:21 05.02.2021
3770 Snow 1 1015 86 9000 6.17 100 13:57 05.02.2021
3771 Snow 1 1015 86 9000 6.17 100 13:33 05.02.2021
3772 Snow 1 1016 86 9000 6.17 90 12:46 05.02.2021
3773 Snow 1 1016 86 9000 6.17 90 12:25 05.02.2021
3774 Snow 1 1016 86 9000 6.17 90 11:40 05.02.2021
3775 Snow 0 1016 93 8000 6.69 90 11:21 05.02.2021
3776 Clouds 0 1016 93 8000 6.69 90 10:54 05.02.2021
3777 Clouds 0 1016 93 8000 6.17 90 10:26 05.02.2021
3778 Clouds 0 1016 93 8000 6.17 90 09:47 05.02.2021
3779 Clouds 0 1016 93 10000 6.17 90 09:27 05.02.2021
3780 Clouds 0 1016 93 10000 6.17 90 08:52 05.02.2021
3781 Clouds 0 1016 93 10000 5.66 80 08:20 05.02.2021
3782 Clouds 0 1016 93 10000 5.66 80 07:36 05.02.2021
3783 Clouds 0 1016 93 10000 4.63 90 06:49 05.02.2021
3784 Clouds 0 1016 93 10000 4.63 90 05:37 05.02.2021
3785 Clouds 0 1016 93 4600 4.12 90 02:52 05.02.2021
3786 Clouds 0 1016 93 4500 4.63 90 02:24 05.02.2021
3787 Clouds 0 1017 93 5000 5.14 80 00:40 05.02.2021
3788 Clouds 0 1017 93 5000 4.63 90 00:20 05.02.2021
3789 Clouds 0 1017 93 5000 4.63 90 23:55 04.02.2021
3790 Clouds 0 1017 93 5000 4.63 90 23:37 04.02.2021
3791 Clouds 0 1017 93 10000 3.6 90 23:19 04.02.2021
3792 Clouds 0 1017 93 10000 3.6 90 22:49 04.02.2021
3793 Clouds 0 1016 93 10000 4.12 90 22:25 04.02.2021
3794 Clouds 0 1016 93 10000 4.12 90 21:42 04.02.2021
3795 Snow 0 1016 93 8000 4.63 90 21:19 04.02.2021
3796 Snow 0 1016 93 8000 4.63 90 20:48 04.02.2021
3797 Snow 0 1016 93 6000 3.6 90 20:29 04.02.2021
3798 Snow 0 1016 93 5000 3.6 90 19:43 04.02.2021
3799 Clouds 1 1016 86 10000 3.6 90 18:57 04.02.2021
3800 Clouds 1 1016 86 10000 3.6 90 18:26 04.02.2021
3801 Clouds 1 1016 86 10000 3.6 90 17:53 04.02.2021
3802 Clouds 1 1016 86 10000 3.6 90 17:53 04.02.2021
3803 Clouds 1 1015 93 10000 4.12 90 17:28 04.02.2021
3804 Clouds 1 1015 93 10000 4.12 90 16:57 04.02.2021
3805 Clouds 1 1015 93 10000 4.12 90 16:38 04.02.2021
3806 Clouds 1 1015 93 10000 5.66 80 16:18 04.02.2021
3807 Clouds 1 1015 93 10000 5.66 80 15:40 04.02.2021
3808 Clouds 1 1015 93 10000 6.17 80 15:20 04.02.2021
3809 Clouds 1 1015 93 10000 6.17 80 15:20 04.02.2021
3810 Clouds 1 1015 93 10000 6.17 80 14:48 04.02.2021
3811 Clouds 0 1015 100 8000 5.66 80 14:21 04.02.2021
3812 Clouds 0 1015 100 8000 5.66 80 13:45 04.02.2021
3813 Mist 0 1014 100 3500 5.14 70 13:26 04.02.2021
3814 Snow 0 1014 100 3500 5.14 70 12:54 04.02.2021
3815 Snow 0 1014 93 2000 5.66 70 11:57 04.02.2021
3816 Mist 0 1014 93 2000 5.66 70 11:37 04.02.2021
3817 Mist 0 1013 100 2000 6.69 80 11:18 04.02.2021
3818 Snow 0 1013 100 2000 6.69 80 10:35 04.02.2021
3819 Snow 0 1012 100 2500 7.2 80 09:46 04.02.2021
3820 Snow 0 1011 100 1500 6.69 80 09:23 04.02.2021
3821 Snow 0 1011 100 1200 5.66 80 08:58 04.02.2021
3822 Snow 0 1010 100 1500 6.17 80 08:27 04.02.2021
3823 Snow 0 1010 100 1500 6.17 70 07:58 04.02.2021
3824 Snow 0 1010 100 1500 6.17 70 07:35 04.02.2021
3825 Snow 0 1008 100 2000 5.66 70 06:53 04.02.2021
3826 Snow 0 1008 100 2000 5.66 70 06:34 04.02.2021
3827 Rain 1 1003 93 2200 4.63 60 02:43 04.02.2021
3828 Snow 1 1002 93 5000 4.12 60 02:24 04.02.2021
3829 Rain 1 1000 93 4000 5.66 60 00:32 04.02.2021
3830 Drizzle 1 999 93 3000 5.66 70 23:39 03.02.2021
3831 Drizzle 1 999 93 3000 5.66 70 22:42 03.02.2021
3832 Drizzle 1 997 93 4000 7.72 70 22:22 03.02.2021
3833 Drizzle 1 997 93 4000 7.72 70 21:56 03.02.2021
3834 Snow 1 997 93 5000 6.69 80 21:36 03.02.2021
3835 Drizzle 1 997 93 5000 6.69 80 21:18 03.02.2021
3836 Snow 1 997 93 5000 6.69 80 20:38 03.02.2021
3837 Rain 1 996 93 3500 7.72 70 20:19 03.02.2021
3838 Mist 1 996 93 3500 7.72 70 19:42 03.02.2021
3839 Rain 1 996 93 3500 7.2 70 19:19 03.02.2021
3840 Mist 1 995 93 5000 7.2 80 18:46 03.02.2021
3841 Rain 0 995 100 3500 7.72 70 18:20 03.02.2021
3842 Mist 0 995 100 3500 7.72 70 17:51 03.02.2021
3843 Rain 0 995 100 2500 7.2 70 17:30 03.02.2021
3844 Rain 0 995 100 2500 7.2 70 16:56 03.02.2021
3845 Rain 2 996 96 5457 12.24 80 16:30 03.02.2021
3846 Rain 2 996 95 10000 12.52 79 15:46 03.02.2021
3847 Rain 2 996 94 10000 12.46 83 15:25 03.02.2021
3848 Rain 2 996 94 10000 12.46 83 14:54 03.02.2021
3849 Rain 2 997 94 10000 12.9 85 14:26 03.02.2021
3850 Rain 2 997 94 10000 12.9 85 13:54 03.02.2021
3851 Rain 1 997 94 10000 12.81 84 13:29 03.02.2021
3852 Rain 2 997 95 10000 12.69 85 12:52 03.02.2021
3853 Rain 0 996 100 2200 4.12 110 12:27 03.02.2021
3854 Rain 0 996 100 2200 4.12 110 11:59 03.02.2021
3855 Rain 0 996 100 2200 4.12 110 11:37 03.02.2021
3856 Rain 0 996 100 2800 4.12 100 10:58 03.02.2021
3857 Rain 0 997 100 2500 4.12 110 10:23 03.02.2021
3858 Mist 0 997 100 2500 4.12 110 09:51 03.02.2021
3859 Snow 1 997 97 2125 12.66 90 09:32 03.02.2021
3860 Snow 1 997 97 2123 13.05 88 08:54 03.02.2021
3861 Snow 1 997 97 2123 13.05 88 08:54 03.02.2021
3862 Snow 1 997 97 2123 13.05 88 08:35 03.02.2021
3863 Rain 0 997 93 3000 5.14 100 07:42 03.02.2021
3864 Snow 0 998 93 2000 5.66 90 06:42 03.02.2021
3865 Rain 0 999 93 3000 4.63 90 04:55 03.02.2021
3866 Rain 0 999 93 3000 4.63 90 04:34 03.02.2021
3867 Mist -1 999 100 3000 5.66 90 03:48 03.02.2021
3868 Snow -1 999 100 2500 6.17 90 02:37 03.02.2021
3869 Snow -1 1000 93 4500 5.14 90 01:20 03.02.2021
3870 Mist -1 1000 93 4500 4.63 80 00:23 03.02.2021
3871 Snow -1 1000 93 4500 4.63 80 23:41 02.02.2021
3872 Snow -1 1000 93 4500 4.63 90 23:22 02.02.2021
3873 Snow -1 1000 93 4500 4.63 90 22:37 02.02.2021
3874 Snow -1 1000 93 4500 4.63 90 22:19 02.02.2021
3875 Snow -1 1000 93 3500 4.63 90 21:44 02.02.2021
3876 Mist -1 1000 93 4500 4.12 80 21:22 02.02.2021
3877 Mist -1 1000 93 4500 4.12 80 20:48 02.02.2021
3878 Snow -1 1000 93 2500 4.12 80 20:21 02.02.2021
3879 Mist -1 1000 100 2500 4.63 80 19:49 02.02.2021
3880 Snow -1 1000 93 2500 4.63 70 19:30 02.02.2021
3881 Snow -1 1000 93 2500 4.63 70 18:54 02.02.2021
3882 Mist -1 1000 93 2500 4.63 70 18:36 02.02.2021
3883 Mist -1 1000 93 2500 4.12 80 18:18 02.02.2021
3884 Snow -1 1000 93 2500 4.12 80 17:37 02.02.2021
3885 Mist 0 1000 86 3000 4.12 70 17:19 02.02.2021
3886 Snow 0 1000 86 3000 4.12 70 16:43 02.02.2021
3887 Snow 0 1000 86 4000 2.57 80 16:24 02.02.2021
3888 Snow 0 1000 86 4000 2.57 80 15:46 02.02.2021
3889 Snow 0 1000 86 4000 2.57 70 15:23 02.02.2021
3890 Mist 0 1000 86 4000 2.57 70 14:50 02.02.2021
3891 Mist 0 1000 86 4000 1.54 90 14:31 02.02.2021
3892 Mist 0 1001 86 4000 1.54 90 13:56 02.02.2021
3893 Mist 0 1001 86 4000 1.03 0 13:38 02.02.2021
3894 Mist 0 1001 86 4000 1.03 0 13:19 02.02.2021
3895 Mist 0 1001 86 4000 1.03 0 12:42 02.02.2021
3896 Mist -1 1002 80 3000 0.51 0 11:46 02.02.2021
3897 Mist -1 1002 93 3000 2.06 200 11:25 02.02.2021
3898 Mist -1 1002 93 3000 2.06 200 10:56 02.02.2021
3899 Mist -1 1002 93 3000 2.06 200 10:37 02.02.2021
3900 Mist -2 1002 93 2500 2.57 200 10:19 02.02.2021
3901 Mist -2 1002 93 2500 2.57 200 09:39 02.02.2021
3902 Mist -3 1002 100 2000 2.06 200 09:19 02.02.2021
3903 Fog -3 1002 100 2000 2.06 200 08:33 02.02.2021
3904 Mist -3 1001 100 2800 2.57 210 07:41 02.02.2021
3905 Mist -2 1001 100 2800 2.06 200 06:46 02.02.2021
3906 Mist -2 1001 100 2500 2.57 210 06:27 02.02.2021
3907 Mist -2 1001 100 2500 2.06 200 05:47 02.02.2021
3908 Clouds -2 1001 100 10000 1.54 260 02:46 02.02.2021
3909 Clouds -2 1000 93 10000 0.51 0 02:23 02.02.2021
3910 Clouds -2 1000 93 10000 1.03 260 00:37 02.02.2021
3911 Clouds -2 1000 93 10000 1.54 280 23:45 01.02.2021
3912 Mist -2 999 93 2800 1.03 270 22:52 01.02.2021
3913 Mist -2 999 93 2800 1.03 270 22:34 01.02.2021
3914 Mist -2 999 93 4000 0.51 100 21:55 01.02.2021
3915 Mist -2 999 93 4000 0.51 100 21:37 01.02.2021
3916 Mist -2 998 93 5000 2.22 54 21:18 01.02.2021
3917 Mist -2 998 93 5000 2.22 54 20:40 01.02.2021
3918 Mist -2 998 93 5000 1.03 140 20:22 01.02.2021
3919 Mist -2 998 93 5000 1.54 130 19:41 01.02.2021
3920 Mist -2 998 93 5000 1.54 110 19:21 01.02.2021
3921 Mist -2 998 93 5000 1.54 110 19:21 01.02.2021
3922 Clouds -2 997 86 8000 2.06 100 18:49 01.02.2021
3923 Clouds -2 997 86 8000 2.06 90 18:29 01.02.2021
3924 Mist -2 997 86 4000 3.09 90 17:48 01.02.2021
3925 Clouds -2 996 86 10000 3.6 80 17:26 01.02.2021
3926 Clouds -2 996 86 10000 3.6 80 16:58 01.02.2021
3927 Clouds -2 996 86 10000 4.12 80 16:31 01.02.2021
3928 Clouds -2 996 86 10000 4.12 80 15:48 01.02.2021
3929 Clouds -2 996 80 8000 5.66 80 15:19 01.02.2021
3930 Clouds -3 996 86 7000 5.14 90 14:52 01.02.2021
3931 Clouds -3 996 86 7000 5.14 90 14:52 01.02.2021
3932 Clouds -3 996 86 7000 5.14 90 14:34 01.02.2021
3933 Snow -3 996 86 5000 5.66 80 13:52 01.02.2021
3934 Mist -3 996 86 4800 5.14 80 13:28 01.02.2021
3935 Snow -3 996 80 4800 4.63 100 12:58 01.02.2021
3936 Snow -3 996 80 6000 5.14 100 12:40 01.02.2021
3937 Snow -3 996 80 6000 5.14 100 12:40 01.02.2021
3938 Snow -3 996 80 6000 5.14 100 12:40 01.02.2021
3939 Snow -4 996 86 7000 5.14 100 12:21 01.02.2021
3940 Snow -4 996 86 10000 4.63 100 11:39 01.02.2021
3941 Clouds -5 996 86 10000 4.63 80 11:19 01.02.2021
3942 Clouds -5 996 86 10000 4.63 80 10:44 01.02.2021
3943 Clouds -6 996 93 9000 5.14 90 10:19 01.02.2021
3944 Clouds -6 996 93 9000 5.14 90 09:43 01.02.2021
3945 Clouds -7 996 93 8000 4.63 80 09:19 01.02.2021
3946 Clouds -7 996 93 8000 4.63 80 08:41 01.02.2021
3947 Clouds -8 996 100 10000 4.12 80 07:37 01.02.2021
3948 Clouds -8 997 93 10000 3.6 80 05:59 01.02.2021
3949 Clouds -8 998 100 10000 4.12 70 02:49 01.02.2021
3950 Clouds -8 999 93 10000 2.57 90 00:40 01.02.2021
3951 Clouds -7 999 93 10000 2.57 120 23:40 31.01.2021
3952 Fog -6 1000 93 50 2.57 110 22:43 31.01.2021
3953 Fog -5 1000 93 4800 3.09 130 22:23 31.01.2021
3954 Fog -6 1000 93 7000 2.06 110 21:49 31.01.2021
3955 Clouds -5 1001 93 10000 2.06 140 21:23 31.01.2021
3956 Clouds -5 1001 93 10000 2.06 140 20:49 31.01.2021
3957 Clouds -5 1001 93 10000 1.54 140 20:21 31.01.2021
3958 Clouds -5 1001 93 10000 1.54 140 19:55 31.01.2021
3959 Clouds -5 1001 93 10000 1.54 140 19:37 31.01.2021
3960 Clouds -3 1002 86 10000 2.06 160 19:18 31.01.2021
3961 Clouds -3 1002 86 10000 2.06 160 18:40 31.01.2021
3962 Clouds -2 1002 86 10000 1.54 140 18:21 31.01.2021
3963 Clouds -2 1002 86 10000 1.54 140 17:46 31.01.2021
3964 Clouds -1 1002 69 10000 1.03 200 17:23 31.01.2021
3965 Clouds -1 1002 69 10000 1.03 200 16:51 31.01.2021
3966 Clouds -1 1002 69 10000 1.03 200 16:33 31.01.2021
3967 Clouds 0 1003 69 10000 2.06 200 15:52 31.01.2021
3968 Clouds 0 1003 69 10000 2.06 200 15:34 31.01.2021
3969 Clouds -2 1004 86 10000 2.57 230 14:44 31.01.2021
3970 Clouds -2 1004 86 10000 4.12 220 14:24 31.01.2021
3971 Clouds -2 1004 86 10000 4.12 220 13:53 31.01.2021
3972 Rain -2 1004 86 10000 4.12 220 13:35 31.01.2021
3973 Clouds -3 1005 86 10000 3.09 220 12:49 31.01.2021
3974 Clouds -4 1005 93 10000 3.6 220 12:23 31.01.2021
3975 Clouds -4 1005 93 10000 3.6 220 11:47 31.01.2021
3976 Clouds -4 1005 93 10000 3.6 220 11:29 31.01.2021
3977 Clouds -4 1005 93 10000 3.6 220 10:59 31.01.2021
3978 Clouds -4 1005 93 10000 3.6 220 10:35 31.01.2021
3979 Clouds -5 1005 93 10000 3.09 220 09:55 31.01.2021
3980 Clouds -5 1005 93 10000 3.09 220 09:32 31.01.2021
3981 Clouds -5 1005 93 10000 3.09 220 08:34 31.01.2021
3982 Mist -7 1005 93 5000 3.6 220 07:20 31.01.2021
3983 Fog -8 1005 93 500 3.09 220 05:42 31.01.2021
3984 Clear -6 1005 100 100 2.06 260 00:52 31.01.2021
3985 Clear -7 1006 100 50 1.03 260 00:26 31.01.2021
3986 Clear -7 1006 100 50 1.03 260 23:34 30.01.2021
3987 Fog -6 1006 100 500 1.54 260 22:57 30.01.2021
3988 Clouds -7 1006 93 10000 2.06 230 22:31 30.01.2021
3989 Clouds -7 1006 93 10000 2.06 230 21:42 30.01.2021
3990 Clouds -6 1006 100 10000 1.03 210 21:23 30.01.2021
3991 Clouds -6 1006 100 10000 1.03 210 20:50 30.01.2021
3992 Clouds -6 1005 100 10000 0.87 193 20:31 30.01.2021
3993 Clouds -6 1005 100 10000 1.16 74 19:54 30.01.2021
3994 Clouds -6 1005 100 10000 1.16 74 19:36 30.01.2021
3995 Clouds -6 1005 100 10000 1.03 150 19:18 30.01.2021
3996 Clouds -6 1005 100 10000 1.03 150 18:39 30.01.2021
3997 Clouds -4 1005 93 10000 1.03 70 18:19 30.01.2021
3998 Clouds -2 1004 86 10000 1.03 70 17:23 30.01.2021
3999 Clouds -2 1004 86 10000 1.03 70 16:57 30.01.2021
4000 Clouds -2 1004 86 10000 1.03 70 16:37 30.01.2021
4001 Clouds -2 1004 80 10000 2.06 70 16:19 30.01.2021
4002 Clouds -2 1004 80 10000 2.06 70 15:42 30.01.2021
4003 Clouds -2 1004 80 10000 2.06 50 15:22 30.01.2021
4004 Clouds -2 1004 80 10000 2.06 50 14:52 30.01.2021
4005 Clouds -2 1005 80 10000 2.06 50 14:24 30.01.2021
4006 Clouds -2 1005 80 10000 2.06 50 13:42 30.01.2021
4007 Clouds -2 1005 74 10000 2.57 60 13:20 30.01.2021
4008 Clouds -2 1005 74 10000 2.57 60 12:42 30.01.2021
4009 Clouds -2 1005 86 10000 0.51 40 12:21 30.01.2021
4010 Clouds -2 1005 86 10000 0.51 40 11:40 30.01.2021
4011 Clouds -4 1005 100 10000 4.02 65 10:55 30.01.2021
4012 Clouds -5 1005 100 10000 1.03 180 09:57 30.01.2021
4013 Clouds -5 1005 100 10000 1.03 180 09:39 30.01.2021
4014 Clouds -6 1004 93 10000 1.03 20 09:21 30.01.2021
4015 Clouds -6 1004 93 10000 1.03 20 08:41 30.01.2021
4016 Clear -5 1003 100 10000 3.09 30 07:30 30.01.2021
4017 Clouds -4 1003 93 10000 2.57 40 06:21 30.01.2021
4018 Clouds -2 1002 93 10000 5.66 30 03:36 30.01.2021
4019 Clouds -1 1002 86 10000 4.12 30 02:40 30.01.2021
4020 Clouds -1 1001 93 10000 6.69 30 02:21 30.01.2021
4021 Clouds -1 1000 100 10000 5.66 30 00:49 30.01.2021
4022 Snow -1 999 93 2302 5.14 50 00:21 30.01.2021
4023 Snow -1 999 93 2302 5.14 50 23:49 29.01.2021
4024 Snow -1 999 93 7000 7.2 50 23:27 29.01.2021
4025 Snow -1 999 93 7000 7.2 50 22:45 29.01.2021
4026 Snow -1 998 93 6000 8.75 60 22:25 29.01.2021
4027 Snow -1 998 93 6000 8.75 60 21:45 29.01.2021
4028 Snow -1 997 86 5000 10.8 70 21:26 29.01.2021
4029 Snow -1 997 86 5000 10.8 70 20:43 29.01.2021
4030 Snow -1 997 93 6000 9.77 70 20:22 29.01.2021
4031 Snow -1 997 93 6000 9.77 70 19:40 29.01.2021
4032 Snow -2 996 100 5000 9.77 70 19:20 29.01.2021
4033 Snow -2 996 100 5000 9.77 70 18:53 29.01.2021
4034 Snow -2 995 93 1000 9.26 80 17:48 29.01.2021
4035 Snow -2 995 93 1000 8.75 80 17:22 29.01.2021
4036 Snow -2 994 93 800 9.77 80 16:52 29.01.2021
4037 Snow -2 993 93 1000 8.23 90 16:24 29.01.2021
4038 Snow -2 993 93 1000 8.23 90 15:55 29.01.2021
4039 Snow -2 993 93 1000 8.23 90 15:37 29.01.2021
4040 Snow -2 994 93 600 7.72 90 15:18 29.01.2021
4041 Snow -2 994 93 600 7.2 90 14:23 29.01.2021
4042 Snow -2 994 93 900 7.72 90 13:46 29.01.2021
4043 Snow -2 994 93 800 9.26 90 13:27 29.01.2021
4044 Snow -2 993 93 1000 8.75 100 12:42 29.01.2021
4045 Snow -2 994 86 2000 8.75 100 12:18 29.01.2021
4046 Snow -1 994 74 2500 8.75 100 11:41 29.01.2021
4047 Snow -1 994 74 2500 8.75 100 11:41 29.01.2021
4048 Snow 0 994 64 4500 7.72 100 11:18 29.01.2021
4049 Snow 0 993 64 10000 7.72 110 10:46 29.01.2021
4050 Rain 2 994 80 10000 13.56 109 10:22 29.01.2021
4051 Snow 0 995 74 10000 6.69 110 09:39 29.01.2021
4052 Snow 0 995 74 10000 6.69 110 08:50 29.01.2021
4053 Clouds 0 995 74 10000 5.66 110 08:26 29.01.2021
4054 Snow 0 995 74 10000 5.66 110 07:48 29.01.2021
4055 Clouds -1 996 80 10000 5.66 100 07:29 29.01.2021
4056 Clouds -1 996 80 10000 5.66 100 06:48 29.01.2021
4057 Clouds -1 999 86 10000 5.14 100 04:53 29.01.2021
4058 Clouds -1 1002 86 10000 3.6 110 01:50 29.01.2021
4059 Clouds -1 1003 86 10000 3.09 100 00:37 29.01.2021
4060 Clouds -1 1004 86 10000 3.09 110 00:19 29.01.2021
4061 Clouds -1 1004 86 10000 3.09 110 23:39 28.01.2021
4062 Snow -1 1004 86 10000 2.06 110 23:20 28.01.2021
4063 Snow -1 1004 86 10000 2.06 110 22:42 28.01.2021
4064 Clouds -1 1004 86 10000 2.57 100 22:22 28.01.2021
4065 Snow -1 1004 86 10000 2.57 100 21:45 28.01.2021
4066 Snow -1 1004 86 10000 2.57 90 21:27 28.01.2021
4067 Clouds -1 1004 86 10000 2.57 90 20:47 28.01.2021
4068 Clouds -1 1004 86 10000 2.57 90 20:20 28.01.2021
4069 Clouds -1 1004 86 10000 2.57 90 19:57 28.01.2021
4070 Clouds -1 1004 86 10000 2.06 110 19:36 28.01.2021
4071 Clouds 0 1004 86 10000 3.09 90 19:18 28.01.2021
4072 Rain 0 1004 86 10000 3.09 90 18:41 28.01.2021
4073 Clouds 0 1004 86 10000 3.6 70 18:19 28.01.2021
4074 Clouds 0 1004 86 10000 3.6 70 17:44 28.01.2021
4075 Clouds 0 1003 86 10000 3.09 80 17:24 28.01.2021
4076 Clouds 0 1003 86 10000 3.09 80 16:44 28.01.2021
4077 Clouds 0 1003 86 10000 3.6 80 16:21 28.01.2021
4078 Clouds 0 1003 86 10000 3.6 80 15:39 28.01.2021
4079 Clouds 0 1003 86 10000 4.63 80 14:58 28.01.2021
4080 Clouds 0 1003 86 10000 4.63 80 14:39 28.01.2021
4081 Clouds 0 1003 86 10000 4.63 80 14:20 28.01.2021
4082 Clouds 0 1003 86 10000 4.63 80 14:20 28.01.2021
4083 Clouds 0 1003 86 10000 4.63 80 13:43 28.01.2021
4084 Clouds 0 1004 86 10000 5.14 80 12:53 28.01.2021
4085 Clouds 0 1004 86 10000 5.14 80 12:34 28.01.2021
4086 Clouds 0 1004 93 10000 4.63 60 11:59 28.01.2021
4087 Clouds 0 1004 93 10000 4.63 60 11:40 28.01.2021
4088 Clouds 0 1004 93 10000 3.6 70 11:19 28.01.2021
4089 Clouds 0 1004 93 10000 3.6 70 10:50 28.01.2021
4090 Fog 0 1005 93 10000 2.06 90 10:32 28.01.2021
4091 Fog 0 1005 93 10000 2.06 90 09:48 28.01.2021
4092 Fog 0 1005 93 10000 1.54 90 09:23 28.01.2021
4093 Mist -1 1005 100 3000 1.54 90 08:54 28.01.2021
4094 Clouds -1 1005 100 10000 1.54 50 08:19 28.01.2021
4095 Clouds -1 1005 100 10000 1.54 50 07:44 28.01.2021
4096 Clouds -1 1006 93 10000 2.06 20 06:50 28.01.2021
4097 Clouds 1 1006 93 10000 1.54 360 06:25 28.01.2021
4098 Clouds 2 1006 100 10000 2.57 340 04:27 28.01.2021
4099 Clouds 4 1006 93 10000 5.14 340 01:38 28.01.2021
4100 Clouds 4 1006 100 8000 4.63 260 23:48 27.01.2021
4101 Mist 4 1006 100 5000 4.63 270 23:24 27.01.2021
4102 Mist 4 1006 100 5000 4.63 270 22:42 27.01.2021
4103 Mist 4 1006 93 3000 5.14 260 22:22 27.01.2021
4104 Mist 4 1006 93 3000 5.14 260 21:43 27.01.2021
4105 Drizzle 2 1006 100 2000 3.6 210 21:24 27.01.2021
4106 Drizzle 2 1006 100 2000 3.6 210 20:52 27.01.2021
4107 Drizzle 2 1006 93 3000 2.57 200 20:27 27.01.2021
4108 Drizzle 2 1006 93 3000 2.57 200 19:50 27.01.2021
4109 Drizzle 2 1007 93 2000 2.57 200 19:26 27.01.2021
4110 Drizzle 2 1007 93 2000 2.57 200 18:57 27.01.2021
4111 Drizzle 2 1007 93 2000 2.57 200 18:38 27.01.2021
4112 Rain 1 1007 100 1800 3.6 210 18:20 27.01.2021
4113 Drizzle 1 1007 100 1800 3.6 210 17:39 27.01.2021
4114 Drizzle 2 1007 93 6000 3.09 210 17:18 27.01.2021
4115 Drizzle 2 1007 93 6000 3.09 210 16:43 27.01.2021
4116 Clouds 2 1007 87 10000 3.6 200 16:24 27.01.2021
4117 Clouds 2 1007 87 10000 3.6 200 15:49 27.01.2021
4118 Drizzle 2 1007 87 10000 4.12 190 15:29 27.01.2021
4119 Drizzle 2 1007 87 10000 4.12 190 14:40 27.01.2021
4120 Clouds 1 1009 93 10000 4.12 200 14:20 27.01.2021
4121 Rain 1 1009 93 5000 4.12 190 13:41 27.01.2021
4122 Rain 1 1009 93 5000 4.12 190 12:46 27.01.2021
4123 Clouds 1 1010 93 10000 4.12 200 12:26 27.01.2021
4124 Clouds 1 1010 93 10000 4.12 200 11:52 27.01.2021
4125 Clouds 2 1009 80 10000 5.14 200 11:26 27.01.2021
4126 Clouds 2 1009 80 10000 5.14 200 10:52 27.01.2021
4127 Clouds 1 1009 86 10000 4.63 200 10:26 27.01.2021
4128 Clouds 1 1009 86 10000 4.63 200 09:59 27.01.2021
4129 Clouds 1 1010 86 8000 4.12 200 09:33 27.01.2021
4130 Clouds 1 1010 86 8000 4.12 200 08:48 27.01.2021
4131 Clouds 1 1010 93 8000 3.6 210 07:58 27.01.2021
4132 Clouds 1 1010 93 8000 3.6 210 07:39 27.01.2021
4133 Clouds 1 1011 93 6000 4.12 200 06:47 27.01.2021
4134 Mist 1 1011 100 5000 4.12 210 05:57 27.01.2021
4135 Clouds 1 1012 100 6000 4.12 210 05:35 27.01.2021
4136 Clouds 1 1012 100 7000 3.6 210 02:46 27.01.2021
4137 Clouds 1 1013 100 7000 3.6 210 02:21 27.01.2021
4138 Clouds 1 1013 100 7000 3.6 210 01:46 27.01.2021
4139 Clouds 1 1014 100 8000 3.6 210 00:30 27.01.2021
4140 Clouds 1 1014 100 8000 3.6 210 23:44 26.01.2021
4141 Clouds 1 1014 93 10000 2.57 200 23:22 26.01.2021
4142 Clouds 1 1014 93 10000 2.57 200 22:44 26.01.2021
4143 Clouds 0 1014 100 10000 2.57 210 22:20 26.01.2021
4144 Clouds 0 1014 100 10000 2.57 210 21:53 26.01.2021
4145 Clouds 1 1014 93 10000 2.57 230 21:26 26.01.2021
4146 Clouds 1 1014 93 10000 2.57 230 20:56 26.01.2021
4147 Clouds 1 1014 93 10000 2.57 230 20:36 26.01.2021
4148 Clouds 2 1015 93 10000 2.57 250 20:18 26.01.2021
4149 Clouds 2 1015 93 10000 2.57 250 19:42 26.01.2021
4150 Clouds 2 1015 87 10000 2.06 260 19:19 26.01.2021
4151 Clouds 2 1015 87 10000 2.06 260 18:43 26.01.2021
4152 Clouds 2 1014 87 10000 3.6 280 18:23 26.01.2021
4153 Clouds 2 1014 87 10000 3.6 280 18:23 26.01.2021
4154 Clouds 2 1014 87 10000 3.6 280 17:48 26.01.2021
4155 Clouds 3 1014 81 10000 5.14 290 17:25 26.01.2021
4156 Clouds 3 1014 81 10000 5.14 290 16:53 26.01.2021
4157 Clouds 5 1013 70 10000 5.66 290 16:22 26.01.2021
4158 Clouds 5 1013 70 10000 5.66 290 15:57 26.01.2021
4159 Clouds 5 1013 70 10000 5.66 290 15:38 26.01.2021
4160 Clouds 5 1013 75 10000 5.66 290 15:18 26.01.2021
4161 Clouds 5 1013 75 10000 5.66 290 15:18 26.01.2021
4162 Clouds 5 1013 75 10000 5.66 290 14:34 26.01.2021
4163 Clouds 4 1013 81 10000 5.66 280 13:59 26.01.2021
4164 Clouds 4 1013 81 10000 4.63 280 13:29 26.01.2021
4165 Clouds 4 1013 81 10000 4.63 280 12:55 26.01.2021
4166 Clouds 4 1013 81 10000 4.63 280 12:37 26.01.2021
4167 Clouds 3 1012 87 9000 4.12 270 12:19 26.01.2021
4168 Clouds 3 1012 87 9000 4.12 270 11:43 26.01.2021
4169 Clouds 2 1012 87 8000 3.09 250 10:59 26.01.2021
4170 Mist 1 1012 93 5000 2.57 250 10:34 26.01.2021
4171 Fog -1 1011 100 50 2.06 260 09:57 26.01.2021
4172 Fog -1 1011 100 50 2.06 260 09:36 26.01.2021
4173 Fog -1 1011 93 50 1.54 260 09:18 26.01.2021
4174 Fog -1 1011 93 50 1.54 260 08:42 26.01.2021
4175 Fog -1 1010 93 50 0.51 0 07:54 26.01.2021
4176 Mist 0 1009 100 4000 1.03 330 06:58 26.01.2021
4177 Mist 0 1008 100 3800 1.03 10 05:51 26.01.2021
4178 Clouds 0 1007 100 1900 2.06 60 05:32 26.01.2021
4179 Clouds 1 1006 93 4800 2.06 160 03:32 26.01.2021
4180 Clouds 1 1006 93 5000 3.09 200 00:59 26.01.2021
4181 Clouds 1 1005 86 10000 2.57 200 00:24 26.01.2021
4182 Clouds 1 1005 86 10000 2.57 200 23:31 25.01.2021
4183 Clouds 1 1005 86 10000 2.57 200 22:47 25.01.2021
4184 Snow 1 1005 86 10000 3.09 200 22:29 25.01.2021
4185 Clouds 1 1005 86 10000 3.09 200 21:45 25.01.2021
4186 Clouds 1 1005 93 10000 3.6 220 21:18 25.01.2021
4187 Clouds 1 1005 93 10000 3.6 220 20:41 25.01.2021
4188 Clouds 1 1005 93 10000 3.09 210 20:23 25.01.2021
4189 Clouds 1 1005 93 10000 3.09 210 19:47 25.01.2021
4190 Clouds 1 1005 93 10000 3.09 210 19:47 25.01.2021
4191 Clouds 1 1005 93 10000 3.09 210 19:47 25.01.2021
4192 Clouds 1 1005 93 10000 3.6 220 19:23 25.01.2021
4193 Clouds 1 1005 93 10000 3.6 220 18:45 25.01.2021
4194 Clouds 1 1004 93 10000 3.09 210 18:24 25.01.2021
4195 Clouds 1 1004 93 10000 3.09 210 17:49 25.01.2021
4196 Clouds 2 1004 87 10000 3.09 250 17:25 25.01.2021
4197 Clouds 2 1004 87 10000 3.09 250 16:49 25.01.2021
4198 Clouds 3 1003 75 10000 3.6 270 16:26 25.01.2021
4199 Clouds 3 1003 75 10000 3.6 270 15:57 25.01.2021
4200 Clouds 3 1003 75 10000 3.6 270 15:39 25.01.2021
4201 Clouds 3 1003 87 10000 5.14 270 15:19 25.01.2021
4202 Clouds 3 1003 87 10000 5.14 270 14:39 25.01.2021
4203 Clouds 3 1003 87 10000 5.14 260 14:18 25.01.2021
4204 Clouds 3 1003 87 10000 5.14 260 13:44 25.01.2021
4205 Clouds 3 1002 87 10000 3.6 250 13:21 25.01.2021
4206 Clouds 3 1002 87 10000 3.6 250 12:44 25.01.2021
4207 Fog 2 1002 87 10000 2.57 250 12:19 25.01.2021
4208 Clouds 0 1001 100 7000 1.54 190 11:29 25.01.2021
4209 Clouds 0 1001 100 7000 1.54 190 10:52 25.01.2021
4210 Clouds 1 1001 93 7000 2.06 220 10:22 25.01.2021
4211 Clouds 0 1001 100 6000 2.57 220 09:53 25.01.2021
4212 Mist 0 1001 100 4000 1.03 0 09:31 25.01.2021
4213 Mist -1 1000 100 4500 3.09 210 08:48 25.01.2021
4214 Snow -1 999 100 3000 2.57 210 08:23 25.01.2021
4215 Snow 0 999 93 3000 2.06 230 07:29 25.01.2021
4216 Mist 0 999 93 3000 2.06 230 06:39 25.01.2021
4217 Clouds 1 998 93 10000 3.09 260 02:56 25.01.2021
4218 Clouds 0 998 100 5000 4.12 270 00:48 25.01.2021
4219 Clouds 1 998 100 10000 3.6 250 23:40 24.01.2021
4220 Clouds 1 997 100 10000 1.03 270 23:18 24.01.2021
4221 Clouds 1 997 100 10000 1.03 270 22:41 24.01.2021
4222 Snow 1 997 93 10000 2.06 250 22:18 24.01.2021
4223 Clouds 1 997 93 10000 2.06 250 21:44 24.01.2021
4224 Snow 0 997 100 9000 1.03 0 21:21 24.01.2021
4225 Clouds 0 997 100 9000 1.03 0 20:43 24.01.2021
4226 Snow 0 997 100 1500 2.06 270 20:19 24.01.2021
4227 Snow 0 997 100 1500 2.06 270 19:50 24.01.2021
4228 Rain 1 997 93 4000 3.09 260 19:26 24.01.2021
4229 Snow 1 997 93 4000 3.09 260 18:57 24.01.2021
4230 Snow 1 997 93 4000 3.09 260 18:38 24.01.2021
4231 Drizzle 2 997 93 8000 4.63 260 18:19 24.01.2021
4232 Drizzle 2 997 93 8000 4.63 260 17:48 24.01.2021
4233 Clouds 3 997 93 10000 3.6 260 17:21 24.01.2021
4234 Clouds 3 997 93 10000 3.6 260 16:43 24.01.2021
4235 Clouds 3 996 93 8000 3.6 250 16:25 24.01.2021
4236 Clouds 3 996 93 8000 3.6 250 15:58 24.01.2021
4237 Clouds 3 996 93 8000 3.6 250 15:40 24.01.2021
4238 Rain 3 996 93 10000 2.06 240 15:18 24.01.2021
4239 Clouds 3 996 93 10000 2.06 240 14:37 24.01.2021
4240 Rain 3 996 100 5000 2.06 230 13:42 24.01.2021
4241 Rain 3 996 93 4500 1.54 0 13:23 24.01.2021
4242 Rain 3 996 93 4500 1.54 0 12:43 24.01.2021
4243 Rain 3 996 93 4500 1.54 0 12:43 24.01.2021
4244 Rain 2 996 100 3000 2.06 250 12:19 24.01.2021
4245 Fog 2 996 100 3000 2.06 250 11:49 24.01.2021
4246 Fog 2 996 100 3000 2.06 250 11:49 24.01.2021
4247 Snow 0 995 100 2000 0.51 0 11:24 24.01.2021
4248 Fog 0 995 100 2000 0.51 0 10:45 24.01.2021
4249 Mist -1 995 100 2000 1.03 280 10:18 24.01.2021
4250 Rain -1 995 100 800 1.03 80 09:22 24.01.2021
4251 Fog -1 995 100 800 1.03 80 08:57 24.01.2021
4252 Rain -1 994 100 3000 0.59 48 08:22 24.01.2021
4253 Clouds 0 993 100 6000 1.54 180 02:41 24.01.2021
4254 Clouds 0 993 93 7000 3.84 226 01:52 24.01.2021
4255 Clouds 1 993 93 8000 1.54 210 00:26 24.01.2021
4256 Clouds 1 993 93 8000 1.54 210 23:53 23.01.2021
4257 Clouds 2 993 87 10000 1.54 200 23:26 23.01.2021
4258 Clouds 2 993 87 10000 1.54 200 22:55 23.01.2021
4259 Clouds 2 993 87 10000 1.54 200 22:37 23.01.2021
4260 Rain 3 993 81 10000 2.06 210 21:53 23.01.2021
4261 Clouds 3 993 81 10000 3.09 200 21:22 23.01.2021
4262 Clouds 3 993 81 10000 3.09 200 20:48 23.01.2021
4263 Clouds 3 993 81 10000 3.09 200 20:28 23.01.2021
4264 Clouds 3 993 81 10000 3.09 200 19:47 23.01.2021
4265 Clouds 3 993 81 10000 3.09 200 19:25 23.01.2021
4266 Clouds 3 993 81 10000 3.09 200 18:51 23.01.2021
4267 Clouds 4 993 81 10000 3.09 200 18:28 23.01.2021
4268 Clouds 4 993 81 10000 3.09 200 18:28 23.01.2021
4269 Clouds 4 993 81 10000 3.09 200 17:55 23.01.2021
4270 Clouds 4 993 81 10000 4.12 200 17:28 23.01.2021
4271 Clouds 4 993 81 10000 4.12 200 16:51 23.01.2021
4272 Clouds 4 993 87 10000 4.63 210 16:32 23.01.2021
4273 Clouds 4 993 87 10000 4.63 210 15:49 23.01.2021
4274 Clouds 4 993 87 10000 4.12 210 15:27 23.01.2021
4275 Clouds 4 993 87 10000 4.12 210 14:37 23.01.2021
4276 Clouds 4 993 81 10000 5.14 210 14:19 23.01.2021
4277 Clouds 4 993 81 10000 5.14 210 13:40 23.01.2021
4278 Clouds 4 994 87 9000 4.63 200 13:22 23.01.2021
4279 Clouds 4 994 87 9000 4.63 200 12:42 23.01.2021
4280 Clouds 2 994 93 6000 4.63 190 12:22 23.01.2021
4281 Clouds 2 994 93 6000 4.63 190 11:35 23.01.2021
4282 Rain 2 994 87 6000 4.12 170 10:54 23.01.2021
4283 Snow 1 994 93 3000 3.09 150 10:23 23.01.2021
4284 Snow 1 994 93 3000 3.09 150 09:51 23.01.2021
4285 Mist 0 995 100 3000 3.09 150 09:24 23.01.2021
4286 Snow 0 995 100 3000 3.09 150 08:42 23.01.2021
4287 Mist 1 995 93 4000 2.57 160 07:48 23.01.2021
4288 Mist 1 995 93 4000 2.57 170 06:49 23.01.2021
4289 Clouds 2 995 93 8000 4.63 210 02:20 23.01.2021
4290 Clouds 2 995 93 9000 5.14 210 00:23 23.01.2021
4291 Clouds 2 995 93 9000 5.14 210 23:36 22.01.2021
4292 Clouds 2 994 93 10000 5.14 220 22:42 22.01.2021
4293 Clouds 3 993 81 10000 5.66 220 22:19 22.01.2021
4294 Clouds 3 993 81 10000 5.66 220 21:39 22.01.2021
4295 Clouds 3 993 81 10000 4.63 220 21:21 22.01.2021
4296 Clouds 3 993 81 10000 4.63 220 20:46 22.01.2021
4297 Clouds 4 992 81 10000 4.63 230 20:26 22.01.2021
4298 Clouds 4 992 81 10000 4.63 230 19:47 22.01.2021
4299 Clouds 5 992 75 10000 4.63 230 19:18 22.01.2021
4300 Clouds 5 992 75 10000 4.63 230 18:45 22.01.2021
4301 Clouds 5 991 81 10000 4.63 230 18:26 22.01.2021
4302 Clouds 5 991 81 10000 4.63 230 17:48 22.01.2021
4303 Clouds 5 990 81 10000 5.14 250 17:29 22.01.2021
4304 Clouds 5 990 81 10000 5.14 250 16:54 22.01.2021
4305 Clouds 5 989 81 10000 5.66 240 16:30 22.01.2021
4306 Clouds 5 989 81 10000 5.66 240 15:45 22.01.2021
4307 Clouds 5 988 81 10000 6.69 230 15:23 22.01.2021
4308 Clouds 5 988 81 10000 6.69 230 14:33 22.01.2021
4309 Clouds 5 988 81 10000 7.2 230 13:54 22.01.2021
4310 Clouds 5 988 81 10000 7.2 230 13:35 22.01.2021
4311 Clouds 5 988 81 10000 6.69 240 12:56 22.01.2021
4312 Clouds 5 987 81 10000 6.69 230 12:28 22.01.2021
4313 Clouds 5 987 81 10000 6.69 230 11:51 22.01.2021
4314 Clouds 4 986 87 10000 6.69 220 11:32 22.01.2021
4315 Clouds 4 986 87 10000 6.69 220 10:48 22.01.2021
4316 Clouds 4 986 87 10000 6.69 220 10:48 22.01.2021
4317 Clouds 4 985 87 10000 7.2 220 10:23 22.01.2021
4318 Clouds 4 985 87 10000 7.2 220 09:43 22.01.2021
4319 Clouds 3 985 93 10000 6.69 220 08:57 22.01.2021
4320 Clouds 3 984 93 10000 6.17 230 08:32 22.01.2021
4321 Clouds 3 984 93 10000 6.17 230 08:32 22.01.2021
4322 Clouds 3 984 93 10000 6.17 230 07:45 22.01.2021
4323 Rain 3 980 93 4500 8.23 300 05:22 22.01.2021
4324 Rain 5 981 93 4500 1.03 0 01:54 22.01.2021
4325 Rain 6 985 75 10000 6.17 190 00:29 22.01.2021
4326 Rain 6 985 75 10000 6.17 190 23:48 21.01.2021
4327 Rain 6 985 75 10000 5.66 190 23:20 21.01.2021
4328 Clouds 6 985 75 10000 5.66 190 22:48 21.01.2021
4329 Clouds 6 986 75 10000 6.69 200 21:59 21.01.2021
4330 Clouds 6 986 75 10000 6.69 200 21:39 21.01.2021
4331 Clouds 6 987 75 10000 7.2 200 21:18 21.01.2021
4332 Clouds 6 987 75 10000 7.2 200 20:44 21.01.2021
4333 Clouds 7 987 70 10000 6.69 200 20:21 21.01.2021
4334 Clouds 7 987 70 10000 6.69 200 19:50 21.01.2021
4335 Clouds 7 987 65 10000 8.23 210 19:26 21.01.2021
4336 Clouds 7 987 65 10000 8.23 210 18:49 21.01.2021
4337 Clouds 7 987 65 10000 7.72 210 18:23 21.01.2021
4338 Clouds 7 987 65 10000 7.72 210 17:58 21.01.2021
4339 Clouds 7 987 65 10000 7.72 210 17:40 21.01.2021
4340 Clouds 7 987 65 10000 9.26 200 17:18 21.01.2021
4341 Clouds 7 987 65 10000 9.26 200 16:41 21.01.2021
4342 Clouds 8 987 61 10000 9.26 210 16:22 21.01.2021
4343 Clouds 8 987 61 10000 9.26 210 15:49 21.01.2021
4344 Clouds 8 987 61 10000 9.26 210 15:28 21.01.2021
4345 Clouds 8 987 61 10000 9.26 210 14:48 21.01.2021
4346 Clouds 8 987 61 10000 9.77 220 14:29 21.01.2021
4347 Clouds 8 987 61 10000 9.77 220 13:47 21.01.2021
4348 Clouds 7 988 65 10000 9.26 210 13:26 21.01.2021
4349 Clouds 7 988 65 10000 9.26 210 12:46 21.01.2021
4350 Clouds 7 988 65 10000 9.77 220 12:25 21.01.2021
4351 Clouds 7 988 65 10000 9.77 220 11:56 21.01.2021
4352 Clouds 7 988 65 10000 9.77 220 11:35 21.01.2021
4353 Clouds 7 987 70 10000 9.26 220 10:57 21.01.2021
4354 Clouds 7 987 70 10000 9.26 220 10:38 21.01.2021
4355 Clouds 7 987 70 10000 9.26 220 10:38 21.01.2021
4356 Clouds 6 986 81 10000 7.72 230 09:56 21.01.2021
4357 Clouds 6 986 81 10000 7.72 230 09:37 21.01.2021
4358 Clouds 7 984 76 10000 9.26 220 09:18 21.01.2021
4359 Clouds 7 984 76 10000 9.26 220 08:34 21.01.2021
4360 Rain 10 981 62 10000 8.75 180 07:46 21.01.2021
4361 Rain 9 982 66 10000 9.26 170 07:26 21.01.2021
4362 Clouds 9 983 66 10000 10.29 170 06:26 21.01.2021
4363 Clouds 9 985 66 10000 8.23 170 04:55 21.01.2021
4364 Rain 9 989 66 10000 7.72 190 02:19 21.01.2021
4365 Clouds 9 990 66 10000 7.2 180 00:42 21.01.2021
4366 Clouds 9 991 61 10000 6.69 180 23:49 20.01.2021
4367 Clouds 9 991 61 10000 7.2 190 23:25 20.01.2021
4368 Clouds 9 991 61 10000 7.2 190 22:52 20.01.2021
4369 Clouds 9 992 61 10000 7.2 200 22:30 20.01.2021
4370 Clouds 9 992 61 10000 7.2 200 21:54 20.01.2021
4371 Clouds 9 992 61 10000 7.2 190 21:23 20.01.2021
4372 Rain 9 992 61 10000 7.2 190 20:52 20.01.2021
4373 Rain 9 992 61 10000 7.2 190 20:52 20.01.2021
4374 Clouds 9 992 61 10000 6.69 190 20:24 20.01.2021
4375 Clouds 9 992 61 10000 6.69 190 19:49 20.01.2021
4376 Clouds 9 993 66 10000 5.66 190 19:31 20.01.2021
4377 Clouds 9 993 66 10000 5.66 190 19:31 20.01.2021
4378 Clouds 9 993 66 10000 5.66 190 18:52 20.01.2021
4379 Clouds 9 993 66 10000 5.66 190 18:33 20.01.2021
4380 Clouds 9 993 66 10000 6.17 200 17:53 20.01.2021
4381 Clouds 9 993 66 10000 6.17 200 17:35 20.01.2021
4382 Rain 9 993 71 10000 6.69 200 16:52 20.01.2021
4383 Clouds 9 993 76 10000 6.17 210 16:30 20.01.2021
4384 Clouds 9 993 76 10000 6.17 210 15:47 20.01.2021
4385 Clouds 9 994 81 10000 7.2 210 15:19 20.01.2021
4386 Clouds 9 994 81 10000 7.2 210 14:44 20.01.2021
4387 Rain 9 994 81 10000 6.69 210 14:21 20.01.2021
4388 Rain 9 994 81 10000 6.69 210 13:40 20.01.2021
4389 Rain 8 995 81 10000 8.23 210 13:19 20.01.2021
4390 Clouds 8 995 81 10000 8.23 210 12:35 20.01.2021
4391 Rain 8 995 81 10000 6.69 210 11:54 20.01.2021
4392 Rain 8 995 81 10000 6.69 210 11:35 20.01.2021
4393 Rain 7 995 87 10000 7.2 210 10:55 20.01.2021
4394 Rain 7 995 87 10000 6.69 220 10:28 20.01.2021
4395 Rain 7 995 87 10000 6.69 220 09:50 20.01.2021
4396 Rain 6 995 93 10000 7.72 210 09:24 20.01.2021
4397 Rain 6 995 93 10000 7.72 210 08:49 20.01.2021
4398 Rain 6 996 93 10000 8.23 210 08:27 20.01.2021
4399 Drizzle 6 996 93 10000 8.23 210 07:56 20.01.2021
4400 Rain 6 996 93 10000 7.72 210 07:25 20.01.2021
4401 Rain 6 996 93 10000 7.72 210 07:25 20.01.2021
4402 Rain 6 996 93 10000 8.75 220 05:50 20.01.2021
4403 Rain 7 997 93 4000 8.75 220 03:28 20.01.2021
4404 Rain 8 998 93 5000 6.69 230 01:18 20.01.2021
4405 Rain 8 998 93 5000 6.69 230 00:45 20.01.2021
4406 Clouds 8 999 93 7000 6.17 230 23:48 19.01.2021
4407 Rain 8 999 93 10000 6.69 240 23:26 19.01.2021
4408 Rain 8 999 93 10000 6.69 240 22:57 19.01.2021
4409 Clouds 8 999 93 10000 6.69 240 22:36 19.01.2021
4410 Clouds 8 999 93 8000 8.75 250 22:18 19.01.2021
4411 Clouds 8 999 93 8000 8.75 250 21:42 19.01.2021
4412 Rain 8 999 93 5000 5.14 230 21:23 19.01.2021
4413 Mist 8 999 93 5000 5.14 230 20:43 19.01.2021
4414 Rain 7 999 100 4000 5.14 220 20:23 19.01.2021
4415 Mist 7 999 100 3700 4.63 230 19:53 19.01.2021
4416 Mist 7 999 100 3500 4.12 230 19:28 19.01.2021
4417 Rain 7 999 100 3500 4.12 230 18:47 19.01.2021
4418 Rain 7 999 100 3500 4.63 250 18:26 19.01.2021
4419 Mist 7 999 100 3500 4.63 250 17:46 19.01.2021
4420 Drizzle 7 999 100 4000 5.14 250 17:27 19.01.2021
4421 Rain 7 999 93 2500 6.69 260 16:50 19.01.2021
4422 Drizzle 6 999 100 1500 5.14 240 16:29 19.01.2021
4423 Drizzle 6 999 100 1500 5.14 240 15:59 19.01.2021
4424 Drizzle 6 998 100 3000 4.63 230 15:40 19.01.2021
4425 Drizzle 6 998 100 3000 5.14 230 14:57 19.01.2021
4426 Mist 6 998 93 4500 5.14 230 14:39 19.01.2021
4427 Mist 5 999 100 4000 6.69 220 14:20 19.01.2021
4428 Mist 5 999 100 4000 6.69 220 13:40 19.01.2021
4429 Drizzle 5 999 100 3000 5.14 210 13:21 19.01.2021
4430 Drizzle 5 999 100 3000 5.14 210 12:48 19.01.2021
4431 Drizzle 5 1000 93 2000 5.66 210 12:29 19.01.2021
4432 Drizzle 5 1000 93 2000 5.66 210 11:43 19.01.2021
4433 Mist 4 1001 100 2500 4.63 200 11:24 19.01.2021
4434 Rain 4 1001 100 2500 4.63 200 10:51 19.01.2021
4435 Mist 4 1001 100 4500 4.63 200 10:31 19.01.2021
4436 Mist 4 1002 100 4500 5.14 200 09:53 19.01.2021
4437 Rain 4 1003 100 4000 6.69 200 09:30 19.01.2021
4438 Rain 4 1003 100 4000 6.69 200 08:56 19.01.2021
4439 Rain 4 1004 100 4000 5.66 210 08:24 19.01.2021
4440 Rain 4 1004 100 4000 5.66 210 07:47 19.01.2021
4441 Rain 4 1005 100 4500 5.14 200 06:53 19.01.2021
4442 Clouds 4 1011 93 8000 5.66 220 02:32 19.01.2021
4443 Clouds 4 1012 93 8000 5.14 230 00:55 19.01.2021
4444 Clouds 4 1012 93 7000 4.63 230 23:58 18.01.2021
4445 Clouds 4 1012 93 7000 4.63 230 23:34 18.01.2021
4446 Clouds 4 1013 93 10000 4.63 240 22:51 18.01.2021
4447 Clouds 4 1013 93 10000 6.17 250 22:26 18.01.2021
4448 Rain 4 1013 93 10000 6.17 250 21:58 18.01.2021
4449 Rain 4 1013 93 10000 6.17 250 21:39 18.01.2021
4450 Rain 4 1013 93 10000 7.2 250 21:20 18.01.2021
4451 Clouds 4 1013 93 10000 7.2 250 20:43 18.01.2021
4452 Clouds 4 1013 93 10000 6.17 250 20:24 18.01.2021
4453 Clouds 4 1013 93 10000 6.17 250 19:51 18.01.2021
4454 Clouds 5 1013 87 10000 6.69 250 19:32 18.01.2021
4455 Rain 5 1013 87 10000 6.69 250 18:47 18.01.2021
4456 Rain 5 1013 87 10000 7.2 250 18:23 18.01.2021
4457 Rain 5 1014 87 7000 7.2 250 17:45 18.01.2021
4458 Rain 5 1014 93 8000 8.23 260 17:22 18.01.2021
4459 Clouds 5 1014 93 8000 8.23 260 16:46 18.01.2021
4460 Clouds 5 1013 93 7000 7.72 260 16:22 18.01.2021
4461 Mist 4 1014 100 3000 6.69 250 15:49 18.01.2021
4462 Mist 4 1014 100 4000 6.69 250 15:25 18.01.2021
4463 Mist 4 1014 100 2500 6.17 250 14:46 18.01.2021
4464 Mist 4 1014 100 4800 5.66 240 14:28 18.01.2021
4465 Rain 4 1014 100 4800 5.66 240 13:47 18.01.2021
4466 Mist 4 1015 93 5000 5.14 240 13:28 18.01.2021
4467 Rain 4 1015 93 5000 5.14 240 12:56 18.01.2021
4468 Rain 4 1015 93 5000 5.14 240 12:36 18.01.2021
4469 Rain 4 1015 93 5000 5.66 230 12:18 18.01.2021
4470 Mist 3 1015 100 4800 5.66 230 11:40 18.01.2021
4471 Mist 3 1016 100 4500 6.17 220 11:21 18.01.2021
4472 Rain 3 1016 100 4000 5.66 210 10:46 18.01.2021
4473 Mist 2 1017 100 3200 4.12 210 09:51 18.01.2021
4474 Rain 2 1017 100 2500 4.63 210 09:32 18.01.2021
4475 Mist 2 1017 100 2500 4.63 210 08:56 18.01.2021
4476 Snow 1 1017 100 2200 5.14 220 08:25 18.01.2021
4477 Snow 1 1017 100 1500 5.14 220 07:38 18.01.2021
4478 Fog 1 1018 100 700 3.6 230 06:32 18.01.2021
4479 Clouds 2 1018 93 8000 2.57 230 04:41 18.01.2021
4480 Clouds 1 1018 93 5000 3.6 220 04:20 18.01.2021
4481 Clouds 1 1018 93 5000 3.6 220 03:45 18.01.2021
4482 Clouds 1 1018 93 200 4.12 220 03:23 18.01.2021
4483 Snow 1 1018 93 200 4.12 220 02:53 18.01.2021
4484 Clouds 0 1018 100 200 3.09 220 02:18 18.01.2021
4485 Clouds 0 1018 100 1600 2.06 210 00:39 18.01.2021
4486 Clouds 0 1019 93 2200 2.57 200 23:51 17.01.2021
4487 Drizzle 0 1019 93 2000 1.54 170 23:24 17.01.2021
4488 Drizzle 0 1019 93 2000 1.54 170 22:50 17.01.2021
4489 Drizzle 0 1019 93 2500 2.06 170 22:22 17.01.2021
4490 Drizzle 0 1019 93 4000 2.06 170 21:43 17.01.2021
4491 Clouds 0 1019 86 8000 2.06 170 21:24 17.01.2021
4492 Clouds 0 1019 86 8000 2.06 170 20:51 17.01.2021
4493 Clouds 0 1019 86 8000 2.06 170 20:32 17.01.2021
4494 Clouds 0 1019 86 8000 3.09 170 19:53 17.01.2021
4495 Clouds 0 1019 86 8000 3.09 170 19:34 17.01.2021
4496 Clouds 0 1018 86 10000 2.57 170 18:53 17.01.2021
4497 Clouds 0 1018 86 9000 2.57 150 18:29 17.01.2021
4498 Clouds 0 1018 86 9000 2.57 150 17:50 17.01.2021
4499 Clouds 0 1018 80 8000 2.06 150 17:29 17.01.2021
4500 Clouds 0 1018 80 10000 2.06 160 16:45 17.01.2021
4501 Clouds 0 1017 80 10000 3.09 140 16:25 17.01.2021
4502 Clouds 0 1017 80 10000 3.09 140 15:53 17.01.2021
4503 Mist 0 1017 80 5000 3.09 150 15:27 17.01.2021
4504 Snow 0 1017 80 5000 3.09 150 14:59 17.01.2021
4505 Snow 0 1017 80 5000 2.57 160 14:39 17.01.2021
4506 Snow 0 1017 80 5000 3.09 150 14:21 17.01.2021
4507 Snow 0 1017 80 7000 3.6 150 13:41 17.01.2021
4508 Snow 0 1017 74 3700 3.09 150 13:23 17.01.2021
4509 Snow 0 1017 74 10000 3.6 150 12:44 17.01.2021
4510 Snow 0 1017 74 10000 4.12 150 12:24 17.01.2021
4511 Snow -1 1017 80 10000 2.57 130 11:26 17.01.2021
4512 Clouds -1 1017 80 10000 2.57 130 10:52 17.01.2021
4513 Snow -1 1016 80 10000 1.54 140 10:28 17.01.2021
4514 Snow -1 1016 80 10000 1.54 140 09:57 17.01.2021
4515 Snow -1 1016 80 10000 2.57 150 08:59 17.01.2021
4516 Snow -1 1016 80 10000 2.57 150 08:40 17.01.2021
4517 Clouds -1 1016 86 9000 2.57 160 04:32 17.01.2021
4518 Clouds -1 1016 86 9000 2.57 160 03:44 17.01.2021
4519 Clouds -1 1017 86 9000 3.09 160 01:29 17.01.2021
4520 Snow -1 1017 93 8000 2.57 160 00:21 17.01.2021
4521 Snow -1 1017 93 8000 2.57 160 23:53 16.01.2021
4522 Snow -1 1018 93 10000 2.06 150 23:25 16.01.2021
4523 Snow -1 1018 93 10000 2.06 150 22:55 16.01.2021
4524 Clouds -1 1018 93 10000 2.06 140 22:21 16.01.2021
4525 Clouds -1 1018 93 10000 2.06 140 21:46 16.01.2021
4526 Clouds -1 1018 93 10000 2.06 140 21:23 16.01.2021
4527 Clouds -1 1018 93 10000 2.06 140 20:49 16.01.2021
4528 Clouds 0 1019 86 10000 2.57 160 20:27 16.01.2021
4529 Clouds 0 1019 86 10000 2.57 160 19:49 16.01.2021
4530 Clouds 0 1019 86 10000 2.57 180 19:30 16.01.2021
4531 Clouds 0 1019 86 10000 2.57 180 18:47 16.01.2021
4532 Clouds 0 1019 86 10000 3.09 200 18:28 16.01.2021
4533 Clouds 0 1019 86 10000 3.09 200 17:59 16.01.2021
4534 Clouds 0 1019 86 10000 3.09 200 17:39 16.01.2021
4535 Clouds 0 1020 80 10000 2.06 190 17:21 16.01.2021
4536 Clouds 0 1020 80 10000 2.06 190 16:42 16.01.2021
4537 Clouds 0 1021 80 10000 2.57 180 16:19 16.01.2021
4538 Clouds 0 1021 80 10000 2.57 180 15:42 16.01.2021
4539 Clouds 0 1021 80 10000 2.57 200 14:35 16.01.2021
4540 Clouds 0 1022 74 10000 3.09 200 13:54 16.01.2021
4541 Clouds 0 1022 74 10000 3.09 200 13:33 16.01.2021
4542 Clouds 0 1023 74 10000 2.57 190 12:49 16.01.2021
4543 Clouds -1 1024 74 10000 3.6 180 12:31 16.01.2021
4544 Clouds -1 1024 74 10000 3.6 180 11:59 16.01.2021
4545 Clouds -1 1024 74 10000 3.6 180 11:40 16.01.2021
4546 Clouds -1 1024 74 10000 3.6 180 11:19 16.01.2021
4547 Clouds -1 1024 74 10000 2.57 190 10:42 16.01.2021
4548 Clouds -2 1025 74 10000 3.6 180 09:57 16.01.2021
4549 Snow -3 1025 74 10000 1.54 190 09:22 16.01.2021
4550 Clouds -2 1025 69 10000 2.06 160 08:21 16.01.2021
4551 Clouds -2 1026 69 10000 3.09 180 07:18 16.01.2021
4552 Clouds -2 1027 74 10000 2.06 200 05:46 16.01.2021
4553 Clouds -2 1027 74 10000 1.54 190 04:38 16.01.2021
4554 Clouds -2 1028 74 10000 1.54 220 02:54 16.01.2021
4555 Clouds -2 1029 69 10000 1.03 0 00:49 16.01.2021
4556 Clouds -2 1029 69 10000 1.54 70 00:25 16.01.2021
4557 Clouds -2 1029 69 10000 1.54 70 23:49 15.01.2021
4558 Clouds -2 1029 74 10000 1.54 20 22:51 15.01.2021
4559 Clouds -1 1029 69 10000 1.54 10 22:23 15.01.2021
4560 Clouds -1 1029 69 10000 1.54 10 21:46 15.01.2021
4561 Clouds -1 1029 69 10000 1.03 20 20:58 15.01.2021
4562 Clouds -1 1029 69 10000 1.03 20 20:40 15.01.2021
4563 Clouds -1 1029 69 10000 2.06 20 20:19 15.01.2021
4564 Clouds -1 1029 69 10000 2.06 20 19:40 15.01.2021
4565 Clouds -1 1028 74 10000 1.54 30 19:22 15.01.2021
4566 Clouds -1 1028 74 10000 1.54 30 18:43 15.01.2021
4567 Clouds -1 1028 69 10000 2.06 360 18:19 15.01.2021
4568 Clouds -1 1028 69 10000 2.06 360 17:51 15.01.2021
4569 Clouds -1 1028 69 10000 3.09 10 17:24 15.01.2021
4570 Clouds -1 1028 69 10000 2.57 10 16:52 15.01.2021
4571 Clouds 0 1028 64 10000 3.6 30 16:25 15.01.2021
4572 Clouds 0 1028 64 10000 3.6 30 15:42 15.01.2021
4573 Clouds 0 1027 64 10000 3.6 30 15:22 15.01.2021
4574 Clouds 0 1027 64 10000 3.6 30 14:51 15.01.2021
4575 Clouds 0 1027 74 10000 4.12 40 14:27 15.01.2021
4576 Clouds 0 1027 74 10000 4.12 40 13:44 15.01.2021
4577 Clouds 0 1027 74 10000 4.12 40 13:24 15.01.2021
4578 Clouds 0 1027 74 10000 4.12 40 12:59 15.01.2021
4579 Clouds 0 1027 74 10000 4.12 40 12:37 15.01.2021
4580 Clouds 0 1027 69 10000 3.6 10 12:18 15.01.2021
4581 Clouds 0 1027 69 10000 3.6 10 11:42 15.01.2021
4582 Clouds -1 1027 69 10000 3.09 360 10:58 15.01.2021
4583 Clouds -1 1027 69 10000 3.09 360 10:39 15.01.2021
4584 Clouds 0 1026 64 10000 5.66 30 10:19 15.01.2021
4585 Clouds 0 1026 64 10000 5.66 30 09:47 15.01.2021
4586 Clouds 0 1026 80 10000 5.14 30 09:27 15.01.2021
4587 Clouds 0 1026 86 10000 2.57 10 08:27 15.01.2021
4588 Clouds 0 1026 86 10000 2.57 10 07:44 15.01.2021
4589 Clouds 0 1025 86 10000 2.57 10 07:22 15.01.2021
4590 Clouds 0 1025 86 10000 2.57 10 06:28 15.01.2021
4591 Clouds 0 1024 100 7000 2.06 20 02:28 15.01.2021
4592 Clouds 0 1024 93 8000 2.57 30 00:37 15.01.2021
4593 Clouds 1 1023 86 10000 3.6 30 23:30 14.01.2021
4594 Clouds 1 1023 86 10000 3.6 30 22:56 14.01.2021
4595 Clouds 1 1023 86 10000 3.6 30 22:36 14.01.2021
4596 Clouds 0 1023 93 10000 3.09 30 22:18 14.01.2021
4597 Clouds 0 1023 93 10000 3.09 30 21:39 14.01.2021
4598 Clouds 0 1022 93 10000 3.09 30 21:20 14.01.2021
4599 Clouds 0 1022 93 10000 3.09 30 20:44 14.01.2021
4600 Clouds 0 1022 93 10000 5.14 30 19:59 14.01.2021
4601 Clouds 0 1022 93 10000 5.14 30 19:38 14.01.2021
4602 Clouds 1 1022 86 10000 3.09 30 19:18 14.01.2021
4603 Clouds 1 1022 86 10000 3.09 30 18:42 14.01.2021
4604 Clouds 1 1022 86 10000 2.06 20 17:59 14.01.2021
4605 Clouds 1 1022 80 10000 3.09 10 17:33 14.01.2021
4606 Clouds 1 1022 80 10000 3.09 10 16:56 14.01.2021
4607 Clouds 1 1021 80 10000 3.09 20 16:35 14.01.2021
4608 Clouds 1 1021 80 10000 3.09 20 15:55 14.01.2021
4609 Clouds 1 1021 80 10000 2.57 360 15:34 14.01.2021
4610 Clouds 1 1021 80 10000 2.06 350 14:49 14.01.2021
4611 Clouds 1 1021 80 10000 4.12 10 14:31 14.01.2021
4612 Clouds 1 1021 80 10000 4.12 10 13:56 14.01.2021
4613 Clouds 1 1021 80 10000 4.12 10 13:25 14.01.2021
4614 Clouds 1 1021 80 10000 4.63 30 12:59 14.01.2021
4615 Clouds 0 1021 86 10000 4.12 30 12:24 14.01.2021
4616 Clouds 0 1021 86 10000 4.12 30 11:59 14.01.2021
4617 Clouds 0 1021 86 10000 4.12 30 11:41 14.01.2021
4618 Clouds 0 1020 86 10000 4.12 20 11:20 14.01.2021
4619 Clouds 0 1020 86 10000 4.12 20 10:43 14.01.2021
4620 Clouds -1 1019 86 10000 3.6 10 10:20 14.01.2021
4621 Clouds -1 1019 86 10000 3.6 10 09:44 14.01.2021
4622 Clouds -1 1018 86 10000 4.63 10 09:22 14.01.2021
4623 Clouds -1 1018 86 10000 4.63 10 08:40 14.01.2021
4624 Clouds 0 1018 86 10000 6.17 10 08:21 14.01.2021
4625 Clouds 0 1018 86 10000 6.17 10 07:42 14.01.2021
4626 Clouds 1 1017 80 10000 6.17 10 06:41 14.01.2021
4627 Clouds 1 1015 80 9000 6.69 360 05:23 14.01.2021
4628 Clouds 1 1012 75 10000 8.23 350 00:36 14.01.2021
4629 Clouds 0 1011 80 10000 7.2 350 23:49 13.01.2021
4630 Clouds 1 1010 75 10000 7.72 350 23:20 13.01.2021
4631 Clouds 1 1009 80 10000 5.66 360 22:28 13.01.2021
4632 Clouds 1 1009 80 10000 5.66 360 21:50 13.01.2021
4633 Clouds 1 1009 80 10000 6.69 360 21:28 13.01.2021
4634 Clouds 0 1008 100 10000 5.14 360 20:57 13.01.2021
4635 Clouds 1 1007 93 10000 7.2 340 20:29 13.01.2021
4636 Clouds 1 1007 93 10000 7.2 340 19:57 13.01.2021
4637 Clouds 1 1007 93 10000 7.2 340 19:37 13.01.2021
4638 Clouds 1 1007 86 10000 8.23 350 19:18 13.01.2021
4639 Snow 1 1007 86 10000 9.26 330 18:37 13.01.2021
4640 Clouds 2 1006 80 10000 7.72 350 17:51 13.01.2021
4641 Clouds 3 1005 75 10000 8.75 330 17:24 13.01.2021
4642 Clouds 3 1005 75 10000 8.75 330 16:50 13.01.2021
4643 Clouds 4 1004 81 9000 9.26 310 16:22 13.01.2021
4644 Clouds 4 1004 81 9000 9.26 310 15:52 13.01.2021
4645 Clouds 4 1004 81 9000 9.26 310 15:34 13.01.2021
4646 Clouds 3 1004 93 7000 10.8 310 14:46 13.01.2021
4647 Clouds 4 1003 87 4000 11.83 270 13:53 13.01.2021
4648 Rain 5 1004 81 10000 11.83 270 13:27 13.01.2021
4649 Rain 5 1005 81 10000 10.29 260 12:47 13.01.2021
4650 Clouds 5 1006 75 10000 9.77 280 12:28 13.01.2021
4651 Clouds 5 1006 75 10000 9.77 280 11:55 13.01.2021
4652 Rain 5 1006 75 10000 9.77 280 11:35 13.01.2021
4653 Clouds 4 1006 87 10000 8.23 260 10:56 13.01.2021
4654 Clouds 4 1006 81 10000 8.23 270 10:37 13.01.2021
4655 Clouds 4 1007 81 10000 8.75 290 10:18 13.01.2021
4656 Clouds 3 1007 81 10000 7.2 280 09:31 13.01.2021
4657 Clouds 3 1007 81 10000 7.2 280 08:52 13.01.2021
4658 Clouds 3 1007 87 10000 6.69 280 08:31 13.01.2021
4659 Clouds 3 1007 87 10000 6.69 280 07:35 13.01.2021
4660 Clouds 3 1007 87 10000 3.09 280 06:58 13.01.2021
4661 Rain 3 1008 87 10000 5.66 260 04:21 13.01.2021
4662 Clouds 3 1008 87 10000 5.66 260 03:48 13.01.2021
4663 Clouds 4 1008 75 10000 7.2 280 03:29 13.01.2021
4664 Clouds 3 1008 81 9000 5.66 280 01:44 13.01.2021
4665 Clouds 3 1008 81 10000 6.17 300 00:29 13.01.2021
4666 Clouds 2 1008 87 10000 5.14 300 23:29 12.01.2021
4667 Clouds 2 1008 87 10000 5.14 300 22:47 12.01.2021
4668 Clouds 3 1007 81 10000 9.26 310 22:25 12.01.2021
4669 Rain 3 1007 81 10000 9.26 310 21:53 12.01.2021
4670 Clouds 3 1007 81 10000 9.26 310 21:34 12.01.2021
4671 Rain 3 1007 81 10000 6.69 310 20:56 12.01.2021
4672 Clouds 3 1007 81 10000 6.69 310 20:37 12.01.2021
4673 Clouds 3 1006 75 10000 8.23 340 20:19 12.01.2021
4674 Clouds 3 1006 75 10000 8.23 340 19:37 12.01.2021
4675 Clouds 3 1005 81 10000 6.69 310 18:52 12.01.2021
4676 Clouds 3 1004 75 10000 5.14 310 18:25 12.01.2021
4677 Clouds 3 1004 75 10000 5.14 310 17:55 12.01.2021
4678 Clouds 3 1004 81 10000 5.66 320 17:32 12.01.2021
4679 Clouds 3 1004 81 10000 5.66 320 16:44 12.01.2021
4680 Clouds 4 1002 81 10000 9.26 330 16:25 12.01.2021
4681 Clouds 4 1002 81 10000 9.26 330 15:48 12.01.2021
4682 Clouds 5 1001 81 10000 9.77 280 15:27 12.01.2021
4683 Clouds 5 1001 81 10000 9.77 280 14:49 12.01.2021
4684 Clouds 5 1001 81 10000 6.17 280 14:26 12.01.2021
4685 Clouds 5 1001 81 10000 6.17 280 13:55 12.01.2021
4686 Clouds 5 1001 81 10000 6.17 280 13:36 12.01.2021
4687 Rain 5 1002 70 10000 6.69 290 12:33 12.01.2021
4688 Clouds 5 1002 65 10000 3.6 300 11:45 12.01.2021
4689 Clouds 2 1002 93 10000 1.54 260 11:27 12.01.2021
4690 Clouds 2 1002 93 10000 1.54 260 10:44 12.01.2021
4691 Clouds 2 1001 93 10000 1.54 330 10:20 12.01.2021
4692 Clouds 2 1001 93 10000 1.54 330 09:52 12.01.2021
4693 Clouds 3 1000 93 10000 1.54 340 09:23 12.01.2021
4694 Clouds 4 1000 87 10000 2.06 320 08:27 12.01.2021
4695 Clouds 4 1000 87 10000 2.06 320 07:56 12.01.2021
4696 Clouds 4 1000 87 10000 2.06 320 07:33 12.01.2021
4697 Clouds 4 999 100 9000 4.12 360 05:46 12.01.2021
4698 Rain 6 999 93 3600 7.2 250 03:46 12.01.2021
4699 Rain 6 999 93 4200 8.23 240 03:22 12.01.2021
4700 Rain 6 1000 93 5000 8.23 240 02:18 12.01.2021
4701 Rain 5 1001 100 6000 7.72 230 00:55 12.01.2021
4702 Rain 5 1001 93 4800 7.72 230 23:44 11.01.2021
4703 Rain 5 1002 93 6000 8.75 230 23:20 11.01.2021
4704 Rain 5 1002 93 6000 8.75 230 22:50 11.01.2021
4705 Rain 4 1004 100 5000 8.23 230 22:32 11.01.2021
4706 Drizzle 4 1004 100 5000 8.23 230 21:55 11.01.2021
4707 Rain 4 1004 100 5000 8.23 230 21:36 11.01.2021
4708 Rain 4 1004 93 5000 8.75 220 21:18 11.01.2021
4709 Rain 4 1004 93 5000 8.75 220 20:40 11.01.2021
4710 Drizzle 4 1005 93 5000 8.75 220 20:22 11.01.2021
4711 Rain 4 1005 93 5000 8.23 230 19:52 11.01.2021
4712 Drizzle 4 1006 93 5000 8.23 230 19:23 11.01.2021
4713 Drizzle 4 1006 93 5000 8.23 230 18:44 11.01.2021
4714 Drizzle 4 1007 93 6000 8.23 230 18:24 11.01.2021
4715 Drizzle 4 1007 93 6000 8.23 230 17:43 11.01.2021
4716 Drizzle 4 1008 93 6000 8.75 220 17:25 11.01.2021
4717 Drizzle 4 1008 93 6000 8.75 220 16:55 11.01.2021
4718 Drizzle 4 1008 93 3800 7.72 230 16:35 11.01.2021
4719 Mist 4 1008 93 4500 8.75 220 15:59 11.01.2021
4720 Mist 4 1008 93 5000 8.23 220 15:39 11.01.2021
4721 Mist 4 1009 93 4500 8.23 220 15:19 11.01.2021
4722 Mist 4 1009 93 4500 8.23 220 14:39 11.01.2021
4723 Rain 3 1010 100 4500 8.23 220 13:49 11.01.2021
4724 Drizzle 3 1011 100 4500 7.72 230 13:25 11.01.2021
4725 Drizzle 3 1011 100 3500 8.23 230 12:46 11.01.2021
4726 Drizzle 3 1012 100 3200 9.26 220 12:27 11.01.2021
4727 Drizzle 3 1012 100 4000 8.75 220 11:53 11.01.2021
4728 Drizzle 3 1013 100 3000 8.75 220 11:26 11.01.2021
4729 Drizzle 3 1013 100 3700 7.72 220 10:47 11.01.2021
4730 Drizzle 4 1013 93 3500 7.2 220 10:24 11.01.2021
4731 Drizzle 4 1013 93 2500 6.69 220 09:42 11.01.2021
4732 Mist 4 1013 93 3000 6.69 220 09:21 11.01.2021
4733 Mist 4 1013 93 4500 6.69 230 08:44 11.01.2021
4734 Mist 4 1013 93 3500 7.2 230 08:18 11.01.2021
4735 Drizzle 4 1014 93 5000 6.17 220 07:27 11.01.2021
4736 Rain 4 1014 93 5000 6.17 220 06:58 11.01.2021
4737 Rain 4 1016 93 700 4.63 230 03:51 11.01.2021
4738 Clouds 4 1017 93 3100 4.63 240 01:33 11.01.2021
4739 Clouds 4 1017 93 4800 4.12 240 00:34 11.01.2021
4740 Clouds 4 1018 93 1400 5.66 250 23:35 10.01.2021
4741 Drizzle 4 1018 93 2800 6.17 250 22:48 10.01.2021
4742 Drizzle 4 1018 93 2500 6.17 240 22:24 10.01.2021
4743 Drizzle 4 1018 93 2500 6.17 240 22:24 10.01.2021
4744 Drizzle 4 1018 93 2500 6.17 240 21:46 10.01.2021
4745 Drizzle 4 1018 93 3500 5.66 240 21:21 10.01.2021
4746 Drizzle 3 1018 100 5000 5.66 240 20:57 10.01.2021
4747 Drizzle 3 1018 100 5000 5.66 240 20:33 10.01.2021
4748 Drizzle 3 1018 100 6000 5.66 230 19:58 10.01.2021
4749 Drizzle 3 1018 100 6000 5.66 230 19:36 10.01.2021
4750 Drizzle 3 1018 93 5000 6.69 230 19:18 10.01.2021
4751 Drizzle 3 1018 93 4000 6.17 230 18:41 10.01.2021
4752 Rain 3 1018 93 3200 5.14 230 18:19 10.01.2021
4753 Clouds 3 1019 93 6000 6.17 230 17:22 10.01.2021
4754 Rain 3 1019 87 6000 6.17 230 16:37 10.01.2021
4755 Rain 3 1019 87 10000 5.14 230 16:18 10.01.2021
4756 Clouds 3 1019 87 10000 5.14 230 15:25 10.01.2021
4757 Clouds 3 1019 87 10000 5.14 230 14:52 10.01.2021
4758 Clouds 3 1019 87 10000 5.14 230 14:33 10.01.2021
4759 Clouds 2 1020 93 10000 5.14 220 13:55 10.01.2021
4760 Clouds 2 1020 93 10000 5.14 220 13:37 10.01.2021
4761 Clouds 2 1020 93 10000 5.14 220 13:37 10.01.2021
4762 Clouds 1 1020 100 8000 5.66 210 13:19 10.01.2021
4763 Clouds 1 1021 100 6000 5.66 210 12:50 10.01.2021
4764 Mist 1 1021 100 5000 5.66 210 12:32 10.01.2021
4765 Mist 1 1021 100 3700 5.66 210 11:44 10.01.2021
4766 Fog 0 1021 100 800 5.14 210 11:19 10.01.2021
4767 Fog 0 1021 100 500 5.14 210 10:42 10.01.2021
4768 Fog 0 1021 100 300 5.14 210 10:21 10.01.2021
4769 Fog 0 1021 100 600 5.14 210 09:28 10.01.2021
4770 Mist 0 1021 100 3200 3.09 220 08:22 10.01.2021
4771 Mist 0 1021 100 3200 3.09 220 07:37 10.01.2021
4772 Fog -1 1022 100 500 2.57 190 06:21 10.01.2021
4773 Fog -1 1022 100 500 2.57 190 05:41 10.01.2021
4774 Clouds -2 1023 100 300 1.54 200 03:56 10.01.2021
4775 Clouds -2 1023 100 8000 2.57 170 01:30 10.01.2021
4776 Clouds -3 1023 100 7000 1.54 210 23:59 09.01.2021
4777 Clouds -3 1023 100 7000 1.54 210 23:41 09.01.2021
4778 Fog -2 1023 93 7000 2.06 200 22:57 09.01.2021
4779 Fog -2 1023 100 7000 2.06 160 22:19 09.01.2021
4780 Fog -2 1023 100 7000 2.06 160 21:58 09.01.2021
4781 Fog -2 1023 100 7000 2.06 160 21:39 09.01.2021
4782 Clouds -3 1023 100 8000 0.51 120 21:20 09.01.2021
4783 Clouds -3 1023 100 8000 0.51 120 20:47 09.01.2021
4784 Clouds -2 1023 93 9000 1.54 140 20:28 09.01.2021
4785 Clouds -2 1023 93 9000 1.54 140 19:39 09.01.2021
4786 Clouds -1 1023 93 10000 0.51 170 19:20 09.01.2021
4787 Clouds -1 1023 93 10000 0.51 170 18:37 09.01.2021
4788 Clouds 0 1023 93 10000 0.51 200 17:53 09.01.2021
4789 Clouds 0 1023 93 10000 0.51 200 17:33 09.01.2021
4790 Clouds 1 1022 86 10000 0.51 0 16:56 09.01.2021
4791 Clouds 1 1022 86 10000 0.51 0 16:22 09.01.2021
4792 Clouds 1 1022 86 10000 0.51 0 15:41 09.01.2021
4793 Clouds 1 1022 86 10000 1.03 220 15:19 09.01.2021
4794 Clouds 1 1022 86 10000 1.03 220 14:37 09.01.2021
4795 Clouds 1 1022 86 10000 1.03 0 14:18 09.01.2021
4796 Clouds 1 1022 86 10000 1.03 0 13:43 09.01.2021
4797 Clouds 1 1022 86 10000 0.51 0 13:24 09.01.2021
4798 Clouds 1 1022 86 10000 1.54 320 12:28 09.01.2021
4799 Clouds 1 1022 86 10000 1.54 320 11:58 09.01.2021
4800 Clouds 1 1022 86 10000 1.54 320 11:38 09.01.2021
4801 Clouds 0 1022 86 10000 2.57 30 11:18 09.01.2021
4802 Clouds 0 1022 86 10000 2.57 30 10:43 09.01.2021
4803 Clouds 0 1021 93 10000 0.51 70 10:23 09.01.2021
4804 Clouds 0 1021 93 10000 0.51 70 09:44 09.01.2021
4805 Clouds 0 1021 93 10000 1.03 360 09:20 09.01.2021
4806 Clouds 0 1021 93 10000 2.57 350 07:49 09.01.2021
4807 Clouds 0 1020 93 10000 2.57 350 06:54 09.01.2021
4808 Clouds 1 1020 93 10000 2.57 10 06:34 09.01.2021
4809 Clouds 1 1019 93 10000 2.06 340 03:53 09.01.2021
4810 Clouds 1 1019 93 10000 2.57 340 02:46 09.01.2021
4811 Clouds 1 1019 93 10000 2.06 350 02:27 09.01.2021
4812 Clouds 1 1018 86 10000 2.57 340 01:25 09.01.2021
4813 Clouds 1 1018 86 10000 2.57 340 00:34 09.01.2021
4814 Clouds 1 1018 86 10000 1.54 330 23:46 08.01.2021
4815 Clouds 1 1018 86 10000 2.57 360 22:47 08.01.2021
4816 Clouds 1 1017 86 10000 2.57 340 21:54 08.01.2021
4817 Clouds 1 1017 86 10000 3.09 10 21:26 08.01.2021
4818 Clouds 1 1017 86 10000 3.09 10 20:38 08.01.2021
4819 Clouds 1 1016 80 10000 2.57 350 19:58 08.01.2021
4820 Snow 1 1016 80 10000 3.09 10 19:25 08.01.2021
4821 Clouds 1 1016 80 10000 3.09 10 18:59 08.01.2021
4822 Clouds 1 1016 80 10000 3.09 10 18:34 08.01.2021
4823 Clouds 0 1015 93 10000 2.57 340 17:55 08.01.2021
4824 Clouds 1 1015 86 10000 3.09 360 17:28 08.01.2021
4825 Clouds 1 1015 86 10000 3.09 360 16:50 08.01.2021
4826 Clouds 1 1014 86 10000 4.12 360 15:55 08.01.2021
4827 Clouds 1 1014 86 10000 4.12 360 15:33 08.01.2021
4828 Clouds 1 1014 86 10000 4.63 360 14:40 08.01.2021
4829 Clouds 2 1013 87 10000 3.6 360 14:20 08.01.2021
4830 Clouds 2 1013 87 10000 3.6 360 13:22 08.01.2021
4831 Clouds 2 1013 87 10000 3.6 360 12:52 08.01.2021
4832 Clouds 1 1013 93 10000 3.6 360 12:23 08.01.2021
4833 Clouds 1 1013 93 10000 3.6 360 11:59 08.01.2021
4834 Clouds 1 1013 93 10000 3.6 360 11:39 08.01.2021
4835 Clouds 1 1013 93 10000 3.09 10 11:19 08.01.2021
4836 Clouds 1 1013 93 10000 3.09 10 10:42 08.01.2021
4837 Clouds 1 1012 100 8000 3.09 360 09:54 08.01.2021
4838 Clouds 1 1012 100 8000 3.09 360 09:36 08.01.2021
4839 Snow 1 1012 100 7000 2.06 10 09:18 08.01.2021
4840 Snow 1 1011 93 7000 2.57 350 07:30 08.01.2021
4841 Snow 1 1011 93 7000 2.06 10 06:46 08.01.2021
4842 Clouds 1 1010 100 6000 3.09 20 00:44 08.01.2021
4843 Clouds 1 1009 100 3200 3.09 30 23:43 07.01.2021
4844 Mist 1 1009 100 5000 2.57 20 22:55 07.01.2021
4845 Mist 1 1009 100 5000 2.57 20 22:36 07.01.2021
4846 Drizzle 1 1009 100 4500 2.06 20 21:50 07.01.2021
4847 Drizzle 1 1009 100 4500 2.57 20 21:31 07.01.2021
4848 Drizzle 1 1009 100 4500 2.57 20 20:55 07.01.2021
4849 Drizzle 1 1009 100 4500 2.57 20 20:36 07.01.2021
4850 Drizzle 1 1009 100 4500 1.03 360 19:49 07.01.2021
4851 Rain 1 1009 100 4500 1.03 360 19:26 07.01.2021
4852 Drizzle 1 1009 100 4500 1.03 10 18:50 07.01.2021
4853 Snow 1 1009 100 5000 1.54 20 18:21 07.01.2021
4854 Drizzle 1 1009 100 6000 1.03 360 17:36 07.01.2021
4855 Clouds 2 1009 93 9000 1.54 330 17:18 07.01.2021
4856 Clouds 2 1009 93 9000 1.54 330 16:42 07.01.2021
4857 Clouds 2 1009 93 10000 1.54 350 16:18 07.01.2021
4858 Clouds 2 1009 93 9000 1.54 350 15:31 07.01.2021
4859 Clouds 2 1009 93 9000 1.54 350 15:31 07.01.2021
4860 Clouds 2 1009 93 9000 1.54 350 14:39 07.01.2021
4861 Clouds 2 1009 93 9000 1.54 350 14:20 07.01.2021
4862 Clouds 2 1009 93 9000 2.06 330 13:31 07.01.2021
4863 Clouds 2 1009 93 9000 1.54 310 12:57 07.01.2021
4864 Snow 1 1009 100 9000 1 320 12:29 07.01.2021
4865 Clouds 1 1010 93 8000 1.5 300 11:48 07.01.2021
4866 Snow 1 1010 94 8000 1.5 300 11:29 07.01.2021
4867 Clouds 1 1009 94 7000 1 280 10:39 07.01.2021
4868 Snow 1 1009 96 7000 1 280 10:19 07.01.2021
4869 Snow 0 1009 96 6000 1 290 09:44 07.01.2021
4870 Rain 0 1009 96 3500 1 310 09:18 07.01.2021
4871 Snow 0 1009 96 3300 1 300 08:25 07.01.2021
4872 Snow 0 1009 96 2800 1.5 280 07:44 07.01.2021
4873 Snow 0 1009 96 2800 1.5 280 06:52 07.01.2021
4874 Clouds 1 1010 96 4100 2.1 340 03:34 07.01.2021
4875 Snow 1 1011 96 5000 2.6 360 00:27 07.01.2021
4876 Clouds 1 1011 96 5000 2.6 360 23:36 06.01.2021
4877 Rain 1 1011 96 10000 3.1 360 22:37 06.01.2021
4878 Clouds 1 1012 96 10000 3.6 360 21:43 06.01.2021
4879 Snow 1 1012 96 10000 3.6 360 21:23 06.01.2021
4880 Snow 1 1012 96 10000 3.6 360 20:51 06.01.2021
4881 Clouds 1 1012 96 10000 3.6 360 20:24 06.01.2021
4882 Clouds 1 1012 95 6000 3.6 360 19:49 06.01.2021
4883 Clouds 1 1012 95 6000 3.6 360 19:30 06.01.2021
4884 Clouds 1 1012 96 6000 3.6 360 18:59 06.01.2021
4885 Snow 1 1012 96 6000 3.6 360 18:39 06.01.2021
4886 Snow 1 1012 96 5000 4.1 360 18:18 06.01.2021
4887 Snow 1 1013 96 3500 4.1 360 17:41 06.01.2021
4888 Mist 1 1013 96 3500 4.1 360 17:21 06.01.2021
4889 Snow 1 1013 96 3500 4.1 360 16:40 06.01.2021
4890 Snow 1 1013 96 3200 4.6 360 16:19 06.01.2021
4891 Snow 1 1013 96 4500 3.6 360 15:50 06.01.2021
4892 Snow 1 1013 96 4500 3.6 360 15:50 06.01.2021
4893 Snow 1 1013 97 2800 4.1 360 15:26 06.01.2021
4894 Snow 1 1014 97 3000 4.6 10 14:42 06.01.2021
4895 Snow 1 1014 97 3000 4.6 10 14:19 06.01.2021
4896 Snow 1 1015 97 3000 4.1 10 13:42 06.01.2021
4897 Snow 1 1015 97 3000 4.1 10 13:20 06.01.2021
4898 Snow 1 1015 96 3200 4.1 10 12:46 06.01.2021
4899 Snow 1 1015 89 4500 4.6 10 11:51 06.01.2021
4900 Snow 1 1015 84 4500 4.6 10 11:24 06.01.2021
4901 Clouds 1 1016 84 10000 4.1 10 10:46 06.01.2021
4902 Clouds 1 1016 84 10000 4.1 10 09:58 06.01.2021
4903 Clouds 1 1016 84 10000 4.1 10 09:40 06.01.2021
4904 Clouds 1 1016 86 10000 4.1 10 08:56 06.01.2021
4905 Clouds 1 1016 86 10000 4.6 30 08:26 06.01.2021
4906 Clouds 1 1016 86 10000 4.6 30 07:54 06.01.2021
4907 Clouds 1 1017 80 10000 5.1 30 06:46 06.01.2021
4908 Clouds 2 1018 80 10000 5.7 40 05:32 06.01.2021
4909 Clouds 1 1018 82 10000 5.1 30 04:32 06.01.2021
4910 Clouds 1 1019 80 10000 5.1 40 02:46 06.01.2021
4911 Clouds 1 1019 81 10000 5.1 40 02:23 06.01.2021
4912 Clouds 1 1019 84 10000 6.2 40 00:29 06.01.2021
4913 Clouds 1 1019 85 10000 6.2 40 23:28 05.01.2021
4914 Clouds 1 1020 86 10000 6.2 40 22:41 05.01.2021
4915 Clouds 2 1020 84 10000 7.7 50 22:20 05.01.2021
4916 Clouds 2 1020 84 10000 6.7 50 21:52 05.01.2021
4917 Clouds 2 1020 83 10000 7.2 50 20:41 05.01.2021
4918 Clouds 2 1020 83 10000 7.2 50 20:41 05.01.2021
4919 Clouds 2 1020 84 10000 7.2 50 20:23 05.01.2021
4920 Clouds 2 1020 84 10000 8.2 50 19:42 05.01.2021
4921 Clouds 2 1020 85 10000 8.2 50 19:21 05.01.2021
4922 Clouds 2 1019 93 10000 7.7 60 18:43 05.01.2021
4923 Clouds 2 1019 93 10000 7.7 60 18:24 05.01.2021
4924 Clouds 2 1019 93 10000 7.7 60 17:50 05.01.2021
4925 Clouds 3 1019 86 10000 7.2 60 17:27 05.01.2021
4926 Clouds 3 1019 86 10000 7.2 60 16:53 05.01.2021
4927 Clouds 3 1019 86 10000 7.7 50 16:22 05.01.2021
4928 Clouds 3 1019 86 10000 7.7 50 15:50 05.01.2021
4929 Clouds 3 1019 86 10000 7.7 50 15:25 05.01.2021
4930 Clouds 3 1020 86 10000 7.2 60 14:39 05.01.2021
4931 Clouds 3 1020 86 10000 7.2 60 13:50 05.01.2021
4932 Clouds 3 1020 86 10000 7.2 60 13:30 05.01.2021
4933 Clouds 3 1020 86 10000 8.7 60 12:49 05.01.2021
4934 Drizzle 3 1020 86 10000 8.7 60 12:28 05.01.2021
4935 Clouds 3 1020 86 10000 8.2 60 11:40 05.01.2021
4936 Clouds 3 1020 86 10000 8.2 60 11:20 05.01.2021
4937 Clouds 3 1020 86 10000 8.2 60 11:19 05.01.2021
4938 Clouds 2 1020 93 10000 7.2 60 10:43 05.01.2021
4939 Clouds 2 1020 93 10000 7.2 60 09:58 05.01.2021
4940 Clouds 2 1020 93 10000 7.2 60 09:37 05.01.2021
4941 Rain 2 1019 93 9000 8.2 50 08:41 05.01.2021
4942 Rain 2 1019 93 9000 8.2 50 08:18 05.01.2021
4943 Clouds 2 1019 93 10000 9.3 50 05:29 05.01.2021
4944 Rain 2 1020 93 10000 8.2 50 02:37 05.01.2021
4945 Clouds 1 1020 100 10000 7.2 40 00:22 05.01.2021
4946 Clouds 1 1020 100 10000 7.2 40 23:39 04.01.2021
4947 Clouds 1 1020 100 10000 7.2 40 23:20 04.01.2021
4948 Clouds 1 1020 83 9000 8.7 40 22:44 04.01.2021
4949 Snow 1 1020 82 9000 8.7 40 21:57 04.01.2021
4950 Snow 1 1020 82 10000 8.2 40 21:39 04.01.2021
4951 Snow 1 1020 82 10000 8.2 40 20:58 04.01.2021
4952 Rain 1 1020 82 10000 8.2 40 20:34 04.01.2021
4953 Clouds 2 1020 82 10000 8.2 40 19:59 04.01.2021
4954 Clouds 2 1020 82 10000 8.7 50 19:38 04.01.2021
4955 Clouds 2 1020 83 10000 8.7 50 19:18 04.01.2021
4956 Clouds 2 1020 83 10000 8.7 50 18:40 04.01.2021
4957 Clouds 2 1020 80 10000 9.8 50 17:47 04.01.2021
4958 Clouds 2 1020 80 10000 9.8 50 17:28 04.01.2021
4959 Clouds 2 1020 80 10000 9.8 50 16:57 04.01.2021
4960 Clouds 2 1020 82 10000 8.2 50 16:38 04.01.2021
4961 Clouds 2 1020 82 10000 8.2 50 16:20 04.01.2021
4962 Clouds 2 1020 82 10000 8.2 50 15:41 04.01.2021
4963 Clouds 2 1020 81 10000 8.7 40 14:54 04.01.2021
4964 Clouds 2 1020 82 10000 8.7 40 13:56 04.01.2021
4965 Clouds 2 1020 82 10000 8.7 40 13:35 04.01.2021
4966 Drizzle 1 1021 82 9000 8.7 40 12:53 04.01.2021
4967 Clouds 1 1021 86 10000 8.7 40 12:27 04.01.2021
4968 Clouds 1 1021 86 10000 7.7 40 11:40 04.01.2021
4969 Clouds 1 1021 86 10000 7.7 40 11:18 04.01.2021
4970 Clouds 1 1021 81 10000 8.2 40 10:44 04.01.2021
4971 Clouds 1 1021 82 10000 8.2 40 10:22 04.01.2021
4972 Clouds 1 1021 82 10000 7.7 40 09:36 04.01.2021
4973 Clouds 1 1021 82 10000 7.7 40 09:18 04.01.2021
4974 Clouds 2 1021 82 10000 9.3 40 08:22 04.01.2021
4975 Clouds 2 1020 93 10000 7.7 40 07:47 04.01.2021
4976 Clouds 3 1020 86 10000 9.8 50 05:37 04.01.2021
4977 Clouds 3 1020 86 10000 9.8 50 05:19 04.01.2021
4978 Clouds 3 1020 86 10000 8.2 50 02:24 04.01.2021
4979 Clouds 3 1020 93 10000 8.7 50 00:20 04.01.2021
4980 Clouds 3 1020 93 10000 7.7 60 23:37 03.01.2021
4981 Clouds 3 1020 93 10000 7.7 60 22:58 03.01.2021
4982 Clouds 4 1019 86 10000 8.7 50 22:39 03.01.2021
4983 Clouds 4 1019 86 10000 8.7 50 22:21 03.01.2021
4984 Clouds 4 1019 86 10000 9.3 50 21:40 03.01.2021
4985 Clouds 4 1019 86 10000 9.3 50 21:22 03.01.2021
4986 Clouds 3 1019 93 10000 8.7 50 20:40 03.01.2021
4987 Clouds 3 1019 93 10000 8.7 50 20:18 03.01.2021
4988 Clouds 3 1019 86 10000 7.7 50 19:44 03.01.2021
4989 Clouds 3 1019 86 10000 7.7 50 19:24 03.01.2021
4990 Clouds 3 1019 86 10000 9.3 50 18:45 03.01.2021
4991 Clouds 3 1019 86 10000 9.3 50 18:23 03.01.2021
4992 Clouds 3 1019 86 10000 8.2 50 17:53 03.01.2021
4993 Clouds 3 1019 86 10000 8.2 50 17:27 03.01.2021
4994 Clouds 3 1019 86 10000 8.2 50 16:55 03.01.2021
4995 Clouds 3 1019 86 10000 8.2 50 16:36 03.01.2021
4996 Clouds 3 1019 86 10000 8.2 50 16:18 03.01.2021
4997 Clouds 3 1018 86 10000 6.7 40 15:40 03.01.2021
4998 Clouds 3 1018 86 10000 7.2 40 14:59 03.01.2021
4999 Clouds 3 1019 86 10000 7.2 40 14:33 03.01.2021
5000 Clouds 3 1019 86 10000 7.2 40 13:52 03.01.2021
5001 Clouds 3 1019 86 10000 7.7 50 13:24 03.01.2021
5002 Clouds 3 1019 86 10000 7.7 50 12:55 03.01.2021
5003 Clouds 2 1019 93 10000 6.2 60 11:44 03.01.2021
5004 Clouds 2 1019 93 10000 6.2 60 11:26 03.01.2021
5005 Clouds 2 1019 93 10000 5.7 60 10:56 03.01.2021
5006 Clouds 2 1019 93 10000 5.7 60 10:31 03.01.2021
5007 Clouds 3 1018 93 10000 5.1 70 09:43 03.01.2021
5008 Clouds 3 1018 93 10000 5.1 70 09:23 03.01.2021
5009 Clouds 3 1018 93 8000 4.6 80 07:59 03.01.2021
5010 Mist 3 1017 100 5000 3.6 60 06:51 03.01.2021
5011 Clouds 3 1017 100 3700 2.6 80 02:59 03.01.2021
5012 Clouds 3 1017 100 3000 2.1 70 02:22 03.01.2021
5013 Clouds 3 1016 100 1500 2.1 80 00:25 03.01.2021
5014 Mist 3 1016 100 2500 1.5 90 23:42 02.01.2021
5015 Mist 3 1016 100 2500 1.5 90 23:18 02.01.2021
5016 Mist 4 1016 93 3000 1 90 22:45 02.01.2021
5017 Mist 4 1016 93 3000 1 90 22:27 02.01.2021
5018 Mist 4 1015 93 2500 2.6 160 21:38 02.01.2021
5019 Mist 4 1015 93 2500 2.6 160 21:20 02.01.2021
5020 Mist 4 1015 100 2000 1 130 20:41 02.01.2021
5021 Mist 4 1015 100 2000 1 130 20:21 02.01.2021
5022 Mist 4 1014 100 4000 1 120 19:44 02.01.2021
5023 Mist 4 1014 100 4000 1 120 19:20 02.01.2021
5024 Clouds 4 1014 100 7000 1 140 18:43 02.01.2021
5025 Clouds 4 1014 100 7000 1 140 18:25 02.01.2021
5026 Mist 4 1013 93 5000 4.71 81 17:46 02.01.2021
5027 Mist 4 1013 93 5000 4.89 69 17:26 02.01.2021
5028 Mist 4 1013 93 5000 0.5 220 16:42 02.01.2021
5029 Mist 5 1013 93 5000 1.5 220 16:21 02.01.2021
5030 Mist 4 1013 100 5000 2.1 230 15:43 02.01.2021
5031 Mist 4 1013 100 5000 2.1 230 15:25 02.01.2021
5032 Mist 4 1012 100 5000 2.1 230 14:37 02.01.2021
5033 Mist 4 1012 100 5000 2.1 230 14:18 02.01.2021
5034 Mist 4 1012 100 5000 2.6 210 13:40 02.01.2021
5035 Mist 4 1012 100 4500 2.6 210 12:54 02.01.2021
5036 Mist 4 1012 100 4500 2.6 210 12:32 02.01.2021
5037 Mist 4 1012 100 4500 2.6 210 11:59 02.01.2021
5038 Mist 4 1012 93 4000 2.6 220 11:25 02.01.2021
5039 Mist 4 1012 93 4000 2.6 220 10:58 02.01.2021
5040 Mist 4 1011 93 2500 3.1 220 10:34 02.01.2021
5041 Mist 4 1011 93 2500 3.1 220 09:59 02.01.2021
5042 Mist 4 1010 93 3000 4.1 220 09:39 02.01.2021
5043 Mist 4 1010 93 3000 4.1 220 09:18 02.01.2021
5044 Mist 4 1010 93 4000 3.6 230 08:41 02.01.2021
5045 Mist 4 1010 93 4000 3.6 230 07:55 02.01.2021
5046 Drizzle 4 1010 93 4000 3.6 210 07:22 02.01.2021
5047 Drizzle 4 1010 93 4000 3.6 210 06:56 02.01.2021
5048 Mist 4 1009 93 4500 3.6 220 05:54 02.01.2021
5049 Rain 4 1008 93 6000 3.6 220 01:37 02.01.2021
5050 Clouds 4 1008 93 7000 4.1 220 00:38 02.01.2021
5051 Clouds 4 1008 93 7000 4.1 220 23:58 01.01.2021
5052 Mist 3 1008 100 5000 3.1 220 23:24 01.01.2021
5053 Clouds 4 1007 93 6000 4.1 220 22:52 01.01.2021
5054 Clouds 4 1007 93 6000 4.1 220 22:27 01.01.2021
5055 Clouds 4 1007 93 6000 4.1 220 22:00 01.01.2021
5056 Mist 4 1007 93 5000 4.1 220 21:41 01.01.2021
5057 Mist 4 1007 93 5000 4.1 220 21:19 01.01.2021
5058 Mist 4 1007 93 5000 3.6 220 20:48 01.01.2021
5059 Mist 4 1007 93 5000 3.6 220 20:18 01.01.2021
5060 Mist 4 1006 93 5000 3.6 220 19:42 01.01.2021
5061 Mist 4 1006 93 5000 3.6 220 19:22 01.01.2021
5062 Mist 3 1006 100 3700 3.6 220 18:45 01.01.2021
5063 Mist 3 1006 100 3700 3.6 220 18:23 01.01.2021
5064 Mist 3 1006 100 2500 3.6 220 17:47 01.01.2021
5065 Mist 3 1006 100 2500 3.6 220 17:23 01.01.2021
5066 Mist 3 1005 100 3500 3.1 220 16:50 01.01.2021
5067 Mist 3 1005 100 3500 3.1 220 16:25 01.01.2021
5068 Mist 3 1005 100 5000 3.6 220 15:41 01.01.2021
5069 Mist 3 1005 100 3200 3.1 220 14:48 01.01.2021
5070 Drizzle 3 1005 100 3200 3.1 220 14:27 01.01.2021
5071 Mist 2 1005 100 2000 3.1 210 13:40 01.01.2021
5072 Drizzle 2 1005 100 2000 2.6 230 12:57 01.01.2021
5073 Drizzle 2 1005 100 2000 2.6 230 12:36 01.01.2021
5074 Mist 2 1005 93 2500 2.6 210 11:43 01.01.2021
5075 Mist 2 1005 93 2500 2.6 210 11:23 01.01.2021
5076 Mist 2 1005 93 2500 2.6 210 10:59 01.01.2021
5077 Snow 1 1005 100 2000 3.1 220 10:33 01.01.2021
5078 Snow 1 1004 100 1800 3.6 220 09:45 01.01.2021
5079 Mist 1 1004 100 1800 3.6 220 08:52 01.01.2021
5080 Mist 1 1004 100 2000 3.1 220 08:25 01.01.2021
5081 Clouds 2 1003 100 3900 1 200 04:52 01.01.2021
5082 Clouds 2 1003 100 4500 3.1 230 02:26 01.01.2021
5083 Clouds 2 1003 100 3200 3.1 220 00:41 01.01.2021
5084 Clouds 2 1003 100 3200 3.1 220 00:21 01.01.2021
5085 Drizzle 2 1002 100 5000 3.6 220 23:22 31.12.2020
5086 Drizzle 2 1002 100 6000 4.1 220 22:56 31.12.2020
5087 Drizzle 2 1002 100 6000 4.1 220 22:38 31.12.2020
5088 Drizzle 2 1002 100 6000 4.1 220 22:19 31.12.2020
5089 Rain 2 1002 93 10000 5.1 210 21:46 31.12.2020
5090 Clouds 2 1002 93 10000 5.1 210 21:23 31.12.2020
5091 Clouds 3 1001 86 10000 4.6 210 20:49 31.12.2020
5092 Drizzle 3 1001 86 10000 4.6 210 20:18 31.12.2020
5093 Clouds 3 1001 86 10000 4.6 210 19:46 31.12.2020
5094 Clouds 3 1001 86 10000 4.6 210 19:24 31.12.2020
5095 Clouds 3 1001 86 10000 4.1 220 18:44 31.12.2020
5096 Rain 3 1001 86 10000 4.1 220 18:24 31.12.2020
5097 Clouds 3 1001 93 10000 5.1 210 17:44 31.12.2020
5098 Rain 3 1001 93 10000 5.1 210 17:23 31.12.2020
5099 Clouds 3 1001 93 10000 4.6 220 16:43 31.12.2020
5100 Clouds 3 1001 93 10000 4.6 220 16:22 31.12.2020
5101 Rain 3 1001 93 10000 4.6 220 15:46 31.12.2020
5102 Rain 4 1001 80 10000 5.1 210 15:22 31.12.2020
5103 Rain 4 1001 80 10000 5.1 210 14:56 31.12.2020
5104 Rain 4 1001 86 10000 5.1 210 14:38 31.12.2020
5105 Rain 4 1001 86 10000 4.6 210 14:20 31.12.2020
5106 Rain 3 1001 93 10000 5.1 210 13:39 31.12.2020
5107 Rain 3 1001 93 10000 5.1 210 13:20 31.12.2020
5108 Rain 3 1001 93 10000 5.1 210 12:53 31.12.2020
5109 Rain 3 1001 93 10000 5.7 210 12:35 31.12.2020
5110 Rain 3 1001 93 9000 4.6 210 11:52 31.12.2020
5111 Clouds 3 1001 93 9000 4.6 210 11:32 31.12.2020
5112 Clouds 3 1001 86 8000 4.6 220 10:50 31.12.2020
5113 Clouds 3 1001 86 8000 4.6 220 10:29 31.12.2020
5114 Clouds 3 1001 86 8000 4.6 220 09:58 31.12.2020
5115 Clouds 3 1001 93 6000 4.6 220 09:36 31.12.2020
5116 Clouds 3 1001 93 6000 4.6 220 08:51 31.12.2020
5117 Clouds 3 1000 93 6000 5.1 220 08:33 31.12.2020
5118 Clouds 3 1000 93 6000 5.1 220 07:59 31.12.2020
5119 Clouds 3 1000 93 6000 5.7 220 07:32 31.12.2020
5120 Clouds 3 1000 93 6000 5.7 220 06:29 31.12.2020
5121 Clouds 3 1000 93 7000 5.7 220 05:29 31.12.2020
5122 Clouds 3 1000 93 9000 5.1 220 02:57 31.12.2020
5123 Clouds 4 1000 86 10000 5.7 230 02:25 31.12.2020
5124 Clouds 4 1000 93 10000 5.7 230 01:46 31.12.2020
5125 Clouds 4 1000 93 10000 5.7 230 01:27 31.12.2020
5126 Clouds 4 1000 93 10000 5.7 230 01:27 31.12.2020
5127 Clouds 4 1000 93 10000 5.7 220 00:48 31.12.2020
5128 Clouds 4 1000 93 10000 5.7 220 23:53 30.12.2020
5129 Clouds 4 999 93 10000 5.7 220 23:20 30.12.2020
5130 Clouds 3 999 93 7000 5.7 220 22:51 30.12.2020
5131 Clouds 3 999 93 7000 5.7 220 22:31 30.12.2020
5132 Clouds 3 999 93 8000 5.1 220 21:47 30.12.2020
5133 Clouds 3 999 93 8000 5.1 220 21:25 30.12.2020
5134 Clouds 4 998 93 8000 6.7 220 20:51 30.12.2020
5135 Clouds 4 998 93 8000 6.7 220 20:22 30.12.2020
5136 Rain 4 998 93 9000 5.1 210 19:41 30.12.2020
5137 Clouds 4 998 93 9000 5.7 220 19:23 30.12.2020
5138 Drizzle 4 998 93 8000 5.1 220 18:49 30.12.2020
5139 Drizzle 4 998 93 8000 5.1 220 18:30 30.12.2020
5140 Drizzle 4 998 93 8000 5.1 220 17:52 30.12.2020
5141 Mist 4 997 93 5000 4.1 230 17:33 30.12.2020
5142 Rain 4 997 93 5000 4.1 230 16:59 30.12.2020
5143 Mist 4 997 93 5000 4.1 230 16:35 30.12.2020
5144 Rain 4 997 93 7000 6.2 220 15:48 30.12.2020
5145 Clouds 4 996 93 7000 5.7 230 15:26 30.12.2020
5146 Rain 4 996 93 7000 6.2 230 14:44 30.12.2020
5147 Rain 4 996 93 7000 6.2 230 14:25 30.12.2020
5148 Rain 4 996 93 7000 6.7 230 13:48 30.12.2020
5149 Clouds 4 996 93 7000 6.7 220 12:47 30.12.2020
5150 Clouds 4 996 93 7000 6.7 220 12:22 30.12.2020
5151 Mist 3 995 100 5000 5.7 220 11:39 30.12.2020
5152 Rain 3 995 100 5000 5.7 220 11:20 30.12.2020
5153 Mist 3 995 100 5000 5.7 220 10:54 30.12.2020
5154 Mist 3 995 100 3500 5.7 220 10:35 30.12.2020
5155 Mist 3 995 100 3500 5.7 220 09:53 30.12.2020
5156 Mist 3 994 100 4500 5.7 230 09:35 30.12.2020
5157 Rain 3 994 100 4500 6.2 230 08:35 30.12.2020
5158 Rain 4 993 93 8000 6.2 220 07:32 30.12.2020
5159 Rain 4 993 93 8000 6.7 220 06:53 30.12.2020
5160 Rain 4 992 93 10000 6.2 230 06:32 30.12.2020
5161 Rain 4 992 93 10000 6.2 230 05:45 30.12.2020
5162 Rain 4 992 93 7000 7.2 220 05:27 30.12.2020
5163 Clouds 4 992 93 6000 5.1 220 03:28 30.12.2020
5164 Rain 4 991 93 4400 5.7 220 02:45 30.12.2020
5165 Clouds 4 991 93 4400 5.7 220 02:25 30.12.2020
5166 Clouds 4 991 93 5000 4.6 230 01:34 30.12.2020
5167 Clouds 3 991 100 5000 4.1 220 00:51 30.12.2020
5168 Clouds 3 991 100 5000 4.1 220 00:32 30.12.2020
5169 Clouds 3 991 100 5000 4.1 220 23:57 29.12.2020
5170 Clouds 3 990 100 6000 4.6 220 23:39 29.12.2020
5171 Clouds 3 990 100 6000 4.6 220 23:18 29.12.2020
5172 Clouds 2 990 100 6000 4.1 220 22:43 29.12.2020
5173 Clouds 2 990 100 6000 4.1 220 22:23 29.12.2020
5174 Clouds 2 990 100 6000 4.1 220 21:50 29.12.2020
5175 Clouds 2 990 100 6000 4.1 220 21:32 29.12.2020
5176 Clouds 2 989 100 6000 5.7 220 20:54 29.12.2020
5177 Rain 1 988 100 5000 5.1 220 20:36 29.12.2020
5178 Drizzle 1 988 100 5000 5.1 220 20:18 29.12.2020
5179 Clouds 2 988 93 5000 5.1 220 19:37 29.12.2020
5180 Drizzle 2 988 93 5000 5.1 220 19:19 29.12.2020
5181 Clouds 2 988 100 5000 4.6 230 18:44 29.12.2020
5182 Mist 2 987 100 3000 4.1 220 18:24 29.12.2020
5183 Mist 2 987 100 3000 4.1 220 17:44 29.12.2020
5184 Clouds 2 986 93 8000 3.1 230 17:20 29.12.2020
5185 Clouds 2 986 93 8000 3.1 230 16:37 29.12.2020
5186 Clouds 2 986 93 8000 2.6 240 16:18 29.12.2020
5187 Clouds 2 985 93 6000 3.6 240 15:37 29.12.2020
5188 Clouds 2 985 93 6000 3.6 240 14:59 29.12.2020
5189 Clouds 2 985 93 6000 3.6 240 14:36 29.12.2020
5190 Mist 2 984 93 3800 3.1 240 14:18 29.12.2020
5191 Mist 1 984 100 2500 2.6 240 13:48 29.12.2020
5192 Rain 1 984 100 2200 2.1 220 13:21 29.12.2020
5193 Mist 1 983 100 2000 1 220 12:38 29.12.2020
5194 Rain 1 983 100 2000 1 220 12:20 29.12.2020
5195 Mist 1 983 100 2000 1 220 11:54 29.12.2020
5196 Mist 0 983 91 2100 1.5 190 11:31 29.12.2020
5197 Mist 0 982 90 1100 0.5 150 10:34 29.12.2020
5198 Snow 0 981 90 1300 1 70 09:49 29.12.2020
5199 Snow 0 981 91 1300 1 70 09:25 29.12.2020
5200 Snow 0 981 91 1300 1 70 08:54 29.12.2020
5201 Snow 0 981 91 1500 1 70 08:33 29.12.2020
5202 Snow 0 981 95 1500 1.5 70 07:27 29.12.2020
5203 Snow 0 981 94 2500 1.5 80 06:46 29.12.2020
5204 Snow 1 981 96 2700 2.1 70 05:32 29.12.2020
5205 Clouds 2 981 93 10000 2.6 60 00:56 29.12.2020
5206 Clouds 2 981 93 10000 2.1 70 00:23 29.12.2020
5207 Clouds 2 981 93 10000 2.1 100 23:36 28.12.2020
5208 Clouds 2 981 93 10000 2.1 80 22:30 28.12.2020
5209 Clouds 2 981 100 10000 1.5 100 21:47 28.12.2020
5210 Clouds 2 981 100 10000 1.5 100 21:28 28.12.2020
5211 Clouds 2 981 93 10000 2.1 80 20:46 28.12.2020
5212 Clouds 2 981 93 10000 2.1 80 20:28 28.12.2020
5213 Clouds 2 981 93 10000 2.1 80 19:58 28.12.2020
5214 Fog 2 980 100 10000 2.1 60 19:38 28.12.2020
5215 Fog 2 980 100 10000 2.1 60 19:20 28.12.2020
5216 Clouds 2 981 100 10000 3.38 144 18:43 28.12.2020
5217 Clouds 2 981 100 10000 4.93 151 18:21 28.12.2020
5218 Clouds 2 981 100 10000 4.93 151 17:39 28.12.2020
5219 Clouds 3 980 93 10000 1 130 17:18 28.12.2020
5220 Clouds 4 980 93 10000 1.5 180 16:32 28.12.2020
5221 Clouds 4 980 93 10000 1.5 180 15:58 28.12.2020
5222 Clouds 4 980 93 10000 1.5 180 15:36 28.12.2020
5223 Clouds 4 979 93 10000 3.1 190 14:43 28.12.2020
5224 Clouds 4 979 93 10000 2.6 160 13:51 28.12.2020
5225 Clouds 4 979 93 10000 2.6 160 13:23 28.12.2020
5226 Rain 4 979 93 10000 2.1 160 12:38 28.12.2020
5227 Rain 4 979 93 10000 2.1 160 12:18 28.12.2020
5228 Rain 3 979 100 10000 1.5 140 11:42 28.12.2020
5229 Clouds 3 979 100 10000 1.5 140 11:18 28.12.2020
5230 Drizzle 3 978 100 8000 2.1 140 10:41 28.12.2020
5231 Mist 3 978 100 4000 2.6 140 10:23 28.12.2020
5232 Mist 3 978 100 3200 2.6 150 09:45 28.12.2020
5233 Mist 3 978 100 3200 2.6 150 09:18 28.12.2020
5234 Drizzle 3 977 100 8000 3.1 150 06:55 28.12.2020
5235 Drizzle 3 977 100 8000 3.6 170 05:57 28.12.2020
5236 Clouds 3 976 93 7000 4.6 180 03:59 28.12.2020
5237 Rain 3 976 93 8000 4.6 180 01:57 28.12.2020
5238 Rain 3 976 93 6000 6.7 170 00:29 28.12.2020
5239 Rain 3 976 93 10000 6.7 170 23:45 27.12.2020
5240 Rain 3 976 93 10000 6.7 170 23:18 27.12.2020
5241 Clouds 3 976 93 10000 6.7 160 21:56 27.12.2020
5242 Rain 3 977 93 10000 7.7 170 21:25 27.12.2020
5243 Clouds 4 977 86 10000 7.7 170 20:42 27.12.2020
5244 Clouds 4 977 86 10000 8.7 170 19:25 27.12.2020
5245 Rain 4 977 86 10000 8.7 170 18:55 27.12.2020
5246 Rain 4 977 86 10000 8.2 180 18:37 27.12.2020
5247 Rain 4 977 86 10000 8.2 180 18:18 27.12.2020
5248 Drizzle 4 978 86 10000 9.3 180 17:43 27.12.2020
5249 Rain 4 978 86 10000 9.3 180 17:21 27.12.2020
5250 Rain 3 978 93 10000 9.3 170 16:32 27.12.2020
5251 Rain 3 979 93 8000 9.8 170 15:50 27.12.2020
5252 Rain 3 979 93 8000 9.8 170 14:59 27.12.2020
5253 Rain 3 979 93 8000 11.8 170 14:38 27.12.2020
5254 Rain 3 979 93 10000 9.8 170 13:55 27.12.2020
5255 Rain 4 981 86 9000 9.8 180 13:22 27.12.2020
5256 Rain 4 983 86 10000 10.8 180 12:43 27.12.2020
5257 Rain 4 983 86 10000 10.8 180 12:43 27.12.2020
5258 Rain 4 983 86 10000 10.8 180 11:56 27.12.2020
5259 Drizzle 5 984 80 9000 10.3 180 11:35 27.12.2020
5260 Drizzle 5 984 80 9000 10.3 180 10:51 27.12.2020
5261 Rain 4 985 86 10000 10.3 180 10:24 27.12.2020
5262 Rain 4 986 86 10000 11.3 180 09:46 27.12.2020
5263 Rain 3 989 86 9000 9.3 190 08:39 27.12.2020
5264 Rain 3 989 86 9000 9.3 190 08:20 27.12.2020
5265 Rain 4 990 80 10000 10.8 190 07:26 27.12.2020
5266 Rain 5 992 75 10000 10.8 190 05:44 27.12.2020
5267 Clouds 5 995 86 10000 8.7 200 03:59 27.12.2020
5268 Clouds 4 997 93 10000 8.7 200 03:19 27.12.2020
5269 Clouds 5 1000 86 10000 8.7 200 01:34 27.12.2020
5270 Clouds 5 1002 86 10000 9.3 210 00:20 27.12.2020
5271 Clouds 5 1003 86 10000 9.3 210 23:27 26.12.2020
5272 Drizzle 4 1005 100 6000 8.2 210 22:50 26.12.2020
5273 Drizzle 4 1005 100 6000 8.2 210 22:21 26.12.2020
5274 Drizzle 4 1005 100 6000 8.2 210 21:59 26.12.2020
5275 Clouds 4 1006 93 10000 8.7 210 21:40 26.12.2020
5276 Clouds 4 1006 93 10000 8.7 210 21:22 26.12.2020
5277 Drizzle 4 1008 93 8000 7.7 210 20:41 26.12.2020
5278 Drizzle 4 1008 93 8000 7.7 210 20:19 26.12.2020
5279 Clouds 4 1009 86 10000 7.7 210 19:27 26.12.2020
5280 Clouds 4 1010 86 10000 6.7 210 18:53 26.12.2020
5281 Clouds 4 1010 86 10000 6.7 210 18:29 26.12.2020
5282 Clouds 4 1011 86 10000 7.7 220 17:42 26.12.2020
5283 Clouds 4 1011 86 10000 7.7 220 17:21 26.12.2020
5284 Clouds 4 1012 86 10000 7.7 220 16:37 26.12.2020
5285 Clouds 5 1013 86 10000 7.2 220 15:38 26.12.2020
5286 Clouds 5 1013 86 10000 7.2 220 15:19 26.12.2020
5287 Clouds 4 1014 86 10000 7.2 220 14:29 26.12.2020
5288 Clouds 4 1014 86 10000 7.2 220 13:54 26.12.2020
5289 Clouds 3 1015 93 10000 7.7 220 13:32 26.12.2020
5290 Clouds 3 1016 93 10000 6.7 220 12:50 26.12.2020
5291 Clouds 3 1016 93 10000 6.7 220 12:30 26.12.2020
5292 Clouds 3 1017 93 10000 5.7 220 11:51 26.12.2020
5293 Clouds 3 1017 93 10000 5.7 220 11:24 26.12.2020
5294 Clouds 3 1017 93 10000 5.7 220 10:55 26.12.2020
5295 Clouds 3 1017 86 10000 5.1 220 10:28 26.12.2020
5296 Clouds 3 1017 86 10000 5.1 220 09:55 26.12.2020
5297 Clouds 2 1018 93 10000 4.6 230 09:32 26.12.2020
5298 Clouds 2 1018 93 10000 3.6 220 08:41 26.12.2020
5299 Clouds 2 1018 93 10000 3.6 220 08:18 26.12.2020
5300 Clouds 2 1018 93 10000 4.1 220 07:20 26.12.2020
5301 Clouds 2 1020 100 10000 3.1 250 03:53 26.12.2020
5302 Clouds 1 1020 72 10000 3.1 210 02:34 26.12.2020
5303 Clouds 0 1021 62 9000 3.1 210 00:28 26.12.2020
5304 Clouds 1 1021 62 10000 3.1 210 23:46 25.12.2020
5305 Clouds 1 1021 60 10000 3.1 210 23:27 25.12.2020
5306 Clouds 0 1021 60 10000 2.1 200 22:51 25.12.2020
5307 Clouds 0 1021 60 10000 2.1 200 22:25 25.12.2020
5308 Clouds 0 1021 60 10000 2.1 200 21:41 25.12.2020
5309 Clouds -1 1022 92 10000 2.6 220 21:23 25.12.2020
5310 Clouds -1 1022 92 10000 2.1 210 20:39 25.12.2020
5311 Clouds -1 1022 92 10000 2.1 210 19:54 25.12.2020
5312 Clouds 0 1022 60 10000 1.5 240 19:36 25.12.2020
5313 Clouds 0 1022 61 10000 1.5 250 18:43 25.12.2020
5314 Clouds 0 1022 60 10000 1.5 250 18:25 25.12.2020
5315 Clouds 1 1022 74 10000 1 250 17:35 25.12.2020
5316 Clouds 1 1022 74 10000 1 250 16:51 25.12.2020
5317 Clouds 4 1022 60 10000 1 340 16:21 25.12.2020
5318 Clouds 4 1021 60 10000 2.6 340 15:49 25.12.2020
5319 Clouds 4 1021 60 10000 2.6 340 15:26 25.12.2020
5320 Clouds 4 1021 60 10000 2.6 350 14:32 25.12.2020
5321 Clouds 3 1022 74 10000 1.5 270 13:49 25.12.2020
5322 Clouds 3 1022 74 10000 1.5 270 13:26 25.12.2020
5323 Clouds 3 1022 74 10000 1.5 270 12:58 25.12.2020
5324 Clouds 3 1022 74 10000 1 320 12:27 25.12.2020
5325 Clouds 1 1021 80 10000 4.26 17 11:48 25.12.2020
5326 Clouds 1 1021 80 10000 3.84 30 11:24 25.12.2020
5327 Clouds 1 1021 80 10000 3.84 30 11:24 25.12.2020
5328 Clouds -1 1021 92 10000 0.5 310 10:47 25.12.2020
5329 Clouds -1 1021 92 10000 0.5 310 10:19 25.12.2020
5330 Clouds -1 1020 92 10000 1 290 09:26 25.12.2020
5331 Clouds -1 1019 92 10000 0.5 330 08:40 25.12.2020
5332 Clouds -1 1019 92 10000 1.5 290 07:35 25.12.2020
5333 Clouds -1 1018 92 10000 1.5 310 06:44 25.12.2020
5334 Clear 2 1017 62 10000 4.1 10 02:36 25.12.2020
5335 Clear 2 1016 63 10000 5.1 10 00:38 25.12.2020
5336 Clear 2 1015 64 10000 4.6 10 23:40 24.12.2020
5337 Clear 2 1015 65 10000 4.6 10 23:21 24.12.2020
5338 Clear 2 1015 66 10000 4.6 10 22:26 24.12.2020
5339 Clear 3 1014 86 10000 5.1 10 21:54 24.12.2020
5340 Clear 3 1014 86 10000 5.1 10 21:32 24.12.2020
5341 Clouds 4 1013 86 10000 5.1 10 20:19 24.12.2020
5342 Clouds 4 1011 93 10000 4.6 30 18:22 24.12.2020
5343 Clouds 4 1011 93 10000 4.6 30 17:58 24.12.2020
5344 Clouds 4 1011 93 10000 4.6 30 17:36 24.12.2020
5345 Clouds 4 1009 86 10000 4.6 10 16:28 24.12.2020
5346 Clouds 4 1009 86 10000 4.6 10 15:58 24.12.2020
5347 Clouds 5 1008 86 10000 5.7 360 15:40 24.12.2020
5348 Clouds 5 1008 86 10000 5.7 360 15:18 24.12.2020
5349 Clouds 6 1007 87 10000 3.6 340 14:42 24.12.2020
5350 Clouds 6 1007 87 10000 3.6 340 14:23 24.12.2020
5351 Clouds 6 1007 87 10000 3.6 350 13:39 24.12.2020
5352 Clouds 6 1007 87 10000 3.6 350 13:20 24.12.2020
5353 Clouds 5 1007 86 10000 2.6 340 12:41 24.12.2020
5354 Clouds 5 1007 86 10000 2.6 340 12:20 24.12.2020
5355 Clouds 5 1006 86 10000 3.1 350 11:39 24.12.2020
5356 Clouds 5 1006 86 10000 3.1 350 11:20 24.12.2020
5357 Clouds 4 1006 100 10000 2.6 340 10:51 24.12.2020
5358 Clouds 4 1006 100 10000 2.6 340 10:32 24.12.2020
5359 Clouds 4 1005 100 10000 2.1 320 09:52 24.12.2020
5360 Clouds 4 1005 100 10000 2.1 320 09:24 24.12.2020
5361 Clouds 4 1005 93 10000 1 320 08:18 24.12.2020
5362 Clouds 4 1004 93 8000 1 320 07:39 24.12.2020
5363 Clouds 3 1004 100 8000 2.1 310 06:55 24.12.2020
5364 Clouds 4 1004 93 6000 5.1 20 04:28 24.12.2020
5365 Rain 4 1004 93 5000 5.7 30 01:54 24.12.2020
5366 Rain 4 1004 93 5000 5.7 30 01:32 24.12.2020
5367 Rain 4 1004 100 3200 6.7 40 00:56 24.12.2020
5368 Rain 4 1004 93 10000 7.7 50 00:21 24.12.2020
5369 Rain 4 1004 100 8000 6.7 60 23:44 23.12.2020
5370 Rain 4 1004 100 8000 6.7 60 23:23 23.12.2020
5371 Rain 4 1004 100 7000 7.2 60 22:52 23.12.2020
5372 Rain 4 1004 100 7000 7.2 60 22:29 23.12.2020
5373 Rain 4 1004 100 5000 7.7 60 21:49 23.12.2020
5374 Rain 4 1004 100 5000 7.7 60 21:25 23.12.2020
5375 Rain 5 1005 100 3700 6.7 50 20:50 23.12.2020
5376 Rain 5 1005 100 3700 6.7 50 20:31 23.12.2020
5377 Rain 5 1005 93 2800 6.2 60 19:59 23.12.2020
5378 Rain 5 1005 93 2800 6.2 60 19:38 23.12.2020
5379 Rain 5 1005 93 2800 6.2 60 19:19 23.12.2020
5380 Rain 5 1005 93 2800 6.2 60 18:46 23.12.2020
5381 Rain 4 1006 100 3000 5.7 70 18:21 23.12.2020
5382 Rain 4 1006 100 3000 5.7 70 17:39 23.12.2020
5383 Rain 4 1007 100 3700 5.7 70 17:20 23.12.2020
5384 Rain 4 1008 100 3000 4.1 70 16:43 23.12.2020
5385 Rain 4 1008 100 3000 4.1 70 16:25 23.12.2020
5386 Rain 4 1008 100 3000 4.1 70 15:54 23.12.2020
5387 Mist 4 1008 100 3000 4.1 70 15:29 23.12.2020
5388 Mist 4 1009 100 2800 2.6 60 14:59 23.12.2020
5389 Mist 4 1010 100 2000 2.1 70 14:39 23.12.2020
5390 Rain 4 1010 100 2000 2.1 70 14:20 23.12.2020
5391 Rain 2 1011 100 1500 2.6 80 13:43 23.12.2020
5392 Mist 2 1011 100 1500 2.6 80 13:19 23.12.2020
5393 Mist 2 1011 100 1500 2.6 80 12:52 23.12.2020
5394 Rain 1 1011 100 500 2.1 90 12:28 23.12.2020
5395 Fog 3 1012 100 500 3.6 140 11:49 23.12.2020
5396 Fog 3 1012 100 500 3.6 140 11:20 23.12.2020
5397 Mist 1 1012 100 2500 2.6 130 10:50 23.12.2020
5398 Snow 1 1012 100 2500 2.6 130 10:31 23.12.2020
5399 Fog 0 1012 83 300 1.5 110 09:36 23.12.2020
5400 Fog 1 1013 100 600 0.5 0 08:50 23.12.2020
5401 Fog 1 1013 100 600 0.5 0 08:21 23.12.2020
5402 Fog 2 1013 100 900 0.5 0 07:37 23.12.2020
5403 Fog 2 1013 100 900 0.5 0 07:37 23.12.2020
5404 Fog 3 1013 93 8000 2.1 200 06:41 23.12.2020
5405 Clouds 2 1013 100 3800 2.6 200 05:41 23.12.2020
5406 Clouds 2 1013 100 3800 2.6 200 04:59 23.12.2020
5407 Clear 3 1013 100 8000 2.1 210 01:32 23.12.2020
5408 Clouds 5 1014 93 9000 2.6 210 00:25 23.12.2020
5409 Clouds 5 1014 93 10000 3.1 210 23:38 22.12.2020
5410 Clouds 5 1014 93 10000 3.1 210 23:20 22.12.2020
5411 Clouds 6 1013 87 10000 3.1 220 22:42 22.12.2020
5412 Clouds 6 1013 87 10000 3.1 220 22:21 22.12.2020
5413 Clouds 6 1013 87 10000 2.6 240 21:45 22.12.2020
5414 Clouds 6 1013 87 10000 2.6 240 21:20 22.12.2020
5415 Clouds 6 1013 87 10000 2.6 240 20:50 22.12.2020
5416 Clouds 6 1013 87 10000 2.1 250 20:25 22.12.2020
5417 Clouds 7 1012 81 10000 2.6 260 19:50 22.12.2020
5418 Clouds 7 1012 81 10000 2.6 260 19:26 22.12.2020
5419 Clouds 7 1012 81 10000 2.6 260 18:57 22.12.2020
5420 Clouds 6 1012 87 10000 4.6 290 18:38 22.12.2020
5421 Clouds 6 1012 87 10000 4.6 290 18:19 22.12.2020
5422 Clouds 7 1012 93 10000 4.6 290 17:36 22.12.2020
5423 Clouds 7 1012 93 10000 4.6 290 17:36 22.12.2020
5424 Clouds 7 1012 93 10000 4.6 290 17:18 22.12.2020
5425 Clouds 8 1010 87 10000 5.7 290 16:46 22.12.2020
5426 Clouds 8 1010 87 10000 5.7 290 16:19 22.12.2020
5427 Clouds 8 1009 100 10000 7.2 290 15:45 22.12.2020
5428 Clouds 8 1009 100 10000 7.2 290 15:27 22.12.2020
5429 Clouds 8 1009 100 10000 7.2 290 14:56 22.12.2020
5430 Clouds 8 1009 100 10000 7.2 290 14:38 22.12.2020
5431 Clouds 8 1009 100 10000 6.2 290 14:18 22.12.2020
5432 Clouds 9 1008 93 4000 8.2 290 13:42 22.12.2020
5433 Mist 9 1007 93 3700 7.2 270 13:18 22.12.2020
5434 Clouds 9 1006 93 10000 7.7 290 12:43 22.12.2020
5435 Clouds 9 1006 93 10000 7.7 290 12:25 22.12.2020
5436 Clouds 9 1005 93 9000 7.2 290 11:57 22.12.2020
5437 Mist 9 1005 100 2000 7.2 290 11:38 22.12.2020
5438 Mist 9 1005 100 2000 7.2 290 11:19 22.12.2020
5439 Drizzle 10 1003 100 1700 6.7 270 10:47 22.12.2020
5440 Drizzle 10 1003 100 1700 6.7 270 10:24 22.12.2020
5441 Drizzle 10 1003 100 1700 6.7 270 09:55 22.12.2020
5442 Drizzle 11 1002 93 4000 6.7 260 09:23 22.12.2020
5443 Mist 11 1002 100 2800 6.7 250 08:51 22.12.2020
5444 Rain 11 1002 100 2800 6.7 250 08:29 22.12.2020
5445 Mist 11 1001 100 5000 7.2 250 07:47 22.12.2020
5446 Mist 11 1000 93 3700 5.7 220 06:48 22.12.2020
5447 Rain 10 1001 93 4800 4.6 200 05:44 22.12.2020
5448 Clouds 9 1002 93 5000 6.2 190 03:33 22.12.2020
5449 Clouds 7 1005 100 1700 6.2 170 00:46 22.12.2020
5450 Drizzle 7 1006 93 3000 6.2 160 23:54 21.12.2020
5451 Drizzle 7 1006 93 3000 6.2 160 23:36 21.12.2020
5452 Drizzle 7 1007 93 6000 5.7 150 22:38 21.12.2020
5453 Drizzle 7 1007 93 8000 5.7 160 22:20 21.12.2020
5454 Drizzle 7 1007 93 8000 5.7 160 21:59 21.12.2020
5455 Mist 7 1008 93 5000 7.2 150 21:39 21.12.2020
5456 Mist 7 1008 93 5000 7.2 150 21:39 21.12.2020
5457 Clouds 7 1009 93 10000 6.7 160 21:19 21.12.2020
5458 Clouds 7 1009 93 10000 5.1 150 20:36 21.12.2020
5459 Clouds 7 1010 93 10000 5.7 150 20:18 21.12.2020
5460 Clouds 7 1010 93 10000 5.7 150 20:18 21.12.2020
5461 Clouds 7 1011 87 8000 5.1 150 19:44 21.12.2020
5462 Rain 7 1011 87 8000 5.1 150 19:19 21.12.2020
5463 Rain 6 1012 93 8000 4.6 150 18:52 21.12.2020
5464 Clouds 6 1012 93 8000 4.6 150 18:34 21.12.2020
5465 Rain 7 1013 87 10000 5.1 170 17:43 21.12.2020
5466 Rain 7 1013 87 10000 5.1 170 17:24 21.12.2020
5467 Clouds 7 1013 87 10000 5.1 170 16:48 21.12.2020
5468 Clouds 7 1014 87 10000 4.1 170 16:27 21.12.2020
5469 Clouds 7 1014 87 10000 4.1 170 15:57 21.12.2020
5470 Clouds 7 1014 87 10000 4.1 170 15:37 21.12.2020
5471 Clouds 7 1015 81 10000 4.6 200 14:57 21.12.2020
5472 Clouds 7 1015 81 10000 4.6 200 14:21 21.12.2020
5473 Clouds 8 1016 81 10000 4.6 190 13:45 21.12.2020
5474 Clouds 8 1016 81 10000 4.6 190 13:26 21.12.2020
5475 Clouds 7 1017 87 10000 5.1 200 12:45 21.12.2020
5476 Clouds 7 1017 87 10000 5.1 200 12:25 21.12.2020
5477 Clouds 7 1017 87 10000 5.1 200 11:58 21.12.2020
5478 Clouds 6 1017 93 10000 4.6 200 11:40 21.12.2020
5479 Clouds 6 1017 93 10000 4.6 200 11:22 21.12.2020
5480 Clouds 5 1017 93 10000 4.6 200 10:48 21.12.2020
5481 Clouds 5 1017 93 10000 4.6 200 10:30 21.12.2020
5482 Clouds 5 1017 93 10000 4.6 200 09:47 21.12.2020
5483 Clouds 5 1017 93 10000 4.6 200 09:25 21.12.2020
5484 Clouds 5 1017 93 10000 4.6 200 08:52 21.12.2020
5485 Clouds 6 1017 87 10000 5.7 210 07:52 21.12.2020
5486 Clouds 7 1017 87 10000 5.1 220 06:47 21.12.2020
5487 Clouds 7 1017 87 10000 5.1 220 04:58 21.12.2020
5488 Clouds 7 1017 93 9000 4.6 200 02:31 21.12.2020
5489 Clouds 7 1017 93 9000 4.1 210 00:34 21.12.2020
5490 Clouds 8 1016 93 10000 3.1 200 23:37 20.12.2020
5491 Clouds 8 1016 93 10000 3.1 200 23:18 20.12.2020
5492 Clouds 8 1017 93 10000 4.1 190 22:42 20.12.2020
5493 Clouds 8 1017 93 10000 4.1 190 22:22 20.12.2020
5494 Clouds 8 1017 87 10000 3.6 200 21:40 20.12.2020
5495 Clouds 8 1017 87 10000 3.6 200 21:21 20.12.2020
5496 Clouds 9 1017 87 10000 2.6 200 20:52 20.12.2020
5497 Clouds 9 1017 87 10000 2.6 200 20:26 20.12.2020
5498 Clouds 9 1017 87 10000 2.6 200 19:56 20.12.2020
5499 Clouds 9 1016 87 10000 3.6 200 19:38 20.12.2020
5500 Clouds 9 1016 87 10000 3.6 200 19:19 20.12.2020
5501 Clouds 9 1016 87 10000 3.1 190 18:41 20.12.2020
5502 Clouds 8 1016 93 10000 2.6 170 18:22 20.12.2020
5503 Clouds 9 1016 87 9000 3.1 180 17:45 20.12.2020
5504 Clouds 9 1016 87 9000 3.1 180 17:27 20.12.2020
5505 Clouds 9 1016 87 9000 3.1 180 16:47 20.12.2020
5506 Clouds 9 1016 87 10000 2.6 180 16:27 20.12.2020
5507 Clouds 9 1015 87 10000 3.6 190 15:50 20.12.2020
5508 Clouds 9 1015 87 10000 3.6 190 15:25 20.12.2020
5509 Clouds 9 1015 87 10000 3.6 190 14:55 20.12.2020
5510 Clouds 9 1015 87 10000 4.1 200 14:34 20.12.2020
5511 Clouds 9 1015 87 10000 4.1 190 13:48 20.12.2020
5512 Clouds 9 1015 87 10000 4.1 190 13:29 20.12.2020
5513 Clouds 9 1015 87 10000 4.1 190 12:59 20.12.2020
5514 Clouds 9 1016 81 10000 3.6 180 12:39 20.12.2020
5515 Clouds 9 1016 81 10000 3.6 180 12:21 20.12.2020
5516 Clouds 8 1016 87 10000 3.6 170 11:44 20.12.2020
5517 Clouds 8 1016 87 10000 3.6 170 11:25 20.12.2020
5518 Clouds 8 1015 87 10000 3.6 180 10:48 20.12.2020
5519 Clouds 8 1015 87 10000 3.6 180 10:20 20.12.2020
5520 Clouds 8 1015 87 10000 3.6 180 09:46 20.12.2020
5521 Clouds 8 1015 87 10000 3.6 180 09:27 20.12.2020
5522 Clouds 8 1015 87 10000 3.6 180 08:59 20.12.2020
5523 Clouds 8 1015 87 10000 4.6 170 08:39 20.12.2020
5524 Clouds 7 1015 93 10000 3.6 170 07:28 20.12.2020
5525 Clouds 8 1015 87 10000 3.6 160 06:18 20.12.2020
5526 Clouds 8 1015 93 10000 3.1 160 02:24 20.12.2020
5527 Clouds 10 1014 87 10000 4.1 200 00:39 20.12.2020
5528 Clouds 10 1014 87 10000 4.6 200 23:22 19.12.2020
5529 Clouds 10 1014 87 10000 4.6 200 22:59 19.12.2020
5530 Clouds 10 1013 81 10000 4.6 190 22:40 19.12.2020
5531 Clouds 10 1013 81 10000 4.6 190 22:20 19.12.2020
5532 Clouds 10 1013 81 10000 5.1 210 21:43 19.12.2020
5533 Clouds 10 1013 81 10000 5.1 210 21:25 19.12.2020
5534 Clouds 10 1013 81 10000 5.1 210 20:55 19.12.2020
5535 Clouds 10 1012 76 10000 4.6 190 20:24 19.12.2020
5536 Clouds 10 1012 76 10000 4.6 190 19:58 19.12.2020
5537 Clouds 9 1012 81 10000 4.6 170 19:38 19.12.2020
5538 Clouds 9 1012 81 10000 4.6 170 19:19 19.12.2020
5539 Clouds 9 1012 81 10000 6.2 170 18:33 19.12.2020
5540 Clouds 9 1012 81 10000 5.7 170 17:56 19.12.2020
5541 Clouds 9 1012 81 10000 5.7 170 17:32 19.12.2020
5542 Clouds 9 1012 81 10000 5.7 170 16:59 19.12.2020
5543 Clouds 8 1011 87 10000 5.7 170 16:39 19.12.2020
5544 Clouds 8 1011 87 10000 5.7 170 16:21 19.12.2020
5545 Clouds 8 1011 87 10000 5.1 170 15:49 19.12.2020
5546 Clouds 8 1011 87 10000 5.1 170 15:20 19.12.2020
5547 Clouds 8 1012 81 10000 5.1 170 14:37 19.12.2020
5548 Clouds 8 1012 81 10000 5.1 170 13:58 19.12.2020
5549 Clouds 7 1013 87 10000 5.1 170 13:37 19.12.2020
5550 Clouds 7 1013 87 10000 5.1 170 13:18 19.12.2020
5551 Clouds 6 1013 87 10000 5.7 170 12:42 19.12.2020
5552 Clouds 6 1013 87 10000 5.7 170 12:24 19.12.2020
5553 Clouds 6 1013 87 10000 5.7 170 11:53 19.12.2020
5554 Clouds 5 1014 93 8000 5.1 160 11:33 19.12.2020
5555 Clouds 4 1014 93 6000 4.1 150 10:42 19.12.2020
5556 Clouds 4 1014 93 6000 4.1 150 10:20 19.12.2020
5557 Clouds 4 1014 93 6000 3.6 150 09:42 19.12.2020
5558 Clouds 4 1014 93 6000 3.6 150 08:59 19.12.2020
5559 Clouds 4 1014 93 10000 3.6 140 08:24 19.12.2020
5560 Clouds 5 1014 93 10000 4.6 160 07:23 19.12.2020
5561 Clouds 5 1014 86 10000 4.6 160 06:51 19.12.2020
5562 Clouds 5 1014 86 10000 4.6 160 06:18 19.12.2020
5563 Clouds 4 1015 93 9000 4.1 160 05:18 19.12.2020
5564 Clouds 6 1016 81 10000 4.1 170 01:36 19.12.2020
5565 Clouds 6 1016 81 10000 4.6 170 00:36 19.12.2020
5566 Clouds 6 1016 81 10000 4.6 170 00:18 19.12.2020
5567 Clouds 6 1017 87 10000 4.6 170 23:44 18.12.2020
5568 Clouds 6 1017 87 10000 4.6 170 23:22 18.12.2020
5569 Clouds 7 1017 81 10000 4.6 170 22:45 18.12.2020
5570 Clouds 7 1017 81 10000 4.6 170 22:21 18.12.2020
5571 Clouds 7 1017 81 10000 4.6 170 21:47 18.12.2020
5572 Clouds 7 1017 81 10000 4.1 170 21:28 18.12.2020
5573 Clouds 7 1017 81 10000 4.1 170 20:40 18.12.2020
5574 Clouds 8 1017 81 10000 5.1 190 20:19 18.12.2020
5575 Clouds 8 1018 81 10000 5.1 200 19:41 18.12.2020
5576 Clouds 8 1018 81 10000 5.1 200 19:20 18.12.2020
5577 Clouds 8 1018 81 10000 4.1 190 18:40 18.12.2020
5578 Clouds 8 1018 81 10000 4.1 190 18:22 18.12.2020
5579 Clouds 8 1017 87 10000 4.1 180 17:24 18.12.2020
5580 Clouds 8 1017 87 10000 4.1 180 16:49 18.12.2020
5581 Clouds 8 1017 87 10000 4.1 180 16:27 18.12.2020
5582 Clouds 8 1017 87 10000 5.1 200 15:59 18.12.2020
5583 Clouds 8 1018 87 10000 5.7 200 15:41 18.12.2020
5584 Clouds 8 1018 87 10000 5.7 200 15:22 18.12.2020
5585 Clouds 8 1018 87 10000 5.7 200 14:54 18.12.2020
5586 Clouds 8 1018 87 10000 6.7 200 14:21 18.12.2020
5587 Clouds 8 1019 87 10000 5.7 200 13:50 18.12.2020
5588 Clouds 8 1019 87 10000 5.7 200 13:30 18.12.2020
5589 Clouds 7 1019 87 10000 6.2 200 12:49 18.12.2020
5590 Clouds 7 1019 87 10000 6.2 200 12:21 18.12.2020
5591 Clouds 7 1019 87 10000 5.7 200 11:23 18.12.2020
5592 Clouds 6 1019 93 8000 5.7 200 10:40 18.12.2020
5593 Clouds 6 1019 93 7000 5.1 200 10:20 18.12.2020
5594 Clouds 6 1019 93 7000 5.1 190 09:39 18.12.2020
5595 Clouds 6 1019 93 7000 5.1 190 09:21 18.12.2020
5596 Clouds 6 1019 93 7000 5.1 190 08:55 18.12.2020
5597 Clouds 6 1019 93 6000 4.6 200 08:30 18.12.2020
5598 Clouds 6 1019 93 10000 4.1 200 07:47 18.12.2020
5599 Clouds 6 1019 93 10000 4.1 200 07:19 18.12.2020
5600 Clouds 6 1019 93 10000 4.1 200 06:58 18.12.2020
5601 Clouds 6 1020 93 9000 4.6 200 05:43 18.12.2020
5602 Clouds 6 1020 93 9000 4.6 200 04:51 18.12.2020
5603 Clouds 8 1019 87 8000 4.1 220 02:31 18.12.2020
5604 Clouds 7 1019 93 8000 4.6 210 01:41 18.12.2020
5605 Clear 7 1019 93 8000 4.1 220 00:28 18.12.2020
5606 Clouds 7 1019 93 10000 4.6 220 23:51 17.12.2020
5607 Clouds 7 1019 93 10000 4.6 220 23:20 17.12.2020
5608 Clouds 8 1018 93 10000 5.1 220 22:47 17.12.2020
5609 Clouds 8 1018 93 10000 5.1 220 22:27 17.12.2020
5610 Clouds 8 1018 93 10000 5.1 220 21:44 17.12.2020
5611 Clouds 8 1018 93 10000 5.1 220 21:44 17.12.2020
5612 Clouds 8 1018 93 10000 5.1 220 21:44 17.12.2020
5613 Clouds 8 1018 93 10000 5.1 220 21:44 17.12.2020
5614 Clouds 8 1018 93 10000 5.1 220 21:21 17.12.2020
5615 Clouds 8 1018 93 10000 5.1 220 20:45 17.12.2020
5616 Clouds 8 1018 87 10000 4.6 220 20:20 17.12.2020
5617 Clouds 8 1017 87 10000 4.6 220 19:56 17.12.2020
5618 Clouds 8 1017 87 10000 4.6 220 19:38 17.12.2020
5619 Clouds 8 1017 87 10000 4.6 220 19:19 17.12.2020
5620 Clouds 8 1017 87 10000 4.1 230 18:40 17.12.2020
5621 Clouds 8 1017 87 10000 4.1 230 18:19 17.12.2020
5622 Clouds 8 1016 100 8000 4.6 220 17:45 17.12.2020
5623 Clouds 8 1016 100 8000 4.6 220 17:27 17.12.2020
5624 Clouds 8 1016 100 8000 4.6 220 16:40 17.12.2020
5625 Clouds 9 1015 93 10000 5.1 220 16:20 17.12.2020
5626 Clouds 9 1015 93 10000 5.1 220 15:50 17.12.2020
5627 Clouds 8 1015 93 10000 3.6 220 15:28 17.12.2020
5628 Clouds 8 1015 93 10000 3.6 220 14:50 17.12.2020
5629 Clouds 9 1015 87 10000 3.6 240 14:28 17.12.2020
5630 Rain 8 1014 93 10000 4.1 250 13:50 17.12.2020
5631 Clouds 8 1014 93 6000 6.2 260 13:23 17.12.2020
5632 Mist 8 1014 100 4000 6.2 260 12:43 17.12.2020
5633 Mist 8 1014 100 4000 6.2 260 12:24 17.12.2020
5634 Rain 9 1013 93 3500 4.6 240 11:43 17.12.2020
5635 Mist 9 1013 93 3500 5.1 220 11:22 17.12.2020
5636 Rain 8 1012 93 4000 3.6 180 10:49 17.12.2020
5637 Rain 8 1012 93 6000 4.6 170 09:42 17.12.2020
5638 Rain 8 1012 93 6000 4.6 170 09:21 17.12.2020
5639 Rain 8 1012 93 8000 5.1 160 07:49 17.12.2020
5640 Clouds 8 1012 93 8000 5.1 160 07:28 17.12.2020
5641 Rain 8 1013 93 8000 4.6 160 06:51 17.12.2020
5642 Rain 8 1013 93 8000 4.6 160 06:32 17.12.2020
5643 Rain 8 1013 93 9000 5.1 170 03:55 17.12.2020
5644 Clouds 8 1014 93 7000 4.6 150 00:33 17.12.2020
5645 Clouds 8 1014 93 7000 4.6 150 23:51 16.12.2020
5646 Mist 8 1015 93 5000 4.1 140 23:19 16.12.2020
5647 Mist 7 1015 100 4500 3.6 130 22:52 16.12.2020
5648 Mist 7 1015 100 4500 3.6 130 22:32 16.12.2020
5649 Mist 7 1015 93 4000 3.6 130 21:47 16.12.2020
5650 Mist 7 1015 93 4000 3.6 130 21:27 16.12.2020
5651 Mist 7 1016 93 3000 3.6 130 20:54 16.12.2020
5652 Mist 7 1016 93 2500 5.1 130 20:21 16.12.2020
5653 Mist 6 1016 100 1500 4.6 130 19:52 16.12.2020
5654 Mist 6 1016 100 1500 3.1 120 19:19 16.12.2020
5655 Fog 6 1016 100 500 3.6 120 18:53 16.12.2020
5656 Fog 6 1016 100 500 3.6 120 18:27 16.12.2020
5657 Mist 6 1017 100 2200 3.1 120 17:43 16.12.2020
5658 Mist 6 1016 100 2000 3.1 120 17:18 16.12.2020
5659 Mist 7 1016 93 2800 3.6 120 16:39 16.12.2020
5660 Mist 7 1017 100 4000 3.1 130 16:20 16.12.2020
5661 Mist 7 1017 100 4000 3.1 130 15:49 16.12.2020
5662 Mist 8 1017 93 4500 3.1 130 15:26 16.12.2020
5663 Mist 7 1017 100 4000 3.6 140 14:47 16.12.2020
5664 Mist 7 1017 100 4000 3.6 140 14:28 16.12.2020
5665 Mist 7 1017 93 4000 4.6 140 13:46 16.12.2020
5666 Mist 7 1017 93 4000 4.6 140 13:27 16.12.2020
5667 Clouds 8 1017 87 9000 4.6 150 12:55 16.12.2020
5668 Clouds 8 1017 87 9000 4.6 150 12:34 16.12.2020
5669 Clouds 6 1018 93 10000 2.1 140 11:39 16.12.2020
5670 Clouds 6 1018 93 10000 2.1 140 11:20 16.12.2020
5671 Fog 6 1017 93 10000 2.6 160 10:43 16.12.2020
5672 Fog 6 1017 93 10000 2.6 160 10:22 16.12.2020
5673 Fog 6 1017 93 10000 2.6 160 09:40 16.12.2020
5674 Clouds 7 1017 93 10000 2.6 140 08:36 16.12.2020
5675 Clouds 7 1016 93 10000 2.1 140 07:52 16.12.2020
5676 Clouds 7 1016 93 10000 2.1 140 07:33 16.12.2020
5677 Clouds 8 1016 93 10000 3.1 160 06:41 16.12.2020
5678 Clear 8 1014 93 7000 2.6 220 02:26 16.12.2020
5679 Clouds 8 1014 93 7000 4.1 260 00:26 16.12.2020
5680 Clouds 8 1013 100 7000 3.1 250 23:44 15.12.2020
5681 Mist 8 1012 100 5000 3.1 250 22:47 15.12.2020
5682 Mist 8 1012 100 5000 3.1 250 22:25 15.12.2020
5683 Mist 8 1011 100 5000 2.6 250 21:57 15.12.2020
5684 Mist 8 1011 100 5000 2.6 250 21:37 15.12.2020
5685 Mist 8 1011 100 5000 2.6 250 21:18 15.12.2020
5686 Mist 8 1011 100 5000 2.6 250 20:42 15.12.2020
5687 Mist 8 1011 100 5000 2.1 240 20:23 15.12.2020
5688 Mist 8 1011 100 4500 2.6 240 19:42 15.12.2020
5689 Mist 8 1011 100 4500 2.6 240 19:23 15.12.2020
5690 Mist 8 1009 100 3500 3.1 220 18:39 15.12.2020
5691 Rain 8 1009 100 3500 3.1 220 18:21 15.12.2020
5692 Rain 8 1009 100 3500 3.1 220 18:21 15.12.2020
5693 Rain 8 1009 100 2000 2.6 210 17:44 15.12.2020
5694 Rain 8 1009 100 2000 2.6 210 17:23 15.12.2020
5695 Rain 8 1008 100 2800 2.6 200 16:39 15.12.2020
5696 Rain 8 1008 100 2800 2.6 200 16:21 15.12.2020
5697 Drizzle 8 1008 100 3500 2.6 210 15:37 15.12.2020
5698 Mist 8 1008 100 5000 3.1 190 15:18 15.12.2020
5699 Rain 8 1008 100 5000 3.1 190 14:41 15.12.2020
5700 Clouds 8 1008 100 6000 2.6 210 14:20 15.12.2020
5701 Clouds 8 1008 100 7000 2.6 210 13:49 15.12.2020
5702 Rain 8 1008 100 7000 2.6 210 13:25 15.12.2020
5703 Rain 8 1008 100 8000 2.6 200 12:46 15.12.2020
5704 Clouds 8 1008 100 8000 2.6 200 12:19 15.12.2020
5705 Clouds 8 1008 100 8000 2.6 200 11:52 15.12.2020
5706 Clouds 8 1008 93 6000 3.1 190 11:24 15.12.2020
5707 Clouds 7 1007 100 6000 3.6 190 10:49 15.12.2020
5708 Clouds 7 1007 100 6000 3.6 190 10:21 15.12.2020
5709 Clouds 7 1007 100 6000 3.1 190 09:45 15.12.2020
5710 Clouds 7 1007 100 6000 3.1 190 09:27 15.12.2020
5711 Clouds 7 1007 93 6000 3.6 180 08:47 15.12.2020
5712 Clouds 7 1007 93 6000 3.6 180 08:24 15.12.2020
5713 Clouds 7 1007 93 7000 3.6 180 07:49 15.12.2020
5714 Clouds 7 1007 93 7000 3.6 180 07:23 15.12.2020
5715 Rain 7 1006 93 6000 3.6 160 06:27 15.12.2020
5716 Clouds 8 1008 93 5000 4.1 160 01:27 15.12.2020
5717 Clouds 9 1008 93 9000 3.1 150 00:34 15.12.2020
5718 Clouds 9 1008 93 10000 3.1 160 23:23 14.12.2020
5719 Clouds 9 1008 93 10000 3.6 170 22:48 14.12.2020
5720 Clouds 9 1008 93 10000 3.6 170 22:27 14.12.2020
5721 Clouds 9 1007 93 10000 3.1 180 21:44 14.12.2020
5722 Clouds 9 1008 93 10000 3.6 180 21:22 14.12.2020
5723 Clouds 9 1007 93 10000 4.1 190 20:51 14.12.2020
5724 Clouds 9 1007 93 10000 4.1 190 20:51 14.12.2020
5725 Clouds 9 1007 93 10000 4.1 190 20:29 14.12.2020
5726 Clouds 9 1007 93 10000 4.1 190 19:53 14.12.2020
5727 Clouds 9 1007 93 10000 4.1 190 19:29 14.12.2020
5728 Clouds 9 1007 93 10000 4.6 190 18:44 14.12.2020
5729 Clouds 9 1007 93 10000 4.6 190 18:25 14.12.2020
5730 Clouds 9 1006 93 10000 4.6 200 17:46 14.12.2020
5731 Clouds 9 1006 93 10000 4.6 200 17:23 14.12.2020
5732 Clouds 9 1006 93 10000 3.6 200 16:50 14.12.2020
5733 Clouds 9 1006 93 10000 4.6 190 16:29 14.12.2020
5734 Clouds 9 1005 87 10000 5.7 190 15:39 14.12.2020
5735 Clouds 9 1005 87 10000 5.7 190 15:20 14.12.2020
5736 Clouds 8 1005 93 10000 6.7 190 14:42 14.12.2020
5737 Clouds 8 1005 93 10000 6.7 190 14:23 14.12.2020
5738 Clouds 7 1005 93 8000 5.1 190 13:42 14.12.2020
5739 Clouds 7 1005 93 8000 5.1 190 13:19 14.12.2020
5740 Mist 7 1005 93 2500 5.7 190 12:52 14.12.2020
5741 Mist 6 1005 100 5000 5.1 170 12:24 14.12.2020
5742 Clouds 6 1005 93 10000 6.2 170 11:35 14.12.2020
5743 Mist 6 1006 87 3000 5.1 170 10:38 14.12.2020
5744 Rain 6 1006 87 3000 5.1 170 10:19 14.12.2020
5745 Rain 6 1006 81 10000 5.7 170 09:31 14.12.2020
5746 Rain 6 1006 81 10000 5.1 170 08:47 14.12.2020
5747 Rain 6 1006 81 10000 5.1 170 08:28 14.12.2020
5748 Clouds 6 1006 81 10000 5.7 160 07:44 14.12.2020
5749 Clouds 6 1006 81 10000 5.1 160 06:47 14.12.2020
5750 Clouds 6 1006 81 10000 5.1 160 05:35 14.12.2020
5751 Clouds 6 1008 87 8000 4.1 150 02:26 14.12.2020
5752 Clouds 5 1009 100 7000 3.1 150 00:56 14.12.2020
5753 Clouds 5 1010 100 3500 3.1 140 00:33 14.12.2020
5754 Mist 8 1010 93 3500 3.6 140 23:50 13.12.2020
5755 Rain 8 1010 93 3500 3.6 140 23:30 13.12.2020
5756 Rain 9 1010 93 3000 2.6 150 22:47 13.12.2020
5757 Rain 8 1010 93 3000 2.6 150 22:20 13.12.2020
5758 Mist 8 1010 100 3500 2.6 160 21:47 13.12.2020
5759 Mist 8 1010 100 3500 2.6 160 21:27 13.12.2020
5760 Mist 5 1010 100 3500 2.6 140 20:38 13.12.2020
5761 Mist 6 1010 100 3500 2.6 140 20:20 13.12.2020
5762 Mist 8 1010 100 4000 2.6 140 19:42 13.12.2020
5763 Mist 8 1010 100 4000 2.6 140 19:20 13.12.2020
5764 Mist 8 1010 100 3800 2.6 140 18:43 13.12.2020
5765 Mist 8 1010 93 2800 2.6 150 18:21 13.12.2020
5766 Fog 8 1010 100 600 2.6 170 17:47 13.12.2020
5767 Fog 8 1010 100 600 2.6 170 17:47 13.12.2020
5768 Fog 8 1010 100 600 2.6 170 17:21 13.12.2020
5769 Fog 8 1010 100 600 2.6 170 16:58 13.12.2020
5770 Fog 6 1010 100 800 2.6 180 16:38 13.12.2020
5771 Fog 5 1010 100 800 2.6 180 16:19 13.12.2020
5772 Fog 6 1010 100 700 2.1 210 15:40 13.12.2020
5773 Fog 6 1010 100 700 2.1 210 15:22 13.12.2020
5774 Mist 6 1009 100 1500 1.5 0 14:44 13.12.2020
5775 Mist 6 1009 100 1500 1.5 0 14:21 13.12.2020
5776 Mist 6 1009 93 2500 3.1 200 13:43 13.12.2020
5777 Mist 9 1009 93 2500 3.1 200 13:25 13.12.2020
5778 Mist 9 1009 100 1800 2.6 180 12:49 13.12.2020
5779 Fog 4 1009 100 600 2.6 170 12:23 13.12.2020
5780 Fog 3 1009 100 600 2.6 140 11:42 13.12.2020
5781 Drizzle 3 1008 100 600 3.1 130 10:56 13.12.2020
5782 Fog 3 1008 100 600 3.1 130 10:38 13.12.2020
5783 Drizzle 3 1008 100 600 3.1 130 09:57 13.12.2020
5784 Drizzle 3 1007 100 800 3.6 120 09:28 13.12.2020
5785 Drizzle 3 1007 100 1200 3.1 130 08:35 13.12.2020
5786 Fog 3 1006 100 800 3.6 120 07:51 13.12.2020
5787 Clouds 3 1005 100 1200 4.1 120 04:48 13.12.2020
5788 Clouds 3 1005 100 2600 3.6 120 02:42 13.12.2020
5789 Clouds 3 1004 100 2200 3.1 110 01:58 13.12.2020
5790 Clouds 3 1004 100 1500 3.6 120 00:51 13.12.2020
5791 Clouds 3 1004 100 1500 3.6 120 00:33 13.12.2020
5792 Drizzle 3 1003 100 2000 3.6 120 23:33 12.12.2020
5793 Drizzle 3 1003 100 2000 3.6 120 22:57 12.12.2020
5794 Mist 3 1003 100 2000 2.6 110 22:25 12.12.2020
5795 Mist 3 1002 100 2000 3.6 110 21:44 12.12.2020
5796 Drizzle 3 1002 100 2000 3.6 110 21:18 12.12.2020
5797 Drizzle 3 1002 100 1500 3.1 110 20:43 12.12.2020
5798 Drizzle 3 1002 100 1500 3.1 110 20:19 12.12.2020
5799 Drizzle 3 1002 100 1500 3.1 110 19:47 12.12.2020
5800 Drizzle 3 1002 100 1500 3.1 110 19:29 12.12.2020
5801 Drizzle 3 1001 100 1500 2.6 110 18:48 12.12.2020
5802 Drizzle 3 1001 100 1500 2.6 110 18:30 12.12.2020
5803 Drizzle 3 1001 100 1500 2.6 110 17:51 12.12.2020
5804 Drizzle 3 1000 93 1200 3.1 120 17:32 12.12.2020
5805 Drizzle 3 999 93 1500 3.1 110 16:28 12.12.2020
5806 Drizzle 3 999 93 3500 3.1 120 15:53 12.12.2020
5807 Drizzle 3 999 93 3500 3.1 120 15:34 12.12.2020
5808 Drizzle 3 999 93 3500 3.1 120 14:53 12.12.2020
5809 Drizzle 2 998 100 3500 3.6 110 13:58 12.12.2020
5810 Mist 2 998 93 3500 3.6 110 13:38 12.12.2020
5811 Drizzle 2 998 93 3500 3.6 110 13:19 12.12.2020
5812 Mist 2 998 93 2500 3.6 110 12:32 12.12.2020
5813 Mist 2 998 93 2000 3.6 110 11:18 12.12.2020
5814 Mist 2 997 93 2000 4.1 90 10:42 12.12.2020
5815 Clouds 2 997 92 6000 4.6 110 09:20 12.12.2020
5816 Clouds 2 996 93 6000 4.6 100 07:26 12.12.2020
5817 Clouds 3 995 86 8000 4.6 110 00:50 12.12.2020
5818 Clouds 2 995 93 8000 5.1 100 23:19 11.12.2020
5819 Clouds 3 995 86 8000 5.1 110 20:55 11.12.2020
5820 Clouds 3 995 86 8000 5.1 110 19:42 11.12.2020
5821 Clouds 3 996 86 7000 4.1 120 16:49 11.12.2020
5822 Clouds 3 997 86 8000 5.1 120 14:29 11.12.2020
5823 Clouds 3 997 86 8000 5.1 120 13:26 11.12.2020
5824 Clouds 2 998 93 8000 4.6 130 12:22 11.12.2020
5825 Clouds 2 998 93 8000 4.6 130 11:52 11.12.2020
5826 Clouds 2 999 93 8000 5.1 130 11:30 11.12.2020
5827 Clouds 2 998 93 6000 5.7 120 10:40 11.12.2020
5828 Clouds 2 1000 93 6000 4.6 130 07:31 11.12.2020
5829 Clouds 2 1001 100 3300 3.1 130 05:36 11.12.2020
5830 Clouds 2 1003 100 1400 3.1 130 02:58 11.12.2020
5831 Clouds 2 1005 100 800 2.6 130 00:48 11.12.2020
5832 Mist 2 1005 100 3500 2.1 140 23:27 10.12.2020
5833 Mist 2 1006 100 3500 2.6 140 21:37 10.12.2020
5834 Drizzle 2 1006 100 2000 3.1 120 20:51 10.12.2020
5835 Mist 2 1006 100 3500 2.6 120 20:26 10.12.2020
5836 Mist 3 1006 93 3500 3.6 110 19:29 10.12.2020
5837 Mist 3 1007 93 3500 1.5 120 18:48 10.12.2020
5838 Mist 3 1007 93 3500 1.5 110 17:29 10.12.2020
5839 Mist 3 1007 93 3500 1.5 100 15:58 10.12.2020
5840 Mist 3 1007 93 3500 2.1 100 15:22 10.12.2020
5841 Rain 3 1007 93 3500 1 110 14:46 10.12.2020
5842 Rain 3 1008 93 4500 2.6 130 13:42 10.12.2020
5843 Mist 3 1008 93 4000 2.1 120 12:21 10.12.2020
5844 Mist 3 1008 93 4000 2.6 110 10:54 10.12.2020
5845 Rain 2 1009 100 3000 1 100 08:27 10.12.2020
5846 Rain 2 1008 100 2000 2.1 70 07:28 10.12.2020
5847 Clouds 2 1008 100 2100 1 190 05:51 10.12.2020
5848 Clouds 2 1009 93 4400 2.1 180 02:43 10.12.2020
5849 Clouds 3 1010 86 5000 2.6 160 01:33 10.12.2020
5850 Clouds 3 1010 86 6000 2.6 170 23:44 09.12.2020
5851 Mist 3 1010 93 3000 1 0 20:39 09.12.2020
5852 Mist 3 1010 93 4500 2.1 140 19:46 09.12.2020
5853 Mist 3 1010 93 5000 1 170 18:42 09.12.2020
5854 Mist 3 1010 93 5000 1.5 170 17:35 09.12.2020
5855 Mist 3 1009 93 5000 1.5 140 16:40 09.12.2020
5856 Mist 3 1009 93 5000 1.5 140 16:20 09.12.2020
5857 Mist 3 1009 93 4500 3.1 110 14:51 09.12.2020
5858 Mist 3 1009 93 4500 3.1 110 14:27 09.12.2020
5859 Mist 3 1010 93 4500 2.1 110 13:46 09.12.2020
5860 Mist 3 1010 93 4500 2.1 110 13:18 09.12.2020
5861 Mist 3 1010 93 3700 2.1 110 12:36 09.12.2020
5862 Mist 3 1010 93 3200 2.1 100 11:37 09.12.2020
5863 Rain 2 1010 100 3000 2.1 120 09:54 09.12.2020
5864 Mist 2 1009 93 4500 3.1 120 08:42 09.12.2020
5865 Mist 2 1009 100 3700 2.6 110 06:56 09.12.2020
5866 Clouds 3 1009 93 4800 3.6 130 05:33 09.12.2020
5867 Clouds 4 1008 86 5000 3.1 100 02:57 09.12.2020
5868 Clouds 4 1008 93 5000 2.1 80 00:52 09.12.2020
5869 Clouds 4 1008 93 5000 2.1 80 23:36 08.12.2020
5870 Clouds 4 1008 93 6000 1.5 90 22:27 08.12.2020
5871 Clouds 4 1007 93 6000 3.1 110 20:48 08.12.2020
5872 Clouds 4 1007 93 7000 3.6 100 19:31 08.12.2020
5873 Clouds 4 1007 93 7000 3.6 100 18:41 08.12.2020
5874 Clouds 3 1006 93 7000 2.6 80 17:20 08.12.2020
5875 Clouds 6 1005 81 10000 4.1 70 15:26 08.12.2020
5876 Clouds 5 1006 80 10000 2.6 100 13:53 08.12.2020
5877 Clouds 5 1006 80 10000 2.6 100 12:54 08.12.2020
5878 Clouds 4 1006 86 10000 2.1 90 12:20 08.12.2020
5879 Clouds 3 1006 93 10000 2.6 80 11:28 08.12.2020
5880 Clouds 3 1005 93 10000 2.6 110 10:42 08.12.2020
5881 Clouds 3 1005 93 8000 2.6 110 09:46 08.12.2020
5882 Clouds 3 1004 100 10000 1.5 140 07:47 08.12.2020
5883 Clouds 3 1004 100 10000 1.5 130 06:33 08.12.2020
5884 Clouds 3 1004 93 5000 2.1 130 02:59 08.12.2020
5885 Clouds 3 1003 100 4400 2.1 130 00:45 08.12.2020
5886 Mist 3 1003 100 4500 2.1 140 23:50 07.12.2020
5887 Clouds 4 1002 93 6000 3.6 160 22:32 07.12.2020
5888 Clouds 5 1001 93 8000 4.1 170 21:48 07.12.2020
5889 Clouds 5 999 93 9000 4.6 180 19:46 07.12.2020
5890 Clouds 5 998 93 9000 5.1 180 18:20 07.12.2020
5891 Clouds 5 998 93 8000 4.6 170 17:26 07.12.2020
5892 Mist 5 997 93 4500 5.1 160 16:48 07.12.2020
5893 Mist 4 995 100 5000 5.1 160 15:26 07.12.2020
5894 Drizzle 4 995 100 5000 5.1 160 14:44 07.12.2020
5895 Clouds 4 994 93 6000 4.1 160 13:44 07.12.2020
5896 Mist 4 995 100 3500 3.6 140 12:35 07.12.2020
5897 Mist 4 994 100 3500 2.6 140 11:43 07.12.2020
5898 Rain 4 994 100 3500 2.6 140 10:56 07.12.2020
5899 Mist 4 994 100 2500 2.1 140 09:40 07.12.2020
5900 Mist 4 994 100 2000 2.1 120 07:58 07.12.2020
5901 Rain 4 995 100 1600 2.1 100 05:43 07.12.2020
5902 Clouds 4 995 100 1700 1.5 90 04:48 07.12.2020
5903 Clouds 4 997 100 2000 1.5 90 01:48 07.12.2020
5904 Mist 4 997 100 4500 1.5 0 23:32 06.12.2020
5905 Mist 4 998 100 4500 1.5 110 22:19 06.12.2020
5906 Rain 5 998 93 4500 1.5 90 20:53 06.12.2020
5907 Mist 5 999 100 4500 3.1 100 20:34 06.12.2020
5908 Rain 5 999 100 4500 3.1 100 19:53 06.12.2020
5909 Fog 5 999 100 500 3.6 60 18:18 06.12.2020
5910 Rain 5 1000 100 200 5.1 30 16:44 06.12.2020
5911 Fog 5 1000 100 500 4.6 30 14:52 06.12.2020
5912 Rain 4 1001 100 1400 4.6 30 13:42 06.12.2020
5913 Rain 4 1001 100 1400 4.1 30 12:42 06.12.2020
5914 Rain 4 1002 100 2000 3.1 30 11:57 06.12.2020
5915 Rain 4 1002 93 2500 4.6 30 11:32 06.12.2020
5916 Rain 3 1003 100 3000 3.6 40 10:45 06.12.2020
5917 Rain 2 1003 93 3500 3.6 60 09:49 06.12.2020
5918 Rain 2 1003 93 4000 2.6 60 08:29 06.12.2020
5919 Mist 1 1004 100 4000 3.1 90 06:37 06.12.2020
5920 Clouds 1 1004 100 2300 2.6 130 00:58 06.12.2020
5921 Clouds 1 1003 100 200 2.1 120 00:39 06.12.2020
5922 Clouds 1 1003 100 200 2.1 120 00:21 06.12.2020
5923 Clouds 3 1003 93 8000 3.6 160 22:46 05.12.2020
5924 Clouds 3 1003 93 8000 3.6 160 22:20 05.12.2020
5925 Mist 3 1003 93 5000 4.1 170 21:48 05.12.2020
5926 Mist 3 1003 93 5000 4.1 170 21:25 05.12.2020
5927 Fog 2 1002 93 50 2.6 130 19:21 05.12.2020
5928 Mist 3 1001 93 5000 3.1 190 18:40 05.12.2020
5929 Fog 2 1000 100 4500 2.1 190 17:29 05.12.2020
5930 Mist 3 999 93 3500 2.1 190 16:30 05.12.2020
5931 Mist 2 998 100 1500 2.6 190 15:47 05.12.2020
5932 Mist 2 997 93 1300 3.1 190 14:27 05.12.2020
5933 Mist 2 997 93 1300 3.1 190 14:27 05.12.2020
5934 Snow 0 996 94 2000 2.6 200 12:20 05.12.2020
5935 Snow 0 995 94 1200 1.5 140 11:40 05.12.2020
5936 Snow 0 995 96 1000 2.1 140 10:31 05.12.2020
5937 Snow 1 994 87 7000 2.1 100 07:48 05.12.2020
5938 Snow 1 994 81 8000 3.1 80 06:40 05.12.2020
5939 Rain 2 993 76 10000 3.1 100 03:54 05.12.2020
5940 Clouds 2 993 84 9000 2.6 90 23:52 04.12.2020
5941 Clouds 2 993 93 10000 4.1 130 22:24 04.12.2020
5942 Clouds 2 992 82 10000 4.6 120 20:25 04.12.2020
5943 Clouds 2 991 79 10000 3.1 110 18:53 04.12.2020
5944 Clouds 3 990 86 10000 3.6 120 18:19 04.12.2020
5945 Clouds 4 989 86 10000 3.6 120 17:37 04.12.2020
5946 Clouds 5 988 80 10000 5.1 130 15:46 04.12.2020
5947 Clouds 3 987 86 10000 5.7 120 13:40 04.12.2020
5948 Clouds 3 987 86 10000 5.7 120 13:22 04.12.2020
5949 Clouds 3 987 86 10000 5.7 120 12:54 04.12.2020
5950 Rain 1 987 86 7000 6.2 120 10:41 04.12.2020
5951 Rain 1 987 86 8000 7.2 130 09:55 04.12.2020
5952 Clouds 1 986 80 10000 7.2 120 07:29 04.12.2020
5953 Clouds 1 987 80 10000 7.7 130 06:39 04.12.2020
5954 Clouds 2 989 80 10000 6.2 130 02:25 04.12.2020
5955 Clouds 3 991 93 10000 5.1 140 23:21 03.12.2020
5956 Clouds 3 992 93 10000 5.1 140 22:45 03.12.2020
5957 Rain 3 993 86 10000 5.7 150 20:49 03.12.2020
5958 Clouds 3 994 86 10000 6.7 150 19:38 03.12.2020
5959 Rain 3 994 86 10000 6.7 150 19:19 03.12.2020
5960 Clouds 4 995 86 10000 5.1 150 18:34 03.12.2020
5961 Clouds 4 995 86 10000 4.1 160 17:20 03.12.2020
5962 Clouds 4 996 86 9000 5.1 150 15:58 03.12.2020
5963 Clouds 4 997 93 8000 5.1 160 15:31 03.12.2020
5964 Clouds 4 998 86 7000 5.1 170 14:48 03.12.2020
5965 Mist 3 999 93 5000 5.1 160 13:49 03.12.2020
5966 Rain 3 1000 93 4500 5.1 160 12:33 03.12.2020
5967 Rain 3 1000 93 4500 5.1 160 11:55 03.12.2020
5968 Rain 2 1001 100 2800 5.1 160 10:36 03.12.2020
5969 Rain 2 1003 93 4500 4.6 160 08:21 03.12.2020
5970 Clouds 2 1007 93 7000 4.6 170 03:42 03.12.2020
5971 Clouds 2 1009 93 6000 4.1 160 01:39 03.12.2020
5972 Mist 2 1009 93 5000 3.6 170 23:51 02.12.2020
5973 Mist 2 1011 100 5000 3.1 160 22:41 02.12.2020
5974 Mist 2 1012 100 4500 2.6 150 21:37 02.12.2020
5975 Mist 2 1012 100 4500 2.6 150 20:49 02.12.2020
5976 Drizzle 2 1012 100 4500 2.6 140 20:30 02.12.2020
5977 Drizzle 3 1013 93 4500 2.1 150 19:40 02.12.2020
5978 Drizzle 3 1014 93 5000 2.1 140 17:49 02.12.2020
5979 Drizzle 3 1014 93 5000 2.1 140 17:30 02.12.2020
5980 Mist 3 1016 93 5000 1 130 15:43 02.12.2020
5981 Mist 3 1018 93 3800 2.1 130 13:26 02.12.2020
5982 Mist 3 1020 93 3700 2.6 120 11:30 02.12.2020
5983 Mist 3 1020 93 2800 2.1 100 10:24 02.12.2020
5984 Mist 2 1021 100 3500 1.5 90 07:46 02.12.2020
5985 Mist 4 1022 93 5000 3.6 80 23:30 01.12.2020
5986 Clouds 4 1021 93 6000 3.1 80 22:20 01.12.2020
5987 Clouds 4 1019 93 6000 3.1 80 19:37 01.12.2020
5988 Clouds 4 1019 93 6000 3.1 80 19:37 01.12.2020
5989 Clouds 4 1019 93 6000 3.1 80 18:56 01.12.2020
5990 Clouds 5 1017 93 7000 4.1 60 16:48 01.12.2020
5991 Clouds 5 1016 93 8000 4.1 60 14:53 01.12.2020
5992 Mist 5 1014 100 5000 3.6 50 12:48 01.12.2020
5993 Mist 5 1013 100 4000 4.1 70 11:41 01.12.2020
5994 Mist 5 1013 100 4000 4.1 70 10:54 01.12.2020
5995 Fog 4 1012 100 900 3.1 60 10:31 01.12.2020
5996 Rain 4 1009 100 500 1 90 07:47 01.12.2020
5997 Rain 4 1009 100 900 1 110 06:25 01.12.2020
5998 Clouds 3 1009 100 3000 4.6 200 01:36 01.12.2020
5999 Clouds 3 1009 93 6000 5.1 200 00:50 01.12.2020
6000 Mist 2 1010 100 5000 4.6 200 23:20 30.11.2020
6001 Mist 2 1010 100 5000 5.1 200 22:42 30.11.2020
6002 Mist 2 1011 100 4800 5.1 200 22:22 30.11.2020
6003 Drizzle 1 1012 100 3800 5.1 200 20:47 30.11.2020
6004 Drizzle 1 1014 95 3200 5.7 200 19:41 30.11.2020
6005 Rain 1 1015 94 2800 5.1 200 18:22 30.11.2020
6006 Drizzle 1 1016 86 3500 5.7 200 17:46 30.11.2020
6007 Rain 1 1016 86 5000 5.7 200 16:54 30.11.2020
6008 Rain 2 1018 74 8000 5.1 200 15:45 30.11.2020
6009 Clouds 2 1019 80 10000 4.6 190 14:21 30.11.2020
6010 Clouds 2 1021 74 10000 5.1 210 13:41 30.11.2020
6011 Clouds 2 1022 80 10000 3.6 190 12:26 30.11.2020
6012 Clouds 2 1022 80 10000 3.6 190 11:57 30.11.2020
6013 Clouds 1 1024 80 10000 2.1 190 10:25 30.11.2020
6014 Clouds 1 1024 80 10000 2.1 180 09:35 30.11.2020
6015 Clouds 1 1025 80 10000 2.1 200 06:48 30.11.2020
6016 Clouds 3 1027 69 10000 2.1 140 23:39 29.11.2020
6017 Clouds 3 1028 80 10000 0.5 360 21:49 29.11.2020
6018 Clouds 3 1028 80 10000 0.5 100 21:28 29.11.2020
6019 Clouds 3 1028 74 10000 0.5 10 19:49 29.11.2020
6020 Clouds 4 1028 74 10000 2.1 360 17:47 29.11.2020
6021 Clouds 5 1028 80 10000 1.5 10 14:54 29.11.2020
6022 Clouds 5 1028 69 10000 1.5 0 12:58 29.11.2020
6023 Clouds 2 1028 72 10000 1 60 11:41 29.11.2020
6024 Clouds 1 1028 73 10000 1 60 09:42 29.11.2020
6025 Clouds 0 1028 73 10000 1.5 50 08:37 29.11.2020
6026 Clouds -1 1028 100 9000 2.1 100 04:40 29.11.2020
6027 Clouds 2 1027 79 10000 4.6 110 23:48 28.11.2020
6028 Clouds 2 1027 79 10000 4.6 110 22:56 28.11.2020
6029 Clouds 1 1026 79 10000 5.1 100 20:44 28.11.2020
6030 Clouds 1 1026 100 6000 4.1 90 19:47 28.11.2020
6031 Clouds 1 1026 100 6000 4.1 90 19:21 28.11.2020
6032 Drizzle 1 1026 100 1200 5.1 120 18:27 28.11.2020
6033 Mist 1 1025 100 1000 4.1 100 17:47 28.11.2020
6034 Mist 1 1025 100 1200 4.1 120 16:40 28.11.2020
6035 Mist 2 1025 93 1500 5.1 90 14:52 28.11.2020
6036 Mist 2 1024 100 2000 3.6 110 11:31 28.11.2020
6037 Mist 2 1024 93 1200 3.6 110 10:36 28.11.2020
6038 Fog 0 1022 84 100 3.6 110 06:36 28.11.2020
6039 Clouds 1 1022 86 50 3.1 80 03:26 28.11.2020
6040 Clouds 2 1022 100 100 2.6 80 01:34 28.11.2020
6041 Fog 3 1022 100 700 2.6 90 22:56 27.11.2020
6042 Fog 3 1022 100 1500 2.1 80 21:33 27.11.2020
6043 Fog 4 1022 93 4000 1 100 20:31 27.11.2020
6044 Clouds 5 1021 100 8000 2.1 90 19:25 27.11.2020
6045 Clouds 6 1021 93 9000 3.1 100 18:44 27.11.2020
6046 Clouds 7 1021 93 10000 2.6 90 14:56 27.11.2020
6047 Clouds 7 1021 93 10000 2.1 100 13:29 27.11.2020
6048 Mist 5 1022 100 3700 2.1 110 12:48 27.11.2020
6049 Mist 5 1022 100 3700 2.1 110 11:50 27.11.2020
6050 Mist 5 1022 100 2000 2.6 120 10:51 27.11.2020
6051 Fog 4 1021 100 500 2.1 120 10:22 27.11.2020
6052 Clear 9 1021 72 10000 1.69 92 07:30 27.11.2020
6053 Clear 10 1021 73 10000 3.45 302 22:42 26.11.2020
6054 Clear 10 1020 74 10000 3.84 305 22:22 26.11.2020
6055 Clouds 5 1020 100 10000 1.5 240 21:25 26.11.2020
6056 Clouds 6 1020 93 10000 1.5 260 19:41 26.11.2020
6057 Clouds 6 1019 93 10000 2.1 250 18:31 26.11.2020
6058 Clouds 9 1019 81 10000 2.6 270 16:32 26.11.2020
6059 Clouds 10 1019 81 10000 3.6 320 13:43 26.11.2020
6060 Clouds 10 1019 87 10000 2.6 310 12:45 26.11.2020
6061 Clouds 10 1019 87 10000 2.6 310 12:23 26.11.2020
6062 Clouds 9 1018 93 8000 2.1 270 10:38 26.11.2020
6063 Mist 9 1018 93 1800 2.1 260 09:59 26.11.2020
6064 Mist 9 1017 93 1100 4.1 260 09:31 26.11.2020
6065 Drizzle 8 1017 100 1500 4.1 240 08:40 26.11.2020
6066 Drizzle 8 1017 100 1500 4.1 240 07:49 26.11.2020
6067 Clouds 7 1016 87 10000 3.6 220 00:46 26.11.2020
6068 Clouds 6 1016 93 10000 3.6 220 21:36 25.11.2020
6069 Clouds 6 1016 81 10000 4.1 210 20:19 25.11.2020
6070 Clouds 7 1015 81 10000 3.6 200 18:58 25.11.2020
6071 Clouds 7 1015 81 10000 2.6 190 17:24 25.11.2020
6072 Clouds 7 1015 75 10000 3.1 190 15:42 25.11.2020
6073 Clouds 8 1015 75 10000 3.1 200 14:46 25.11.2020
6074 Clouds 8 1016 75 10000 3.6 210 13:45 25.11.2020
6075 Clouds 7 1016 81 10000 3.1 200 12:47 25.11.2020
6076 Clouds 6 1016 80 10000 4.6 180 11:22 25.11.2020
6077 Clouds 3 1016 86 9000 4.1 180 09:20 25.11.2020
6078 Clouds 3 1015 93 10000 3.6 190 08:50 25.11.2020
6079 Clouds 3 1016 86 10000 3.6 190 07:21 25.11.2020
6080 Clouds 4 1017 93 8000 4.1 180 03:49 25.11.2020
6081 Clouds 5 1017 86 7000 3.1 170 01:48 25.11.2020
6082 Clouds 6 1018 87 8000 3.6 190 00:19 25.11.2020
6083 Clouds 7 1018 87 10000 3.6 190 23:35 24.11.2020
6084 Clouds 8 1019 81 10000 4.1 200 22:39 24.11.2020
6085 Clouds 8 1019 81 10000 4.1 200 22:39 24.11.2020
6086 Clouds 8 1019 81 10000 4.6 200 21:35 24.11.2020
6087 Clouds 8 1019 81 10000 4.6 200 20:58 24.11.2020
6088 Clouds 8 1019 87 10000 4.1 190 19:48 24.11.2020
6089 Clouds 8 1019 87 10000 3.6 200 17:32 24.11.2020
6090 Clouds 8 1019 87 10000 3.6 200 16:58 24.11.2020
6091 Clouds 8 1020 87 10000 4.1 200 16:38 24.11.2020
6092 Clouds 8 1020 87 10000 4.1 200 15:56 24.11.2020
6093 Clouds 8 1020 87 10000 5.7 210 15:20 24.11.2020
6094 Clouds 9 1020 81 8000 6.2 210 14:44 24.11.2020
6095 Clouds 9 1020 81 8000 6.2 210 13:36 24.11.2020
6096 Clouds 8 1021 87 7000 6.7 210 12:39 24.11.2020
6097 Clouds 8 1021 87 7000 6.7 210 12:18 24.11.2020
6098 Clouds 7 1021 93 7000 6.7 210 11:25 24.11.2020
6099 Clouds 7 1021 87 6000 6.2 220 10:25 24.11.2020
6100 Clouds 6 1021 93 6000 6.7 210 09:40 24.11.2020
6101 Clouds 6 1021 93 6000 6.7 210 08:59 24.11.2020
6102 Clouds 5 1021 93 7000 6.2 220 06:42 24.11.2020
6103 Clouds 5 1024 86 10000 5.1 210 01:24 24.11.2020
6104 Clouds 6 1025 87 10000 5.1 220 22:24 23.11.2020
6105 Clouds 6 1025 87 10000 5.1 220 22:24 23.11.2020
6106 Clouds 6 1025 87 10000 5.1 220 21:32 23.11.2020
6107 Clouds 6 1026 87 10000 3.6 230 20:32 23.11.2020
6108 Clouds 6 1026 87 10000 3.6 230 19:59 23.11.2020
6109 Clouds 7 1025 87 10000 3.6 230 17:58 23.11.2020
6110 Clouds 8 1025 81 10000 3.6 240 17:19 23.11.2020
6111 Clouds 9 1025 81 10000 4.6 250 15:44 23.11.2020
6112 Clouds 9 1024 81 10000 6.7 250 14:46 23.11.2020
6113 Clouds 8 1024 87 10000 2.6 270 12:42 23.11.2020
6114 Clouds 8 1024 87 10000 2.6 270 12:21 23.11.2020
6115 Clouds 7 1024 87 10000 4.1 230 11:43 23.11.2020
6116 Clouds 7 1023 87 10000 3.6 250 10:45 23.11.2020
6117 Clouds 7 1022 87 10000 4.6 280 09:31 23.11.2020
6118 Clouds 7 1022 87 10000 5.1 260 08:39 23.11.2020
6119 Clouds 7 1021 81 10000 7.2 260 06:57 23.11.2020
6120 Rain 6 1021 87 7000 4.1 240 00:23 23.11.2020
6121 Clouds 6 1021 93 10000 4.1 240 23:18 22.11.2020
6122 Clouds 7 1021 87 10000 3.6 230 21:40 22.11.2020
6123 Clouds 7 1021 87 10000 3.6 230 20:53 22.11.2020
6124 Clouds 7 1021 87 10000 3.6 240 19:53 22.11.2020
6125 Clouds 8 1021 81 10000 4.6 250 18:40 22.11.2020
6126 Clouds 9 1021 76 10000 6.2 260 16:52 22.11.2020
6127 Clouds 10 1020 76 10000 6.2 270 15:44 22.11.2020
6128 Clouds 10 1020 76 10000 6.7 270 14:34 22.11.2020
6129 Clouds 10 1020 76 10000 7.7 260 12:50 22.11.2020
6130 Clouds 9 1020 81 10000 7.7 250 11:57 22.11.2020
6131 Clouds 9 1020 81 10000 7.7 250 11:20 22.11.2020
6132 Clouds 9 1019 87 10000 7.2 250 10:45 22.11.2020
6133 Clouds 8 1019 100 10000 5.1 240 09:32 22.11.2020
6134 Rain 9 1019 93 2900 6.2 230 01:49 22.11.2020
6135 Mist 9 1020 93 5000 7.2 240 23:40 21.11.2020
6136 Drizzle 9 1020 93 4000 6.7 240 22:18 21.11.2020
6137 Drizzle 9 1020 93 4000 6.7 230 21:30 21.11.2020
6138 Drizzle 9 1020 93 4000 6.7 230 21:30 21.11.2020
6139 Clouds 8 1020 100 6000 6.7 230 20:35 21.11.2020
6140 Mist 9 1020 93 5000 6.7 230 19:57 21.11.2020
6141 Mist 8 1021 100 5000 7.2 230 19:36 21.11.2020
6142 Drizzle 8 1021 100 4500 6.7 230 18:28 21.11.2020
6143 Drizzle 8 1021 93 2000 7.7 220 17:26 21.11.2020
6144 Drizzle 8 1021 93 3700 7.7 220 16:39 21.11.2020
6145 Drizzle 7 1021 100 1500 7.7 220 15:22 21.11.2020
6146 Mist 7 1021 93 2800 7.7 220 14:48 21.11.2020
6147 Drizzle 7 1021 93 2800 7.7 220 14:22 21.11.2020
6148 Drizzle 6 1022 93 2500 7.7 210 12:42 21.11.2020
6149 Drizzle 6 1023 93 3500 8.2 220 12:20 21.11.2020
6150 Clouds 6 1023 93 6000 8.2 220 10:57 21.11.2020
6151 Clouds 5 1023 93 7000 8.2 210 10:26 21.11.2020
6152 Clouds 5 1024 86 10000 7.7 210 08:51 21.11.2020
6153 Clouds 5 1025 75 10000 6.7 210 06:51 21.11.2020
6154 Clouds 4 1027 80 7000 7.2 210 05:24 21.11.2020
6155 Clouds 4 1030 85 9000 5.1 210 01:43 21.11.2020
6156 Clouds 4 1031 80 10000 5.1 220 23:59 20.11.2020
6157 Clouds 4 1031 93 10000 4.1 210 22:31 20.11.2020
6158 Clouds 4 1031 93 10000 3.6 210 21:44 20.11.2020
6159 Clouds 4 1031 93 10000 3.6 210 21:21 20.11.2020
6160 Clouds 5 1031 93 10000 3.1 210 19:52 20.11.2020
6161 Clouds 6 1031 87 10000 3.6 220 18:53 20.11.2020
6162 Rain 5 1031 93 10000 3.1 220 17:58 20.11.2020
6163 Clouds 5 1031 86 10000 2.6 220 17:29 20.11.2020
6164 Clouds 6 1031 81 10000 3.1 220 16:40 20.11.2020
6165 Clouds 6 1031 81 10000 3.1 220 15:59 20.11.2020
6166 Clouds 7 1031 75 10000 3.6 220 15:34 20.11.2020
6167 Clouds 6 1031 81 10000 0.5 360 13:48 20.11.2020
6168 Clouds 6 1031 81 10000 0.5 360 13:19 20.11.2020
6169 Clouds 5 1031 86 10000 1.5 330 12:39 20.11.2020
6170 Clouds 6 1031 81 5000 4.6 280 11:46 20.11.2020
6171 Clouds 6 1030 81 10000 7.19 314 11:20 20.11.2020
6172 Clouds 4 1028 86 10000 2.1 290 09:31 20.11.2020
6173 Clouds 5 1028 80 10000 5.7 10 08:26 20.11.2020
6174 Clouds 5 1027 80 8000 5.7 310 07:34 20.11.2020
6175 Clouds 5 1026 75 10000 4.1 310 03:45 20.11.2020
6176 Clouds 6 1024 75 10000 5.7 320 23:25 19.11.2020
6177 Clouds 6 1023 60 10000 6.7 310 22:27 19.11.2020
6178 Clouds 6 1022 60 10000 6.7 310 21:49 19.11.2020
6179 Clouds 5 1022 59 8000 6.7 300 20:37 19.11.2020
6180 Clouds 6 1022 70 5000 9.3 310 20:18 19.11.2020
6181 Clouds 7 1021 70 6000 7.7 330 19:25 19.11.2020
6182 Clouds 7 1018 70 10000 8.7 300 17:50 19.11.2020
6183 Clouds 7 1018 70 10000 8.7 300 16:59 19.11.2020
6184 Clouds 8 1017 52 10000 10.3 320 15:59 19.11.2020
6185 Clouds 9 1015 57 10000 11.8 310 15:28 19.11.2020
6186 Clouds 8 1013 87 10000 12.9 300 13:47 19.11.2020
6187 Clouds 8 1013 87 10000 12.9 300 13:25 19.11.2020
6188 Clouds 9 1012 81 8000 12.9 310 12:51 19.11.2020
6189 Rain 9 1011 87 10000 12.3 260 12:25 19.11.2020
6190 Clouds 9 1010 81 10000 9.3 240 11:40 19.11.2020
6191 Clouds 9 1010 81 10000 9.3 240 11:00 19.11.2020
6192 Clouds 9 1009 76 10000 8.2 230 10:29 19.11.2020
6193 Clouds 8 1009 81 10000 7.7 230 09:45 19.11.2020
6194 Rain 8 1009 81 10000 7.7 230 09:26 19.11.2020
6195 Clouds 9 1009 76 10000 7.7 240 08:20 19.11.2020
6196 Clouds 9 1009 76 10000 8.7 250 06:54 19.11.2020
6197 Rain 12 1009 81 10000 8.2 220 01:46 19.11.2020
6198 Clouds 13 1009 71 10000 7.2 230 00:31 19.11.2020
6199 Clouds 13 1010 71 10000 7.7 220 23:30 18.11.2020
6200 Clouds 13 1010 71 10000 7.7 220 22:57 18.11.2020
6201 Clouds 13 1010 71 10000 7.2 210 22:27 18.11.2020
6202 Rain 12 1011 76 10000 7.7 200 21:41 18.11.2020
6203 Clouds 12 1011 76 10000 7.7 200 21:21 18.11.2020
6204 Clouds 12 1012 76 10000 6.2 200 19:54 18.11.2020
6205 Clouds 11 1014 81 10000 4.6 190 19:35 18.11.2020
6206 Clouds 11 1014 81 10000 4.6 190 18:57 18.11.2020
6207 Clouds 11 1015 81 10000 5.1 180 18:38 18.11.2020
6208 Clouds 11 1016 81 10000 5.1 190 17:38 18.11.2020
6209 Clouds 12 1017 76 10000 5.7 200 16:25 18.11.2020
6210 Clouds 12 1017 76 10000 5.7 200 15:57 18.11.2020
6211 Clouds 12 1015 87 10000 10.88 199 14:41 18.11.2020
6212 Clouds 11 1017 86 10000 10.9 210 13:46 18.11.2020
6213 Clouds 11 1018 87 10000 11.22 214 13:21 18.11.2020
6214 Clouds 11 1018 87 10000 11.22 214 12:42 18.11.2020
6215 Clouds 11 1019 88 10000 11.6 216 11:41 18.11.2020
6216 Clouds 11 1021 93 10000 5.7 220 10:54 18.11.2020
6217 Clouds 11 1021 93 10000 5.7 220 10:27 18.11.2020
6218 Clouds 11 1021 93 8000 4.6 220 08:23 18.11.2020
6219 Mist 11 1021 93 4000 5.1 220 06:36 18.11.2020
6220 Clouds 11 1021 100 1500 5.7 220 01:49 18.11.2020
6221 Clouds 11 1021 100 2600 5.1 230 23:53 17.11.2020
6222 Drizzle 11 1021 100 4000 6.2 220 22:53 17.11.2020
6223 Drizzle 11 1021 100 4000 5.7 220 22:29 17.11.2020
6224 Drizzle 11 1021 100 4000 5.7 220 21:58 17.11.2020
6225 Drizzle 11 1021 100 4500 5.7 220 21:39 17.11.2020
6226 Clouds 12 1020 87 8000 5.1 230 20:55 17.11.2020
6227 Drizzle 11 1020 93 7000 5.1 220 20:27 17.11.2020
6228 Drizzle 11 1020 93 7000 5.1 220 19:59 17.11.2020
6229 Drizzle 11 1019 93 6000 5.1 220 18:35 17.11.2020
6230 Drizzle 12 1019 87 7000 5.7 240 17:44 17.11.2020
6231 Clouds 12 1019 93 10000 6.2 230 16:59 17.11.2020
6232 Clouds 12 1019 93 10000 6.2 230 16:20 17.11.2020
6233 Clouds 13 1018 87 10000 5.7 240 15:45 17.11.2020
6234 Clouds 13 1018 87 10000 5.7 240 15:27 17.11.2020
6235 Clouds 13 1018 87 10000 5.7 240 14:56 17.11.2020
6236 Clouds 12 1018 93 10000 5.1 240 14:28 17.11.2020
6237 Drizzle 11 1018 100 8000 5.7 230 13:38 17.11.2020
6238 Drizzle 11 1018 100 8000 5.7 230 13:18 17.11.2020
6239 Drizzle 11 1017 100 3000 6.7 220 12:40 17.11.2020
6240 Drizzle 11 1017 93 4000 7.2 220 11:44 17.11.2020
6241 Mist 10 1016 100 3500 6.7 210 10:49 17.11.2020
6242 Mist 10 1016 100 3500 6.7 210 10:23 17.11.2020
6243 Mist 10 1016 100 3500 6.7 210 09:50 17.11.2020
6244 Mist 10 1016 93 3000 5.7 210 09:27 17.11.2020
6245 Clouds 10 1016 93 8000 6.2 210 08:22 17.11.2020
6246 Clouds 9 1016 93 9000 6.2 210 07:44 17.11.2020
6247 Rain 9 1016 87 10000 5.1 210 06:34 17.11.2020
6248 Clouds 8 1017 93 7000 4.6 210 03:31 17.11.2020
6249 Clouds 8 1017 93 7000 4.6 210 02:53 17.11.2020
6250 Clouds 9 1016 87 7000 4.6 230 01:23 17.11.2020
6251 Clouds 9 1016 87 7000 4.6 230 00:53 17.11.2020
6252 Clouds 10 1015 87 10000 4.6 230 23:48 16.11.2020
6253 Clouds 10 1015 87 10000 4.6 230 23:29 16.11.2020
6254 Clouds 10 1015 87 10000 4.6 240 22:43 16.11.2020
6255 Clouds 10 1015 87 10000 4.6 240 22:20 16.11.2020
6256 Clouds 10 1014 87 10000 4.6 240 21:45 16.11.2020
6257 Clouds 10 1014 87 10000 4.6 240 21:24 16.11.2020
6258 Clouds 11 1013 87 10000 4.6 240 20:38 16.11.2020
6259 Clouds 11 1013 87 10000 4.6 240 20:20 16.11.2020
6260 Clouds 11 1013 87 10000 6.2 250 19:38 16.11.2020
6261 Clouds 11 1013 87 10000 6.2 250 19:19 16.11.2020
6262 Clouds 11 1012 87 10000 6.7 250 18:31 16.11.2020
6263 Clouds 11 1011 93 10000 5.1 240 17:50 16.11.2020
6264 Clouds 11 1011 93 10000 5.1 240 17:21 16.11.2020
6265 Clouds 11 1011 93 10000 5.1 240 16:53 16.11.2020
6266 Clouds 11 1010 93 6000 5.7 230 16:28 16.11.2020
6267 Clouds 11 1010 93 6000 5.7 230 15:52 16.11.2020
6268 Rain 10 1009 93 8000 5.7 230 15:31 16.11.2020
6269 Clouds 10 1009 93 7000 6.7 220 14:57 16.11.2020
6270 Rain 10 1008 93 6000 6.7 220 14:28 16.11.2020
6271 Mist 10 1008 87 4000 7.2 220 13:31 16.11.2020
6272 Rain 10 1007 87 4500 7.2 220 12:33 16.11.2020
6273 Clouds 10 1006 81 10000 7.2 220 11:44 16.11.2020
6274 Clouds 10 1006 81 10000 7.2 220 11:25 16.11.2020
6275 Clouds 10 1005 81 10000 7.2 230 10:48 16.11.2020
6276 Clouds 10 1005 81 10000 7.2 230 10:26 16.11.2020
6277 Clouds 9 1005 87 10000 6.7 220 09:56 16.11.2020
6278 Clouds 9 1004 81 10000 8.2 220 09:37 16.11.2020
6279 Clouds 9 1003 81 10000 7.7 210 08:49 16.11.2020
6280 Rain 9 1003 81 10000 7.7 210 08:26 16.11.2020
6281 Clouds 9 1003 81 10000 7.7 200 07:43 16.11.2020
6282 Clouds 8 1002 81 10000 6.2 200 06:47 16.11.2020
6283 Clouds 8 1002 81 10000 6.2 200 05:50 16.11.2020
6284 Rain 9 1001 81 8000 6.2 200 04:33 16.11.2020
6285 Clouds 8 1001 87 7000 4.6 200 01:47 16.11.2020
6286 Clouds 8 1001 87 7000 4.6 200 01:21 16.11.2020
6287 Clouds 8 1000 93 9000 3.6 190 23:43 15.11.2020
6288 Clouds 8 1000 93 9000 3.6 190 23:21 15.11.2020
6289 Rain 8 1000 93 5000 5.7 250 22:37 15.11.2020
6290 Mist 8 1000 93 5000 5.7 250 22:18 15.11.2020
6291 Rain 10 999 87 2500 9.3 210 21:41 15.11.2020
6292 Rain 13 998 82 10000 7.2 160 21:20 15.11.2020
6293 Rain 14 999 76 9000 6.2 180 20:40 15.11.2020
6294 Clouds 14 999 76 9000 6.2 180 20:18 15.11.2020
6295 Rain 15 1000 67 10000 6.7 160 19:43 15.11.2020
6296 Rain 15 1000 67 10000 6.7 160 19:22 15.11.2020
6297 Rain 15 1000 67 10000 6.7 160 18:55 15.11.2020
6298 Rain 14 1000 76 10000 6.2 160 18:37 15.11.2020
6299 Rain 14 1000 76 10000 6.2 160 18:18 15.11.2020
6300 Rain 14 1001 76 10000 6.2 160 17:42 15.11.2020
6301 Rain 14 1001 76 10000 6.2 160 17:22 15.11.2020
6302 Clouds 15 1002 72 10000 5.1 160 16:45 15.11.2020
6303 Clouds 15 1002 72 10000 5.1 160 16:20 15.11.2020
6304 Clouds 15 1002 72 10000 5.1 160 15:49 15.11.2020
6305 Clouds 15 1003 72 10000 6.7 170 15:26 15.11.2020
6306 Clouds 15 1003 72 10000 6.7 170 14:55 15.11.2020
6307 Clouds 15 1004 72 10000 6.7 160 14:29 15.11.2020
6308 Clouds 15 1004 72 10000 6.7 160 13:56 15.11.2020
6309 Clouds 15 1005 67 10000 6.2 180 13:36 15.11.2020
6310 Clouds 15 1005 67 10000 6.2 180 12:50 15.11.2020
6311 Clouds 14 1005 71 10000 6.7 190 12:22 15.11.2020
6312 Clouds 14 1006 71 10000 6.7 180 11:46 15.11.2020
6313 Clouds 14 1006 71 10000 6.7 180 11:19 15.11.2020
6314 Clouds 14 1006 71 10000 6.7 180 10:53 15.11.2020
6315 Clouds 12 1007 81 10000 5.7 170 10:32 15.11.2020
6316 Clouds 12 1007 81 10000 5.7 170 09:57 15.11.2020
6317 Clouds 12 1007 81 10000 4.6 180 09:37 15.11.2020
6318 Clouds 12 1007 81 10000 4.6 180 09:18 15.11.2020
6319 Clouds 12 1007 81 10000 4.6 190 08:45 15.11.2020
6320 Clouds 12 1008 81 10000 5.1 200 07:47 15.11.2020
6321 Clouds 13 1008 76 9000 4.6 190 06:49 15.11.2020
6322 Clouds 12 1008 81 8000 4.6 190 04:56 15.11.2020
6323 Rain 12 1010 81 8000 4.6 180 02:31 15.11.2020
6324 Clouds 11 1010 87 7000 3.6 180 00:37 15.11.2020
6325 Clouds 11 1010 87 7000 3.6 180 00:18 15.11.2020
6326 Clouds 12 1011 87 10000 4.1 180 23:30 14.11.2020
6327 Clouds 12 1011 87 10000 4.1 170 22:46 14.11.2020
6328 Clouds 12 1011 87 10000 4.1 170 22:27 14.11.2020
6329 Clouds 13 1011 82 10000 3.6 180 21:40 14.11.2020
6330 Clouds 13 1011 82 10000 3.6 180 21:21 14.11.2020
6331 Clouds 13 1011 82 10000 3.6 180 20:48 14.11.2020
6332 Clouds 13 1012 87 10000 3.6 180 20:26 14.11.2020
6333 Clouds 12 1012 93 9000 4.1 180 19:46 14.11.2020
6334 Clouds 12 1012 93 9000 4.1 180 19:27 14.11.2020
6335 Clouds 12 1012 93 6000 3.6 170 18:43 14.11.2020
6336 Clouds 12 1012 93 6000 3.6 170 18:23 14.11.2020
6337 Mist 12 1013 93 3000 3.6 160 17:49 14.11.2020
6338 Mist 12 1013 93 3000 3.6 160 17:31 14.11.2020
6339 Mist 12 1013 93 3000 4.1 160 16:56 14.11.2020
6340 Drizzle 12 1013 93 2800 3.1 140 16:36 14.11.2020
6341 Drizzle 12 1013 93 2800 2.6 140 16:18 14.11.2020
6342 Mist 12 1014 87 2000 2.6 160 15:44 14.11.2020
6343 Mist 12 1014 87 4000 2.6 160 15:18 14.11.2020
6344 Mist 12 1014 87 5000 2.1 190 14:38 14.11.2020
6345 Rain 12 1014 87 5000 2.1 190 14:20 14.11.2020
6346 Mist 11 1015 93 4000 2.6 210 13:40 14.11.2020
6347 Mist 11 1015 93 4000 2.6 210 13:21 14.11.2020
6348 Rain 11 1015 93 1800 2.6 210 12:43 14.11.2020
6349 Mist 11 1015 93 1800 2.6 210 12:23 14.11.2020
6350 Mist 10 1015 100 1300 2.6 190 11:41 14.11.2020
6351 Mist 10 1015 100 1300 2.6 190 11:41 14.11.2020
6352 Mist 10 1015 100 1300 2.6 190 11:22 14.11.2020
6353 Mist 9 1015 100 2800 2.6 180 10:42 14.11.2020
6354 Rain 9 1015 100 2800 2.6 180 10:23 14.11.2020
6355 Fog 8 1015 100 900 1.5 200 09:46 14.11.2020
6356 Fog 8 1015 100 900 1.5 200 09:28 14.11.2020
6357 Fog 8 1015 100 1200 2.1 200 08:48 14.11.2020
6358 Fog 8 1015 100 1200 2.1 200 08:26 14.11.2020
6359 Fog 8 1015 100 900 2.1 210 07:43 14.11.2020
6360 Fog 8 1015 100 900 2.1 210 07:22 14.11.2020
6361 Fog 8 1015 100 400 2.1 210 06:30 14.11.2020
6362 Fog 8 1015 100 300 2.1 220 05:27 14.11.2020
6363 Fog 9 1015 100 2500 2.1 240 03:52 14.11.2020
6364 Clouds 11 1014 100 4900 4.6 220 00:54 14.11.2020
6365 Clouds 11 1014 93 7000 4.1 210 23:46 13.11.2020
6366 Clouds 11 1014 93 7000 4.1 210 23:23 13.11.2020
6367 Clouds 11 1014 93 7000 3.6 210 22:44 13.11.2020
6368 Clouds 11 1014 93 7000 3.6 210 22:25 13.11.2020
6369 Clouds 11 1013 87 8000 4.1 210 21:51 13.11.2020
6370 Clouds 10 1013 87 9000 4.6 190 21:33 13.11.2020
6371 Clouds 10 1013 87 9000 4.6 190 20:59 13.11.2020
6372 Clouds 10 1013 87 9000 3.6 190 20:40 13.11.2020
6373 Clouds 10 1013 87 9000 3.6 190 20:20 13.11.2020
6374 Clouds 9 1013 87 10000 3.6 180 19:45 13.11.2020
6375 Rain 9 1013 87 10000 3.6 180 19:23 13.11.2020
6376 Clouds 9 1013 87 10000 3.6 180 18:53 13.11.2020
6377 Drizzle 10 1013 81 7000 3.6 190 18:00 13.11.2020
6378 Clouds 10 1013 81 10000 4.1 160 17:39 13.11.2020
6379 Clouds 10 1013 81 10000 4.1 160 17:18 13.11.2020
6380 Clouds 10 1013 81 10000 4.1 150 16:47 13.11.2020
6381 Clouds 10 1013 81 10000 4.1 150 16:21 13.11.2020
6382 Clouds 10 1014 81 10000 4.1 160 15:42 13.11.2020
6383 Clouds 10 1014 81 10000 4.1 160 15:23 13.11.2020
6384 Clouds 11 1014 76 10000 4.1 160 14:41 13.11.2020
6385 Clouds 11 1014 76 10000 4.1 160 14:20 13.11.2020
6386 Clouds 10 1015 81 10000 4.1 190 13:45 13.11.2020
6387 Clouds 10 1015 81 10000 4.1 190 13:21 13.11.2020
6388 Clouds 9 1016 81 10000 3.6 190 12:45 13.11.2020
6389 Clouds 9 1016 81 10000 3.6 190 12:24 13.11.2020
6390 Clouds 8 1016 87 9000 3.6 180 11:48 13.11.2020
6391 Clouds 8 1016 87 9000 3.6 180 11:25 13.11.2020
6392 Clouds 8 1016 87 9000 3.6 180 10:55 13.11.2020
6393 Clouds 7 1016 93 6000 4.1 190 10:34 13.11.2020
6394 Clouds 7 1016 93 6000 4.1 190 09:56 13.11.2020
6395 Clouds 7 1016 93 6000 4.1 190 09:56 13.11.2020
6396 Mist 6 1016 100 5000 3.6 190 09:34 13.11.2020
6397 Mist 6 1016 93 4000 4.1 190 09:00 13.11.2020
6398 Mist 6 1016 93 3000 3.1 180 08:34 13.11.2020
6399 Mist 6 1016 93 3000 3.1 180 07:58 13.11.2020
6400 Mist 6 1016 100 5000 3.1 200 07:39 13.11.2020
6401 Mist 6 1016 100 5000 3.1 200 07:21 13.11.2020
6402 Clouds 6 1016 100 7000 3.1 210 06:48 13.11.2020
6403 Clear 7 1016 93 6000 3.6 210 05:43 13.11.2020
6404 Clouds 7 1016 93 6000 3.6 210 04:59 13.11.2020
6405 Clear 9 1017 93 7000 4.1 220 01:45 13.11.2020
6406 Clouds 9 1017 93 5000 3.6 220 00:38 13.11.2020
6407 Clouds 9 1017 93 5000 3.6 220 00:18 13.11.2020
6408 Clouds 9 1017 93 9000 3.6 220 23:38 12.11.2020
6409 Clouds 9 1017 93 8000 3.6 220 23:19 12.11.2020
6410 Clouds 9 1017 93 8000 3.6 220 22:50 12.11.2020
6411 Clouds 9 1016 93 8000 4.6 220 22:30 12.11.2020
6412 Clouds 8 1016 100 10000 3.6 210 21:43 12.11.2020
6413 Clouds 8 1016 100 10000 3.6 210 21:24 12.11.2020
6414 Clouds 8 1016 100 10000 3.6 210 20:58 12.11.2020
6415 Clouds 8 1016 93 10000 2.6 210 20:39 12.11.2020
6416 Clouds 8 1016 93 10000 3.6 200 20:20 12.11.2020
6417 Rain 8 1015 87 10000 2.6 180 19:45 12.11.2020
6418 Clouds 8 1015 87 10000 2.6 180 19:27 12.11.2020
6419 Clouds 8 1015 93 10000 4.6 190 18:49 12.11.2020
6420 Clouds 8 1015 93 10000 4.6 190 18:24 12.11.2020
6421 Clouds 10 1014 93 10000 3.1 190 17:46 12.11.2020
6422 Clouds 10 1014 93 10000 3.1 190 17:27 12.11.2020
6423 Clouds 11 1014 87 10000 3.1 180 16:47 12.11.2020
6424 Clouds 11 1014 87 10000 3.1 180 16:27 12.11.2020
6425 Clouds 11 1014 87 10000 3.1 180 15:59 12.11.2020
6426 Clouds 10 1014 93 10000 4.6 190 15:40 12.11.2020
6427 Clouds 10 1014 93 10000 4.6 190 15:20 12.11.2020
6428 Clouds 10 1014 87 10000 3.6 190 14:46 12.11.2020
6429 Clouds 9 1014 93 8000 4.6 180 14:25 12.11.2020
6430 Mist 8 1014 100 5000 4.6 170 13:49 12.11.2020
6431 Mist 8 1014 93 4500 4.1 170 13:21 12.11.2020
6432 Mist 8 1014 93 4500 4.1 170 12:59 12.11.2020
6433 Rain 8 1014 93 4500 4.6 170 12:39 12.11.2020
6434 Rain 8 1015 93 5000 4.1 160 12:18 12.11.2020
6435 Rain 7 1015 93 4000 5.1 160 11:45 12.11.2020
6436 Mist 7 1015 93 4000 5.1 160 11:26 12.11.2020
6437 Mist 7 1015 93 4000 3.6 150 10:41 12.11.2020
6438 Mist 7 1015 93 4000 3.6 150 10:23 12.11.2020
6439 Mist 6 1015 100 2500 3.6 140 09:46 12.11.2020
6440 Mist 6 1015 100 2500 3.6 140 09:22 12.11.2020
6441 Rain 6 1015 100 2500 3.6 140 08:57 12.11.2020
6442 Mist 7 1016 93 2000 3.6 130 08:37 12.11.2020
6443 Mist 7 1016 93 2000 3.6 130 08:19 12.11.2020
6444 Mist 7 1016 100 3000 4.1 140 07:42 12.11.2020
6445 Mist 7 1016 100 3000 4.1 140 07:19 12.11.2020
6446 Mist 8 1016 100 3000 3.6 150 06:49 12.11.2020
6447 Clouds 8 1017 100 2200 3.6 150 05:23 12.11.2020
6448 Clouds 8 1018 100 250 3.6 130 03:21 12.11.2020
6449 Clouds 8 1019 100 500 2.6 130 02:24 12.11.2020
6450 Clouds 8 1020 100 700 2.6 120 23:59 11.11.2020
6451 Fog 8 1021 93 450 3.1 130 23:25 11.11.2020
6452 Fog 8 1021 93 450 3.1 130 22:59 11.11.2020
6453 Fog 7 1021 100 500 2.6 130 22:39 11.11.2020
6454 Fog 7 1021 100 500 2.6 130 22:21 11.11.2020
6455 Fog 7 1022 100 500 3.1 120 21:43 11.11.2020
6456 Fog 7 1022 100 500 3.1 120 21:25 11.11.2020
6457 Fog 7 1022 100 500 3.1 120 20:59 11.11.2020
6458 Fog 7 1022 100 300 2.1 130 20:40 11.11.2020
6459 Fog 7 1022 100 300 2.1 130 20:21 11.11.2020
6460 Fog 7 1022 100 300 2.1 130 19:49 11.11.2020
6461 Fog 7 1022 100 400 2.1 120 19:31 11.11.2020
6462 Fog 7 1022 100 400 2.1 120 18:54 11.11.2020
6463 Fog 7 1023 100 300 1 0 18:33 11.11.2020
6464 Fog 7 1023 100 400 3.1 120 17:43 11.11.2020
6465 Fog 7 1023 100 400 3.1 120 17:23 11.11.2020
6466 Fog 7 1023 100 400 3.1 120 16:55 11.11.2020
6467 Fog 7 1023 100 400 2.6 110 16:34 11.11.2020
6468 Fog 7 1023 100 400 2.6 110 15:52 11.11.2020
6469 Fog 7 1023 100 300 2.1 120 15:27 11.11.2020
6470 Fog 7 1023 100 300 2.1 120 14:59 11.11.2020
6471 Fog 7 1024 93 300 1 120 14:38 11.11.2020
6472 Fog 7 1024 93 300 1 120 13:57 11.11.2020
6473 Fog 7 1024 93 300 1 120 13:57 11.11.2020
6474 Fog 6 1024 100 700 1 0 13:38 11.11.2020
6475 Fog 6 1024 100 700 1 0 12:52 11.11.2020
6476 Fog 6 1025 100 500 2.1 150 12:21 11.11.2020
6477 Fog 6 1025 100 500 2.1 150 11:50 11.11.2020
6478 Fog 6 1025 100 500 2.1 150 11:50 11.11.2020
6479 Fog 6 1025 93 800 2.1 130 11:30 11.11.2020
6480 Fog 5 1026 100 300 2.1 140 10:43 11.11.2020
6481 Fog 5 1026 100 300 2.1 140 10:25 11.11.2020
6482 Drizzle 5 1026 100 300 2.1 130 09:52 11.11.2020
6483 Drizzle 5 1026 100 300 2.1 130 09:29 11.11.2020
6484 Drizzle 5 1026 100 300 2.1 130 08:57 11.11.2020
6485 Drizzle 5 1025 100 400 1.5 100 08:36 11.11.2020
6486 Drizzle 5 1025 100 400 1.5 100 08:18 11.11.2020
6487 Drizzle 5 1026 100 600 0.5 100 07:41 11.11.2020
6488 Drizzle 5 1026 100 500 1.5 120 06:30 11.11.2020
6489 Clouds 5 1026 100 400 2.1 110 04:49 11.11.2020
6490 Clouds 4 1027 100 2800 2.6 180 01:36 11.11.2020
6491 Clouds 4 1027 100 2800 2.6 180 01:36 11.11.2020
6492 Clouds 4 1027 100 2800 2.6 180 00:56 11.11.2020
6493 Clouds 4 1027 100 1700 3.1 140 00:22 11.11.2020
6494 Fog 5 1027 93 800 3.6 160 23:36 10.11.2020
6495 Fog 5 1027 93 800 3.6 160 23:18 10.11.2020
6496 Fog 6 1027 93 800 2.1 130 22:43 10.11.2020
6497 Fog 6 1027 93 800 2.1 130 22:21 10.11.2020
6498 Fog 6 1027 100 800 2.6 170 21:41 10.11.2020
6499 Fog 6 1027 100 800 2.6 170 21:23 10.11.2020
6500 Fog 6 1027 100 800 2.6 170 20:55 10.11.2020
6501 Fog 6 1027 93 800 3.1 130 20:37 10.11.2020
6502 Fog 6 1027 93 800 3.1 130 20:19 10.11.2020
6503 Fog 6 1027 100 500 3.6 140 19:42 10.11.2020
6504 Fog 6 1027 100 500 3.6 140 19:23 10.11.2020
6505 Fog 6 1027 100 600 2.6 130 18:43 10.11.2020
6506 Fog 6 1027 100 600 2.6 130 18:24 10.11.2020
6507 Fog 6 1027 100 600 2.6 130 17:57 10.11.2020
6508 Mist 6 1026 100 1200 3.1 120 17:38 10.11.2020
6509 Mist 6 1026 100 1200 3.1 120 17:20 10.11.2020
6510 Mist 6 1026 93 1300 3.1 120 16:41 10.11.2020
6511 Mist 6 1026 93 1300 3.1 120 16:22 10.11.2020
6512 Mist 6 1027 93 1400 2.6 130 15:48 10.11.2020
6513 Mist 6 1027 93 1400 2.6 130 15:27 10.11.2020
6514 Mist 6 1027 93 1400 2.6 130 14:56 10.11.2020
6515 Mist 6 1027 100 1400 3.6 120 14:37 10.11.2020
6516 Mist 6 1027 100 1400 3.6 120 14:37 10.11.2020
6517 Mist 6 1027 100 1400 3.6 120 14:18 10.11.2020
6518 Mist 6 1027 100 1300 3.6 120 13:38 10.11.2020
6519 Mist 7 1027 100 1000 3.1 130 13:19 10.11.2020
6520 Fog 7 1027 93 900 3.1 110 12:46 10.11.2020
6521 Fog 7 1027 93 900 3.1 110 12:25 10.11.2020
6522 Fog 7 1027 93 500 3.6 140 11:43 10.11.2020
6523 Fog 6 1027 93 500 3.6 140 11:22 10.11.2020
6524 Fog 6 1027 93 500 3.6 140 10:57 10.11.2020
6525 Fog 6 1027 93 600 3.6 120 10:38 10.11.2020
6526 Fog 6 1027 93 600 3.6 120 10:20 10.11.2020
6527 Fog 5 1026 93 600 4.1 130 09:45 10.11.2020
6528 Fog 5 1026 93 600 4.1 130 09:25 10.11.2020
6529 Fog 5 1026 93 600 4.1 130 08:55 10.11.2020
6530 Fog 5 1026 100 600 2.6 120 08:27 10.11.2020
6531 Fog 5 1026 93 600 3.1 120 07:44 10.11.2020
6532 Fog 5 1026 93 600 3.1 120 07:24 10.11.2020
6533 Mist 5 1026 100 1500 2.6 110 06:41 10.11.2020
6534 Clouds 5 1026 100 1800 3.1 120 05:44 10.11.2020
6535 Clouds 5 1026 100 1800 3.1 120 04:59 10.11.2020
6536 Clouds 5 1026 100 1800 3.1 120 04:59 10.11.2020
6537 Clouds 6 1026 93 3700 3.1 120 02:37 10.11.2020
6538 Clouds 6 1026 93 3900 2.6 110 01:31 10.11.2020
6539 Clouds 5 1026 100 4300 3.1 130 23:57 09.11.2020
6540 Mist 5 1026 93 4000 3.6 110 23:36 09.11.2020
6541 Mist 5 1026 93 4000 3.6 110 22:49 09.11.2020
6542 Mist 5 1026 100 3500 3.6 110 22:25 09.11.2020
6543 Mist 5 1026 100 3500 3.6 110 21:59 09.11.2020
6544 Mist 5 1026 93 3500 2.1 120 21:38 09.11.2020
6545 Mist 5 1026 93 3500 2.1 120 21:19 09.11.2020
6546 Mist 5 1026 93 4000 3.6 120 20:39 09.11.2020
6547 Mist 5 1026 93 4000 3.6 120 20:20 09.11.2020
6548 Mist 6 1026 93 4000 4.1 110 19:42 09.11.2020
6549 Mist 6 1026 93 4000 4.1 110 19:22 09.11.2020
6550 Mist 6 1025 93 3500 3.1 130 18:42 09.11.2020
6551 Mist 6 1025 93 3500 3.1 130 18:20 09.11.2020
6552 Mist 6 1025 93 3500 3.1 130 17:56 09.11.2020
6553 Mist 6 1025 93 3500 2.6 110 17:38 09.11.2020
6554 Mist 6 1025 93 3500 2.6 110 17:20 09.11.2020
6555 Mist 6 1025 93 2500 3.6 100 16:37 09.11.2020
6556 Mist 6 1025 93 2500 3.6 100 16:18 09.11.2020
6557 Mist 6 1025 100 1500 3.6 100 15:42 09.11.2020
6558 Mist 6 1025 100 1500 3.6 100 15:23 09.11.2020
6559 Mist 6 1025 100 1000 4.1 120 14:44 09.11.2020
6560 Mist 6 1025 100 1000 4.1 120 14:26 09.11.2020
6561 Fog 6 1025 93 600 3.1 130 13:48 09.11.2020
6562 Fog 6 1025 93 600 3.1 130 13:20 09.11.2020
6563 Fog 6 1025 93 600 4.1 130 12:47 09.11.2020
6564 Fog 6 1025 93 600 4.1 130 12:26 09.11.2020
6565 Fog 6 1025 93 400 3.1 110 11:57 09.11.2020
6566 Fog 5 1025 100 300 3.6 120 11:39 09.11.2020
6567 Fog 5 1025 100 300 3.6 120 11:20 09.11.2020
6568 Fog 5 1025 100 300 2.6 130 10:42 09.11.2020
6569 Fog 5 1025 100 300 2.6 130 10:23 09.11.2020
6570 Fog 5 1025 100 300 3.1 120 09:45 09.11.2020
6571 Fog 5 1025 100 300 3.1 120 09:24 09.11.2020
6572 Fog 5 1024 100 300 3.1 120 08:44 09.11.2020
6573 Fog 5 1024 100 300 3.1 120 08:21 09.11.2020
6574 Fog 5 1024 100 800 3.1 110 07:41 09.11.2020
6575 Mist 5 1024 100 1000 4.6 120 07:21 09.11.2020
6576 Mist 6 1024 100 1000 3.6 110 06:42 09.11.2020
6577 Clear 5 1024 100 100 2.6 100 03:32 09.11.2020
6578 Clear 5 1024 93 50 3.1 90 01:55 09.11.2020
6579 Clear 5 1024 100 50 3.1 90 01:36 09.11.2020
6580 Clear 6 1024 93 50 3.1 100 23:55 08.11.2020
6581 Fog 6 1024 93 600 3.1 90 23:37 08.11.2020
6582 Fog 6 1024 93 600 3.1 90 23:18 08.11.2020
6583 Fog 6 1024 93 800 3.6 80 22:41 08.11.2020
6584 Fog 6 1024 100 6000 3.1 90 22:20 08.11.2020
6585 Clear 7 1024 93 10000 2.6 90 21:41 08.11.2020
6586 Clear 7 1024 93 10000 2.6 90 21:20 08.11.2020
6587 Clear 8 1024 87 10000 2.6 100 20:55 08.11.2020
6588 Clear 8 1024 87 10000 2.6 100 20:36 08.11.2020
6589 Clear 8 1024 87 10000 2.6 100 20:18 08.11.2020
6590 Clear 7 1024 100 10000 2.1 80 19:42 08.11.2020
6591 Clear 7 1024 100 10000 2.1 80 19:21 08.11.2020
6592 Clear 9 1023 87 8000 3.1 90 18:48 08.11.2020
6593 Clear 7 1024 100 10000 2.1 80 18:48 08.11.2020
6594 Clear 9 1023 87 8000 3.1 90 18:22 08.11.2020
6595 Clear 9 1023 87 8000 3.1 90 17:58 08.11.2020
6596 Clear 10 1023 81 10000 3.6 90 17:39 08.11.2020
6597 Clear 10 1023 81 10000 3.6 90 17:19 08.11.2020
6598 Clear 10 1023 81 10000 3.6 90 16:56 08.11.2020
6599 Clear 11 1023 81 10000 5.1 70 16:36 08.11.2020
6600 Clear 11 1023 81 10000 5.1 70 16:18 08.11.2020
6601 Clear 12 1023 71 10000 3.1 90 15:43 08.11.2020
6602 Clear 12 1023 71 10000 3.1 90 15:22 08.11.2020
6603 Clear 12 1023 71 10000 2.6 120 14:42 08.11.2020
6604 Clear 12 1023 71 10000 2.6 120 14:22 08.11.2020
6605 Clear 11 1023 76 10000 3.1 110 13:47 08.11.2020
6606 Clear 11 1023 76 10000 3.1 110 13:24 08.11.2020
6607 Clouds 10 1024 76 10000 3.1 110 12:47 08.11.2020
6608 Clouds 10 1024 76 10000 3.1 110 12:29 08.11.2020
6609 Clouds 10 1024 76 10000 3.1 110 11:58 08.11.2020
6610 Clouds 7 1024 93 9000 3.6 90 11:40 08.11.2020
6611 Clouds 7 1024 93 9000 3.6 90 11:21 08.11.2020
6612 Clouds 7 1024 93 9000 3.6 90 10:50 08.11.2020
6613 Clouds 5 1024 93 6000 3.1 80 10:20 08.11.2020
6614 Clouds 5 1024 93 6000 3.1 80 09:59 08.11.2020
6615 Mist 5 1024 93 4500 3.1 100 09:40 08.11.2020
6616 Mist 5 1024 93 4500 3.1 100 09:18 08.11.2020
6617 Mist 4 1024 100 3000 3.1 90 08:40 08.11.2020
6618 Fog 4 1024 100 3000 3.1 90 08:20 08.11.2020
6619 Fog 4 1024 100 3000 3.1 90 07:52 08.11.2020
6620 Fog 4 1024 100 3500 2.6 70 07:29 08.11.2020
6621 Mist 4 1024 100 4000 2.6 70 06:24 08.11.2020
6622 Mist 4 1023 100 5000 3.1 80 05:53 08.11.2020
6623 Clouds 3 1023 100 100 2.6 80 04:50 08.11.2020
6624 Clouds 5 1023 93 150 1.5 80 01:53 08.11.2020
6625 Clear 5 1024 93 250 2.1 80 01:19 08.11.2020
6626 Clear 5 1024 93 100 1.5 70 00:30 08.11.2020
6627 Clear 4 1024 93 10000 1 80 23:47 07.11.2020
6628 Clear 4 1024 93 10000 1 80 23:29 07.11.2020
6629 Clear 5 1024 93 10000 1.5 70 22:47 07.11.2020
6630 Clear 5 1024 93 10000 1.5 70 22:27 07.11.2020
6631 Clear 5 1024 93 10000 1.5 70 21:56 07.11.2020
6632 Clear 6 1024 93 10000 0.5 60 21:38 07.11.2020
6633 Clear 6 1024 93 10000 0.5 60 21:18 07.11.2020
6634 Clear 6 1024 93 10000 1 90 20:44 07.11.2020
6635 Clear 6 1024 93 10000 1 90 20:25 07.11.2020
6636 Clouds 6 1024 93 10000 0.29 170 19:45 07.11.2020
6637 Clouds 6 1024 93 10000 0.48 233 19:26 07.11.2020
6638 Clouds 7 1023 87 10000 0.5 0 18:43 07.11.2020
6639 Clouds 7 1023 87 10000 0.5 0 18:24 07.11.2020
6640 Clouds 9 1023 81 10000 1.5 140 17:47 07.11.2020
6641 Clouds 9 1023 81 10000 1.5 140 17:28 07.11.2020
6642 Clouds 12 1024 62 10000 1.5 260 16:46 07.11.2020
6643 Clouds 12 1024 62 10000 1.5 260 16:25 07.11.2020
6644 Clouds 12 1024 62 10000 1.5 260 15:57 07.11.2020
6645 Clouds 12 1024 66 10000 0.5 0 15:39 07.11.2020
6646 Clouds 12 1024 66 10000 0.5 0 15:19 07.11.2020
6647 Clouds 11 1024 66 10000 2.1 210 14:41 07.11.2020
6648 Clouds 11 1024 66 10000 2.1 210 14:41 07.11.2020
6649 Clouds 11 1024 66 10000 2.1 210 14:41 07.11.2020
6650 Clouds 11 1024 66 10000 2.1 210 14:21 07.11.2020
6651 Clouds 11 1024 66 10000 2.1 210 13:50 07.11.2020
6652 Clear 10 1024 66 10000 2.6 180 13:29 07.11.2020
6653 Clear 9 1025 70 10000 2.6 190 12:42 07.11.2020
6654 Clear 9 1025 70 10000 2.6 190 12:19 07.11.2020
6655 Clear 8 1025 75 10000 3.1 180 11:41 07.11.2020
6656 Clear 8 1025 75 10000 3.1 180 11:22 07.11.2020
6657 Clear 6 1025 93 8000 2.6 140 10:45 07.11.2020
6658 Clear 6 1025 93 8000 2.6 140 10:25 07.11.2020
6659 Clear 6 1025 93 8000 2.6 140 09:49 07.11.2020
6660 Clouds 5 1025 100 6000 3.1 140 09:26 07.11.2020
6661 Clouds 5 1025 100 6000 3.1 140 08:53 07.11.2020
6662 Mist 5 1025 100 4500 3.1 130 08:34 07.11.2020
6663 Clouds 6 1026 93 7000 3.1 130 07:49 07.11.2020
6664 Clouds 6 1026 93 7000 3.1 130 07:18 07.11.2020
6665 Clouds 7 1026 93 10000 4.6 130 06:47 07.11.2020
6666 Clouds 9 1027 87 7000 4.6 140 04:43 07.11.2020
6667 Clouds 9 1028 93 6000 3.6 130 03:23 07.11.2020
6668 Clouds 10 1029 87 5000 3.6 120 01:28 07.11.2020
6669 Clear 10 1029 93 6000 2.6 140 00:43 07.11.2020
6670 Clear 10 1029 93 6000 2.6 140 23:50 06.11.2020
6671 Clouds 10 1030 93 7000 2.6 140 23:20 06.11.2020
6672 Clouds 11 1030 87 7000 2.1 160 22:41 06.11.2020
6673 Clouds 11 1030 87 7000 2.1 160 22:19 06.11.2020
6674 Clouds 11 1031 87 7000 1 140 21:46 06.11.2020
6675 Clouds 11 1031 87 7000 1 140 21:21 06.11.2020
6676 Clouds 11 1031 87 7000 1 140 20:56 06.11.2020
6677 Clouds 11 1031 93 7000 1.5 150 20:38 06.11.2020
6678 Clouds 11 1031 93 8000 3.46 159 20:18 06.11.2020
6679 Clouds 10 1032 93 8000 0.5 190 19:44 06.11.2020
6680 Clouds 10 1032 93 8000 0.5 190 19:26 06.11.2020
6681 Clouds 10 1032 93 7000 0.5 340 18:45 06.11.2020
6682 Clouds 10 1032 93 7000 0.5 340 18:23 06.11.2020
6683 Clouds 11 1032 93 8000 1 260 17:51 06.11.2020
6684 Clouds 12 1032 87 9000 1 230 17:26 06.11.2020
6685 Clouds 12 1032 87 10000 1 240 16:50 06.11.2020
6686 Clouds 12 1032 87 10000 1 240 16:31 06.11.2020
6687 Clouds 12 1033 87 10000 1.5